<?xml version="1.0" encoding="UTF-8" standalone="no" ?>
<gpx xmlns="http://www.topografix.com/GPX/1/1" xmlns:xsi="http://www.w3.org/2001/XMLSchema-instance" xsi:schemaLocation="http://www.topografix.com/GPX/1/1 http://www.topografix.com/GPX/1/1/gpx.xsd" version="1.1" creator="VisuGPX - https://www.visugpx.com">
  <metadata>
    <name>Seul le dimanche 29 novembre 2020 (froid)</name>
    <desc><![CDATA[Un tour de 21 km pour aller voir l'étang de La Tuillière, principalement sur des routes goudronnées, en étant équipé "hivers". 
RAS (pas besoin de laver le vélo)]]></desc>
  </metadata>
  <wpt lat="47.64446" lon="6.18365">
    <ele>237.2</ele>
    <name><![CDATA[0000123]]></name>
    <type><![CDATA[Point de départ]]></type>
  </wpt>
  <wpt lat="47.64437" lon="6.18325">
    <ele>231</ele>
    <name><![CDATA[0000124]]></name>
    <type><![CDATA[Point d'arrivée]]></type>
  </wpt>
  <trk>
    <name><![CDATA[2020-11-29 15:11]]></name>
    <desc><![CDATA[<p>Heure de départ: 11/29/2020 15:11<br/>Heure d'arrivée: 11/29/2020 16:54<br/>Distance: 21,3 km (01:43)<br/>Temps déplacement: 01:37<br/>Vitesse moyenne: 12,37 km/h<br/>Vitesse moyenne mouv.: 13,15 km/h<br/>Vitesse Max.: 42,9 km/h<br/>Altitude minimale: 170 m<br/>Altitude maximale: 266 m<br/>Vitesse de montée: 292,2 m/h<br/>Vitesse de descente: -286,1 m/h<br/>Gain d'altitude: 226 m<br/>Perte d'altitude: -213 m<br/>Temps de montée: 00:46<br/>Temps de descente: 00:44<br/></p><hr align="center" width="480" style="height: 2px; width: 517px"/>]]></desc>
    <trkseg>
      <trkpt lat="47.64446" lon="6.18365">
        <ele>237.2</ele>
        <time>2020-11-29T14:11:38Z</time>
      </trkpt>
      <trkpt lat="47.64445" lon="6.18341">
        <ele>234.2</ele>
        <time>2020-11-29T14:11:40Z</time>
      </trkpt>
      <trkpt lat="47.64444" lon="6.18328">
        <ele>232.7</ele>
        <time>2020-11-29T14:11:41Z</time>
      </trkpt>
      <trkpt lat="47.6444" lon="6.18293">
        <ele>228.6</ele>
        <time>2020-11-29T14:11:42Z</time>
      </trkpt>
      <trkpt lat="47.64443" lon="6.18299">
        <ele>229.6</ele>
        <time>2020-11-29T14:11:43Z</time>
      </trkpt>
      <trkpt lat="47.64447" lon="6.18303">
        <ele>230.8</ele>
        <time>2020-11-29T14:11:49Z</time>
      </trkpt>
      <trkpt lat="47.6445" lon="6.18309">
        <ele>231.9</ele>
        <time>2020-11-29T14:11:53Z</time>
      </trkpt>
      <trkpt lat="47.6445" lon="6.18301">
        <ele>231</ele>
        <time>2020-11-29T14:12:01Z</time>
      </trkpt>
      <trkpt lat="47.64449" lon="6.18294">
        <ele>230.1</ele>
        <time>2020-11-29T14:12:05Z</time>
      </trkpt>
      <trkpt lat="47.64453" lon="6.18288">
        <ele>230.1</ele>
        <time>2020-11-29T14:12:08Z</time>
      </trkpt>
      <trkpt lat="47.64457" lon="6.18283">
        <ele>230</ele>
        <time>2020-11-29T14:12:10Z</time>
      </trkpt>
      <trkpt lat="47.64461" lon="6.18278">
        <ele>230</ele>
        <time>2020-11-29T14:12:12Z</time>
      </trkpt>
      <trkpt lat="47.64464" lon="6.18273">
        <ele>229.8</ele>
        <time>2020-11-29T14:12:14Z</time>
      </trkpt>
      <trkpt lat="47.64467" lon="6.18268">
        <ele>229.7</ele>
        <time>2020-11-29T14:12:16Z</time>
      </trkpt>
      <trkpt lat="47.64471" lon="6.18264">
        <ele>229.6</ele>
        <time>2020-11-29T14:12:18Z</time>
      </trkpt>
      <trkpt lat="47.64474" lon="6.18259">
        <ele>229.3</ele>
        <time>2020-11-29T14:12:20Z</time>
      </trkpt>
      <trkpt lat="47.64478" lon="6.18252">
        <ele>228.9</ele>
        <time>2020-11-29T14:12:22Z</time>
      </trkpt>
      <trkpt lat="47.64481" lon="6.18246">
        <ele>228.7</ele>
        <time>2020-11-29T14:12:24Z</time>
      </trkpt>
      <trkpt lat="47.64484" lon="6.18239">
        <ele>228.7</ele>
        <time>2020-11-29T14:12:25Z</time>
      </trkpt>
      <trkpt lat="47.64488" lon="6.18229">
        <ele>228.4</ele>
        <time>2020-11-29T14:12:27Z</time>
      </trkpt>
      <trkpt lat="47.64492" lon="6.18219">
        <ele>228.1</ele>
        <time>2020-11-29T14:12:29Z</time>
      </trkpt>
      <trkpt lat="47.64495" lon="6.18209">
        <ele>227.7</ele>
        <time>2020-11-29T14:12:31Z</time>
      </trkpt>
      <trkpt lat="47.64498" lon="6.18199">
        <ele>227.2</ele>
        <time>2020-11-29T14:12:33Z</time>
      </trkpt>
      <trkpt lat="47.645" lon="6.18191">
        <ele>226.7</ele>
        <time>2020-11-29T14:12:36Z</time>
      </trkpt>
      <trkpt lat="47.64501" lon="6.18176">
        <ele>225.8</ele>
        <time>2020-11-29T14:12:38Z</time>
      </trkpt>
      <trkpt lat="47.64499" lon="6.18165">
        <ele>224.9</ele>
        <time>2020-11-29T14:12:39Z</time>
      </trkpt>
      <trkpt lat="47.64498" lon="6.18158">
        <ele>224.7</ele>
        <time>2020-11-29T14:12:41Z</time>
      </trkpt>
      <trkpt lat="47.64495" lon="6.18147">
        <ele>224.4</ele>
        <time>2020-11-29T14:12:43Z</time>
      </trkpt>
      <trkpt lat="47.64494" lon="6.18128">
        <ele>224</ele>
        <time>2020-11-29T14:12:46Z</time>
      </trkpt>
      <trkpt lat="47.64496" lon="6.1811">
        <ele>223.6</ele>
        <time>2020-11-29T14:12:49Z</time>
      </trkpt>
      <trkpt lat="47.64498" lon="6.18101">
        <ele>223.4</ele>
        <time>2020-11-29T14:12:50Z</time>
      </trkpt>
      <trkpt lat="47.645" lon="6.18092">
        <ele>223.2</ele>
        <time>2020-11-29T14:12:51Z</time>
      </trkpt>
      <trkpt lat="47.64502" lon="6.18081">
        <ele>223.4</ele>
        <time>2020-11-29T14:12:53Z</time>
      </trkpt>
      <trkpt lat="47.64504" lon="6.18074">
        <ele>223.7</ele>
        <time>2020-11-29T14:12:55Z</time>
      </trkpt>
      <trkpt lat="47.64505" lon="6.18067">
        <ele>224</ele>
        <time>2020-11-29T14:12:56Z</time>
      </trkpt>
      <trkpt lat="47.64509" lon="6.18056">
        <ele>224.5</ele>
        <time>2020-11-29T14:13:00Z</time>
      </trkpt>
      <trkpt lat="47.64512" lon="6.18048">
        <ele>225</ele>
        <time>2020-11-29T14:13:01Z</time>
      </trkpt>
      <trkpt lat="47.64516" lon="6.18042">
        <ele>225.5</ele>
        <time>2020-11-29T14:13:04Z</time>
      </trkpt>
      <trkpt lat="47.6452" lon="6.18036">
        <ele>226.2</ele>
        <time>2020-11-29T14:13:05Z</time>
      </trkpt>
      <trkpt lat="47.64525" lon="6.18031">
        <ele>226.8</ele>
        <time>2020-11-29T14:13:07Z</time>
      </trkpt>
      <trkpt lat="47.64529" lon="6.18028">
        <ele>227.3</ele>
        <time>2020-11-29T14:13:10Z</time>
      </trkpt>
      <trkpt lat="47.64534" lon="6.18023">
        <ele>227.8</ele>
        <time>2020-11-29T14:13:12Z</time>
      </trkpt>
      <trkpt lat="47.64537" lon="6.18018">
        <ele>228.1</ele>
        <time>2020-11-29T14:13:14Z</time>
      </trkpt>
      <trkpt lat="47.6454" lon="6.18009">
        <ele>228.2</ele>
        <time>2020-11-29T14:13:16Z</time>
      </trkpt>
      <trkpt lat="47.64542" lon="6.18003">
        <ele>228.2</ele>
        <time>2020-11-29T14:13:18Z</time>
      </trkpt>
      <trkpt lat="47.64544" lon="6.17995">
        <ele>227.9</ele>
        <time>2020-11-29T14:13:21Z</time>
      </trkpt>
      <trkpt lat="47.64546" lon="6.17987">
        <ele>227.7</ele>
        <time>2020-11-29T14:13:23Z</time>
      </trkpt>
      <trkpt lat="47.64552" lon="6.17973">
        <ele>227.3</ele>
        <time>2020-11-29T14:13:26Z</time>
      </trkpt>
      <trkpt lat="47.64554" lon="6.17967">
        <ele>227</ele>
        <time>2020-11-29T14:13:27Z</time>
      </trkpt>
      <trkpt lat="47.64556" lon="6.17961">
        <ele>226.7</ele>
        <time>2020-11-29T14:13:28Z</time>
      </trkpt>
      <trkpt lat="47.64561" lon="6.17945">
        <ele>225.8</ele>
        <time>2020-11-29T14:13:30Z</time>
      </trkpt>
      <trkpt lat="47.64563" lon="6.17939">
        <ele>225.4</ele>
        <time>2020-11-29T14:13:30Z</time>
      </trkpt>
      <trkpt lat="47.64571" lon="6.17918">
        <ele>223.9</ele>
        <time>2020-11-29T14:13:31Z</time>
      </trkpt>
      <trkpt lat="47.64577" lon="6.17911">
        <ele>223.9</ele>
        <time>2020-11-29T14:13:32Z</time>
      </trkpt>
      <trkpt lat="47.64582" lon="6.17904">
        <ele>224.1</ele>
        <time>2020-11-29T14:13:33Z</time>
      </trkpt>
      <trkpt lat="47.64588" lon="6.17897">
        <ele>224.1</ele>
        <time>2020-11-29T14:13:34Z</time>
      </trkpt>
      <trkpt lat="47.64593" lon="6.1789">
        <ele>224</ele>
        <time>2020-11-29T14:13:35Z</time>
      </trkpt>
      <trkpt lat="47.64599" lon="6.17884">
        <ele>223.9</ele>
        <time>2020-11-29T14:13:36Z</time>
      </trkpt>
      <trkpt lat="47.64605" lon="6.17879">
        <ele>223.7</ele>
        <time>2020-11-29T14:13:37Z</time>
      </trkpt>
      <trkpt lat="47.64611" lon="6.17876">
        <ele>223.5</ele>
        <time>2020-11-29T14:13:38Z</time>
      </trkpt>
      <trkpt lat="47.64617" lon="6.17875">
        <ele>223.3</ele>
        <time>2020-11-29T14:13:39Z</time>
      </trkpt>
      <trkpt lat="47.64622" lon="6.17876">
        <ele>223.1</ele>
        <time>2020-11-29T14:13:40Z</time>
      </trkpt>
      <trkpt lat="47.64628" lon="6.17879">
        <ele>222.9</ele>
        <time>2020-11-29T14:13:41Z</time>
      </trkpt>
      <trkpt lat="47.64633" lon="6.17882">
        <ele>222.7</ele>
        <time>2020-11-29T14:13:42Z</time>
      </trkpt>
      <trkpt lat="47.64639" lon="6.17886">
        <ele>222.6</ele>
        <time>2020-11-29T14:13:43Z</time>
      </trkpt>
      <trkpt lat="47.64644" lon="6.1789">
        <ele>222.4</ele>
        <time>2020-11-29T14:13:44Z</time>
      </trkpt>
      <trkpt lat="47.64649" lon="6.17894">
        <ele>222.3</ele>
        <time>2020-11-29T14:13:45Z</time>
      </trkpt>
      <trkpt lat="47.64654" lon="6.17897">
        <ele>222.1</ele>
        <time>2020-11-29T14:13:46Z</time>
      </trkpt>
      <trkpt lat="47.64659" lon="6.17901">
        <ele>222</ele>
        <time>2020-11-29T14:13:47Z</time>
      </trkpt>
      <trkpt lat="47.64664" lon="6.17904">
        <ele>221.9</ele>
        <time>2020-11-29T14:13:48Z</time>
      </trkpt>
      <trkpt lat="47.64668" lon="6.17907">
        <ele>221.8</ele>
        <time>2020-11-29T14:13:49Z</time>
      </trkpt>
      <trkpt lat="47.64672" lon="6.1791">
        <ele>221.7</ele>
        <time>2020-11-29T14:13:50Z</time>
      </trkpt>
      <trkpt lat="47.6468" lon="6.17916">
        <ele>221.5</ele>
        <time>2020-11-29T14:13:52Z</time>
      </trkpt>
      <trkpt lat="47.64687" lon="6.17923">
        <ele>222.1</ele>
        <time>2020-11-29T14:13:54Z</time>
      </trkpt>
      <trkpt lat="47.64691" lon="6.17931">
        <ele>222.9</ele>
        <time>2020-11-29T14:13:56Z</time>
      </trkpt>
      <trkpt lat="47.64695" lon="6.17937">
        <ele>223.3</ele>
        <time>2020-11-29T14:13:58Z</time>
      </trkpt>
      <trkpt lat="47.64701" lon="6.17943">
        <ele>223.5</ele>
        <time>2020-11-29T14:14:00Z</time>
      </trkpt>
      <trkpt lat="47.64711" lon="6.17956">
        <ele>223.8</ele>
        <time>2020-11-29T14:14:02Z</time>
      </trkpt>
      <trkpt lat="47.64716" lon="6.17963">
        <ele>223.9</ele>
        <time>2020-11-29T14:14:05Z</time>
      </trkpt>
      <trkpt lat="47.64722" lon="6.17974">
        <ele>223.9</ele>
        <time>2020-11-29T14:14:06Z</time>
      </trkpt>
      <trkpt lat="47.64727" lon="6.17982">
        <ele>223.8</ele>
        <time>2020-11-29T14:14:09Z</time>
      </trkpt>
      <trkpt lat="47.64732" lon="6.17991">
        <ele>223.5</ele>
        <time>2020-11-29T14:14:11Z</time>
      </trkpt>
      <trkpt lat="47.64738" lon="6.17999">
        <ele>223.1</ele>
        <time>2020-11-29T14:14:13Z</time>
      </trkpt>
      <trkpt lat="47.64742" lon="6.18006">
        <ele>223.5</ele>
        <time>2020-11-29T14:14:14Z</time>
      </trkpt>
      <trkpt lat="47.64745" lon="6.18012">
        <ele>224</ele>
        <time>2020-11-29T14:14:16Z</time>
      </trkpt>
      <trkpt lat="47.64751" lon="6.18021">
        <ele>224.7</ele>
        <time>2020-11-29T14:14:17Z</time>
      </trkpt>
      <trkpt lat="47.64755" lon="6.18027">
        <ele>225.7</ele>
        <time>2020-11-29T14:14:19Z</time>
      </trkpt>
      <trkpt lat="47.64761" lon="6.18036">
        <ele>227</ele>
        <time>2020-11-29T14:14:21Z</time>
      </trkpt>
      <trkpt lat="47.64767" lon="6.18043">
        <ele>227.8</ele>
        <time>2020-11-29T14:14:24Z</time>
      </trkpt>
      <trkpt lat="47.64773" lon="6.18051">
        <ele>228.5</ele>
        <time>2020-11-29T14:14:25Z</time>
      </trkpt>
      <trkpt lat="47.64779" lon="6.18057">
        <ele>228.8</ele>
        <time>2020-11-29T14:14:27Z</time>
      </trkpt>
      <trkpt lat="47.64787" lon="6.18062">
        <ele>228.8</ele>
        <time>2020-11-29T14:14:29Z</time>
      </trkpt>
      <trkpt lat="47.64794" lon="6.18066">
        <ele>228.5</ele>
        <time>2020-11-29T14:14:32Z</time>
      </trkpt>
      <trkpt lat="47.64799" lon="6.18068">
        <ele>228.2</ele>
        <time>2020-11-29T14:14:33Z</time>
      </trkpt>
      <trkpt lat="47.64805" lon="6.1807">
        <ele>227.7</ele>
        <time>2020-11-29T14:14:35Z</time>
      </trkpt>
      <trkpt lat="47.64811" lon="6.18072">
        <ele>227.2</ele>
        <time>2020-11-29T14:14:36Z</time>
      </trkpt>
      <trkpt lat="47.64818" lon="6.18074">
        <ele>226.5</ele>
        <time>2020-11-29T14:14:38Z</time>
      </trkpt>
      <trkpt lat="47.64824" lon="6.18075">
        <ele>225.9</ele>
        <time>2020-11-29T14:14:40Z</time>
      </trkpt>
      <trkpt lat="47.64831" lon="6.18075">
        <ele>225.1</ele>
        <time>2020-11-29T14:14:41Z</time>
      </trkpt>
      <trkpt lat="47.64838" lon="6.18076">
        <ele>224.9</ele>
        <time>2020-11-29T14:14:43Z</time>
      </trkpt>
      <trkpt lat="47.64844" lon="6.18077">
        <ele>225.1</ele>
        <time>2020-11-29T14:14:46Z</time>
      </trkpt>
      <trkpt lat="47.6485" lon="6.18079">
        <ele>225.3</ele>
        <time>2020-11-29T14:14:47Z</time>
      </trkpt>
      <trkpt lat="47.64855" lon="6.1808">
        <ele>225.5</ele>
        <time>2020-11-29T14:14:49Z</time>
      </trkpt>
      <trkpt lat="47.64859" lon="6.18081">
        <ele>225.6</ele>
        <time>2020-11-29T14:14:52Z</time>
      </trkpt>
      <trkpt lat="47.64865" lon="6.18083">
        <ele>225.7</ele>
        <time>2020-11-29T14:14:54Z</time>
      </trkpt>
      <trkpt lat="47.64872" lon="6.18085">
        <ele>226.1</ele>
        <time>2020-11-29T14:14:55Z</time>
      </trkpt>
      <trkpt lat="47.64877" lon="6.18086">
        <ele>226.3</ele>
        <time>2020-11-29T14:14:57Z</time>
      </trkpt>
      <trkpt lat="47.64882" lon="6.18087">
        <ele>226.7</ele>
        <time>2020-11-29T14:14:59Z</time>
      </trkpt>
      <trkpt lat="47.64888" lon="6.18089">
        <ele>227</ele>
        <time>2020-11-29T14:15:01Z</time>
      </trkpt>
      <trkpt lat="47.64896" lon="6.1809">
        <ele>227.3</ele>
        <time>2020-11-29T14:15:03Z</time>
      </trkpt>
      <trkpt lat="47.64904" lon="6.18091">
        <ele>227.6</ele>
        <time>2020-11-29T14:15:04Z</time>
      </trkpt>
      <trkpt lat="47.64911" lon="6.18093">
        <ele>227.9</ele>
        <time>2020-11-29T14:15:07Z</time>
      </trkpt>
      <trkpt lat="47.64919" lon="6.18094">
        <ele>228.2</ele>
        <time>2020-11-29T14:15:09Z</time>
      </trkpt>
      <trkpt lat="47.64927" lon="6.18095">
        <ele>228.7</ele>
        <time>2020-11-29T14:15:10Z</time>
      </trkpt>
      <trkpt lat="47.64934" lon="6.18097">
        <ele>229.2</ele>
        <time>2020-11-29T14:15:12Z</time>
      </trkpt>
      <trkpt lat="47.64941" lon="6.18098">
        <ele>229.6</ele>
        <time>2020-11-29T14:15:14Z</time>
      </trkpt>
      <trkpt lat="47.64946" lon="6.18098">
        <ele>229.9</ele>
        <time>2020-11-29T14:15:16Z</time>
      </trkpt>
      <trkpt lat="47.64953" lon="6.18099">
        <ele>230.2</ele>
        <time>2020-11-29T14:15:18Z</time>
      </trkpt>
      <trkpt lat="47.64958" lon="6.18099">
        <ele>230.4</ele>
        <time>2020-11-29T14:15:19Z</time>
      </trkpt>
      <trkpt lat="47.64963" lon="6.18098">
        <ele>230.5</ele>
        <time>2020-11-29T14:15:21Z</time>
      </trkpt>
      <trkpt lat="47.64969" lon="6.18096">
        <ele>230.5</ele>
        <time>2020-11-29T14:15:23Z</time>
      </trkpt>
      <trkpt lat="47.64975" lon="6.18095">
        <ele>230.6</ele>
        <time>2020-11-29T14:15:25Z</time>
      </trkpt>
      <trkpt lat="47.64981" lon="6.18094">
        <ele>230.7</ele>
        <time>2020-11-29T14:15:26Z</time>
      </trkpt>
      <trkpt lat="47.6499" lon="6.18092">
        <ele>230.9</ele>
        <time>2020-11-29T14:15:28Z</time>
      </trkpt>
      <trkpt lat="47.64998" lon="6.18091">
        <ele>231</ele>
        <time>2020-11-29T14:15:30Z</time>
      </trkpt>
      <trkpt lat="47.65007" lon="6.1809">
        <ele>231.1</ele>
        <time>2020-11-29T14:15:32Z</time>
      </trkpt>
      <trkpt lat="47.65014" lon="6.1809">
        <ele>231.2</ele>
        <time>2020-11-29T14:15:34Z</time>
      </trkpt>
      <trkpt lat="47.65022" lon="6.1809">
        <ele>231.3</ele>
        <time>2020-11-29T14:15:36Z</time>
      </trkpt>
      <trkpt lat="47.65028" lon="6.1809">
        <ele>231.3</ele>
        <time>2020-11-29T14:15:37Z</time>
      </trkpt>
      <trkpt lat="47.65036" lon="6.1809">
        <ele>231.5</ele>
        <time>2020-11-29T14:15:39Z</time>
      </trkpt>
      <trkpt lat="47.65043" lon="6.1809">
        <ele>231.7</ele>
        <time>2020-11-29T14:15:41Z</time>
      </trkpt>
      <trkpt lat="47.6505" lon="6.1809">
        <ele>231.8</ele>
        <time>2020-11-29T14:15:43Z</time>
      </trkpt>
      <trkpt lat="47.65059" lon="6.18091">
        <ele>232</ele>
        <time>2020-11-29T14:15:45Z</time>
      </trkpt>
      <trkpt lat="47.65064" lon="6.18092">
        <ele>232.3</ele>
        <time>2020-11-29T14:15:47Z</time>
      </trkpt>
      <trkpt lat="47.6507" lon="6.18093">
        <ele>232.7</ele>
        <time>2020-11-29T14:15:48Z</time>
      </trkpt>
      <trkpt lat="47.65077" lon="6.18096">
        <ele>233.3</ele>
        <time>2020-11-29T14:15:50Z</time>
      </trkpt>
      <trkpt lat="47.65085" lon="6.18098">
        <ele>233.9</ele>
        <time>2020-11-29T14:15:52Z</time>
      </trkpt>
      <trkpt lat="47.65092" lon="6.181">
        <ele>234.4</ele>
        <time>2020-11-29T14:15:55Z</time>
      </trkpt>
      <trkpt lat="47.65103" lon="6.181">
        <ele>234.8</ele>
        <time>2020-11-29T14:15:58Z</time>
      </trkpt>
      <trkpt lat="47.65116" lon="6.18097">
        <ele>234.7</ele>
        <time>2020-11-29T14:16:00Z</time>
      </trkpt>
      <trkpt lat="47.65124" lon="6.18094">
        <ele>234.5</ele>
        <time>2020-11-29T14:16:02Z</time>
      </trkpt>
      <trkpt lat="47.65129" lon="6.18092">
        <ele>234.3</ele>
        <time>2020-11-29T14:16:04Z</time>
      </trkpt>
      <trkpt lat="47.65135" lon="6.1809">
        <ele>234</ele>
        <time>2020-11-29T14:16:05Z</time>
      </trkpt>
      <trkpt lat="47.65141" lon="6.18086">
        <ele>233.5</ele>
        <time>2020-11-29T14:16:08Z</time>
      </trkpt>
      <trkpt lat="47.65148" lon="6.18078">
        <ele>232.9</ele>
        <time>2020-11-29T14:16:09Z</time>
      </trkpt>
      <trkpt lat="47.65154" lon="6.18073">
        <ele>232.5</ele>
        <time>2020-11-29T14:16:11Z</time>
      </trkpt>
      <trkpt lat="47.65159" lon="6.18068">
        <ele>232</ele>
        <time>2020-11-29T14:16:12Z</time>
      </trkpt>
      <trkpt lat="47.65165" lon="6.1806">
        <ele>231.2</ele>
        <time>2020-11-29T14:16:14Z</time>
      </trkpt>
      <trkpt lat="47.65169" lon="6.18052">
        <ele>230.5</ele>
        <time>2020-11-29T14:16:16Z</time>
      </trkpt>
      <trkpt lat="47.65174" lon="6.18044">
        <ele>229.8</ele>
        <time>2020-11-29T14:16:18Z</time>
      </trkpt>
      <trkpt lat="47.65178" lon="6.18036">
        <ele>229.2</ele>
        <time>2020-11-29T14:16:20Z</time>
      </trkpt>
      <trkpt lat="47.65182" lon="6.18029">
        <ele>228.6</ele>
        <time>2020-11-29T14:16:22Z</time>
      </trkpt>
      <trkpt lat="47.65187" lon="6.18018">
        <ele>227.5</ele>
        <time>2020-11-29T14:16:25Z</time>
      </trkpt>
      <trkpt lat="47.65191" lon="6.1801">
        <ele>226.7</ele>
        <time>2020-11-29T14:16:27Z</time>
      </trkpt>
      <trkpt lat="47.65195" lon="6.18003">
        <ele>226.1</ele>
        <time>2020-11-29T14:16:30Z</time>
      </trkpt>
      <trkpt lat="47.65199" lon="6.17998">
        <ele>225.9</ele>
        <time>2020-11-29T14:16:31Z</time>
      </trkpt>
      <trkpt lat="47.65205" lon="6.17992">
        <ele>226.2</ele>
        <time>2020-11-29T14:16:34Z</time>
      </trkpt>
      <trkpt lat="47.6521" lon="6.17987">
        <ele>226.4</ele>
        <time>2020-11-29T14:16:37Z</time>
      </trkpt>
      <trkpt lat="47.65215" lon="6.17981">
        <ele>226.6</ele>
        <time>2020-11-29T14:16:38Z</time>
      </trkpt>
      <trkpt lat="47.6522" lon="6.17979">
        <ele>226.7</ele>
        <time>2020-11-29T14:16:41Z</time>
      </trkpt>
      <trkpt lat="47.65227" lon="6.17975">
        <ele>226.9</ele>
        <time>2020-11-29T14:16:42Z</time>
      </trkpt>
      <trkpt lat="47.65232" lon="6.17973">
        <ele>227</ele>
        <time>2020-11-29T14:16:45Z</time>
      </trkpt>
      <trkpt lat="47.6524" lon="6.17972">
        <ele>227.3</ele>
        <time>2020-11-29T14:16:46Z</time>
      </trkpt>
      <trkpt lat="47.65245" lon="6.17972">
        <ele>227.5</ele>
        <time>2020-11-29T14:16:48Z</time>
      </trkpt>
      <trkpt lat="47.6525" lon="6.17973">
        <ele>227.7</ele>
        <time>2020-11-29T14:16:49Z</time>
      </trkpt>
      <trkpt lat="47.65258" lon="6.17977">
        <ele>227.5</ele>
        <time>2020-11-29T14:16:51Z</time>
      </trkpt>
      <trkpt lat="47.65265" lon="6.17982">
        <ele>227.5</ele>
        <time>2020-11-29T14:16:54Z</time>
      </trkpt>
      <trkpt lat="47.65275" lon="6.17993">
        <ele>227.3</ele>
        <time>2020-11-29T14:16:57Z</time>
      </trkpt>
      <trkpt lat="47.65281" lon="6.18002">
        <ele>227.3</ele>
        <time>2020-11-29T14:16:59Z</time>
      </trkpt>
      <trkpt lat="47.65288" lon="6.18014">
        <ele>228</ele>
        <time>2020-11-29T14:17:00Z</time>
      </trkpt>
      <trkpt lat="47.65292" lon="6.18022">
        <ele>228.4</ele>
        <time>2020-11-29T14:17:02Z</time>
      </trkpt>
      <trkpt lat="47.65295" lon="6.18029">
        <ele>228.8</ele>
        <time>2020-11-29T14:17:04Z</time>
      </trkpt>
      <trkpt lat="47.65297" lon="6.18035">
        <ele>229.1</ele>
        <time>2020-11-29T14:17:05Z</time>
      </trkpt>
      <trkpt lat="47.65299" lon="6.18042">
        <ele>229.3</ele>
        <time>2020-11-29T14:17:06Z</time>
      </trkpt>
      <trkpt lat="47.65303" lon="6.18059">
        <ele>230.1</ele>
        <time>2020-11-29T14:17:09Z</time>
      </trkpt>
      <trkpt lat="47.65306" lon="6.18079">
        <ele>230.9</ele>
        <time>2020-11-29T14:17:11Z</time>
      </trkpt>
      <trkpt lat="47.65308" lon="6.18091">
        <ele>231.5</ele>
        <time>2020-11-29T14:17:13Z</time>
      </trkpt>
      <trkpt lat="47.6531" lon="6.18102">
        <ele>231.8</ele>
        <time>2020-11-29T14:17:15Z</time>
      </trkpt>
      <trkpt lat="47.65311" lon="6.18113">
        <ele>232.1</ele>
        <time>2020-11-29T14:17:17Z</time>
      </trkpt>
      <trkpt lat="47.65313" lon="6.18124">
        <ele>232.3</ele>
        <time>2020-11-29T14:17:19Z</time>
      </trkpt>
      <trkpt lat="47.65316" lon="6.18133">
        <ele>232.3</ele>
        <time>2020-11-29T14:17:21Z</time>
      </trkpt>
      <trkpt lat="47.65319" lon="6.18143">
        <ele>232.2</ele>
        <time>2020-11-29T14:17:23Z</time>
      </trkpt>
      <trkpt lat="47.65323" lon="6.18153">
        <ele>231.9</ele>
        <time>2020-11-29T14:17:25Z</time>
      </trkpt>
      <trkpt lat="47.65327" lon="6.18161">
        <ele>231.3</ele>
        <time>2020-11-29T14:17:28Z</time>
      </trkpt>
      <trkpt lat="47.65331" lon="6.18168">
        <ele>230.8</ele>
        <time>2020-11-29T14:17:29Z</time>
      </trkpt>
      <trkpt lat="47.65335" lon="6.18175">
        <ele>231.1</ele>
        <time>2020-11-29T14:17:31Z</time>
      </trkpt>
      <trkpt lat="47.65338" lon="6.1818">
        <ele>231.7</ele>
        <time>2020-11-29T14:17:33Z</time>
      </trkpt>
      <trkpt lat="47.65342" lon="6.18187">
        <ele>232.1</ele>
        <time>2020-11-29T14:17:35Z</time>
      </trkpt>
      <trkpt lat="47.65349" lon="6.18196">
        <ele>232.8</ele>
        <time>2020-11-29T14:17:37Z</time>
      </trkpt>
      <trkpt lat="47.65354" lon="6.18201">
        <ele>232.9</ele>
        <time>2020-11-29T14:17:38Z</time>
      </trkpt>
      <trkpt lat="47.6536" lon="6.18208">
        <ele>233</ele>
        <time>2020-11-29T14:17:40Z</time>
      </trkpt>
      <trkpt lat="47.65365" lon="6.18212">
        <ele>233</ele>
        <time>2020-11-29T14:17:42Z</time>
      </trkpt>
      <trkpt lat="47.65369" lon="6.18217">
        <ele>233</ele>
        <time>2020-11-29T14:17:43Z</time>
      </trkpt>
      <trkpt lat="47.65376" lon="6.18222">
        <ele>232.7</ele>
        <time>2020-11-29T14:17:45Z</time>
      </trkpt>
      <trkpt lat="47.65382" lon="6.18226">
        <ele>232.4</ele>
        <time>2020-11-29T14:17:48Z</time>
      </trkpt>
      <trkpt lat="47.65388" lon="6.18231">
        <ele>231.9</ele>
        <time>2020-11-29T14:17:49Z</time>
      </trkpt>
      <trkpt lat="47.65392" lon="6.18234">
        <ele>231.7</ele>
        <time>2020-11-29T14:17:51Z</time>
      </trkpt>
      <trkpt lat="47.65399" lon="6.18239">
        <ele>231</ele>
        <time>2020-11-29T14:17:52Z</time>
      </trkpt>
      <trkpt lat="47.65404" lon="6.18244">
        <ele>230.5</ele>
        <time>2020-11-29T14:17:54Z</time>
      </trkpt>
      <trkpt lat="47.65411" lon="6.18249">
        <ele>229.8</ele>
        <time>2020-11-29T14:17:56Z</time>
      </trkpt>
      <trkpt lat="47.65416" lon="6.18252">
        <ele>229.6</ele>
        <time>2020-11-29T14:17:58Z</time>
      </trkpt>
      <trkpt lat="47.65422" lon="6.18255">
        <ele>230.4</ele>
        <time>2020-11-29T14:18:00Z</time>
      </trkpt>
      <trkpt lat="47.65428" lon="6.18258">
        <ele>231.2</ele>
        <time>2020-11-29T14:18:02Z</time>
      </trkpt>
      <trkpt lat="47.65434" lon="6.18261">
        <ele>232</ele>
        <time>2020-11-29T14:18:04Z</time>
      </trkpt>
      <trkpt lat="47.65441" lon="6.18262">
        <ele>232.7</ele>
        <time>2020-11-29T14:18:07Z</time>
      </trkpt>
      <trkpt lat="47.65446" lon="6.18264">
        <ele>233.3</ele>
        <time>2020-11-29T14:18:09Z</time>
      </trkpt>
      <trkpt lat="47.65452" lon="6.18267">
        <ele>234.2</ele>
        <time>2020-11-29T14:18:13Z</time>
      </trkpt>
      <trkpt lat="47.65458" lon="6.18267">
        <ele>234.4</ele>
        <time>2020-11-29T14:18:14Z</time>
      </trkpt>
      <trkpt lat="47.65462" lon="6.18268">
        <ele>234.7</ele>
        <time>2020-11-29T14:18:16Z</time>
      </trkpt>
      <trkpt lat="47.65467" lon="6.18268">
        <ele>234.8</ele>
        <time>2020-11-29T14:18:18Z</time>
      </trkpt>
      <trkpt lat="47.65472" lon="6.18268">
        <ele>235</ele>
        <time>2020-11-29T14:18:21Z</time>
      </trkpt>
      <trkpt lat="47.65478" lon="6.18266">
        <ele>235</ele>
        <time>2020-11-29T14:18:24Z</time>
      </trkpt>
      <trkpt lat="47.65483" lon="6.18266">
        <ele>235.1</ele>
        <time>2020-11-29T14:18:27Z</time>
      </trkpt>
      <trkpt lat="47.65489" lon="6.18265">
        <ele>235.1</ele>
        <time>2020-11-29T14:18:30Z</time>
      </trkpt>
      <trkpt lat="47.65495" lon="6.18263">
        <ele>234.8</ele>
        <time>2020-11-29T14:18:33Z</time>
      </trkpt>
      <trkpt lat="47.655" lon="6.18261">
        <ele>234.5</ele>
        <time>2020-11-29T14:18:35Z</time>
      </trkpt>
      <trkpt lat="47.65506" lon="6.18259">
        <ele>234.6</ele>
        <time>2020-11-29T14:18:38Z</time>
      </trkpt>
      <trkpt lat="47.65511" lon="6.18257">
        <ele>234.7</ele>
        <time>2020-11-29T14:18:40Z</time>
      </trkpt>
      <trkpt lat="47.65517" lon="6.18254">
        <ele>234.9</ele>
        <time>2020-11-29T14:18:43Z</time>
      </trkpt>
      <trkpt lat="47.65524" lon="6.18251">
        <ele>234.8</ele>
        <time>2020-11-29T14:18:46Z</time>
      </trkpt>
      <trkpt lat="47.65528" lon="6.18249">
        <ele>235</ele>
        <time>2020-11-29T14:18:48Z</time>
      </trkpt>
      <trkpt lat="47.65535" lon="6.18246">
        <ele>235.3</ele>
        <time>2020-11-29T14:18:51Z</time>
      </trkpt>
      <trkpt lat="47.65541" lon="6.18243">
        <ele>235.6</ele>
        <time>2020-11-29T14:18:54Z</time>
      </trkpt>
      <trkpt lat="47.65547" lon="6.18239">
        <ele>235.8</ele>
        <time>2020-11-29T14:18:57Z</time>
      </trkpt>
      <trkpt lat="47.65552" lon="6.18236">
        <ele>235.9</ele>
        <time>2020-11-29T14:18:59Z</time>
      </trkpt>
      <trkpt lat="47.65556" lon="6.18233">
        <ele>235.9</ele>
        <time>2020-11-29T14:19:01Z</time>
      </trkpt>
      <trkpt lat="47.6556" lon="6.18231">
        <ele>236</ele>
        <time>2020-11-29T14:19:03Z</time>
      </trkpt>
      <trkpt lat="47.65567" lon="6.18227">
        <ele>236</ele>
        <time>2020-11-29T14:19:06Z</time>
      </trkpt>
      <trkpt lat="47.65571" lon="6.18223">
        <ele>235.7</ele>
        <time>2020-11-29T14:19:09Z</time>
      </trkpt>
      <trkpt lat="47.65576" lon="6.18217">
        <ele>235.3</ele>
        <time>2020-11-29T14:19:10Z</time>
      </trkpt>
      <trkpt lat="47.6558" lon="6.18211">
        <ele>234.7</ele>
        <time>2020-11-29T14:19:13Z</time>
      </trkpt>
      <trkpt lat="47.65585" lon="6.18205">
        <ele>234.1</ele>
        <time>2020-11-29T14:19:15Z</time>
      </trkpt>
      <trkpt lat="47.65592" lon="6.18192">
        <ele>232.9</ele>
        <time>2020-11-29T14:19:17Z</time>
      </trkpt>
      <trkpt lat="47.65596" lon="6.18184">
        <ele>232.1</ele>
        <time>2020-11-29T14:19:19Z</time>
      </trkpt>
      <trkpt lat="47.65605" lon="6.18173">
        <ele>231.4</ele>
        <time>2020-11-29T14:19:21Z</time>
      </trkpt>
      <trkpt lat="47.65612" lon="6.18169">
        <ele>231.4</ele>
        <time>2020-11-29T14:19:23Z</time>
      </trkpt>
      <trkpt lat="47.65619" lon="6.18168">
        <ele>232.1</ele>
        <time>2020-11-29T14:19:24Z</time>
      </trkpt>
      <trkpt lat="47.65625" lon="6.18169">
        <ele>232.8</ele>
        <time>2020-11-29T14:19:25Z</time>
      </trkpt>
      <trkpt lat="47.65632" lon="6.18169">
        <ele>233.6</ele>
        <time>2020-11-29T14:19:26Z</time>
      </trkpt>
      <trkpt lat="47.65637" lon="6.18168">
        <ele>233.9</ele>
        <time>2020-11-29T14:19:27Z</time>
      </trkpt>
      <trkpt lat="47.65643" lon="6.18163">
        <ele>234.2</ele>
        <time>2020-11-29T14:19:30Z</time>
      </trkpt>
      <trkpt lat="47.6565" lon="6.18158">
        <ele>234.5</ele>
        <time>2020-11-29T14:19:31Z</time>
      </trkpt>
      <trkpt lat="47.65656" lon="6.18154">
        <ele>234.8</ele>
        <time>2020-11-29T14:19:33Z</time>
      </trkpt>
      <trkpt lat="47.65662" lon="6.18149">
        <ele>234.9</ele>
        <time>2020-11-29T14:19:35Z</time>
      </trkpt>
      <trkpt lat="47.65667" lon="6.18143">
        <ele>234.8</ele>
        <time>2020-11-29T14:19:37Z</time>
      </trkpt>
      <trkpt lat="47.65673" lon="6.18138">
        <ele>235.1</ele>
        <time>2020-11-29T14:19:39Z</time>
      </trkpt>
      <trkpt lat="47.65677" lon="6.18133">
        <ele>235.4</ele>
        <time>2020-11-29T14:19:41Z</time>
      </trkpt>
      <trkpt lat="47.65681" lon="6.18127">
        <ele>235.4</ele>
        <time>2020-11-29T14:19:43Z</time>
      </trkpt>
      <trkpt lat="47.65685" lon="6.1812">
        <ele>235.2</ele>
        <time>2020-11-29T14:19:46Z</time>
      </trkpt>
      <trkpt lat="47.65689" lon="6.1811">
        <ele>234.8</ele>
        <time>2020-11-29T14:19:48Z</time>
      </trkpt>
      <trkpt lat="47.65693" lon="6.18101">
        <ele>234.4</ele>
        <time>2020-11-29T14:19:49Z</time>
      </trkpt>
      <trkpt lat="47.65698" lon="6.18092">
        <ele>234.1</ele>
        <time>2020-11-29T14:19:52Z</time>
      </trkpt>
      <trkpt lat="47.65707" lon="6.18078">
        <ele>233.9</ele>
        <time>2020-11-29T14:19:54Z</time>
      </trkpt>
      <trkpt lat="47.65712" lon="6.18071">
        <ele>234.1</ele>
        <time>2020-11-29T14:19:56Z</time>
      </trkpt>
      <trkpt lat="47.65716" lon="6.18066">
        <ele>234.2</ele>
        <time>2020-11-29T14:19:58Z</time>
      </trkpt>
      <trkpt lat="47.6572" lon="6.18061">
        <ele>234.4</ele>
        <time>2020-11-29T14:20:00Z</time>
      </trkpt>
      <trkpt lat="47.65726" lon="6.18056">
        <ele>234.7</ele>
        <time>2020-11-29T14:20:02Z</time>
      </trkpt>
      <trkpt lat="47.6573" lon="6.18053">
        <ele>234.9</ele>
        <time>2020-11-29T14:20:04Z</time>
      </trkpt>
      <trkpt lat="47.65735" lon="6.1805">
        <ele>235.1</ele>
        <time>2020-11-29T14:20:06Z</time>
      </trkpt>
      <trkpt lat="47.6574" lon="6.18047">
        <ele>235.4</ele>
        <time>2020-11-29T14:20:09Z</time>
      </trkpt>
      <trkpt lat="47.65744" lon="6.18043">
        <ele>235.5</ele>
        <time>2020-11-29T14:20:12Z</time>
      </trkpt>
      <trkpt lat="47.6575" lon="6.18039">
        <ele>235.7</ele>
        <time>2020-11-29T14:20:16Z</time>
      </trkpt>
      <trkpt lat="47.65756" lon="6.18036">
        <ele>236.1</ele>
        <time>2020-11-29T14:20:19Z</time>
      </trkpt>
      <trkpt lat="47.65761" lon="6.18034">
        <ele>236.4</ele>
        <time>2020-11-29T14:20:21Z</time>
      </trkpt>
      <trkpt lat="47.65767" lon="6.18031">
        <ele>236.8</ele>
        <time>2020-11-29T14:20:24Z</time>
      </trkpt>
      <trkpt lat="47.65773" lon="6.18028">
        <ele>237</ele>
        <time>2020-11-29T14:20:28Z</time>
      </trkpt>
      <trkpt lat="47.65778" lon="6.18022">
        <ele>236.9</ele>
        <time>2020-11-29T14:20:30Z</time>
      </trkpt>
      <trkpt lat="47.65783" lon="6.18018">
        <ele>236.9</ele>
        <time>2020-11-29T14:20:33Z</time>
      </trkpt>
      <trkpt lat="47.65788" lon="6.18014">
        <ele>236.8</ele>
        <time>2020-11-29T14:20:36Z</time>
      </trkpt>
      <trkpt lat="47.65795" lon="6.18008">
        <ele>236.8</ele>
        <time>2020-11-29T14:20:40Z</time>
      </trkpt>
      <trkpt lat="47.658" lon="6.18004">
        <ele>236.7</ele>
        <time>2020-11-29T14:20:42Z</time>
      </trkpt>
      <trkpt lat="47.65807" lon="6.17999">
        <ele>236.7</ele>
        <time>2020-11-29T14:20:43Z</time>
      </trkpt>
      <trkpt lat="47.65813" lon="6.17994">
        <ele>236.7</ele>
        <time>2020-11-29T14:20:45Z</time>
      </trkpt>
      <trkpt lat="47.65819" lon="6.17991">
        <ele>236.7</ele>
        <time>2020-11-29T14:20:46Z</time>
      </trkpt>
      <trkpt lat="47.65823" lon="6.17988">
        <ele>236.7</ele>
        <time>2020-11-29T14:20:47Z</time>
      </trkpt>
      <trkpt lat="47.65829" lon="6.17983">
        <ele>236.6</ele>
        <time>2020-11-29T14:20:49Z</time>
      </trkpt>
      <trkpt lat="47.65835" lon="6.17979">
        <ele>236.4</ele>
        <time>2020-11-29T14:20:50Z</time>
      </trkpt>
      <trkpt lat="47.65839" lon="6.17975">
        <ele>235.9</ele>
        <time>2020-11-29T14:20:51Z</time>
      </trkpt>
      <trkpt lat="47.65845" lon="6.1797">
        <ele>235.3</ele>
        <time>2020-11-29T14:20:53Z</time>
      </trkpt>
      <trkpt lat="47.65869" lon="6.17957">
        <ele>233.5</ele>
        <time>2020-11-29T14:20:55Z</time>
      </trkpt>
      <trkpt lat="47.65876" lon="6.17955">
        <ele>233.1</ele>
        <time>2020-11-29T14:20:56Z</time>
      </trkpt>
      <trkpt lat="47.65882" lon="6.17954">
        <ele>232.9</ele>
        <time>2020-11-29T14:20:57Z</time>
      </trkpt>
      <trkpt lat="47.65889" lon="6.17953">
        <ele>232.7</ele>
        <time>2020-11-29T14:20:58Z</time>
      </trkpt>
      <trkpt lat="47.65895" lon="6.17953">
        <ele>232.6</ele>
        <time>2020-11-29T14:20:59Z</time>
      </trkpt>
      <trkpt lat="47.65901" lon="6.17952">
        <ele>232.5</ele>
        <time>2020-11-29T14:21:00Z</time>
      </trkpt>
      <trkpt lat="47.65907" lon="6.17951">
        <ele>232.3</ele>
        <time>2020-11-29T14:21:01Z</time>
      </trkpt>
      <trkpt lat="47.65913" lon="6.1795">
        <ele>232.1</ele>
        <time>2020-11-29T14:21:02Z</time>
      </trkpt>
      <trkpt lat="47.65919" lon="6.1795">
        <ele>231.9</ele>
        <time>2020-11-29T14:21:03Z</time>
      </trkpt>
      <trkpt lat="47.65926" lon="6.17949">
        <ele>231.8</ele>
        <time>2020-11-29T14:21:04Z</time>
      </trkpt>
      <trkpt lat="47.65932" lon="6.17949">
        <ele>231.6</ele>
        <time>2020-11-29T14:21:05Z</time>
      </trkpt>
      <trkpt lat="47.65939" lon="6.17949">
        <ele>231.5</ele>
        <time>2020-11-29T14:21:06Z</time>
      </trkpt>
      <trkpt lat="47.65946" lon="6.17949">
        <ele>231.5</ele>
        <time>2020-11-29T14:21:07Z</time>
      </trkpt>
      <trkpt lat="47.65953" lon="6.17949">
        <ele>231.4</ele>
        <time>2020-11-29T14:21:08Z</time>
      </trkpt>
      <trkpt lat="47.6596" lon="6.1795">
        <ele>231.3</ele>
        <time>2020-11-29T14:21:09Z</time>
      </trkpt>
      <trkpt lat="47.65966" lon="6.1795">
        <ele>231.3</ele>
        <time>2020-11-29T14:21:10Z</time>
      </trkpt>
      <trkpt lat="47.65973" lon="6.1795">
        <ele>231.2</ele>
        <time>2020-11-29T14:21:11Z</time>
      </trkpt>
      <trkpt lat="47.65979" lon="6.1795">
        <ele>231.1</ele>
        <time>2020-11-29T14:21:12Z</time>
      </trkpt>
      <trkpt lat="47.65986" lon="6.1795">
        <ele>231</ele>
        <time>2020-11-29T14:21:13Z</time>
      </trkpt>
      <trkpt lat="47.65992" lon="6.1795">
        <ele>231</ele>
        <time>2020-11-29T14:21:14Z</time>
      </trkpt>
      <trkpt lat="47.65998" lon="6.17951">
        <ele>230.9</ele>
        <time>2020-11-29T14:21:15Z</time>
      </trkpt>
      <trkpt lat="47.66004" lon="6.17951">
        <ele>230.9</ele>
        <time>2020-11-29T14:21:16Z</time>
      </trkpt>
      <trkpt lat="47.6601" lon="6.17951">
        <ele>230.9</ele>
        <time>2020-11-29T14:21:17Z</time>
      </trkpt>
      <trkpt lat="47.66016" lon="6.17952">
        <ele>231</ele>
        <time>2020-11-29T14:21:18Z</time>
      </trkpt>
      <trkpt lat="47.66022" lon="6.17952">
        <ele>231</ele>
        <time>2020-11-29T14:21:19Z</time>
      </trkpt>
      <trkpt lat="47.66028" lon="6.17953">
        <ele>231</ele>
        <time>2020-11-29T14:21:20Z</time>
      </trkpt>
      <trkpt lat="47.66034" lon="6.17953">
        <ele>231</ele>
        <time>2020-11-29T14:21:21Z</time>
      </trkpt>
      <trkpt lat="47.66039" lon="6.17952">
        <ele>231</ele>
        <time>2020-11-29T14:21:22Z</time>
      </trkpt>
      <trkpt lat="47.66044" lon="6.17952">
        <ele>231</ele>
        <time>2020-11-29T14:21:23Z</time>
      </trkpt>
      <trkpt lat="47.6605" lon="6.17952">
        <ele>231</ele>
        <time>2020-11-29T14:21:24Z</time>
      </trkpt>
      <trkpt lat="47.66056" lon="6.17952">
        <ele>231</ele>
        <time>2020-11-29T14:21:25Z</time>
      </trkpt>
      <trkpt lat="47.66062" lon="6.17952">
        <ele>231</ele>
        <time>2020-11-29T14:21:26Z</time>
      </trkpt>
      <trkpt lat="47.66067" lon="6.17952">
        <ele>231</ele>
        <time>2020-11-29T14:21:27Z</time>
      </trkpt>
      <trkpt lat="47.66073" lon="6.17952">
        <ele>231</ele>
        <time>2020-11-29T14:21:28Z</time>
      </trkpt>
      <trkpt lat="47.66079" lon="6.17953">
        <ele>231</ele>
        <time>2020-11-29T14:21:29Z</time>
      </trkpt>
      <trkpt lat="47.66084" lon="6.17953">
        <ele>231</ele>
        <time>2020-11-29T14:21:30Z</time>
      </trkpt>
      <trkpt lat="47.6609" lon="6.17953">
        <ele>231</ele>
        <time>2020-11-29T14:21:31Z</time>
      </trkpt>
      <trkpt lat="47.66095" lon="6.17953">
        <ele>230.9</ele>
        <time>2020-11-29T14:21:32Z</time>
      </trkpt>
      <trkpt lat="47.661" lon="6.17952">
        <ele>230.8</ele>
        <time>2020-11-29T14:21:33Z</time>
      </trkpt>
      <trkpt lat="47.66105" lon="6.17952">
        <ele>230.8</ele>
        <time>2020-11-29T14:21:34Z</time>
      </trkpt>
      <trkpt lat="47.66109" lon="6.17952">
        <ele>230.7</ele>
        <time>2020-11-29T14:21:35Z</time>
      </trkpt>
      <trkpt lat="47.66114" lon="6.17952">
        <ele>230.7</ele>
        <time>2020-11-29T14:21:36Z</time>
      </trkpt>
      <trkpt lat="47.66119" lon="6.17952">
        <ele>230.6</ele>
        <time>2020-11-29T14:21:37Z</time>
      </trkpt>
      <trkpt lat="47.66127" lon="6.17952">
        <ele>230.5</ele>
        <time>2020-11-29T14:21:39Z</time>
      </trkpt>
      <trkpt lat="47.66133" lon="6.17952">
        <ele>230.4</ele>
        <time>2020-11-29T14:21:41Z</time>
      </trkpt>
      <trkpt lat="47.66142" lon="6.17952">
        <ele>230.4</ele>
        <time>2020-11-29T14:21:43Z</time>
      </trkpt>
      <trkpt lat="47.66149" lon="6.17952">
        <ele>230.3</ele>
        <time>2020-11-29T14:21:45Z</time>
      </trkpt>
      <trkpt lat="47.66158" lon="6.17948">
        <ele>229.9</ele>
        <time>2020-11-29T14:21:46Z</time>
      </trkpt>
      <trkpt lat="47.66163" lon="6.17946">
        <ele>229.8</ele>
        <time>2020-11-29T14:21:49Z</time>
      </trkpt>
      <trkpt lat="47.66169" lon="6.17948">
        <ele>229.9</ele>
        <time>2020-11-29T14:21:51Z</time>
      </trkpt>
      <trkpt lat="47.66176" lon="6.1795">
        <ele>229.8</ele>
        <time>2020-11-29T14:21:53Z</time>
      </trkpt>
      <trkpt lat="47.66183" lon="6.17952">
        <ele>229.7</ele>
        <time>2020-11-29T14:21:55Z</time>
      </trkpt>
      <trkpt lat="47.66191" lon="6.17954">
        <ele>229.7</ele>
        <time>2020-11-29T14:21:56Z</time>
      </trkpt>
      <trkpt lat="47.66199" lon="6.17956">
        <ele>229.6</ele>
        <time>2020-11-29T14:21:58Z</time>
      </trkpt>
      <trkpt lat="47.66208" lon="6.17958">
        <ele>229.5</ele>
        <time>2020-11-29T14:22:00Z</time>
      </trkpt>
      <trkpt lat="47.66212" lon="6.17959">
        <ele>229.4</ele>
        <time>2020-11-29T14:22:01Z</time>
      </trkpt>
      <trkpt lat="47.6622" lon="6.17961">
        <ele>229.3</ele>
        <time>2020-11-29T14:22:04Z</time>
      </trkpt>
      <trkpt lat="47.66225" lon="6.17962">
        <ele>229.3</ele>
        <time>2020-11-29T14:22:05Z</time>
      </trkpt>
      <trkpt lat="47.66229" lon="6.17963">
        <ele>229.2</ele>
        <time>2020-11-29T14:22:06Z</time>
      </trkpt>
      <trkpt lat="47.66239" lon="6.17965">
        <ele>229</ele>
        <time>2020-11-29T14:22:07Z</time>
      </trkpt>
      <trkpt lat="47.66247" lon="6.17967">
        <ele>228.9</ele>
        <time>2020-11-29T14:22:10Z</time>
      </trkpt>
      <trkpt lat="47.66258" lon="6.17968">
        <ele>228.7</ele>
        <time>2020-11-29T14:22:11Z</time>
      </trkpt>
      <trkpt lat="47.66263" lon="6.17968">
        <ele>228.6</ele>
        <time>2020-11-29T14:22:12Z</time>
      </trkpt>
      <trkpt lat="47.66267" lon="6.17969">
        <ele>228.5</ele>
        <time>2020-11-29T14:22:13Z</time>
      </trkpt>
      <trkpt lat="47.66273" lon="6.17969">
        <ele>228.4</ele>
        <time>2020-11-29T14:22:14Z</time>
      </trkpt>
      <trkpt lat="47.66278" lon="6.17969">
        <ele>228.3</ele>
        <time>2020-11-29T14:22:15Z</time>
      </trkpt>
      <trkpt lat="47.66284" lon="6.1797">
        <ele>228.1</ele>
        <time>2020-11-29T14:22:16Z</time>
      </trkpt>
      <trkpt lat="47.66289" lon="6.1797">
        <ele>228</ele>
        <time>2020-11-29T14:22:17Z</time>
      </trkpt>
      <trkpt lat="47.66295" lon="6.17971">
        <ele>227.9</ele>
        <time>2020-11-29T14:22:18Z</time>
      </trkpt>
      <trkpt lat="47.663" lon="6.17971">
        <ele>227.8</ele>
        <time>2020-11-29T14:22:19Z</time>
      </trkpt>
      <trkpt lat="47.66306" lon="6.17972">
        <ele>227.7</ele>
        <time>2020-11-29T14:22:20Z</time>
      </trkpt>
      <trkpt lat="47.66311" lon="6.17972">
        <ele>227.5</ele>
        <time>2020-11-29T14:22:21Z</time>
      </trkpt>
      <trkpt lat="47.66316" lon="6.17971">
        <ele>227.4</ele>
        <time>2020-11-29T14:22:22Z</time>
      </trkpt>
      <trkpt lat="47.6632" lon="6.17968">
        <ele>227.3</ele>
        <time>2020-11-29T14:22:23Z</time>
      </trkpt>
      <trkpt lat="47.66324" lon="6.17963">
        <ele>227.2</ele>
        <time>2020-11-29T14:22:24Z</time>
      </trkpt>
      <trkpt lat="47.66326" lon="6.17957">
        <ele>227.1</ele>
        <time>2020-11-29T14:22:25Z</time>
      </trkpt>
      <trkpt lat="47.66328" lon="6.1795">
        <ele>227.1</ele>
        <time>2020-11-29T14:22:26Z</time>
      </trkpt>
      <trkpt lat="47.66329" lon="6.17942">
        <ele>227</ele>
        <time>2020-11-29T14:22:27Z</time>
      </trkpt>
      <trkpt lat="47.6633" lon="6.17935">
        <ele>227</ele>
        <time>2020-11-29T14:22:28Z</time>
      </trkpt>
      <trkpt lat="47.6633" lon="6.17927">
        <ele>227</ele>
        <time>2020-11-29T14:22:29Z</time>
      </trkpt>
      <trkpt lat="47.66331" lon="6.1792">
        <ele>227</ele>
        <time>2020-11-29T14:22:30Z</time>
      </trkpt>
      <trkpt lat="47.66331" lon="6.17913">
        <ele>227</ele>
        <time>2020-11-29T14:22:31Z</time>
      </trkpt>
      <trkpt lat="47.66332" lon="6.17905">
        <ele>227</ele>
        <time>2020-11-29T14:22:32Z</time>
      </trkpt>
      <trkpt lat="47.66332" lon="6.17898">
        <ele>227</ele>
        <time>2020-11-29T14:22:33Z</time>
      </trkpt>
      <trkpt lat="47.66333" lon="6.1789">
        <ele>227</ele>
        <time>2020-11-29T14:22:34Z</time>
      </trkpt>
      <trkpt lat="47.66333" lon="6.17883">
        <ele>227</ele>
        <time>2020-11-29T14:22:35Z</time>
      </trkpt>
      <trkpt lat="47.66334" lon="6.17875">
        <ele>227</ele>
        <time>2020-11-29T14:22:36Z</time>
      </trkpt>
      <trkpt lat="47.66334" lon="6.17868">
        <ele>227.1</ele>
        <time>2020-11-29T14:22:37Z</time>
      </trkpt>
      <trkpt lat="47.66335" lon="6.1786">
        <ele>227.1</ele>
        <time>2020-11-29T14:22:38Z</time>
      </trkpt>
      <trkpt lat="47.66335" lon="6.17852">
        <ele>227.1</ele>
        <time>2020-11-29T14:22:39Z</time>
      </trkpt>
      <trkpt lat="47.66335" lon="6.17844">
        <ele>227.1</ele>
        <time>2020-11-29T14:22:40Z</time>
      </trkpt>
      <trkpt lat="47.66336" lon="6.17837">
        <ele>227.2</ele>
        <time>2020-11-29T14:22:41Z</time>
      </trkpt>
      <trkpt lat="47.66336" lon="6.17829">
        <ele>227.1</ele>
        <time>2020-11-29T14:22:42Z</time>
      </trkpt>
      <trkpt lat="47.66337" lon="6.17823">
        <ele>226.9</ele>
        <time>2020-11-29T14:22:43Z</time>
      </trkpt>
      <trkpt lat="47.66337" lon="6.17815">
        <ele>226.8</ele>
        <time>2020-11-29T14:22:44Z</time>
      </trkpt>
      <trkpt lat="47.66338" lon="6.17807">
        <ele>226.6</ele>
        <time>2020-11-29T14:22:45Z</time>
      </trkpt>
      <trkpt lat="47.66338" lon="6.178">
        <ele>226.4</ele>
        <time>2020-11-29T14:22:46Z</time>
      </trkpt>
      <trkpt lat="47.66339" lon="6.17793">
        <ele>226.3</ele>
        <time>2020-11-29T14:22:47Z</time>
      </trkpt>
      <trkpt lat="47.66339" lon="6.17785">
        <ele>226.1</ele>
        <time>2020-11-29T14:22:48Z</time>
      </trkpt>
      <trkpt lat="47.6634" lon="6.17778">
        <ele>226</ele>
        <time>2020-11-29T14:22:48Z</time>
      </trkpt>
      <trkpt lat="47.66342" lon="6.17771">
        <ele>225.9</ele>
        <time>2020-11-29T14:22:49Z</time>
      </trkpt>
      <trkpt lat="47.66343" lon="6.17765">
        <ele>225.7</ele>
        <time>2020-11-29T14:22:50Z</time>
      </trkpt>
      <trkpt lat="47.66344" lon="6.17758">
        <ele>225.6</ele>
        <time>2020-11-29T14:22:51Z</time>
      </trkpt>
      <trkpt lat="47.66345" lon="6.17751">
        <ele>225.4</ele>
        <time>2020-11-29T14:22:52Z</time>
      </trkpt>
      <trkpt lat="47.66346" lon="6.17744">
        <ele>225.4</ele>
        <time>2020-11-29T14:22:53Z</time>
      </trkpt>
      <trkpt lat="47.66347" lon="6.17738">
        <ele>225.3</ele>
        <time>2020-11-29T14:22:54Z</time>
      </trkpt>
      <trkpt lat="47.66348" lon="6.17731">
        <ele>225.3</ele>
        <time>2020-11-29T14:22:55Z</time>
      </trkpt>
      <trkpt lat="47.66349" lon="6.17724">
        <ele>225.3</ele>
        <time>2020-11-29T14:22:56Z</time>
      </trkpt>
      <trkpt lat="47.66351" lon="6.17717">
        <ele>225.2</ele>
        <time>2020-11-29T14:22:57Z</time>
      </trkpt>
      <trkpt lat="47.66353" lon="6.17711">
        <ele>225.2</ele>
        <time>2020-11-29T14:22:58Z</time>
      </trkpt>
      <trkpt lat="47.66354" lon="6.17704">
        <ele>225.2</ele>
        <time>2020-11-29T14:22:59Z</time>
      </trkpt>
      <trkpt lat="47.66356" lon="6.17697">
        <ele>225.2</ele>
        <time>2020-11-29T14:23:00Z</time>
      </trkpt>
      <trkpt lat="47.66358" lon="6.17691">
        <ele>225.2</ele>
        <time>2020-11-29T14:23:01Z</time>
      </trkpt>
      <trkpt lat="47.66361" lon="6.17685">
        <ele>225.2</ele>
        <time>2020-11-29T14:23:02Z</time>
      </trkpt>
      <trkpt lat="47.66363" lon="6.17679">
        <ele>225.2</ele>
        <time>2020-11-29T14:23:03Z</time>
      </trkpt>
      <trkpt lat="47.66366" lon="6.17673">
        <ele>225.2</ele>
        <time>2020-11-29T14:23:04Z</time>
      </trkpt>
      <trkpt lat="47.66369" lon="6.17667">
        <ele>225.3</ele>
        <time>2020-11-29T14:23:05Z</time>
      </trkpt>
      <trkpt lat="47.66372" lon="6.17662">
        <ele>225.4</ele>
        <time>2020-11-29T14:23:06Z</time>
      </trkpt>
      <trkpt lat="47.66375" lon="6.17657">
        <ele>225.5</ele>
        <time>2020-11-29T14:23:07Z</time>
      </trkpt>
      <trkpt lat="47.66378" lon="6.17652">
        <ele>225.6</ele>
        <time>2020-11-29T14:23:08Z</time>
      </trkpt>
      <trkpt lat="47.66381" lon="6.17647">
        <ele>225.7</ele>
        <time>2020-11-29T14:23:09Z</time>
      </trkpt>
      <trkpt lat="47.66384" lon="6.17642">
        <ele>225.8</ele>
        <time>2020-11-29T14:23:10Z</time>
      </trkpt>
      <trkpt lat="47.66387" lon="6.17637">
        <ele>225.8</ele>
        <time>2020-11-29T14:23:11Z</time>
      </trkpt>
      <trkpt lat="47.6639" lon="6.17632">
        <ele>225.9</ele>
        <time>2020-11-29T14:23:12Z</time>
      </trkpt>
      <trkpt lat="47.66393" lon="6.17627">
        <ele>226</ele>
        <time>2020-11-29T14:23:13Z</time>
      </trkpt>
      <trkpt lat="47.66397" lon="6.17622">
        <ele>226</ele>
        <time>2020-11-29T14:23:14Z</time>
      </trkpt>
      <trkpt lat="47.66403" lon="6.17612">
        <ele>226.1</ele>
        <time>2020-11-29T14:23:16Z</time>
      </trkpt>
      <trkpt lat="47.66406" lon="6.17607">
        <ele>226.1</ele>
        <time>2020-11-29T14:23:17Z</time>
      </trkpt>
      <trkpt lat="47.66414" lon="6.17599">
        <ele>226.1</ele>
        <time>2020-11-29T14:23:19Z</time>
      </trkpt>
      <trkpt lat="47.66418" lon="6.17596">
        <ele>226.2</ele>
        <time>2020-11-29T14:23:20Z</time>
      </trkpt>
      <trkpt lat="47.66422" lon="6.17592">
        <ele>226.2</ele>
        <time>2020-11-29T14:23:21Z</time>
      </trkpt>
      <trkpt lat="47.66426" lon="6.17589">
        <ele>226.2</ele>
        <time>2020-11-29T14:23:22Z</time>
      </trkpt>
      <trkpt lat="47.6643" lon="6.17586">
        <ele>226.2</ele>
        <time>2020-11-29T14:23:23Z</time>
      </trkpt>
      <trkpt lat="47.66434" lon="6.17584">
        <ele>226.2</ele>
        <time>2020-11-29T14:23:24Z</time>
      </trkpt>
      <trkpt lat="47.66439" lon="6.17581">
        <ele>226.3</ele>
        <time>2020-11-29T14:23:25Z</time>
      </trkpt>
      <trkpt lat="47.66443" lon="6.17579">
        <ele>226.3</ele>
        <time>2020-11-29T14:23:26Z</time>
      </trkpt>
      <trkpt lat="47.66452" lon="6.17574">
        <ele>226.4</ele>
        <time>2020-11-29T14:23:28Z</time>
      </trkpt>
      <trkpt lat="47.66456" lon="6.17572">
        <ele>226.4</ele>
        <time>2020-11-29T14:23:29Z</time>
      </trkpt>
      <trkpt lat="47.6646" lon="6.17569">
        <ele>226.4</ele>
        <time>2020-11-29T14:23:30Z</time>
      </trkpt>
      <trkpt lat="47.66465" lon="6.17567">
        <ele>226.5</ele>
        <time>2020-11-29T14:23:31Z</time>
      </trkpt>
      <trkpt lat="47.66469" lon="6.17564">
        <ele>226.5</ele>
        <time>2020-11-29T14:23:32Z</time>
      </trkpt>
      <trkpt lat="47.66474" lon="6.17561">
        <ele>226.5</ele>
        <time>2020-11-29T14:23:33Z</time>
      </trkpt>
      <trkpt lat="47.66478" lon="6.17559">
        <ele>226.5</ele>
        <time>2020-11-29T14:23:34Z</time>
      </trkpt>
      <trkpt lat="47.66482" lon="6.17556">
        <ele>226.5</ele>
        <time>2020-11-29T14:23:35Z</time>
      </trkpt>
      <trkpt lat="47.66487" lon="6.17553">
        <ele>226.5</ele>
        <time>2020-11-29T14:23:36Z</time>
      </trkpt>
      <trkpt lat="47.66491" lon="6.17551">
        <ele>226.5</ele>
        <time>2020-11-29T14:23:37Z</time>
      </trkpt>
      <trkpt lat="47.66495" lon="6.17548">
        <ele>226.5</ele>
        <time>2020-11-29T14:23:38Z</time>
      </trkpt>
      <trkpt lat="47.66499" lon="6.17545">
        <ele>226.5</ele>
        <time>2020-11-29T14:23:39Z</time>
      </trkpt>
      <trkpt lat="47.66504" lon="6.17543">
        <ele>226.5</ele>
        <time>2020-11-29T14:23:40Z</time>
      </trkpt>
      <trkpt lat="47.66508" lon="6.1754">
        <ele>226.5</ele>
        <time>2020-11-29T14:23:41Z</time>
      </trkpt>
      <trkpt lat="47.66512" lon="6.17536">
        <ele>226.5</ele>
        <time>2020-11-29T14:23:42Z</time>
      </trkpt>
      <trkpt lat="47.66516" lon="6.17533">
        <ele>226.5</ele>
        <time>2020-11-29T14:23:43Z</time>
      </trkpt>
      <trkpt lat="47.6652" lon="6.1753">
        <ele>226.5</ele>
        <time>2020-11-29T14:23:44Z</time>
      </trkpt>
      <trkpt lat="47.66524" lon="6.17527">
        <ele>226.5</ele>
        <time>2020-11-29T14:23:45Z</time>
      </trkpt>
      <trkpt lat="47.66528" lon="6.17524">
        <ele>226.5</ele>
        <time>2020-11-29T14:23:46Z</time>
      </trkpt>
      <trkpt lat="47.66533" lon="6.17521">
        <ele>226.5</ele>
        <time>2020-11-29T14:23:47Z</time>
      </trkpt>
      <trkpt lat="47.66541" lon="6.17515">
        <ele>226.6</ele>
        <time>2020-11-29T14:23:49Z</time>
      </trkpt>
      <trkpt lat="47.66549" lon="6.1751">
        <ele>226.6</ele>
        <time>2020-11-29T14:23:51Z</time>
      </trkpt>
      <trkpt lat="47.66555" lon="6.17505">
        <ele>226.7</ele>
        <time>2020-11-29T14:23:53Z</time>
      </trkpt>
      <trkpt lat="47.6656" lon="6.17503">
        <ele>226.7</ele>
        <time>2020-11-29T14:23:54Z</time>
      </trkpt>
      <trkpt lat="47.66567" lon="6.17499">
        <ele>226.8</ele>
        <time>2020-11-29T14:23:56Z</time>
      </trkpt>
      <trkpt lat="47.66572" lon="6.17496">
        <ele>226.8</ele>
        <time>2020-11-29T14:23:57Z</time>
      </trkpt>
      <trkpt lat="47.66577" lon="6.17487">
        <ele>226.8</ele>
        <time>2020-11-29T14:23:59Z</time>
      </trkpt>
      <trkpt lat="47.66583" lon="6.17484">
        <ele>226.8</ele>
        <time>2020-11-29T14:24:01Z</time>
      </trkpt>
      <trkpt lat="47.66591" lon="6.17484">
        <ele>227</ele>
        <time>2020-11-29T14:24:04Z</time>
      </trkpt>
      <trkpt lat="47.66598" lon="6.17482">
        <ele>227.1</ele>
        <time>2020-11-29T14:24:04Z</time>
      </trkpt>
      <trkpt lat="47.66605" lon="6.1748">
        <ele>227.2</ele>
        <time>2020-11-29T14:24:08Z</time>
      </trkpt>
      <trkpt lat="47.66611" lon="6.17478">
        <ele>227.3</ele>
        <time>2020-11-29T14:24:09Z</time>
      </trkpt>
      <trkpt lat="47.66618" lon="6.17474">
        <ele>227.4</ele>
        <time>2020-11-29T14:24:11Z</time>
      </trkpt>
      <trkpt lat="47.66624" lon="6.17471">
        <ele>227.5</ele>
        <time>2020-11-29T14:24:12Z</time>
      </trkpt>
      <trkpt lat="47.6663" lon="6.17468">
        <ele>227.5</ele>
        <time>2020-11-29T14:24:14Z</time>
      </trkpt>
      <trkpt lat="47.66637" lon="6.17465">
        <ele>227.6</ele>
        <time>2020-11-29T14:24:16Z</time>
      </trkpt>
      <trkpt lat="47.66643" lon="6.17463">
        <ele>227.7</ele>
        <time>2020-11-29T14:24:17Z</time>
      </trkpt>
      <trkpt lat="47.66649" lon="6.1746">
        <ele>227.7</ele>
        <time>2020-11-29T14:24:19Z</time>
      </trkpt>
      <trkpt lat="47.66656" lon="6.17456">
        <ele>227.8</ele>
        <time>2020-11-29T14:24:19Z</time>
      </trkpt>
      <trkpt lat="47.66664" lon="6.17453">
        <ele>227.8</ele>
        <time>2020-11-29T14:24:21Z</time>
      </trkpt>
      <trkpt lat="47.66671" lon="6.17451">
        <ele>227.8</ele>
        <time>2020-11-29T14:24:23Z</time>
      </trkpt>
      <trkpt lat="47.66677" lon="6.17449">
        <ele>227.8</ele>
        <time>2020-11-29T14:24:27Z</time>
      </trkpt>
      <trkpt lat="47.66685" lon="6.17447">
        <ele>227.8</ele>
        <time>2020-11-29T14:24:29Z</time>
      </trkpt>
      <trkpt lat="47.66696" lon="6.17445">
        <ele>227.8</ele>
        <time>2020-11-29T14:24:32Z</time>
      </trkpt>
      <trkpt lat="47.66701" lon="6.17444">
        <ele>227.8</ele>
        <time>2020-11-29T14:24:33Z</time>
      </trkpt>
      <trkpt lat="47.66707" lon="6.17444">
        <ele>227.8</ele>
        <time>2020-11-29T14:24:35Z</time>
      </trkpt>
      <trkpt lat="47.66718" lon="6.17442">
        <ele>227.8</ele>
        <time>2020-11-29T14:24:38Z</time>
      </trkpt>
      <trkpt lat="47.66725" lon="6.1744">
        <ele>227.8</ele>
        <time>2020-11-29T14:24:40Z</time>
      </trkpt>
      <trkpt lat="47.66733" lon="6.17438">
        <ele>227.7</ele>
        <time>2020-11-29T14:24:42Z</time>
      </trkpt>
      <trkpt lat="47.66737" lon="6.17437">
        <ele>227.7</ele>
        <time>2020-11-29T14:24:43Z</time>
      </trkpt>
      <trkpt lat="47.66745" lon="6.17436">
        <ele>227.7</ele>
        <time>2020-11-29T14:24:45Z</time>
      </trkpt>
      <trkpt lat="47.66757" lon="6.17434">
        <ele>227.6</ele>
        <time>2020-11-29T14:24:48Z</time>
      </trkpt>
      <trkpt lat="47.66762" lon="6.17433">
        <ele>227.6</ele>
        <time>2020-11-29T14:24:49Z</time>
      </trkpt>
      <trkpt lat="47.66775" lon="6.17431">
        <ele>227.5</ele>
        <time>2020-11-29T14:24:50Z</time>
      </trkpt>
      <trkpt lat="47.66783" lon="6.17431">
        <ele>227.4</ele>
        <time>2020-11-29T14:24:54Z</time>
      </trkpt>
      <trkpt lat="47.6679" lon="6.1743">
        <ele>227.4</ele>
        <time>2020-11-29T14:24:56Z</time>
      </trkpt>
      <trkpt lat="47.66803" lon="6.17429">
        <ele>227.4</ele>
        <time>2020-11-29T14:24:57Z</time>
      </trkpt>
      <trkpt lat="47.66811" lon="6.17429">
        <ele>227.3</ele>
        <time>2020-11-29T14:25:01Z</time>
      </trkpt>
      <trkpt lat="47.66819" lon="6.17429">
        <ele>227.3</ele>
        <time>2020-11-29T14:25:01Z</time>
      </trkpt>
      <trkpt lat="47.66826" lon="6.1743">
        <ele>227.3</ele>
        <time>2020-11-29T14:25:04Z</time>
      </trkpt>
      <trkpt lat="47.6683" lon="6.1743">
        <ele>227.3</ele>
        <time>2020-11-29T14:25:06Z</time>
      </trkpt>
      <trkpt lat="47.66838" lon="6.17431">
        <ele>227.4</ele>
        <time>2020-11-29T14:25:08Z</time>
      </trkpt>
      <trkpt lat="47.66851" lon="6.17431">
        <ele>227.8</ele>
        <time>2020-11-29T14:25:09Z</time>
      </trkpt>
      <trkpt lat="47.66858" lon="6.17432">
        <ele>227.9</ele>
        <time>2020-11-29T14:25:13Z</time>
      </trkpt>
      <trkpt lat="47.66869" lon="6.1743">
        <ele>228.2</ele>
        <time>2020-11-29T14:25:16Z</time>
      </trkpt>
      <trkpt lat="47.66877" lon="6.17427">
        <ele>228.3</ele>
        <time>2020-11-29T14:25:18Z</time>
      </trkpt>
      <trkpt lat="47.66883" lon="6.17425">
        <ele>228.4</ele>
        <time>2020-11-29T14:25:19Z</time>
      </trkpt>
      <trkpt lat="47.66888" lon="6.17424">
        <ele>228.5</ele>
        <time>2020-11-29T14:25:19Z</time>
      </trkpt>
      <trkpt lat="47.66895" lon="6.1742">
        <ele>228.6</ele>
        <time>2020-11-29T14:25:23Z</time>
      </trkpt>
      <trkpt lat="47.66902" lon="6.17416">
        <ele>228.6</ele>
        <time>2020-11-29T14:25:23Z</time>
      </trkpt>
      <trkpt lat="47.66907" lon="6.17413">
        <ele>228.7</ele>
        <time>2020-11-29T14:25:26Z</time>
      </trkpt>
      <trkpt lat="47.66912" lon="6.1741">
        <ele>228.7</ele>
        <time>2020-11-29T14:25:27Z</time>
      </trkpt>
      <trkpt lat="47.66917" lon="6.17406">
        <ele>228.8</ele>
        <time>2020-11-29T14:25:27Z</time>
      </trkpt>
      <trkpt lat="47.66925" lon="6.17401">
        <ele>229.3</ele>
        <time>2020-11-29T14:25:29Z</time>
      </trkpt>
      <trkpt lat="47.66929" lon="6.17398">
        <ele>229.5</ele>
        <time>2020-11-29T14:25:30Z</time>
      </trkpt>
      <trkpt lat="47.66939" lon="6.17392">
        <ele>230.2</ele>
        <time>2020-11-29T14:25:32Z</time>
      </trkpt>
      <trkpt lat="47.66944" lon="6.17389">
        <ele>230.5</ele>
        <time>2020-11-29T14:25:33Z</time>
      </trkpt>
      <trkpt lat="47.66948" lon="6.17386">
        <ele>230.7</ele>
        <time>2020-11-29T14:25:34Z</time>
      </trkpt>
      <trkpt lat="47.66952" lon="6.17382">
        <ele>231</ele>
        <time>2020-11-29T14:25:35Z</time>
      </trkpt>
      <trkpt lat="47.66956" lon="6.17378">
        <ele>231.2</ele>
        <time>2020-11-29T14:25:36Z</time>
      </trkpt>
      <trkpt lat="47.66961" lon="6.17375">
        <ele>231.4</ele>
        <time>2020-11-29T14:25:37Z</time>
      </trkpt>
      <trkpt lat="47.66965" lon="6.17372">
        <ele>231.7</ele>
        <time>2020-11-29T14:25:38Z</time>
      </trkpt>
      <trkpt lat="47.6697" lon="6.17368">
        <ele>231.9</ele>
        <time>2020-11-29T14:25:39Z</time>
      </trkpt>
      <trkpt lat="47.66974" lon="6.17365">
        <ele>232.2</ele>
        <time>2020-11-29T14:25:40Z</time>
      </trkpt>
      <trkpt lat="47.66979" lon="6.17363">
        <ele>232.5</ele>
        <time>2020-11-29T14:25:41Z</time>
      </trkpt>
      <trkpt lat="47.66984" lon="6.17361">
        <ele>232.8</ele>
        <time>2020-11-29T14:25:42Z</time>
      </trkpt>
      <trkpt lat="47.66988" lon="6.17359">
        <ele>233</ele>
        <time>2020-11-29T14:25:43Z</time>
      </trkpt>
      <trkpt lat="47.66993" lon="6.17357">
        <ele>233.3</ele>
        <time>2020-11-29T14:25:44Z</time>
      </trkpt>
      <trkpt lat="47.66997" lon="6.17355">
        <ele>233.6</ele>
        <time>2020-11-29T14:25:45Z</time>
      </trkpt>
      <trkpt lat="47.67002" lon="6.17353">
        <ele>234</ele>
        <time>2020-11-29T14:25:46Z</time>
      </trkpt>
      <trkpt lat="47.6701" lon="6.17347">
        <ele>235.1</ele>
        <time>2020-11-29T14:25:48Z</time>
      </trkpt>
      <trkpt lat="47.67014" lon="6.17343">
        <ele>235.6</ele>
        <time>2020-11-29T14:25:49Z</time>
      </trkpt>
      <trkpt lat="47.67017" lon="6.17339">
        <ele>236.1</ele>
        <time>2020-11-29T14:25:50Z</time>
      </trkpt>
      <trkpt lat="47.67021" lon="6.17335">
        <ele>236.6</ele>
        <time>2020-11-29T14:25:51Z</time>
      </trkpt>
      <trkpt lat="47.67025" lon="6.1733">
        <ele>236.9</ele>
        <time>2020-11-29T14:25:52Z</time>
      </trkpt>
      <trkpt lat="47.67028" lon="6.17326">
        <ele>237.1</ele>
        <time>2020-11-29T14:25:53Z</time>
      </trkpt>
      <trkpt lat="47.67031" lon="6.1732">
        <ele>237.1</ele>
        <time>2020-11-29T14:25:54Z</time>
      </trkpt>
      <trkpt lat="47.67033" lon="6.17314">
        <ele>237</ele>
        <time>2020-11-29T14:25:55Z</time>
      </trkpt>
      <trkpt lat="47.67036" lon="6.17308">
        <ele>236.8</ele>
        <time>2020-11-29T14:25:56Z</time>
      </trkpt>
      <trkpt lat="47.67039" lon="6.17302">
        <ele>236.6</ele>
        <time>2020-11-29T14:25:57Z</time>
      </trkpt>
      <trkpt lat="47.67041" lon="6.17296">
        <ele>236.3</ele>
        <time>2020-11-29T14:25:58Z</time>
      </trkpt>
      <trkpt lat="47.67043" lon="6.1729">
        <ele>236</ele>
        <time>2020-11-29T14:25:59Z</time>
      </trkpt>
      <trkpt lat="47.67046" lon="6.17284">
        <ele>235.7</ele>
        <time>2020-11-29T14:26:00Z</time>
      </trkpt>
      <trkpt lat="47.67048" lon="6.17278">
        <ele>235.3</ele>
        <time>2020-11-29T14:26:01Z</time>
      </trkpt>
      <trkpt lat="47.67051" lon="6.17271">
        <ele>234.9</ele>
        <time>2020-11-29T14:26:02Z</time>
      </trkpt>
      <trkpt lat="47.67053" lon="6.17265">
        <ele>234.5</ele>
        <time>2020-11-29T14:26:03Z</time>
      </trkpt>
      <trkpt lat="47.67055" lon="6.17258">
        <ele>233.9</ele>
        <time>2020-11-29T14:26:04Z</time>
      </trkpt>
      <trkpt lat="47.67057" lon="6.17251">
        <ele>233.3</ele>
        <time>2020-11-29T14:26:05Z</time>
      </trkpt>
      <trkpt lat="47.67059" lon="6.17244">
        <ele>232.8</ele>
        <time>2020-11-29T14:26:06Z</time>
      </trkpt>
      <trkpt lat="47.67061" lon="6.17237">
        <ele>232.3</ele>
        <time>2020-11-29T14:26:07Z</time>
      </trkpt>
      <trkpt lat="47.67063" lon="6.1723">
        <ele>231.7</ele>
        <time>2020-11-29T14:26:08Z</time>
      </trkpt>
      <trkpt lat="47.67064" lon="6.17222">
        <ele>231.1</ele>
        <time>2020-11-29T14:26:09Z</time>
      </trkpt>
      <trkpt lat="47.67064" lon="6.17215">
        <ele>230.4</ele>
        <time>2020-11-29T14:26:10Z</time>
      </trkpt>
      <trkpt lat="47.67064" lon="6.17207">
        <ele>229.7</ele>
        <time>2020-11-29T14:26:11Z</time>
      </trkpt>
      <trkpt lat="47.67064" lon="6.17199">
        <ele>229</ele>
        <time>2020-11-29T14:26:12Z</time>
      </trkpt>
      <trkpt lat="47.67063" lon="6.17192">
        <ele>228.3</ele>
        <time>2020-11-29T14:26:13Z</time>
      </trkpt>
      <trkpt lat="47.67063" lon="6.17185">
        <ele>227.6</ele>
        <time>2020-11-29T14:26:14Z</time>
      </trkpt>
      <trkpt lat="47.67063" lon="6.17178">
        <ele>227</ele>
        <time>2020-11-29T14:26:15Z</time>
      </trkpt>
      <trkpt lat="47.67063" lon="6.17165">
        <ele>226</ele>
        <time>2020-11-29T14:26:17Z</time>
      </trkpt>
      <trkpt lat="47.67062" lon="6.17151">
        <ele>226</ele>
        <time>2020-11-29T14:26:19Z</time>
      </trkpt>
      <trkpt lat="47.67062" lon="6.17145">
        <ele>226</ele>
        <time>2020-11-29T14:26:20Z</time>
      </trkpt>
      <trkpt lat="47.67061" lon="6.17138">
        <ele>226</ele>
        <time>2020-11-29T14:26:21Z</time>
      </trkpt>
      <trkpt lat="47.6706" lon="6.17125">
        <ele>226</ele>
        <time>2020-11-29T14:26:23Z</time>
      </trkpt>
      <trkpt lat="47.6706" lon="6.17112">
        <ele>226</ele>
        <time>2020-11-29T14:26:25Z</time>
      </trkpt>
      <trkpt lat="47.67059" lon="6.171">
        <ele>226</ele>
        <time>2020-11-29T14:26:27Z</time>
      </trkpt>
      <trkpt lat="47.67059" lon="6.1709">
        <ele>226</ele>
        <time>2020-11-29T14:26:29Z</time>
      </trkpt>
      <trkpt lat="47.67059" lon="6.17078">
        <ele>226</ele>
        <time>2020-11-29T14:26:31Z</time>
      </trkpt>
      <trkpt lat="47.67058" lon="6.17065">
        <ele>226.1</ele>
        <time>2020-11-29T14:26:33Z</time>
      </trkpt>
      <trkpt lat="47.67058" lon="6.17042">
        <ele>226.3</ele>
        <time>2020-11-29T14:26:35Z</time>
      </trkpt>
      <trkpt lat="47.67058" lon="6.17033">
        <ele>226.4</ele>
        <time>2020-11-29T14:26:38Z</time>
      </trkpt>
      <trkpt lat="47.6706" lon="6.17023">
        <ele>226.4</ele>
        <time>2020-11-29T14:26:42Z</time>
      </trkpt>
      <trkpt lat="47.67061" lon="6.17011">
        <ele>226.5</ele>
        <time>2020-11-29T14:26:42Z</time>
      </trkpt>
      <trkpt lat="47.67063" lon="6.17002">
        <ele>226.5</ele>
        <time>2020-11-29T14:26:46Z</time>
      </trkpt>
      <trkpt lat="47.67065" lon="6.16991">
        <ele>226.5</ele>
        <time>2020-11-29T14:26:47Z</time>
      </trkpt>
      <trkpt lat="47.67066" lon="6.16981">
        <ele>226.6</ele>
        <time>2020-11-29T14:26:47Z</time>
      </trkpt>
      <trkpt lat="47.67068" lon="6.16968">
        <ele>226.6</ele>
        <time>2020-11-29T14:26:49Z</time>
      </trkpt>
      <trkpt lat="47.6707" lon="6.16956">
        <ele>226.6</ele>
        <time>2020-11-29T14:26:53Z</time>
      </trkpt>
      <trkpt lat="47.67072" lon="6.16943">
        <ele>226.7</ele>
        <time>2020-11-29T14:26:53Z</time>
      </trkpt>
      <trkpt lat="47.67072" lon="6.16934">
        <ele>226.7</ele>
        <time>2020-11-29T14:26:56Z</time>
      </trkpt>
      <trkpt lat="47.67072" lon="6.16925">
        <ele>226.7</ele>
        <time>2020-11-29T14:26:58Z</time>
      </trkpt>
      <trkpt lat="47.67071" lon="6.16914">
        <ele>226.9</ele>
        <time>2020-11-29T14:27:00Z</time>
      </trkpt>
      <trkpt lat="47.67069" lon="6.16905">
        <ele>227.2</ele>
        <time>2020-11-29T14:27:01Z</time>
      </trkpt>
      <trkpt lat="47.67065" lon="6.16897">
        <ele>227.4</ele>
        <time>2020-11-29T14:27:03Z</time>
      </trkpt>
      <trkpt lat="47.6706" lon="6.16888">
        <ele>227.8</ele>
        <time>2020-11-29T14:27:05Z</time>
      </trkpt>
      <trkpt lat="47.67053" lon="6.16878">
        <ele>228.3</ele>
        <time>2020-11-29T14:27:05Z</time>
      </trkpt>
      <trkpt lat="47.6705" lon="6.16872">
        <ele>228.5</ele>
        <time>2020-11-29T14:27:08Z</time>
      </trkpt>
      <trkpt lat="47.67046" lon="6.16867">
        <ele>228.8</ele>
        <time>2020-11-29T14:27:08Z</time>
      </trkpt>
      <trkpt lat="47.67042" lon="6.16862">
        <ele>229</ele>
        <time>2020-11-29T14:27:11Z</time>
      </trkpt>
      <trkpt lat="47.67038" lon="6.16857">
        <ele>229.2</ele>
        <time>2020-11-29T14:27:11Z</time>
      </trkpt>
      <trkpt lat="47.67034" lon="6.16852">
        <ele>229.4</ele>
        <time>2020-11-29T14:27:13Z</time>
      </trkpt>
      <trkpt lat="47.67029" lon="6.16849">
        <ele>229.7</ele>
        <time>2020-11-29T14:27:15Z</time>
      </trkpt>
      <trkpt lat="47.67025" lon="6.16845">
        <ele>229.9</ele>
        <time>2020-11-29T14:27:19Z</time>
      </trkpt>
      <trkpt lat="47.67021" lon="6.1684">
        <ele>230.1</ele>
        <time>2020-11-29T14:27:19Z</time>
      </trkpt>
      <trkpt lat="47.67016" lon="6.16836">
        <ele>230.3</ele>
        <time>2020-11-29T14:27:21Z</time>
      </trkpt>
      <trkpt lat="47.67012" lon="6.16832">
        <ele>230.4</ele>
        <time>2020-11-29T14:27:23Z</time>
      </trkpt>
      <trkpt lat="47.67007" lon="6.16827">
        <ele>230.5</ele>
        <time>2020-11-29T14:27:25Z</time>
      </trkpt>
      <trkpt lat="47.67002" lon="6.16822">
        <ele>230.6</ele>
        <time>2020-11-29T14:27:27Z</time>
      </trkpt>
      <trkpt lat="47.66997" lon="6.16818">
        <ele>230.7</ele>
        <time>2020-11-29T14:27:29Z</time>
      </trkpt>
      <trkpt lat="47.66992" lon="6.16814">
        <ele>230.8</ele>
        <time>2020-11-29T14:27:31Z</time>
      </trkpt>
      <trkpt lat="47.66986" lon="6.16809">
        <ele>231</ele>
        <time>2020-11-29T14:27:33Z</time>
      </trkpt>
      <trkpt lat="47.66981" lon="6.16805">
        <ele>231.1</ele>
        <time>2020-11-29T14:27:37Z</time>
      </trkpt>
      <trkpt lat="47.66976" lon="6.168">
        <ele>231.2</ele>
        <time>2020-11-29T14:27:37Z</time>
      </trkpt>
      <trkpt lat="47.66971" lon="6.16796">
        <ele>231.3</ele>
        <time>2020-11-29T14:27:41Z</time>
      </trkpt>
      <trkpt lat="47.66966" lon="6.16792">
        <ele>231.4</ele>
        <time>2020-11-29T14:27:41Z</time>
      </trkpt>
      <trkpt lat="47.66961" lon="6.16787">
        <ele>231.6</ele>
        <time>2020-11-29T14:27:43Z</time>
      </trkpt>
      <trkpt lat="47.66956" lon="6.16782">
        <ele>231.7</ele>
        <time>2020-11-29T14:27:45Z</time>
      </trkpt>
      <trkpt lat="47.66952" lon="6.16776">
        <ele>231.8</ele>
        <time>2020-11-29T14:27:49Z</time>
      </trkpt>
      <trkpt lat="47.66948" lon="6.1677">
        <ele>231.8</ele>
        <time>2020-11-29T14:27:50Z</time>
      </trkpt>
      <trkpt lat="47.66943" lon="6.16761">
        <ele>231.9</ele>
        <time>2020-11-29T14:27:51Z</time>
      </trkpt>
      <trkpt lat="47.66939" lon="6.16753">
        <ele>232</ele>
        <time>2020-11-29T14:27:55Z</time>
      </trkpt>
      <trkpt lat="47.66935" lon="6.16744">
        <ele>232.1</ele>
        <time>2020-11-29T14:27:57Z</time>
      </trkpt>
      <trkpt lat="47.66933" lon="6.16738">
        <ele>232.1</ele>
        <time>2020-11-29T14:27:58Z</time>
      </trkpt>
      <trkpt lat="47.66931" lon="6.16731">
        <ele>232.1</ele>
        <time>2020-11-29T14:27:58Z</time>
      </trkpt>
      <trkpt lat="47.6693" lon="6.16721">
        <ele>232.1</ele>
        <time>2020-11-29T14:28:02Z</time>
      </trkpt>
      <trkpt lat="47.66928" lon="6.16712">
        <ele>232.1</ele>
        <time>2020-11-29T14:28:02Z</time>
      </trkpt>
      <trkpt lat="47.66928" lon="6.16703">
        <ele>232.1</ele>
        <time>2020-11-29T14:28:04Z</time>
      </trkpt>
      <trkpt lat="47.66927" lon="6.16694">
        <ele>232</ele>
        <time>2020-11-29T14:28:08Z</time>
      </trkpt>
      <trkpt lat="47.66928" lon="6.16687">
        <ele>231.9</ele>
        <time>2020-11-29T14:28:09Z</time>
      </trkpt>
      <trkpt lat="47.66928" lon="6.16678">
        <ele>231.8</ele>
        <time>2020-11-29T14:28:09Z</time>
      </trkpt>
      <trkpt lat="47.66929" lon="6.16668">
        <ele>231.7</ele>
        <time>2020-11-29T14:28:11Z</time>
      </trkpt>
      <trkpt lat="47.66932" lon="6.16658">
        <ele>231.5</ele>
        <time>2020-11-29T14:28:13Z</time>
      </trkpt>
      <trkpt lat="47.66935" lon="6.16648">
        <ele>231.2</ele>
        <time>2020-11-29T14:28:15Z</time>
      </trkpt>
      <trkpt lat="47.66937" lon="6.16637">
        <ele>231</ele>
        <time>2020-11-29T14:28:19Z</time>
      </trkpt>
      <trkpt lat="47.66939" lon="6.16626">
        <ele>230.7</ele>
        <time>2020-11-29T14:28:19Z</time>
      </trkpt>
      <trkpt lat="47.66941" lon="6.16615">
        <ele>230.5</ele>
        <time>2020-11-29T14:28:21Z</time>
      </trkpt>
      <trkpt lat="47.66942" lon="6.16604">
        <ele>230.3</ele>
        <time>2020-11-29T14:28:23Z</time>
      </trkpt>
      <trkpt lat="47.66944" lon="6.16594">
        <ele>230.2</ele>
        <time>2020-11-29T14:28:25Z</time>
      </trkpt>
      <trkpt lat="47.66945" lon="6.16586">
        <ele>230</ele>
        <time>2020-11-29T14:28:28Z</time>
      </trkpt>
      <trkpt lat="47.66947" lon="6.16577">
        <ele>230.2</ele>
        <time>2020-11-29T14:28:28Z</time>
      </trkpt>
      <trkpt lat="47.66949" lon="6.16566">
        <ele>230.6</ele>
        <time>2020-11-29T14:28:32Z</time>
      </trkpt>
      <trkpt lat="47.66952" lon="6.16555">
        <ele>231</ele>
        <time>2020-11-29T14:28:32Z</time>
      </trkpt>
      <trkpt lat="47.66954" lon="6.16543">
        <ele>231.4</ele>
        <time>2020-11-29T14:28:34Z</time>
      </trkpt>
      <trkpt lat="47.66956" lon="6.16532">
        <ele>231.9</ele>
        <time>2020-11-29T14:28:36Z</time>
      </trkpt>
      <trkpt lat="47.66957" lon="6.16519">
        <ele>232.3</ele>
        <time>2020-11-29T14:28:38Z</time>
      </trkpt>
      <trkpt lat="47.66957" lon="6.16508">
        <ele>232.7</ele>
        <time>2020-11-29T14:28:40Z</time>
      </trkpt>
      <trkpt lat="47.66957" lon="6.16498">
        <ele>233.1</ele>
        <time>2020-11-29T14:28:42Z</time>
      </trkpt>
      <trkpt lat="47.66957" lon="6.16488">
        <ele>233.4</ele>
        <time>2020-11-29T14:28:44Z</time>
      </trkpt>
      <trkpt lat="47.66957" lon="6.16478">
        <ele>233.8</ele>
        <time>2020-11-29T14:28:46Z</time>
      </trkpt>
      <trkpt lat="47.66957" lon="6.16469">
        <ele>234.1</ele>
        <time>2020-11-29T14:28:48Z</time>
      </trkpt>
      <trkpt lat="47.66957" lon="6.16461">
        <ele>234.4</ele>
        <time>2020-11-29T14:28:52Z</time>
      </trkpt>
      <trkpt lat="47.66957" lon="6.16453">
        <ele>234.7</ele>
        <time>2020-11-29T14:28:55Z</time>
      </trkpt>
      <trkpt lat="47.66959" lon="6.16447">
        <ele>234.9</ele>
        <time>2020-11-29T14:28:57Z</time>
      </trkpt>
      <trkpt lat="47.6696" lon="6.16438">
        <ele>235.2</ele>
        <time>2020-11-29T14:28:59Z</time>
      </trkpt>
      <trkpt lat="47.66963" lon="6.16429">
        <ele>235.5</ele>
        <time>2020-11-29T14:29:02Z</time>
      </trkpt>
      <trkpt lat="47.66965" lon="6.16422">
        <ele>235.7</ele>
        <time>2020-11-29T14:29:04Z</time>
      </trkpt>
      <trkpt lat="47.66966" lon="6.16416">
        <ele>235.9</ele>
        <time>2020-11-29T14:29:06Z</time>
      </trkpt>
      <trkpt lat="47.66967" lon="6.16409">
        <ele>236.2</ele>
        <time>2020-11-29T14:29:08Z</time>
      </trkpt>
      <trkpt lat="47.66969" lon="6.16401">
        <ele>236.6</ele>
        <time>2020-11-29T14:29:11Z</time>
      </trkpt>
      <trkpt lat="47.66972" lon="6.16393">
        <ele>236.9</ele>
        <time>2020-11-29T14:29:15Z</time>
      </trkpt>
      <trkpt lat="47.66973" lon="6.16386">
        <ele>237.2</ele>
        <time>2020-11-29T14:29:18Z</time>
      </trkpt>
      <trkpt lat="47.66975" lon="6.16379">
        <ele>237.5</ele>
        <time>2020-11-29T14:29:22Z</time>
      </trkpt>
      <trkpt lat="47.66976" lon="6.16372">
        <ele>237.8</ele>
        <time>2020-11-29T14:29:25Z</time>
      </trkpt>
      <trkpt lat="47.66977" lon="6.16366">
        <ele>238.1</ele>
        <time>2020-11-29T14:29:28Z</time>
      </trkpt>
      <trkpt lat="47.66978" lon="6.16358">
        <ele>238.4</ele>
        <time>2020-11-29T14:29:31Z</time>
      </trkpt>
      <trkpt lat="47.66978" lon="6.16351">
        <ele>238.7</ele>
        <time>2020-11-29T14:29:34Z</time>
      </trkpt>
      <trkpt lat="47.66979" lon="6.16343">
        <ele>239.1</ele>
        <time>2020-11-29T14:29:38Z</time>
      </trkpt>
      <trkpt lat="47.66979" lon="6.16336">
        <ele>239.4</ele>
        <time>2020-11-29T14:29:41Z</time>
      </trkpt>
      <trkpt lat="47.66978" lon="6.16327">
        <ele>239.7</ele>
        <time>2020-11-29T14:29:45Z</time>
      </trkpt>
      <trkpt lat="47.66978" lon="6.1632">
        <ele>240</ele>
        <time>2020-11-29T14:29:48Z</time>
      </trkpt>
      <trkpt lat="47.66977" lon="6.16313">
        <ele>240.3</ele>
        <time>2020-11-29T14:29:52Z</time>
      </trkpt>
      <trkpt lat="47.66976" lon="6.16304">
        <ele>240.7</ele>
        <time>2020-11-29T14:29:58Z</time>
      </trkpt>
      <trkpt lat="47.66973" lon="6.16297">
        <ele>241</ele>
        <time>2020-11-29T14:30:01Z</time>
      </trkpt>
      <trkpt lat="47.66971" lon="6.16291">
        <ele>241.2</ele>
        <time>2020-11-29T14:30:04Z</time>
      </trkpt>
      <trkpt lat="47.66969" lon="6.16284">
        <ele>241.5</ele>
        <time>2020-11-29T14:30:08Z</time>
      </trkpt>
      <trkpt lat="47.66967" lon="6.16278">
        <ele>241.7</ele>
        <time>2020-11-29T14:30:12Z</time>
      </trkpt>
      <trkpt lat="47.66965" lon="6.16271">
        <ele>241.9</ele>
        <time>2020-11-29T14:30:16Z</time>
      </trkpt>
      <trkpt lat="47.66964" lon="6.16263">
        <ele>242.1</ele>
        <time>2020-11-29T14:30:19Z</time>
      </trkpt>
      <trkpt lat="47.66965" lon="6.16254">
        <ele>242.3</ele>
        <time>2020-11-29T14:30:22Z</time>
      </trkpt>
      <trkpt lat="47.66965" lon="6.16246">
        <ele>242.6</ele>
        <time>2020-11-29T14:30:25Z</time>
      </trkpt>
      <trkpt lat="47.66966" lon="6.16237">
        <ele>243</ele>
        <time>2020-11-29T14:30:28Z</time>
      </trkpt>
      <trkpt lat="47.66965" lon="6.1623">
        <ele>243.3</ele>
        <time>2020-11-29T14:30:31Z</time>
      </trkpt>
      <trkpt lat="47.66965" lon="6.16223">
        <ele>243.6</ele>
        <time>2020-11-29T14:30:34Z</time>
      </trkpt>
      <trkpt lat="47.66966" lon="6.16217">
        <ele>243.8</ele>
        <time>2020-11-29T14:30:37Z</time>
      </trkpt>
      <trkpt lat="47.66968" lon="6.1621">
        <ele>244.1</ele>
        <time>2020-11-29T14:30:40Z</time>
      </trkpt>
      <trkpt lat="47.66971" lon="6.16204">
        <ele>244.4</ele>
        <time>2020-11-29T14:30:43Z</time>
      </trkpt>
      <trkpt lat="47.66972" lon="6.16195">
        <ele>244.7</ele>
        <time>2020-11-29T14:30:47Z</time>
      </trkpt>
      <trkpt lat="47.66975" lon="6.16187">
        <ele>245.1</ele>
        <time>2020-11-29T14:30:51Z</time>
      </trkpt>
      <trkpt lat="47.66977" lon="6.16179">
        <ele>245.4</ele>
        <time>2020-11-29T14:30:55Z</time>
      </trkpt>
      <trkpt lat="47.66979" lon="6.16171">
        <ele>245.8</ele>
        <time>2020-11-29T14:30:59Z</time>
      </trkpt>
      <trkpt lat="47.6698" lon="6.16165">
        <ele>246.1</ele>
        <time>2020-11-29T14:31:02Z</time>
      </trkpt>
      <trkpt lat="47.66982" lon="6.16158">
        <ele>246.6</ele>
        <time>2020-11-29T14:31:05Z</time>
      </trkpt>
      <trkpt lat="47.66984" lon="6.1615">
        <ele>247.2</ele>
        <time>2020-11-29T14:31:09Z</time>
      </trkpt>
      <trkpt lat="47.66985" lon="6.16142">
        <ele>247.7</ele>
        <time>2020-11-29T14:31:13Z</time>
      </trkpt>
      <trkpt lat="47.66988" lon="6.16134">
        <ele>248.3</ele>
        <time>2020-11-29T14:31:17Z</time>
      </trkpt>
      <trkpt lat="47.6699" lon="6.16126">
        <ele>248.9</ele>
        <time>2020-11-29T14:31:21Z</time>
      </trkpt>
      <trkpt lat="47.66991" lon="6.16118">
        <ele>249.5</ele>
        <time>2020-11-29T14:31:25Z</time>
      </trkpt>
      <trkpt lat="47.66993" lon="6.16109">
        <ele>250.1</ele>
        <time>2020-11-29T14:31:29Z</time>
      </trkpt>
      <trkpt lat="47.66994" lon="6.161">
        <ele>250.7</ele>
        <time>2020-11-29T14:31:33Z</time>
      </trkpt>
      <trkpt lat="47.66995" lon="6.16093">
        <ele>251.3</ele>
        <time>2020-11-29T14:31:36Z</time>
      </trkpt>
      <trkpt lat="47.66996" lon="6.16086">
        <ele>251.8</ele>
        <time>2020-11-29T14:31:39Z</time>
      </trkpt>
      <trkpt lat="47.66994" lon="6.16079">
        <ele>252.1</ele>
        <time>2020-11-29T14:31:43Z</time>
      </trkpt>
      <trkpt lat="47.66994" lon="6.1607">
        <ele>252.4</ele>
        <time>2020-11-29T14:31:48Z</time>
      </trkpt>
      <trkpt lat="47.66994" lon="6.16063">
        <ele>252.6</ele>
        <time>2020-11-29T14:31:51Z</time>
      </trkpt>
      <trkpt lat="47.66994" lon="6.16055">
        <ele>252.9</ele>
        <time>2020-11-29T14:31:55Z</time>
      </trkpt>
      <trkpt lat="47.66993" lon="6.16046">
        <ele>253.2</ele>
        <time>2020-11-29T14:31:59Z</time>
      </trkpt>
      <trkpt lat="47.66992" lon="6.16038">
        <ele>253.5</ele>
        <time>2020-11-29T14:32:03Z</time>
      </trkpt>
      <trkpt lat="47.66991" lon="6.16031">
        <ele>253.7</ele>
        <time>2020-11-29T14:32:07Z</time>
      </trkpt>
      <trkpt lat="47.6699" lon="6.16024">
        <ele>253.9</ele>
        <time>2020-11-29T14:32:10Z</time>
      </trkpt>
      <trkpt lat="47.6699" lon="6.16015">
        <ele>254.3</ele>
        <time>2020-11-29T14:32:14Z</time>
      </trkpt>
      <trkpt lat="47.66989" lon="6.16006">
        <ele>254.5</ele>
        <time>2020-11-29T14:32:18Z</time>
      </trkpt>
      <trkpt lat="47.66989" lon="6.15999">
        <ele>254.7</ele>
        <time>2020-11-29T14:32:21Z</time>
      </trkpt>
      <trkpt lat="47.66988" lon="6.15992">
        <ele>254.8</ele>
        <time>2020-11-29T14:32:24Z</time>
      </trkpt>
      <trkpt lat="47.66988" lon="6.15985">
        <ele>254.8</ele>
        <time>2020-11-29T14:32:27Z</time>
      </trkpt>
      <trkpt lat="47.66987" lon="6.15976">
        <ele>254.9</ele>
        <time>2020-11-29T14:32:31Z</time>
      </trkpt>
      <trkpt lat="47.66987" lon="6.15968">
        <ele>254.9</ele>
        <time>2020-11-29T14:32:35Z</time>
      </trkpt>
      <trkpt lat="47.66987" lon="6.15962">
        <ele>255</ele>
        <time>2020-11-29T14:32:38Z</time>
      </trkpt>
      <trkpt lat="47.66985" lon="6.15954">
        <ele>255</ele>
        <time>2020-11-29T14:32:42Z</time>
      </trkpt>
      <trkpt lat="47.66985" lon="6.15946">
        <ele>255.1</ele>
        <time>2020-11-29T14:32:46Z</time>
      </trkpt>
      <trkpt lat="47.66984" lon="6.15939">
        <ele>255.2</ele>
        <time>2020-11-29T14:32:50Z</time>
      </trkpt>
      <trkpt lat="47.66984" lon="6.15932">
        <ele>255.2</ele>
        <time>2020-11-29T14:32:54Z</time>
      </trkpt>
      <trkpt lat="47.66983" lon="6.15924">
        <ele>255.3</ele>
        <time>2020-11-29T14:32:58Z</time>
      </trkpt>
      <trkpt lat="47.66983" lon="6.15917">
        <ele>255.4</ele>
        <time>2020-11-29T14:33:01Z</time>
      </trkpt>
      <trkpt lat="47.66982" lon="6.1591">
        <ele>255.7</ele>
        <time>2020-11-29T14:33:05Z</time>
      </trkpt>
      <trkpt lat="47.66981" lon="6.15904">
        <ele>255.9</ele>
        <time>2020-11-29T14:33:08Z</time>
      </trkpt>
      <trkpt lat="47.6698" lon="6.15896">
        <ele>256.3</ele>
        <time>2020-11-29T14:33:12Z</time>
      </trkpt>
      <trkpt lat="47.6698" lon="6.15887">
        <ele>256.6</ele>
        <time>2020-11-29T14:33:16Z</time>
      </trkpt>
      <trkpt lat="47.6698" lon="6.15878">
        <ele>257</ele>
        <time>2020-11-29T14:33:20Z</time>
      </trkpt>
      <trkpt lat="47.66979" lon="6.15869">
        <ele>257.4</ele>
        <time>2020-11-29T14:33:24Z</time>
      </trkpt>
      <trkpt lat="47.66978" lon="6.15862">
        <ele>257.6</ele>
        <time>2020-11-29T14:33:27Z</time>
      </trkpt>
      <trkpt lat="47.66978" lon="6.15855">
        <ele>257.9</ele>
        <time>2020-11-29T14:33:30Z</time>
      </trkpt>
      <trkpt lat="47.66977" lon="6.15848">
        <ele>258.2</ele>
        <time>2020-11-29T14:33:33Z</time>
      </trkpt>
      <trkpt lat="47.66976" lon="6.15841">
        <ele>258.6</ele>
        <time>2020-11-29T14:33:36Z</time>
      </trkpt>
      <trkpt lat="47.66976" lon="6.15833">
        <ele>258.9</ele>
        <time>2020-11-29T14:33:39Z</time>
      </trkpt>
      <trkpt lat="47.66975" lon="6.15826">
        <ele>259</ele>
        <time>2020-11-29T14:33:44Z</time>
      </trkpt>
      <trkpt lat="47.66975" lon="6.15819">
        <ele>259.1</ele>
        <time>2020-11-29T14:33:44Z</time>
      </trkpt>
      <trkpt lat="47.66974" lon="6.15811">
        <ele>259.3</ele>
        <time>2020-11-29T14:33:47Z</time>
      </trkpt>
      <trkpt lat="47.66973" lon="6.15803">
        <ele>259.5</ele>
        <time>2020-11-29T14:33:50Z</time>
      </trkpt>
      <trkpt lat="47.66972" lon="6.15795">
        <ele>259.6</ele>
        <time>2020-11-29T14:33:53Z</time>
      </trkpt>
      <trkpt lat="47.66971" lon="6.15787">
        <ele>259.8</ele>
        <time>2020-11-29T14:33:56Z</time>
      </trkpt>
      <trkpt lat="47.6697" lon="6.15778">
        <ele>259.9</ele>
        <time>2020-11-29T14:33:59Z</time>
      </trkpt>
      <trkpt lat="47.6697" lon="6.1577">
        <ele>260</ele>
        <time>2020-11-29T14:34:02Z</time>
      </trkpt>
      <trkpt lat="47.6697" lon="6.15763">
        <ele>260.2</ele>
        <time>2020-11-29T14:34:05Z</time>
      </trkpt>
      <trkpt lat="47.66969" lon="6.15755">
        <ele>260.3</ele>
        <time>2020-11-29T14:34:08Z</time>
      </trkpt>
      <trkpt lat="47.66969" lon="6.15746">
        <ele>260.3</ele>
        <time>2020-11-29T14:34:11Z</time>
      </trkpt>
      <trkpt lat="47.66969" lon="6.15738">
        <ele>260.3</ele>
        <time>2020-11-29T14:34:15Z</time>
      </trkpt>
      <trkpt lat="47.66968" lon="6.1573">
        <ele>260.2</ele>
        <time>2020-11-29T14:34:18Z</time>
      </trkpt>
      <trkpt lat="47.66968" lon="6.15722">
        <ele>260.2</ele>
        <time>2020-11-29T14:34:21Z</time>
      </trkpt>
      <trkpt lat="47.66967" lon="6.15714">
        <ele>260.1</ele>
        <time>2020-11-29T14:34:24Z</time>
      </trkpt>
      <trkpt lat="47.66966" lon="6.15705">
        <ele>260.1</ele>
        <time>2020-11-29T14:34:27Z</time>
      </trkpt>
      <trkpt lat="47.66966" lon="6.15696">
        <ele>260</ele>
        <time>2020-11-29T14:34:30Z</time>
      </trkpt>
      <trkpt lat="47.66965" lon="6.15688">
        <ele>260</ele>
        <time>2020-11-29T14:34:33Z</time>
      </trkpt>
      <trkpt lat="47.66965" lon="6.1568">
        <ele>259.9</ele>
        <time>2020-11-29T14:34:36Z</time>
      </trkpt>
      <trkpt lat="47.66964" lon="6.15672">
        <ele>259.9</ele>
        <time>2020-11-29T14:34:39Z</time>
      </trkpt>
      <trkpt lat="47.66963" lon="6.15663">
        <ele>259.9</ele>
        <time>2020-11-29T14:34:42Z</time>
      </trkpt>
      <trkpt lat="47.66963" lon="6.15653">
        <ele>259.9</ele>
        <time>2020-11-29T14:34:45Z</time>
      </trkpt>
      <trkpt lat="47.66962" lon="6.15645">
        <ele>259.9</ele>
        <time>2020-11-29T14:34:48Z</time>
      </trkpt>
      <trkpt lat="47.66962" lon="6.15638">
        <ele>259.9</ele>
        <time>2020-11-29T14:34:50Z</time>
      </trkpt>
      <trkpt lat="47.66961" lon="6.1563">
        <ele>260</ele>
        <time>2020-11-29T14:34:52Z</time>
      </trkpt>
      <trkpt lat="47.66961" lon="6.15622">
        <ele>260</ele>
        <time>2020-11-29T14:34:55Z</time>
      </trkpt>
      <trkpt lat="47.6696" lon="6.15615">
        <ele>260</ele>
        <time>2020-11-29T14:34:56Z</time>
      </trkpt>
      <trkpt lat="47.6696" lon="6.15608">
        <ele>260</ele>
        <time>2020-11-29T14:34:59Z</time>
      </trkpt>
      <trkpt lat="47.66959" lon="6.15597">
        <ele>260</ele>
        <time>2020-11-29T14:35:00Z</time>
      </trkpt>
      <trkpt lat="47.66958" lon="6.15588">
        <ele>260</ele>
        <time>2020-11-29T14:35:03Z</time>
      </trkpt>
      <trkpt lat="47.66957" lon="6.15566">
        <ele>259.9</ele>
        <time>2020-11-29T14:35:05Z</time>
      </trkpt>
      <trkpt lat="47.66957" lon="6.15558">
        <ele>259.8</ele>
        <time>2020-11-29T14:35:06Z</time>
      </trkpt>
      <trkpt lat="47.66956" lon="6.15542">
        <ele>259.7</ele>
        <time>2020-11-29T14:35:08Z</time>
      </trkpt>
      <trkpt lat="47.66955" lon="6.15524">
        <ele>259.5</ele>
        <time>2020-11-29T14:35:09Z</time>
      </trkpt>
      <trkpt lat="47.66954" lon="6.1551">
        <ele>259.4</ele>
        <time>2020-11-29T14:35:10Z</time>
      </trkpt>
      <trkpt lat="47.66954" lon="6.15497">
        <ele>259.2</ele>
        <time>2020-11-29T14:35:11Z</time>
      </trkpt>
      <trkpt lat="47.66953" lon="6.15484">
        <ele>258.9</ele>
        <time>2020-11-29T14:35:12Z</time>
      </trkpt>
      <trkpt lat="47.66952" lon="6.15471">
        <ele>258.7</ele>
        <time>2020-11-29T14:35:13Z</time>
      </trkpt>
      <trkpt lat="47.66952" lon="6.15459">
        <ele>258.4</ele>
        <time>2020-11-29T14:35:14Z</time>
      </trkpt>
      <trkpt lat="47.66952" lon="6.15447">
        <ele>258.2</ele>
        <time>2020-11-29T14:35:15Z</time>
      </trkpt>
      <trkpt lat="47.66951" lon="6.15435">
        <ele>258</ele>
        <time>2020-11-29T14:35:16Z</time>
      </trkpt>
      <trkpt lat="47.66951" lon="6.15423">
        <ele>257.7</ele>
        <time>2020-11-29T14:35:17Z</time>
      </trkpt>
      <trkpt lat="47.6695" lon="6.15413">
        <ele>257.7</ele>
        <time>2020-11-29T14:35:18Z</time>
      </trkpt>
      <trkpt lat="47.6695" lon="6.15402">
        <ele>258</ele>
        <time>2020-11-29T14:35:19Z</time>
      </trkpt>
      <trkpt lat="47.66949" lon="6.15393">
        <ele>258.3</ele>
        <time>2020-11-29T14:35:20Z</time>
      </trkpt>
      <trkpt lat="47.66949" lon="6.15383">
        <ele>258.5</ele>
        <time>2020-11-29T14:35:21Z</time>
      </trkpt>
      <trkpt lat="47.66949" lon="6.15375">
        <ele>258.8</ele>
        <time>2020-11-29T14:35:22Z</time>
      </trkpt>
      <trkpt lat="47.66948" lon="6.15367">
        <ele>259</ele>
        <time>2020-11-29T14:35:23Z</time>
      </trkpt>
      <trkpt lat="47.66948" lon="6.1536">
        <ele>259.2</ele>
        <time>2020-11-29T14:35:24Z</time>
      </trkpt>
      <trkpt lat="47.66947" lon="6.1535">
        <ele>259.5</ele>
        <time>2020-11-29T14:35:26Z</time>
      </trkpt>
      <trkpt lat="47.66946" lon="6.15341">
        <ele>259.8</ele>
        <time>2020-11-29T14:35:28Z</time>
      </trkpt>
      <trkpt lat="47.66946" lon="6.15334">
        <ele>260</ele>
        <time>2020-11-29T14:35:30Z</time>
      </trkpt>
      <trkpt lat="47.66945" lon="6.15328">
        <ele>260.2</ele>
        <time>2020-11-29T14:35:32Z</time>
      </trkpt>
      <trkpt lat="47.66945" lon="6.15321">
        <ele>260.4</ele>
        <time>2020-11-29T14:35:34Z</time>
      </trkpt>
      <trkpt lat="47.66944" lon="6.15314">
        <ele>260.6</ele>
        <time>2020-11-29T14:35:36Z</time>
      </trkpt>
      <trkpt lat="47.66942" lon="6.15306">
        <ele>260.8</ele>
        <time>2020-11-29T14:35:39Z</time>
      </trkpt>
      <trkpt lat="47.6694" lon="6.15298">
        <ele>261.1</ele>
        <time>2020-11-29T14:35:41Z</time>
      </trkpt>
      <trkpt lat="47.66939" lon="6.15291">
        <ele>261.4</ele>
        <time>2020-11-29T14:35:43Z</time>
      </trkpt>
      <trkpt lat="47.66937" lon="6.15283">
        <ele>261.7</ele>
        <time>2020-11-29T14:35:45Z</time>
      </trkpt>
      <trkpt lat="47.66935" lon="6.15277">
        <ele>262</ele>
        <time>2020-11-29T14:35:47Z</time>
      </trkpt>
      <trkpt lat="47.66934" lon="6.1527">
        <ele>262.3</ele>
        <time>2020-11-29T14:35:49Z</time>
      </trkpt>
      <trkpt lat="47.66932" lon="6.15263">
        <ele>262.6</ele>
        <time>2020-11-29T14:35:51Z</time>
      </trkpt>
      <trkpt lat="47.66931" lon="6.15256">
        <ele>262.9</ele>
        <time>2020-11-29T14:35:53Z</time>
      </trkpt>
      <trkpt lat="47.66929" lon="6.1525">
        <ele>263.3</ele>
        <time>2020-11-29T14:35:55Z</time>
      </trkpt>
      <trkpt lat="47.66927" lon="6.15244">
        <ele>263.5</ele>
        <time>2020-11-29T14:35:57Z</time>
      </trkpt>
      <trkpt lat="47.66925" lon="6.15237">
        <ele>263.7</ele>
        <time>2020-11-29T14:35:59Z</time>
      </trkpt>
      <trkpt lat="47.66922" lon="6.1523">
        <ele>263.9</ele>
        <time>2020-11-29T14:36:01Z</time>
      </trkpt>
      <trkpt lat="47.6692" lon="6.15223">
        <ele>264.2</ele>
        <time>2020-11-29T14:36:03Z</time>
      </trkpt>
      <trkpt lat="47.66918" lon="6.15216">
        <ele>264.4</ele>
        <time>2020-11-29T14:36:05Z</time>
      </trkpt>
      <trkpt lat="47.66917" lon="6.15209">
        <ele>264.5</ele>
        <time>2020-11-29T14:36:07Z</time>
      </trkpt>
      <trkpt lat="47.66917" lon="6.152">
        <ele>264.6</ele>
        <time>2020-11-29T14:36:09Z</time>
      </trkpt>
      <trkpt lat="47.66922" lon="6.15193">
        <ele>264.5</ele>
        <time>2020-11-29T14:36:11Z</time>
      </trkpt>
      <trkpt lat="47.66925" lon="6.15187">
        <ele>264.5</ele>
        <time>2020-11-29T14:36:13Z</time>
      </trkpt>
      <trkpt lat="47.66929" lon="6.15181">
        <ele>264.5</ele>
        <time>2020-11-29T14:36:15Z</time>
      </trkpt>
      <trkpt lat="47.66931" lon="6.15175">
        <ele>264.5</ele>
        <time>2020-11-29T14:36:17Z</time>
      </trkpt>
      <trkpt lat="47.66934" lon="6.15168">
        <ele>264.6</ele>
        <time>2020-11-29T14:36:19Z</time>
      </trkpt>
      <trkpt lat="47.66937" lon="6.15161">
        <ele>264.4</ele>
        <time>2020-11-29T14:36:21Z</time>
      </trkpt>
      <trkpt lat="47.66939" lon="6.15155">
        <ele>264.3</ele>
        <time>2020-11-29T14:36:23Z</time>
      </trkpt>
      <trkpt lat="47.66942" lon="6.15146">
        <ele>264.1</ele>
        <time>2020-11-29T14:36:25Z</time>
      </trkpt>
      <trkpt lat="47.66944" lon="6.1514">
        <ele>264</ele>
        <time>2020-11-29T14:36:38Z</time>
      </trkpt>
      <trkpt lat="47.66945" lon="6.15131">
        <ele>263.9</ele>
        <time>2020-11-29T14:37:32Z</time>
      </trkpt>
      <trkpt lat="47.66946" lon="6.1512">
        <ele>263.8</ele>
        <time>2020-11-29T14:37:34Z</time>
      </trkpt>
      <trkpt lat="47.66945" lon="6.15113">
        <ele>263.7</ele>
        <time>2020-11-29T14:37:36Z</time>
      </trkpt>
      <trkpt lat="47.66942" lon="6.15107">
        <ele>263.5</ele>
        <time>2020-11-29T14:37:38Z</time>
      </trkpt>
      <trkpt lat="47.66936" lon="6.15099">
        <ele>263.2</ele>
        <time>2020-11-29T14:37:41Z</time>
      </trkpt>
      <trkpt lat="47.66932" lon="6.15093">
        <ele>263</ele>
        <time>2020-11-29T14:37:44Z</time>
      </trkpt>
      <trkpt lat="47.66923" lon="6.15079">
        <ele>262.2</ele>
        <time>2020-11-29T14:37:47Z</time>
      </trkpt>
      <trkpt lat="47.66919" lon="6.15073">
        <ele>262</ele>
        <time>2020-11-29T14:37:48Z</time>
      </trkpt>
      <trkpt lat="47.6691" lon="6.15058">
        <ele>261.5</ele>
        <time>2020-11-29T14:37:49Z</time>
      </trkpt>
      <trkpt lat="47.66907" lon="6.15052">
        <ele>261.4</ele>
        <time>2020-11-29T14:37:50Z</time>
      </trkpt>
      <trkpt lat="47.66904" lon="6.15046">
        <ele>261.3</ele>
        <time>2020-11-29T14:37:51Z</time>
      </trkpt>
      <trkpt lat="47.66901" lon="6.1504">
        <ele>261.1</ele>
        <time>2020-11-29T14:37:52Z</time>
      </trkpt>
      <trkpt lat="47.66897" lon="6.15035">
        <ele>261</ele>
        <time>2020-11-29T14:37:53Z</time>
      </trkpt>
      <trkpt lat="47.66894" lon="6.15029">
        <ele>260.8</ele>
        <time>2020-11-29T14:37:54Z</time>
      </trkpt>
      <trkpt lat="47.6689" lon="6.15023">
        <ele>260.6</ele>
        <time>2020-11-29T14:37:55Z</time>
      </trkpt>
      <trkpt lat="47.66886" lon="6.15017">
        <ele>260.5</ele>
        <time>2020-11-29T14:37:56Z</time>
      </trkpt>
      <trkpt lat="47.66882" lon="6.15011">
        <ele>260.3</ele>
        <time>2020-11-29T14:37:57Z</time>
      </trkpt>
      <trkpt lat="47.66878" lon="6.15006">
        <ele>260.1</ele>
        <time>2020-11-29T14:37:58Z</time>
      </trkpt>
      <trkpt lat="47.66874" lon="6.15001">
        <ele>260</ele>
        <time>2020-11-29T14:37:59Z</time>
      </trkpt>
      <trkpt lat="47.66871" lon="6.14995">
        <ele>259.9</ele>
        <time>2020-11-29T14:38:00Z</time>
      </trkpt>
      <trkpt lat="47.66867" lon="6.1499">
        <ele>259.7</ele>
        <time>2020-11-29T14:38:01Z</time>
      </trkpt>
      <trkpt lat="47.66864" lon="6.14985">
        <ele>259.6</ele>
        <time>2020-11-29T14:38:02Z</time>
      </trkpt>
      <trkpt lat="47.66861" lon="6.1498">
        <ele>259.5</ele>
        <time>2020-11-29T14:38:03Z</time>
      </trkpt>
      <trkpt lat="47.66857" lon="6.14975">
        <ele>259.4</ele>
        <time>2020-11-29T14:38:04Z</time>
      </trkpt>
      <trkpt lat="47.66853" lon="6.1497">
        <ele>259.3</ele>
        <time>2020-11-29T14:38:05Z</time>
      </trkpt>
      <trkpt lat="47.6685" lon="6.14965">
        <ele>259.2</ele>
        <time>2020-11-29T14:38:06Z</time>
      </trkpt>
      <trkpt lat="47.66846" lon="6.1496">
        <ele>259.2</ele>
        <time>2020-11-29T14:38:07Z</time>
      </trkpt>
      <trkpt lat="47.66843" lon="6.14956">
        <ele>259.1</ele>
        <time>2020-11-29T14:38:08Z</time>
      </trkpt>
      <trkpt lat="47.6684" lon="6.14951">
        <ele>259.1</ele>
        <time>2020-11-29T14:38:09Z</time>
      </trkpt>
      <trkpt lat="47.66833" lon="6.14942">
        <ele>259</ele>
        <time>2020-11-29T14:38:11Z</time>
      </trkpt>
      <trkpt lat="47.66828" lon="6.14934">
        <ele>258.9</ele>
        <time>2020-11-29T14:38:13Z</time>
      </trkpt>
      <trkpt lat="47.66824" lon="6.1493">
        <ele>258.8</ele>
        <time>2020-11-29T14:38:14Z</time>
      </trkpt>
      <trkpt lat="47.6682" lon="6.14925">
        <ele>258.7</ele>
        <time>2020-11-29T14:38:15Z</time>
      </trkpt>
      <trkpt lat="47.66817" lon="6.1492">
        <ele>258.6</ele>
        <time>2020-11-29T14:38:16Z</time>
      </trkpt>
      <trkpt lat="47.66813" lon="6.14916">
        <ele>258.5</ele>
        <time>2020-11-29T14:38:17Z</time>
      </trkpt>
      <trkpt lat="47.6681" lon="6.14912">
        <ele>258.5</ele>
        <time>2020-11-29T14:38:18Z</time>
      </trkpt>
      <trkpt lat="47.66803" lon="6.14903">
        <ele>258.4</ele>
        <time>2020-11-29T14:38:20Z</time>
      </trkpt>
      <trkpt lat="47.66796" lon="6.14895">
        <ele>258.2</ele>
        <time>2020-11-29T14:38:22Z</time>
      </trkpt>
      <trkpt lat="47.6679" lon="6.14888">
        <ele>258.1</ele>
        <time>2020-11-29T14:38:24Z</time>
      </trkpt>
      <trkpt lat="47.66786" lon="6.14883">
        <ele>258</ele>
        <time>2020-11-29T14:38:25Z</time>
      </trkpt>
      <trkpt lat="47.66783" lon="6.14878">
        <ele>258</ele>
        <time>2020-11-29T14:38:26Z</time>
      </trkpt>
      <trkpt lat="47.66776" lon="6.1487">
        <ele>257.8</ele>
        <time>2020-11-29T14:38:28Z</time>
      </trkpt>
      <trkpt lat="47.66771" lon="6.14868">
        <ele>257.7</ele>
        <time>2020-11-29T14:38:30Z</time>
      </trkpt>
      <trkpt lat="47.66765" lon="6.14864">
        <ele>257.5</ele>
        <time>2020-11-29T14:38:32Z</time>
      </trkpt>
      <trkpt lat="47.6676" lon="6.14856">
        <ele>257.3</ele>
        <time>2020-11-29T14:38:34Z</time>
      </trkpt>
      <trkpt lat="47.66755" lon="6.14849">
        <ele>257.2</ele>
        <time>2020-11-29T14:38:37Z</time>
      </trkpt>
      <trkpt lat="47.6675" lon="6.14842">
        <ele>257</ele>
        <time>2020-11-29T14:38:39Z</time>
      </trkpt>
      <trkpt lat="47.66744" lon="6.14835">
        <ele>256.9</ele>
        <time>2020-11-29T14:38:41Z</time>
      </trkpt>
      <trkpt lat="47.66739" lon="6.14827">
        <ele>256.9</ele>
        <time>2020-11-29T14:38:43Z</time>
      </trkpt>
      <trkpt lat="47.6673" lon="6.14819">
        <ele>256.9</ele>
        <time>2020-11-29T14:38:44Z</time>
      </trkpt>
      <trkpt lat="47.66725" lon="6.14813">
        <ele>256.9</ele>
        <time>2020-11-29T14:38:46Z</time>
      </trkpt>
      <trkpt lat="47.6672" lon="6.14807">
        <ele>256.9</ele>
        <time>2020-11-29T14:38:48Z</time>
      </trkpt>
      <trkpt lat="47.66714" lon="6.14802">
        <ele>256.9</ele>
        <time>2020-11-29T14:38:50Z</time>
      </trkpt>
      <trkpt lat="47.66703" lon="6.14791">
        <ele>256.9</ele>
        <time>2020-11-29T14:38:52Z</time>
      </trkpt>
      <trkpt lat="47.66696" lon="6.14785">
        <ele>256.9</ele>
        <time>2020-11-29T14:38:54Z</time>
      </trkpt>
      <trkpt lat="47.66692" lon="6.14781">
        <ele>256.9</ele>
        <time>2020-11-29T14:39:53Z</time>
      </trkpt>
      <trkpt lat="47.66688" lon="6.14779">
        <ele>256.8</ele>
        <time>2020-11-29T14:40:12Z</time>
      </trkpt>
      <trkpt lat="47.66683" lon="6.14775">
        <ele>256.8</ele>
        <time>2020-11-29T14:40:13Z</time>
      </trkpt>
      <trkpt lat="47.66679" lon="6.14771">
        <ele>256.8</ele>
        <time>2020-11-29T14:40:15Z</time>
      </trkpt>
      <trkpt lat="47.66676" lon="6.14766">
        <ele>256.8</ele>
        <time>2020-11-29T14:40:17Z</time>
      </trkpt>
      <trkpt lat="47.66671" lon="6.14761">
        <ele>256.9</ele>
        <time>2020-11-29T14:40:20Z</time>
      </trkpt>
      <trkpt lat="47.66667" lon="6.14757">
        <ele>256.8</ele>
        <time>2020-11-29T14:40:21Z</time>
      </trkpt>
      <trkpt lat="47.6666" lon="6.14751">
        <ele>256.7</ele>
        <time>2020-11-29T14:40:22Z</time>
      </trkpt>
      <trkpt lat="47.66653" lon="6.14743">
        <ele>256.4</ele>
        <time>2020-11-29T14:40:24Z</time>
      </trkpt>
      <trkpt lat="47.66643" lon="6.14733">
        <ele>255.8</ele>
        <time>2020-11-29T14:40:26Z</time>
      </trkpt>
      <trkpt lat="47.66639" lon="6.14729">
        <ele>255.6</ele>
        <time>2020-11-29T14:40:27Z</time>
      </trkpt>
      <trkpt lat="47.66636" lon="6.14725">
        <ele>255.4</ele>
        <time>2020-11-29T14:40:28Z</time>
      </trkpt>
      <trkpt lat="47.66632" lon="6.14721">
        <ele>255.2</ele>
        <time>2020-11-29T14:40:29Z</time>
      </trkpt>
      <trkpt lat="47.66628" lon="6.14717">
        <ele>255</ele>
        <time>2020-11-29T14:40:30Z</time>
      </trkpt>
      <trkpt lat="47.66624" lon="6.14713">
        <ele>254.8</ele>
        <time>2020-11-29T14:40:31Z</time>
      </trkpt>
      <trkpt lat="47.66621" lon="6.14708">
        <ele>254.6</ele>
        <time>2020-11-29T14:40:32Z</time>
      </trkpt>
      <trkpt lat="47.66617" lon="6.14704">
        <ele>254.4</ele>
        <time>2020-11-29T14:40:33Z</time>
      </trkpt>
      <trkpt lat="47.66613" lon="6.14699">
        <ele>254.2</ele>
        <time>2020-11-29T14:40:34Z</time>
      </trkpt>
      <trkpt lat="47.6661" lon="6.14694">
        <ele>254.1</ele>
        <time>2020-11-29T14:40:35Z</time>
      </trkpt>
      <trkpt lat="47.66606" lon="6.14689">
        <ele>253.9</ele>
        <time>2020-11-29T14:40:36Z</time>
      </trkpt>
      <trkpt lat="47.66603" lon="6.14684">
        <ele>253.7</ele>
        <time>2020-11-29T14:40:37Z</time>
      </trkpt>
      <trkpt lat="47.666" lon="6.14678">
        <ele>253.6</ele>
        <time>2020-11-29T14:40:38Z</time>
      </trkpt>
      <trkpt lat="47.66598" lon="6.14672">
        <ele>253.4</ele>
        <time>2020-11-29T14:40:39Z</time>
      </trkpt>
      <trkpt lat="47.66596" lon="6.14666">
        <ele>253.3</ele>
        <time>2020-11-29T14:40:40Z</time>
      </trkpt>
      <trkpt lat="47.66593" lon="6.14654">
        <ele>253.4</ele>
        <time>2020-11-29T14:40:42Z</time>
      </trkpt>
      <trkpt lat="47.6659" lon="6.14643">
        <ele>253.4</ele>
        <time>2020-11-29T14:40:44Z</time>
      </trkpt>
      <trkpt lat="47.66588" lon="6.14635">
        <ele>253.5</ele>
        <time>2020-11-29T14:40:46Z</time>
      </trkpt>
      <trkpt lat="47.66587" lon="6.14626">
        <ele>253.6</ele>
        <time>2020-11-29T14:40:49Z</time>
      </trkpt>
      <trkpt lat="47.66585" lon="6.14616">
        <ele>253.6</ele>
        <time>2020-11-29T14:40:51Z</time>
      </trkpt>
      <trkpt lat="47.66584" lon="6.14607">
        <ele>253.7</ele>
        <time>2020-11-29T14:40:53Z</time>
      </trkpt>
      <trkpt lat="47.66584" lon="6.14598">
        <ele>253.8</ele>
        <time>2020-11-29T14:40:54Z</time>
      </trkpt>
      <trkpt lat="47.66583" lon="6.14587">
        <ele>254</ele>
        <time>2020-11-29T14:40:57Z</time>
      </trkpt>
      <trkpt lat="47.66583" lon="6.14581">
        <ele>254</ele>
        <time>2020-11-29T14:40:58Z</time>
      </trkpt>
      <trkpt lat="47.66582" lon="6.14573">
        <ele>254.2</ele>
        <time>2020-11-29T14:40:59Z</time>
      </trkpt>
      <trkpt lat="47.66581" lon="6.14565">
        <ele>254.3</ele>
        <time>2020-11-29T14:41:00Z</time>
      </trkpt>
      <trkpt lat="47.6658" lon="6.14555">
        <ele>254.5</ele>
        <time>2020-11-29T14:41:03Z</time>
      </trkpt>
      <trkpt lat="47.6658" lon="6.14548">
        <ele>254.7</ele>
        <time>2020-11-29T14:41:04Z</time>
      </trkpt>
      <trkpt lat="47.66578" lon="6.14541">
        <ele>254.8</ele>
        <time>2020-11-29T14:41:05Z</time>
      </trkpt>
      <trkpt lat="47.66578" lon="6.14532">
        <ele>254.9</ele>
        <time>2020-11-29T14:41:07Z</time>
      </trkpt>
      <trkpt lat="47.66576" lon="6.14525">
        <ele>255</ele>
        <time>2020-11-29T14:41:09Z</time>
      </trkpt>
      <trkpt lat="47.66574" lon="6.14518">
        <ele>255.1</ele>
        <time>2020-11-29T14:41:11Z</time>
      </trkpt>
      <trkpt lat="47.66573" lon="6.14512">
        <ele>255.2</ele>
        <time>2020-11-29T14:41:13Z</time>
      </trkpt>
      <trkpt lat="47.6657" lon="6.14505">
        <ele>255.2</ele>
        <time>2020-11-29T14:41:15Z</time>
      </trkpt>
      <trkpt lat="47.66567" lon="6.14495">
        <ele>255.1</ele>
        <time>2020-11-29T14:41:18Z</time>
      </trkpt>
      <trkpt lat="47.66564" lon="6.14486">
        <ele>254.9</ele>
        <time>2020-11-29T14:41:20Z</time>
      </trkpt>
      <trkpt lat="47.66561" lon="6.14479">
        <ele>254.7</ele>
        <time>2020-11-29T14:41:23Z</time>
      </trkpt>
      <trkpt lat="47.66556" lon="6.14469">
        <ele>254.4</ele>
        <time>2020-11-29T14:41:24Z</time>
      </trkpt>
      <trkpt lat="47.66553" lon="6.14463">
        <ele>254.3</ele>
        <time>2020-11-29T14:41:26Z</time>
      </trkpt>
      <trkpt lat="47.6655" lon="6.14458">
        <ele>254.1</ele>
        <time>2020-11-29T14:41:27Z</time>
      </trkpt>
      <trkpt lat="47.66547" lon="6.14451">
        <ele>253.9</ele>
        <time>2020-11-29T14:41:30Z</time>
      </trkpt>
      <trkpt lat="47.6654" lon="6.14438">
        <ele>253.6</ele>
        <time>2020-11-29T14:41:32Z</time>
      </trkpt>
      <trkpt lat="47.66536" lon="6.14431">
        <ele>253.4</ele>
        <time>2020-11-29T14:41:35Z</time>
      </trkpt>
      <trkpt lat="47.66531" lon="6.14419">
        <ele>253.1</ele>
        <time>2020-11-29T14:41:37Z</time>
      </trkpt>
      <trkpt lat="47.66524" lon="6.14407">
        <ele>253</ele>
        <time>2020-11-29T14:41:39Z</time>
      </trkpt>
      <trkpt lat="47.6652" lon="6.14402">
        <ele>253</ele>
        <time>2020-11-29T14:41:40Z</time>
      </trkpt>
      <trkpt lat="47.66517" lon="6.14396">
        <ele>253</ele>
        <time>2020-11-29T14:41:41Z</time>
      </trkpt>
      <trkpt lat="47.66512" lon="6.14391">
        <ele>253</ele>
        <time>2020-11-29T14:41:42Z</time>
      </trkpt>
      <trkpt lat="47.66508" lon="6.14385">
        <ele>253</ele>
        <time>2020-11-29T14:41:43Z</time>
      </trkpt>
      <trkpt lat="47.66503" lon="6.14378">
        <ele>253</ele>
        <time>2020-11-29T14:41:44Z</time>
      </trkpt>
      <trkpt lat="47.66498" lon="6.14372">
        <ele>252.9</ele>
        <time>2020-11-29T14:41:45Z</time>
      </trkpt>
      <trkpt lat="47.66493" lon="6.14365">
        <ele>252.6</ele>
        <time>2020-11-29T14:41:46Z</time>
      </trkpt>
      <trkpt lat="47.66487" lon="6.14357">
        <ele>252.3</ele>
        <time>2020-11-29T14:41:47Z</time>
      </trkpt>
      <trkpt lat="47.66482" lon="6.1435">
        <ele>252</ele>
        <time>2020-11-29T14:41:48Z</time>
      </trkpt>
      <trkpt lat="47.66476" lon="6.14342">
        <ele>251.6</ele>
        <time>2020-11-29T14:41:49Z</time>
      </trkpt>
      <trkpt lat="47.6647" lon="6.14333">
        <ele>251.1</ele>
        <time>2020-11-29T14:41:50Z</time>
      </trkpt>
      <trkpt lat="47.66463" lon="6.14324">
        <ele>250.3</ele>
        <time>2020-11-29T14:41:51Z</time>
      </trkpt>
      <trkpt lat="47.66456" lon="6.14314">
        <ele>249.3</ele>
        <time>2020-11-29T14:41:52Z</time>
      </trkpt>
      <trkpt lat="47.66449" lon="6.14304">
        <ele>248.4</ele>
        <time>2020-11-29T14:41:53Z</time>
      </trkpt>
      <trkpt lat="47.66442" lon="6.14293">
        <ele>247.5</ele>
        <time>2020-11-29T14:41:54Z</time>
      </trkpt>
      <trkpt lat="47.66435" lon="6.14283">
        <ele>246.5</ele>
        <time>2020-11-29T14:41:55Z</time>
      </trkpt>
      <trkpt lat="47.66427" lon="6.14272">
        <ele>245.5</ele>
        <time>2020-11-29T14:41:56Z</time>
      </trkpt>
      <trkpt lat="47.66419" lon="6.14261">
        <ele>244.5</ele>
        <time>2020-11-29T14:41:57Z</time>
      </trkpt>
      <trkpt lat="47.66412" lon="6.1425">
        <ele>243.5</ele>
        <time>2020-11-29T14:41:58Z</time>
      </trkpt>
      <trkpt lat="47.66404" lon="6.14238">
        <ele>242.3</ele>
        <time>2020-11-29T14:41:59Z</time>
      </trkpt>
      <trkpt lat="47.66396" lon="6.14227">
        <ele>241.3</ele>
        <time>2020-11-29T14:42:00Z</time>
      </trkpt>
      <trkpt lat="47.66389" lon="6.14215">
        <ele>240.5</ele>
        <time>2020-11-29T14:42:01Z</time>
      </trkpt>
      <trkpt lat="47.66382" lon="6.14203">
        <ele>239.7</ele>
        <time>2020-11-29T14:42:02Z</time>
      </trkpt>
      <trkpt lat="47.66375" lon="6.14191">
        <ele>239.2</ele>
        <time>2020-11-29T14:42:03Z</time>
      </trkpt>
      <trkpt lat="47.66369" lon="6.14179">
        <ele>238.7</ele>
        <time>2020-11-29T14:42:04Z</time>
      </trkpt>
      <trkpt lat="47.66361" lon="6.14167">
        <ele>238.3</ele>
        <time>2020-11-29T14:42:05Z</time>
      </trkpt>
      <trkpt lat="47.66354" lon="6.14156">
        <ele>237.9</ele>
        <time>2020-11-29T14:42:06Z</time>
      </trkpt>
      <trkpt lat="47.66346" lon="6.14145">
        <ele>237.5</ele>
        <time>2020-11-29T14:42:07Z</time>
      </trkpt>
      <trkpt lat="47.66337" lon="6.14136">
        <ele>237.2</ele>
        <time>2020-11-29T14:42:08Z</time>
      </trkpt>
      <trkpt lat="47.66329" lon="6.14126">
        <ele>236.8</ele>
        <time>2020-11-29T14:42:09Z</time>
      </trkpt>
      <trkpt lat="47.66321" lon="6.14117">
        <ele>236.3</ele>
        <time>2020-11-29T14:42:10Z</time>
      </trkpt>
      <trkpt lat="47.66314" lon="6.14107">
        <ele>235.9</ele>
        <time>2020-11-29T14:42:11Z</time>
      </trkpt>
      <trkpt lat="47.66307" lon="6.14097">
        <ele>235.4</ele>
        <time>2020-11-29T14:42:12Z</time>
      </trkpt>
      <trkpt lat="47.663" lon="6.14087">
        <ele>235</ele>
        <time>2020-11-29T14:42:13Z</time>
      </trkpt>
      <trkpt lat="47.66294" lon="6.14077">
        <ele>234.5</ele>
        <time>2020-11-29T14:42:14Z</time>
      </trkpt>
      <trkpt lat="47.66288" lon="6.14068">
        <ele>234.1</ele>
        <time>2020-11-29T14:42:15Z</time>
      </trkpt>
      <trkpt lat="47.66282" lon="6.14058">
        <ele>233.7</ele>
        <time>2020-11-29T14:42:16Z</time>
      </trkpt>
      <trkpt lat="47.66276" lon="6.14049">
        <ele>233.3</ele>
        <time>2020-11-29T14:42:17Z</time>
      </trkpt>
      <trkpt lat="47.66271" lon="6.1404">
        <ele>233</ele>
        <time>2020-11-29T14:42:18Z</time>
      </trkpt>
      <trkpt lat="47.66265" lon="6.14031">
        <ele>232.7</ele>
        <time>2020-11-29T14:42:19Z</time>
      </trkpt>
      <trkpt lat="47.6626" lon="6.14022">
        <ele>232.4</ele>
        <time>2020-11-29T14:42:20Z</time>
      </trkpt>
      <trkpt lat="47.66255" lon="6.14013">
        <ele>232.2</ele>
        <time>2020-11-29T14:42:21Z</time>
      </trkpt>
      <trkpt lat="47.6625" lon="6.14004">
        <ele>232</ele>
        <time>2020-11-29T14:42:22Z</time>
      </trkpt>
      <trkpt lat="47.66245" lon="6.13995">
        <ele>231.7</ele>
        <time>2020-11-29T14:42:23Z</time>
      </trkpt>
      <trkpt lat="47.6624" lon="6.13986">
        <ele>231.3</ele>
        <time>2020-11-29T14:42:24Z</time>
      </trkpt>
      <trkpt lat="47.66236" lon="6.13977">
        <ele>231</ele>
        <time>2020-11-29T14:42:25Z</time>
      </trkpt>
      <trkpt lat="47.66232" lon="6.13967">
        <ele>230.7</ele>
        <time>2020-11-29T14:42:26Z</time>
      </trkpt>
      <trkpt lat="47.66229" lon="6.13958">
        <ele>230.4</ele>
        <time>2020-11-29T14:42:27Z</time>
      </trkpt>
      <trkpt lat="47.66225" lon="6.13948">
        <ele>230</ele>
        <time>2020-11-29T14:42:28Z</time>
      </trkpt>
      <trkpt lat="47.66221" lon="6.13939">
        <ele>229.8</ele>
        <time>2020-11-29T14:42:29Z</time>
      </trkpt>
      <trkpt lat="47.66217" lon="6.1393">
        <ele>229.5</ele>
        <time>2020-11-29T14:42:30Z</time>
      </trkpt>
      <trkpt lat="47.66213" lon="6.13921">
        <ele>229.2</ele>
        <time>2020-11-29T14:42:31Z</time>
      </trkpt>
      <trkpt lat="47.66209" lon="6.13912">
        <ele>229</ele>
        <time>2020-11-29T14:42:32Z</time>
      </trkpt>
      <trkpt lat="47.66204" lon="6.13903">
        <ele>228.7</ele>
        <time>2020-11-29T14:42:33Z</time>
      </trkpt>
      <trkpt lat="47.66199" lon="6.13893">
        <ele>228.5</ele>
        <time>2020-11-29T14:42:34Z</time>
      </trkpt>
      <trkpt lat="47.66195" lon="6.13884">
        <ele>228.3</ele>
        <time>2020-11-29T14:42:35Z</time>
      </trkpt>
      <trkpt lat="47.66189" lon="6.13875">
        <ele>228</ele>
        <time>2020-11-29T14:42:36Z</time>
      </trkpt>
      <trkpt lat="47.66184" lon="6.13867">
        <ele>227.8</ele>
        <time>2020-11-29T14:42:37Z</time>
      </trkpt>
      <trkpt lat="47.66178" lon="6.13858">
        <ele>227.6</ele>
        <time>2020-11-29T14:42:38Z</time>
      </trkpt>
      <trkpt lat="47.66173" lon="6.13849">
        <ele>227.3</ele>
        <time>2020-11-29T14:42:39Z</time>
      </trkpt>
      <trkpt lat="47.66168" lon="6.1384">
        <ele>227.1</ele>
        <time>2020-11-29T14:42:40Z</time>
      </trkpt>
      <trkpt lat="47.66163" lon="6.1383">
        <ele>226.8</ele>
        <time>2020-11-29T14:42:41Z</time>
      </trkpt>
      <trkpt lat="47.66159" lon="6.1382">
        <ele>226.4</ele>
        <time>2020-11-29T14:42:42Z</time>
      </trkpt>
      <trkpt lat="47.66155" lon="6.13809">
        <ele>226</ele>
        <time>2020-11-29T14:42:43Z</time>
      </trkpt>
      <trkpt lat="47.66153" lon="6.13798">
        <ele>225.6</ele>
        <time>2020-11-29T14:42:44Z</time>
      </trkpt>
      <trkpt lat="47.6615" lon="6.13786">
        <ele>225.3</ele>
        <time>2020-11-29T14:42:45Z</time>
      </trkpt>
      <trkpt lat="47.66148" lon="6.13774">
        <ele>224.9</ele>
        <time>2020-11-29T14:42:46Z</time>
      </trkpt>
      <trkpt lat="47.66146" lon="6.13762">
        <ele>224.5</ele>
        <time>2020-11-29T14:42:47Z</time>
      </trkpt>
      <trkpt lat="47.66144" lon="6.1375">
        <ele>224.2</ele>
        <time>2020-11-29T14:42:48Z</time>
      </trkpt>
      <trkpt lat="47.66141" lon="6.13738">
        <ele>223.9</ele>
        <time>2020-11-29T14:42:49Z</time>
      </trkpt>
      <trkpt lat="47.66139" lon="6.13726">
        <ele>223.6</ele>
        <time>2020-11-29T14:42:50Z</time>
      </trkpt>
      <trkpt lat="47.66137" lon="6.13714">
        <ele>223.4</ele>
        <time>2020-11-29T14:42:51Z</time>
      </trkpt>
      <trkpt lat="47.66135" lon="6.13703">
        <ele>223.2</ele>
        <time>2020-11-29T14:42:52Z</time>
      </trkpt>
      <trkpt lat="47.66131" lon="6.13693">
        <ele>222.9</ele>
        <time>2020-11-29T14:42:53Z</time>
      </trkpt>
      <trkpt lat="47.66128" lon="6.13683">
        <ele>222.8</ele>
        <time>2020-11-29T14:42:54Z</time>
      </trkpt>
      <trkpt lat="47.66124" lon="6.13674">
        <ele>222.6</ele>
        <time>2020-11-29T14:42:55Z</time>
      </trkpt>
      <trkpt lat="47.6612" lon="6.13665">
        <ele>222.4</ele>
        <time>2020-11-29T14:42:56Z</time>
      </trkpt>
      <trkpt lat="47.66115" lon="6.13657">
        <ele>222.3</ele>
        <time>2020-11-29T14:42:57Z</time>
      </trkpt>
      <trkpt lat="47.66109" lon="6.1365">
        <ele>222.2</ele>
        <time>2020-11-29T14:42:58Z</time>
      </trkpt>
      <trkpt lat="47.66104" lon="6.13642">
        <ele>222.2</ele>
        <time>2020-11-29T14:42:59Z</time>
      </trkpt>
      <trkpt lat="47.66098" lon="6.13636">
        <ele>222.1</ele>
        <time>2020-11-29T14:43:00Z</time>
      </trkpt>
      <trkpt lat="47.66092" lon="6.13629">
        <ele>222.1</ele>
        <time>2020-11-29T14:43:01Z</time>
      </trkpt>
      <trkpt lat="47.66086" lon="6.13623">
        <ele>222</ele>
        <time>2020-11-29T14:43:02Z</time>
      </trkpt>
      <trkpt lat="47.6608" lon="6.13617">
        <ele>222.1</ele>
        <time>2020-11-29T14:43:03Z</time>
      </trkpt>
      <trkpt lat="47.66074" lon="6.13611">
        <ele>222.2</ele>
        <time>2020-11-29T14:43:04Z</time>
      </trkpt>
      <trkpt lat="47.66069" lon="6.13605">
        <ele>222.3</ele>
        <time>2020-11-29T14:43:05Z</time>
      </trkpt>
      <trkpt lat="47.66063" lon="6.136">
        <ele>222.5</ele>
        <time>2020-11-29T14:43:06Z</time>
      </trkpt>
      <trkpt lat="47.66058" lon="6.13594">
        <ele>222.6</ele>
        <time>2020-11-29T14:43:07Z</time>
      </trkpt>
      <trkpt lat="47.66052" lon="6.13589">
        <ele>222.7</ele>
        <time>2020-11-29T14:43:08Z</time>
      </trkpt>
      <trkpt lat="47.66047" lon="6.13584">
        <ele>222.9</ele>
        <time>2020-11-29T14:43:09Z</time>
      </trkpt>
      <trkpt lat="47.66042" lon="6.13579">
        <ele>223</ele>
        <time>2020-11-29T14:43:10Z</time>
      </trkpt>
      <trkpt lat="47.66037" lon="6.13574">
        <ele>223.1</ele>
        <time>2020-11-29T14:43:11Z</time>
      </trkpt>
      <trkpt lat="47.66032" lon="6.13569">
        <ele>223.2</ele>
        <time>2020-11-29T14:43:12Z</time>
      </trkpt>
      <trkpt lat="47.66027" lon="6.13565">
        <ele>223.3</ele>
        <time>2020-11-29T14:43:13Z</time>
      </trkpt>
      <trkpt lat="47.66022" lon="6.1356">
        <ele>223.4</ele>
        <time>2020-11-29T14:43:14Z</time>
      </trkpt>
      <trkpt lat="47.66017" lon="6.13556">
        <ele>223.5</ele>
        <time>2020-11-29T14:43:15Z</time>
      </trkpt>
      <trkpt lat="47.66013" lon="6.13552">
        <ele>223.6</ele>
        <time>2020-11-29T14:43:16Z</time>
      </trkpt>
      <trkpt lat="47.66009" lon="6.13548">
        <ele>223.7</ele>
        <time>2020-11-29T14:43:17Z</time>
      </trkpt>
      <trkpt lat="47.66005" lon="6.13544">
        <ele>223.9</ele>
        <time>2020-11-29T14:43:18Z</time>
      </trkpt>
      <trkpt lat="47.65998" lon="6.13536">
        <ele>224</ele>
        <time>2020-11-29T14:43:20Z</time>
      </trkpt>
      <trkpt lat="47.65993" lon="6.13525">
        <ele>224</ele>
        <time>2020-11-29T14:43:22Z</time>
      </trkpt>
      <trkpt lat="47.6599" lon="6.13519">
        <ele>224</ele>
        <time>2020-11-29T14:43:23Z</time>
      </trkpt>
      <trkpt lat="47.65987" lon="6.13508">
        <ele>224</ele>
        <time>2020-11-29T14:43:25Z</time>
      </trkpt>
      <trkpt lat="47.65985" lon="6.13496">
        <ele>224</ele>
        <time>2020-11-29T14:43:27Z</time>
      </trkpt>
      <trkpt lat="47.65982" lon="6.13484">
        <ele>224.1</ele>
        <time>2020-11-29T14:43:29Z</time>
      </trkpt>
      <trkpt lat="47.65979" lon="6.13476">
        <ele>224.1</ele>
        <time>2020-11-29T14:43:32Z</time>
      </trkpt>
      <trkpt lat="47.65979" lon="6.1347">
        <ele>224.2</ele>
        <time>2020-11-29T14:43:33Z</time>
      </trkpt>
      <trkpt lat="47.65978" lon="6.13463">
        <ele>224.2</ele>
        <time>2020-11-29T14:43:34Z</time>
      </trkpt>
      <trkpt lat="47.65978" lon="6.13455">
        <ele>224.3</ele>
        <time>2020-11-29T14:43:36Z</time>
      </trkpt>
      <trkpt lat="47.65976" lon="6.13444">
        <ele>224.4</ele>
        <time>2020-11-29T14:43:38Z</time>
      </trkpt>
      <trkpt lat="47.65973" lon="6.13436">
        <ele>224.5</ele>
        <time>2020-11-29T14:43:40Z</time>
      </trkpt>
      <trkpt lat="47.6597" lon="6.13428">
        <ele>224.6</ele>
        <time>2020-11-29T14:43:42Z</time>
      </trkpt>
      <trkpt lat="47.65967" lon="6.13422">
        <ele>224.7</ele>
        <time>2020-11-29T14:43:43Z</time>
      </trkpt>
      <trkpt lat="47.65962" lon="6.13414">
        <ele>225</ele>
        <time>2020-11-29T14:43:45Z</time>
      </trkpt>
      <trkpt lat="47.65958" lon="6.13409">
        <ele>225.4</ele>
        <time>2020-11-29T14:43:48Z</time>
      </trkpt>
      <trkpt lat="47.65954" lon="6.13406">
        <ele>225.6</ele>
        <time>2020-11-29T14:43:50Z</time>
      </trkpt>
      <trkpt lat="47.65949" lon="6.13401">
        <ele>226</ele>
        <time>2020-11-29T14:43:52Z</time>
      </trkpt>
      <trkpt lat="47.65944" lon="6.13397">
        <ele>226.3</ele>
        <time>2020-11-29T14:43:54Z</time>
      </trkpt>
      <trkpt lat="47.65938" lon="6.13393">
        <ele>226.6</ele>
        <time>2020-11-29T14:43:57Z</time>
      </trkpt>
      <trkpt lat="47.65932" lon="6.13389">
        <ele>227</ele>
        <time>2020-11-29T14:43:59Z</time>
      </trkpt>
      <trkpt lat="47.65927" lon="6.13384">
        <ele>227.3</ele>
        <time>2020-11-29T14:44:02Z</time>
      </trkpt>
      <trkpt lat="47.65923" lon="6.13378">
        <ele>227.7</ele>
        <time>2020-11-29T14:44:05Z</time>
      </trkpt>
      <trkpt lat="47.65918" lon="6.13375">
        <ele>228</ele>
        <time>2020-11-29T14:44:08Z</time>
      </trkpt>
      <trkpt lat="47.65913" lon="6.13374">
        <ele>228.2</ele>
        <time>2020-11-29T14:44:11Z</time>
      </trkpt>
      <trkpt lat="47.65906" lon="6.1337">
        <ele>228.5</ele>
        <time>2020-11-29T14:44:15Z</time>
      </trkpt>
      <trkpt lat="47.65902" lon="6.13367">
        <ele>228.8</ele>
        <time>2020-11-29T14:44:19Z</time>
      </trkpt>
      <trkpt lat="47.65898" lon="6.13361">
        <ele>229.2</ele>
        <time>2020-11-29T14:44:21Z</time>
      </trkpt>
      <trkpt lat="47.65894" lon="6.13358">
        <ele>229.5</ele>
        <time>2020-11-29T14:44:25Z</time>
      </trkpt>
      <trkpt lat="47.65888" lon="6.13355">
        <ele>229.8</ele>
        <time>2020-11-29T14:44:27Z</time>
      </trkpt>
      <trkpt lat="47.65884" lon="6.13351">
        <ele>230.2</ele>
        <time>2020-11-29T14:44:31Z</time>
      </trkpt>
      <trkpt lat="47.65879" lon="6.13347">
        <ele>230.5</ele>
        <time>2020-11-29T14:44:33Z</time>
      </trkpt>
      <trkpt lat="47.65875" lon="6.13344">
        <ele>230.9</ele>
        <time>2020-11-29T14:44:36Z</time>
      </trkpt>
      <trkpt lat="47.6587" lon="6.13341">
        <ele>231.2</ele>
        <time>2020-11-29T14:44:40Z</time>
      </trkpt>
      <trkpt lat="47.65866" lon="6.13338">
        <ele>231.5</ele>
        <time>2020-11-29T14:44:42Z</time>
      </trkpt>
      <trkpt lat="47.65862" lon="6.13335">
        <ele>231.9</ele>
        <time>2020-11-29T14:44:45Z</time>
      </trkpt>
      <trkpt lat="47.65858" lon="6.13331">
        <ele>232.2</ele>
        <time>2020-11-29T14:44:48Z</time>
      </trkpt>
      <trkpt lat="47.65853" lon="6.13328">
        <ele>232.5</ele>
        <time>2020-11-29T14:44:51Z</time>
      </trkpt>
      <trkpt lat="47.65849" lon="6.13326">
        <ele>232.8</ele>
        <time>2020-11-29T14:44:54Z</time>
      </trkpt>
      <trkpt lat="47.65845" lon="6.13321">
        <ele>233.2</ele>
        <time>2020-11-29T14:44:57Z</time>
      </trkpt>
      <trkpt lat="47.65841" lon="6.13317">
        <ele>233.5</ele>
        <time>2020-11-29T14:45:00Z</time>
      </trkpt>
      <trkpt lat="47.65837" lon="6.13312">
        <ele>233.9</ele>
        <time>2020-11-29T14:45:03Z</time>
      </trkpt>
      <trkpt lat="47.65833" lon="6.13307">
        <ele>234.3</ele>
        <time>2020-11-29T14:45:06Z</time>
      </trkpt>
      <trkpt lat="47.65828" lon="6.13303">
        <ele>234.4</ele>
        <time>2020-11-29T14:45:09Z</time>
      </trkpt>
      <trkpt lat="47.65824" lon="6.133">
        <ele>234.5</ele>
        <time>2020-11-29T14:45:12Z</time>
      </trkpt>
      <trkpt lat="47.6582" lon="6.13294">
        <ele>234.7</ele>
        <time>2020-11-29T14:45:16Z</time>
      </trkpt>
      <trkpt lat="47.65817" lon="6.13289">
        <ele>234.9</ele>
        <time>2020-11-29T14:45:19Z</time>
      </trkpt>
      <trkpt lat="47.65813" lon="6.13284">
        <ele>235.1</ele>
        <time>2020-11-29T14:45:22Z</time>
      </trkpt>
      <trkpt lat="47.65809" lon="6.13277">
        <ele>235.4</ele>
        <time>2020-11-29T14:45:26Z</time>
      </trkpt>
      <trkpt lat="47.65806" lon="6.13272">
        <ele>235.6</ele>
        <time>2020-11-29T14:45:29Z</time>
      </trkpt>
      <trkpt lat="47.65802" lon="6.13265">
        <ele>235.9</ele>
        <time>2020-11-29T14:45:32Z</time>
      </trkpt>
      <trkpt lat="47.65799" lon="6.1326">
        <ele>236.1</ele>
        <time>2020-11-29T14:45:35Z</time>
      </trkpt>
      <trkpt lat="47.65795" lon="6.13255">
        <ele>236.3</ele>
        <time>2020-11-29T14:45:38Z</time>
      </trkpt>
      <trkpt lat="47.65791" lon="6.1325">
        <ele>236.5</ele>
        <time>2020-11-29T14:45:41Z</time>
      </trkpt>
      <trkpt lat="47.65787" lon="6.13243">
        <ele>236.6</ele>
        <time>2020-11-29T14:45:44Z</time>
      </trkpt>
      <trkpt lat="47.65784" lon="6.13237">
        <ele>236.7</ele>
        <time>2020-11-29T14:45:46Z</time>
      </trkpt>
      <trkpt lat="47.65781" lon="6.13231">
        <ele>236.8</ele>
        <time>2020-11-29T14:45:49Z</time>
      </trkpt>
      <trkpt lat="47.65778" lon="6.13225">
        <ele>236.8</ele>
        <time>2020-11-29T14:45:52Z</time>
      </trkpt>
      <trkpt lat="47.65774" lon="6.13219">
        <ele>236.9</ele>
        <time>2020-11-29T14:45:57Z</time>
      </trkpt>
      <trkpt lat="47.6577" lon="6.13214">
        <ele>236.9</ele>
        <time>2020-11-29T14:45:59Z</time>
      </trkpt>
      <trkpt lat="47.65768" lon="6.13208">
        <ele>236.9</ele>
        <time>2020-11-29T14:46:00Z</time>
      </trkpt>
      <trkpt lat="47.65764" lon="6.132">
        <ele>237</ele>
        <time>2020-11-29T14:46:03Z</time>
      </trkpt>
      <trkpt lat="47.65761" lon="6.13193">
        <ele>237</ele>
        <time>2020-11-29T14:46:05Z</time>
      </trkpt>
      <trkpt lat="47.65757" lon="6.13185">
        <ele>237</ele>
        <time>2020-11-29T14:46:07Z</time>
      </trkpt>
      <trkpt lat="47.65754" lon="6.13179">
        <ele>237</ele>
        <time>2020-11-29T14:46:10Z</time>
      </trkpt>
      <trkpt lat="47.65751" lon="6.13173">
        <ele>237</ele>
        <time>2020-11-29T14:46:10Z</time>
      </trkpt>
      <trkpt lat="47.65746" lon="6.13163">
        <ele>237</ele>
        <time>2020-11-29T14:46:12Z</time>
      </trkpt>
      <trkpt lat="47.65742" lon="6.13154">
        <ele>236.9</ele>
        <time>2020-11-29T14:46:16Z</time>
      </trkpt>
      <trkpt lat="47.65734" lon="6.13139">
        <ele>236.7</ele>
        <time>2020-11-29T14:46:16Z</time>
      </trkpt>
      <trkpt lat="47.65731" lon="6.13132">
        <ele>236.6</ele>
        <time>2020-11-29T14:46:17Z</time>
      </trkpt>
      <trkpt lat="47.65728" lon="6.13126">
        <ele>236.5</ele>
        <time>2020-11-29T14:46:18Z</time>
      </trkpt>
      <trkpt lat="47.65725" lon="6.1312">
        <ele>236.4</ele>
        <time>2020-11-29T14:46:19Z</time>
      </trkpt>
      <trkpt lat="47.65722" lon="6.13114">
        <ele>236.2</ele>
        <time>2020-11-29T14:46:20Z</time>
      </trkpt>
      <trkpt lat="47.65719" lon="6.13108">
        <ele>236.1</ele>
        <time>2020-11-29T14:46:21Z</time>
      </trkpt>
      <trkpt lat="47.65716" lon="6.13102">
        <ele>236</ele>
        <time>2020-11-29T14:46:22Z</time>
      </trkpt>
      <trkpt lat="47.65714" lon="6.13096">
        <ele>235.8</ele>
        <time>2020-11-29T14:46:23Z</time>
      </trkpt>
      <trkpt lat="47.65711" lon="6.13089">
        <ele>235.7</ele>
        <time>2020-11-29T14:46:24Z</time>
      </trkpt>
      <trkpt lat="47.65709" lon="6.13082">
        <ele>235.5</ele>
        <time>2020-11-29T14:46:25Z</time>
      </trkpt>
      <trkpt lat="47.65707" lon="6.13074">
        <ele>235.2</ele>
        <time>2020-11-29T14:46:26Z</time>
      </trkpt>
      <trkpt lat="47.65705" lon="6.13066">
        <ele>235</ele>
        <time>2020-11-29T14:46:27Z</time>
      </trkpt>
      <trkpt lat="47.65703" lon="6.13058">
        <ele>234.7</ele>
        <time>2020-11-29T14:46:28Z</time>
      </trkpt>
      <trkpt lat="47.65701" lon="6.1305">
        <ele>234.4</ele>
        <time>2020-11-29T14:46:29Z</time>
      </trkpt>
      <trkpt lat="47.65698" lon="6.13041">
        <ele>234.1</ele>
        <time>2020-11-29T14:46:30Z</time>
      </trkpt>
      <trkpt lat="47.65696" lon="6.13032">
        <ele>233.8</ele>
        <time>2020-11-29T14:46:31Z</time>
      </trkpt>
      <trkpt lat="47.65694" lon="6.13023">
        <ele>233.5</ele>
        <time>2020-11-29T14:46:32Z</time>
      </trkpt>
      <trkpt lat="47.65691" lon="6.13014">
        <ele>233.2</ele>
        <time>2020-11-29T14:46:33Z</time>
      </trkpt>
      <trkpt lat="47.65689" lon="6.13004">
        <ele>232.9</ele>
        <time>2020-11-29T14:46:34Z</time>
      </trkpt>
      <trkpt lat="47.65686" lon="6.12995">
        <ele>232.7</ele>
        <time>2020-11-29T14:46:35Z</time>
      </trkpt>
      <trkpt lat="47.65683" lon="6.12985">
        <ele>232.7</ele>
        <time>2020-11-29T14:46:36Z</time>
      </trkpt>
      <trkpt lat="47.6568" lon="6.12976">
        <ele>232.7</ele>
        <time>2020-11-29T14:46:37Z</time>
      </trkpt>
      <trkpt lat="47.65677" lon="6.12966">
        <ele>232.7</ele>
        <time>2020-11-29T14:46:38Z</time>
      </trkpt>
      <trkpt lat="47.65674" lon="6.12957">
        <ele>232.7</ele>
        <time>2020-11-29T14:46:39Z</time>
      </trkpt>
      <trkpt lat="47.6567" lon="6.12947">
        <ele>232.7</ele>
        <time>2020-11-29T14:46:40Z</time>
      </trkpt>
      <trkpt lat="47.65667" lon="6.12938">
        <ele>232.7</ele>
        <time>2020-11-29T14:46:41Z</time>
      </trkpt>
      <trkpt lat="47.65663" lon="6.12929">
        <ele>232.8</ele>
        <time>2020-11-29T14:46:42Z</time>
      </trkpt>
      <trkpt lat="47.6566" lon="6.1292">
        <ele>232.8</ele>
        <time>2020-11-29T14:46:43Z</time>
      </trkpt>
      <trkpt lat="47.65656" lon="6.12911">
        <ele>232.7</ele>
        <time>2020-11-29T14:46:44Z</time>
      </trkpt>
      <trkpt lat="47.65653" lon="6.12902">
        <ele>232.5</ele>
        <time>2020-11-29T14:46:45Z</time>
      </trkpt>
      <trkpt lat="47.65649" lon="6.12892">
        <ele>232.2</ele>
        <time>2020-11-29T14:46:46Z</time>
      </trkpt>
      <trkpt lat="47.65646" lon="6.12883">
        <ele>232</ele>
        <time>2020-11-29T14:46:47Z</time>
      </trkpt>
      <trkpt lat="47.65643" lon="6.12874">
        <ele>231.8</ele>
        <time>2020-11-29T14:46:48Z</time>
      </trkpt>
      <trkpt lat="47.65639" lon="6.12865">
        <ele>231.5</ele>
        <time>2020-11-29T14:46:49Z</time>
      </trkpt>
      <trkpt lat="47.65636" lon="6.12856">
        <ele>231.3</ele>
        <time>2020-11-29T14:46:50Z</time>
      </trkpt>
      <trkpt lat="47.65632" lon="6.12847">
        <ele>231</ele>
        <time>2020-11-29T14:46:51Z</time>
      </trkpt>
      <trkpt lat="47.65629" lon="6.12838">
        <ele>230.7</ele>
        <time>2020-11-29T14:46:52Z</time>
      </trkpt>
      <trkpt lat="47.65625" lon="6.12829">
        <ele>230.5</ele>
        <time>2020-11-29T14:46:53Z</time>
      </trkpt>
      <trkpt lat="47.65622" lon="6.12821">
        <ele>230.4</ele>
        <time>2020-11-29T14:46:54Z</time>
      </trkpt>
      <trkpt lat="47.65618" lon="6.12814">
        <ele>230.2</ele>
        <time>2020-11-29T14:46:55Z</time>
      </trkpt>
      <trkpt lat="47.65614" lon="6.12807">
        <ele>230.1</ele>
        <time>2020-11-29T14:46:56Z</time>
      </trkpt>
      <trkpt lat="47.65611" lon="6.12802">
        <ele>230</ele>
        <time>2020-11-29T14:46:57Z</time>
      </trkpt>
      <trkpt lat="47.65609" lon="6.12796">
        <ele>229.9</ele>
        <time>2020-11-29T14:46:58Z</time>
      </trkpt>
      <trkpt lat="47.65607" lon="6.12784">
        <ele>229.8</ele>
        <time>2020-11-29T14:47:00Z</time>
      </trkpt>
      <trkpt lat="47.65602" lon="6.12775">
        <ele>229.7</ele>
        <time>2020-11-29T14:47:02Z</time>
      </trkpt>
      <trkpt lat="47.65596" lon="6.12766">
        <ele>229.5</ele>
        <time>2020-11-29T14:47:04Z</time>
      </trkpt>
      <trkpt lat="47.65592" lon="6.12761">
        <ele>229.3</ele>
        <time>2020-11-29T14:47:05Z</time>
      </trkpt>
      <trkpt lat="47.65588" lon="6.12754">
        <ele>229.2</ele>
        <time>2020-11-29T14:47:06Z</time>
      </trkpt>
      <trkpt lat="47.65584" lon="6.12748">
        <ele>229</ele>
        <time>2020-11-29T14:47:07Z</time>
      </trkpt>
      <trkpt lat="47.6558" lon="6.12741">
        <ele>228.8</ele>
        <time>2020-11-29T14:47:08Z</time>
      </trkpt>
      <trkpt lat="47.65577" lon="6.12735">
        <ele>228.6</ele>
        <time>2020-11-29T14:47:09Z</time>
      </trkpt>
      <trkpt lat="47.65573" lon="6.12728">
        <ele>228.4</ele>
        <time>2020-11-29T14:47:10Z</time>
      </trkpt>
      <trkpt lat="47.6557" lon="6.12722">
        <ele>228.3</ele>
        <time>2020-11-29T14:47:11Z</time>
      </trkpt>
      <trkpt lat="47.65567" lon="6.12715">
        <ele>228.1</ele>
        <time>2020-11-29T14:47:12Z</time>
      </trkpt>
      <trkpt lat="47.65564" lon="6.12709">
        <ele>228</ele>
        <time>2020-11-29T14:47:13Z</time>
      </trkpt>
      <trkpt lat="47.65561" lon="6.12704">
        <ele>227.9</ele>
        <time>2020-11-29T14:47:14Z</time>
      </trkpt>
      <trkpt lat="47.65558" lon="6.12698">
        <ele>227.8</ele>
        <time>2020-11-29T14:47:15Z</time>
      </trkpt>
      <trkpt lat="47.65555" lon="6.12693">
        <ele>227.8</ele>
        <time>2020-11-29T14:47:16Z</time>
      </trkpt>
      <trkpt lat="47.65552" lon="6.12688">
        <ele>227.7</ele>
        <time>2020-11-29T14:47:17Z</time>
      </trkpt>
      <trkpt lat="47.65547" lon="6.12679">
        <ele>227.6</ele>
        <time>2020-11-29T14:47:19Z</time>
      </trkpt>
      <trkpt lat="47.65542" lon="6.1267">
        <ele>227.5</ele>
        <time>2020-11-29T14:47:21Z</time>
      </trkpt>
      <trkpt lat="47.65538" lon="6.12663">
        <ele>227.4</ele>
        <time>2020-11-29T14:47:23Z</time>
      </trkpt>
      <trkpt lat="47.65534" lon="6.12658">
        <ele>227.3</ele>
        <time>2020-11-29T14:47:28Z</time>
      </trkpt>
      <trkpt lat="47.65531" lon="6.12652">
        <ele>227.2</ele>
        <time>2020-11-29T14:47:29Z</time>
      </trkpt>
      <trkpt lat="47.65527" lon="6.12644">
        <ele>227.1</ele>
        <time>2020-11-29T14:47:30Z</time>
      </trkpt>
      <trkpt lat="47.6552" lon="6.12632">
        <ele>226.9</ele>
        <time>2020-11-29T14:47:32Z</time>
      </trkpt>
      <trkpt lat="47.65513" lon="6.12621">
        <ele>226.9</ele>
        <time>2020-11-29T14:47:34Z</time>
      </trkpt>
      <trkpt lat="47.65509" lon="6.12611">
        <ele>226.9</ele>
        <time>2020-11-29T14:47:36Z</time>
      </trkpt>
      <trkpt lat="47.65504" lon="6.12602">
        <ele>226.9</ele>
        <time>2020-11-29T14:47:37Z</time>
      </trkpt>
      <trkpt lat="47.65501" lon="6.12595">
        <ele>227</ele>
        <time>2020-11-29T14:47:39Z</time>
      </trkpt>
      <trkpt lat="47.65497" lon="6.12587">
        <ele>227</ele>
        <time>2020-11-29T14:47:41Z</time>
      </trkpt>
      <trkpt lat="47.65489" lon="6.12574">
        <ele>226.7</ele>
        <time>2020-11-29T14:47:44Z</time>
      </trkpt>
      <trkpt lat="47.65485" lon="6.12568">
        <ele>226.6</ele>
        <time>2020-11-29T14:47:45Z</time>
      </trkpt>
      <trkpt lat="47.65481" lon="6.1256">
        <ele>226.4</ele>
        <time>2020-11-29T14:47:45Z</time>
      </trkpt>
      <trkpt lat="47.65476" lon="6.12551">
        <ele>226.2</ele>
        <time>2020-11-29T14:47:49Z</time>
      </trkpt>
      <trkpt lat="47.65472" lon="6.12544">
        <ele>226</ele>
        <time>2020-11-29T14:47:51Z</time>
      </trkpt>
      <trkpt lat="47.65468" lon="6.12537">
        <ele>225.8</ele>
        <time>2020-11-29T14:47:51Z</time>
      </trkpt>
      <trkpt lat="47.65471" lon="6.12543">
        <ele>226</ele>
        <time>2020-11-29T14:47:55Z</time>
      </trkpt>
      <trkpt lat="47.65475" lon="6.1254">
        <ele>226</ele>
        <time>2020-11-29T14:48:56Z</time>
      </trkpt>
      <trkpt lat="47.6548" lon="6.12548">
        <ele>226.2</ele>
        <time>2020-11-29T14:49:23Z</time>
      </trkpt>
      <trkpt lat="47.65487" lon="6.12562">
        <ele>226.5</ele>
        <time>2020-11-29T14:49:26Z</time>
      </trkpt>
      <trkpt lat="47.6549" lon="6.12569">
        <ele>226.7</ele>
        <time>2020-11-29T14:49:27Z</time>
      </trkpt>
      <trkpt lat="47.65493" lon="6.12574">
        <ele>226.8</ele>
        <time>2020-11-29T14:49:29Z</time>
      </trkpt>
      <trkpt lat="47.65497" lon="6.12582">
        <ele>227</ele>
        <time>2020-11-29T14:49:29Z</time>
      </trkpt>
      <trkpt lat="47.65501" lon="6.1259">
        <ele>227</ele>
        <time>2020-11-29T14:49:33Z</time>
      </trkpt>
      <trkpt lat="47.65503" lon="6.12596">
        <ele>226.9</ele>
        <time>2020-11-29T14:49:34Z</time>
      </trkpt>
      <trkpt lat="47.65506" lon="6.12602">
        <ele>226.9</ele>
        <time>2020-11-29T14:49:34Z</time>
      </trkpt>
      <trkpt lat="47.65509" lon="6.12608">
        <ele>226.9</ele>
        <time>2020-11-29T14:49:38Z</time>
      </trkpt>
      <trkpt lat="47.65514" lon="6.12616">
        <ele>226.9</ele>
        <time>2020-11-29T14:49:38Z</time>
      </trkpt>
      <trkpt lat="47.65518" lon="6.12622">
        <ele>226.9</ele>
        <time>2020-11-29T14:49:42Z</time>
      </trkpt>
      <trkpt lat="47.6552" lon="6.12631">
        <ele>226.9</ele>
        <time>2020-11-29T14:49:44Z</time>
      </trkpt>
      <trkpt lat="47.65523" lon="6.12637">
        <ele>227</ele>
        <time>2020-11-29T14:49:45Z</time>
      </trkpt>
      <trkpt lat="47.65528" lon="6.12646">
        <ele>227.1</ele>
        <time>2020-11-29T14:49:48Z</time>
      </trkpt>
      <trkpt lat="47.65531" lon="6.12651">
        <ele>227.2</ele>
        <time>2020-11-29T14:49:50Z</time>
      </trkpt>
      <trkpt lat="47.65536" lon="6.1266">
        <ele>227.3</ele>
        <time>2020-11-29T14:49:52Z</time>
      </trkpt>
      <trkpt lat="47.6554" lon="6.12666">
        <ele>227.5</ele>
        <time>2020-11-29T14:49:52Z</time>
      </trkpt>
      <trkpt lat="47.65544" lon="6.12673">
        <ele>227.5</ele>
        <time>2020-11-29T14:49:56Z</time>
      </trkpt>
      <trkpt lat="47.65549" lon="6.12683">
        <ele>227.6</ele>
        <time>2020-11-29T14:49:57Z</time>
      </trkpt>
      <trkpt lat="47.65555" lon="6.12693">
        <ele>227.8</ele>
        <time>2020-11-29T14:50:00Z</time>
      </trkpt>
      <trkpt lat="47.65558" lon="6.12699">
        <ele>227.9</ele>
        <time>2020-11-29T14:50:04Z</time>
      </trkpt>
      <trkpt lat="47.65562" lon="6.12705">
        <ele>228</ele>
        <time>2020-11-29T14:50:05Z</time>
      </trkpt>
      <trkpt lat="47.65565" lon="6.12712">
        <ele>228.1</ele>
        <time>2020-11-29T14:50:07Z</time>
      </trkpt>
      <trkpt lat="47.65568" lon="6.12719">
        <ele>228.2</ele>
        <time>2020-11-29T14:50:09Z</time>
      </trkpt>
      <trkpt lat="47.65573" lon="6.12726">
        <ele>228.4</ele>
        <time>2020-11-29T14:50:11Z</time>
      </trkpt>
      <trkpt lat="47.65577" lon="6.12733">
        <ele>228.6</ele>
        <time>2020-11-29T14:50:13Z</time>
      </trkpt>
      <trkpt lat="47.6558" lon="6.12739">
        <ele>228.8</ele>
        <time>2020-11-29T14:50:13Z</time>
      </trkpt>
      <trkpt lat="47.65584" lon="6.12745">
        <ele>229</ele>
        <time>2020-11-29T14:50:15Z</time>
      </trkpt>
      <trkpt lat="47.65588" lon="6.12751">
        <ele>229.2</ele>
        <time>2020-11-29T14:50:17Z</time>
      </trkpt>
      <trkpt lat="47.65591" lon="6.12757">
        <ele>229.3</ele>
        <time>2020-11-29T14:50:19Z</time>
      </trkpt>
      <trkpt lat="47.65595" lon="6.12762">
        <ele>229.4</ele>
        <time>2020-11-29T14:50:21Z</time>
      </trkpt>
      <trkpt lat="47.65599" lon="6.12768">
        <ele>229.6</ele>
        <time>2020-11-29T14:50:23Z</time>
      </trkpt>
      <trkpt lat="47.65604" lon="6.12773">
        <ele>229.7</ele>
        <time>2020-11-29T14:50:25Z</time>
      </trkpt>
      <trkpt lat="47.65609" lon="6.12773">
        <ele>229.9</ele>
        <time>2020-11-29T14:50:27Z</time>
      </trkpt>
      <trkpt lat="47.65615" lon="6.1277">
        <ele>230.1</ele>
        <time>2020-11-29T14:50:29Z</time>
      </trkpt>
      <trkpt lat="47.6562" lon="6.12768">
        <ele>230.3</ele>
        <time>2020-11-29T14:50:31Z</time>
      </trkpt>
      <trkpt lat="47.65625" lon="6.12764">
        <ele>230.5</ele>
        <time>2020-11-29T14:50:35Z</time>
      </trkpt>
      <trkpt lat="47.65629" lon="6.12757">
        <ele>230.7</ele>
        <time>2020-11-29T14:50:35Z</time>
      </trkpt>
      <trkpt lat="47.65634" lon="6.12751">
        <ele>230.8</ele>
        <time>2020-11-29T14:50:37Z</time>
      </trkpt>
      <trkpt lat="47.65638" lon="6.12745">
        <ele>230.9</ele>
        <time>2020-11-29T14:50:39Z</time>
      </trkpt>
      <trkpt lat="47.65642" lon="6.1274">
        <ele>230.9</ele>
        <time>2020-11-29T14:50:41Z</time>
      </trkpt>
      <trkpt lat="47.65646" lon="6.12735">
        <ele>230.9</ele>
        <time>2020-11-29T14:50:43Z</time>
      </trkpt>
      <trkpt lat="47.6565" lon="6.1273">
        <ele>231</ele>
        <time>2020-11-29T14:50:45Z</time>
      </trkpt>
      <trkpt lat="47.65654" lon="6.12725">
        <ele>231</ele>
        <time>2020-11-29T14:50:47Z</time>
      </trkpt>
      <trkpt lat="47.65658" lon="6.12719">
        <ele>231</ele>
        <time>2020-11-29T14:50:49Z</time>
      </trkpt>
      <trkpt lat="47.65663" lon="6.12715">
        <ele>231</ele>
        <time>2020-11-29T14:50:51Z</time>
      </trkpt>
      <trkpt lat="47.65666" lon="6.12709">
        <ele>231</ele>
        <time>2020-11-29T14:50:53Z</time>
      </trkpt>
      <trkpt lat="47.6567" lon="6.12703">
        <ele>231</ele>
        <time>2020-11-29T14:50:55Z</time>
      </trkpt>
      <trkpt lat="47.65675" lon="6.12698">
        <ele>231</ele>
        <time>2020-11-29T14:50:57Z</time>
      </trkpt>
      <trkpt lat="47.65679" lon="6.12693">
        <ele>231</ele>
        <time>2020-11-29T14:50:59Z</time>
      </trkpt>
      <trkpt lat="47.65683" lon="6.12688">
        <ele>231.1</ele>
        <time>2020-11-29T14:51:01Z</time>
      </trkpt>
      <trkpt lat="47.65687" lon="6.12681">
        <ele>231</ele>
        <time>2020-11-29T14:51:03Z</time>
      </trkpt>
      <trkpt lat="47.65691" lon="6.12676">
        <ele>231.1</ele>
        <time>2020-11-29T14:51:05Z</time>
      </trkpt>
      <trkpt lat="47.65696" lon="6.12672">
        <ele>231.2</ele>
        <time>2020-11-29T14:51:07Z</time>
      </trkpt>
      <trkpt lat="47.657" lon="6.12668">
        <ele>231.2</ele>
        <time>2020-11-29T14:51:09Z</time>
      </trkpt>
      <trkpt lat="47.65705" lon="6.12664">
        <ele>231.3</ele>
        <time>2020-11-29T14:51:11Z</time>
      </trkpt>
      <trkpt lat="47.65709" lon="6.12658">
        <ele>231.4</ele>
        <time>2020-11-29T14:51:13Z</time>
      </trkpt>
      <trkpt lat="47.65713" lon="6.12653">
        <ele>231.5</ele>
        <time>2020-11-29T14:51:15Z</time>
      </trkpt>
      <trkpt lat="47.65718" lon="6.1265">
        <ele>231.7</ele>
        <time>2020-11-29T14:51:17Z</time>
      </trkpt>
      <trkpt lat="47.65722" lon="6.12646">
        <ele>231.8</ele>
        <time>2020-11-29T14:51:19Z</time>
      </trkpt>
      <trkpt lat="47.65725" lon="6.12641">
        <ele>231.9</ele>
        <time>2020-11-29T14:51:21Z</time>
      </trkpt>
      <trkpt lat="47.65729" lon="6.12637">
        <ele>232.1</ele>
        <time>2020-11-29T14:51:23Z</time>
      </trkpt>
      <trkpt lat="47.65733" lon="6.12633">
        <ele>232.2</ele>
        <time>2020-11-29T14:51:25Z</time>
      </trkpt>
      <trkpt lat="47.65739" lon="6.12628">
        <ele>232.5</ele>
        <time>2020-11-29T14:51:28Z</time>
      </trkpt>
      <trkpt lat="47.65743" lon="6.12624">
        <ele>232.7</ele>
        <time>2020-11-29T14:51:30Z</time>
      </trkpt>
      <trkpt lat="47.65747" lon="6.12619">
        <ele>232.8</ele>
        <time>2020-11-29T14:51:32Z</time>
      </trkpt>
      <trkpt lat="47.6575" lon="6.12614">
        <ele>233</ele>
        <time>2020-11-29T14:51:34Z</time>
      </trkpt>
      <trkpt lat="47.65753" lon="6.12606">
        <ele>233.1</ele>
        <time>2020-11-29T14:51:37Z</time>
      </trkpt>
      <trkpt lat="47.65755" lon="6.12597">
        <ele>233.2</ele>
        <time>2020-11-29T14:51:40Z</time>
      </trkpt>
      <trkpt lat="47.65757" lon="6.12589">
        <ele>233.3</ele>
        <time>2020-11-29T14:51:43Z</time>
      </trkpt>
      <trkpt lat="47.6576" lon="6.12581">
        <ele>233.3</ele>
        <time>2020-11-29T14:51:46Z</time>
      </trkpt>
      <trkpt lat="47.65763" lon="6.1257">
        <ele>233.3</ele>
        <time>2020-11-29T14:51:49Z</time>
      </trkpt>
      <trkpt lat="47.65766" lon="6.12561">
        <ele>233.3</ele>
        <time>2020-11-29T14:51:54Z</time>
      </trkpt>
      <trkpt lat="47.6577" lon="6.12553">
        <ele>233.3</ele>
        <time>2020-11-29T14:51:54Z</time>
      </trkpt>
      <trkpt lat="47.65772" lon="6.12547">
        <ele>233.2</ele>
        <time>2020-11-29T14:51:58Z</time>
      </trkpt>
      <trkpt lat="47.65776" lon="6.12539">
        <ele>233.2</ele>
        <time>2020-11-29T14:51:58Z</time>
      </trkpt>
      <trkpt lat="47.65779" lon="6.12533">
        <ele>233.2</ele>
        <time>2020-11-29T14:52:00Z</time>
      </trkpt>
      <trkpt lat="47.65782" lon="6.12525">
        <ele>233.2</ele>
        <time>2020-11-29T14:52:02Z</time>
      </trkpt>
      <trkpt lat="47.65784" lon="6.12518">
        <ele>233.1</ele>
        <time>2020-11-29T14:52:06Z</time>
      </trkpt>
      <trkpt lat="47.65787" lon="6.12511">
        <ele>233.1</ele>
        <time>2020-11-29T14:52:07Z</time>
      </trkpt>
      <trkpt lat="47.65789" lon="6.12501">
        <ele>233</ele>
        <time>2020-11-29T14:52:10Z</time>
      </trkpt>
      <trkpt lat="47.65791" lon="6.12494">
        <ele>233</ele>
        <time>2020-11-29T14:52:10Z</time>
      </trkpt>
      <trkpt lat="47.65793" lon="6.12485">
        <ele>233</ele>
        <time>2020-11-29T14:52:12Z</time>
      </trkpt>
      <trkpt lat="47.65795" lon="6.12477">
        <ele>233.1</ele>
        <time>2020-11-29T14:52:14Z</time>
      </trkpt>
      <trkpt lat="47.65797" lon="6.1247">
        <ele>233.1</ele>
        <time>2020-11-29T14:52:18Z</time>
      </trkpt>
      <trkpt lat="47.65799" lon="6.12461">
        <ele>233.2</ele>
        <time>2020-11-29T14:52:18Z</time>
      </trkpt>
      <trkpt lat="47.65801" lon="6.12453">
        <ele>233.2</ele>
        <time>2020-11-29T14:52:20Z</time>
      </trkpt>
      <trkpt lat="47.65803" lon="6.12443">
        <ele>233.3</ele>
        <time>2020-11-29T14:52:25Z</time>
      </trkpt>
      <trkpt lat="47.65805" lon="6.12434">
        <ele>233.3</ele>
        <time>2020-11-29T14:52:25Z</time>
      </trkpt>
      <trkpt lat="47.65807" lon="6.12426">
        <ele>233.4</ele>
        <time>2020-11-29T14:52:27Z</time>
      </trkpt>
      <trkpt lat="47.6581" lon="6.12415">
        <ele>233.5</ele>
        <time>2020-11-29T14:52:30Z</time>
      </trkpt>
      <trkpt lat="47.65812" lon="6.12408">
        <ele>233.7</ele>
        <time>2020-11-29T14:52:32Z</time>
      </trkpt>
      <trkpt lat="47.65815" lon="6.12398">
        <ele>234</ele>
        <time>2020-11-29T14:52:35Z</time>
      </trkpt>
      <trkpt lat="47.65817" lon="6.12392">
        <ele>234.1</ele>
        <time>2020-11-29T14:52:37Z</time>
      </trkpt>
      <trkpt lat="47.6582" lon="6.12385">
        <ele>234.4</ele>
        <time>2020-11-29T14:52:39Z</time>
      </trkpt>
      <trkpt lat="47.65823" lon="6.12376">
        <ele>234.7</ele>
        <time>2020-11-29T14:52:42Z</time>
      </trkpt>
      <trkpt lat="47.65826" lon="6.1237">
        <ele>234.9</ele>
        <time>2020-11-29T14:52:44Z</time>
      </trkpt>
      <trkpt lat="47.65829" lon="6.12364">
        <ele>235.1</ele>
        <time>2020-11-29T14:52:46Z</time>
      </trkpt>
      <trkpt lat="47.65831" lon="6.12357">
        <ele>235.4</ele>
        <time>2020-11-29T14:52:48Z</time>
      </trkpt>
      <trkpt lat="47.65834" lon="6.12351">
        <ele>235.6</ele>
        <time>2020-11-29T14:52:52Z</time>
      </trkpt>
      <trkpt lat="47.65838" lon="6.12344">
        <ele>235.8</ele>
        <time>2020-11-29T14:52:54Z</time>
      </trkpt>
      <trkpt lat="47.6584" lon="6.12338">
        <ele>236</ele>
        <time>2020-11-29T14:52:54Z</time>
      </trkpt>
      <trkpt lat="47.65843" lon="6.1233">
        <ele>236.2</ele>
        <time>2020-11-29T14:52:58Z</time>
      </trkpt>
      <trkpt lat="47.65847" lon="6.12321">
        <ele>236.3</ele>
        <time>2020-11-29T14:53:01Z</time>
      </trkpt>
      <trkpt lat="47.6585" lon="6.12315">
        <ele>236.4</ele>
        <time>2020-11-29T14:53:01Z</time>
      </trkpt>
      <trkpt lat="47.65852" lon="6.12309">
        <ele>236.5</ele>
        <time>2020-11-29T14:53:03Z</time>
      </trkpt>
      <trkpt lat="47.65855" lon="6.12303">
        <ele>236.5</ele>
        <time>2020-11-29T14:53:05Z</time>
      </trkpt>
      <trkpt lat="47.65859" lon="6.12297">
        <ele>236.6</ele>
        <time>2020-11-29T14:53:10Z</time>
      </trkpt>
      <trkpt lat="47.65863" lon="6.12291">
        <ele>236.7</ele>
        <time>2020-11-29T14:53:10Z</time>
      </trkpt>
      <trkpt lat="47.65866" lon="6.12285">
        <ele>236.7</ele>
        <time>2020-11-29T14:53:14Z</time>
      </trkpt>
      <trkpt lat="47.65869" lon="6.12278">
        <ele>236.8</ele>
        <time>2020-11-29T14:53:16Z</time>
      </trkpt>
      <trkpt lat="47.65873" lon="6.12272">
        <ele>236.9</ele>
        <time>2020-11-29T14:53:19Z</time>
      </trkpt>
      <trkpt lat="47.65876" lon="6.12266">
        <ele>236.9</ele>
        <time>2020-11-29T14:53:21Z</time>
      </trkpt>
      <trkpt lat="47.65879" lon="6.1226">
        <ele>236.9</ele>
        <time>2020-11-29T14:53:23Z</time>
      </trkpt>
      <trkpt lat="47.65883" lon="6.12252">
        <ele>237</ele>
        <time>2020-11-29T14:53:25Z</time>
      </trkpt>
      <trkpt lat="47.65886" lon="6.12245">
        <ele>237</ele>
        <time>2020-11-29T14:53:26Z</time>
      </trkpt>
      <trkpt lat="47.65889" lon="6.12239">
        <ele>237</ele>
        <time>2020-11-29T14:53:30Z</time>
      </trkpt>
      <trkpt lat="47.65892" lon="6.12233">
        <ele>237.1</ele>
        <time>2020-11-29T14:53:32Z</time>
      </trkpt>
      <trkpt lat="47.65895" lon="6.12227">
        <ele>237.1</ele>
        <time>2020-11-29T14:53:35Z</time>
      </trkpt>
      <trkpt lat="47.65898" lon="6.12221">
        <ele>237.2</ele>
        <time>2020-11-29T14:53:37Z</time>
      </trkpt>
      <trkpt lat="47.65901" lon="6.12215">
        <ele>237.3</ele>
        <time>2020-11-29T14:53:39Z</time>
      </trkpt>
      <trkpt lat="47.65904" lon="6.12208">
        <ele>237.4</ele>
        <time>2020-11-29T14:53:39Z</time>
      </trkpt>
      <trkpt lat="47.65907" lon="6.12202">
        <ele>237.4</ele>
        <time>2020-11-29T14:53:41Z</time>
      </trkpt>
      <trkpt lat="47.6591" lon="6.12197">
        <ele>237.5</ele>
        <time>2020-11-29T14:53:45Z</time>
      </trkpt>
      <trkpt lat="47.65913" lon="6.1219">
        <ele>237.7</ele>
        <time>2020-11-29T14:53:47Z</time>
      </trkpt>
      <trkpt lat="47.65917" lon="6.12183">
        <ele>237.8</ele>
        <time>2020-11-29T14:53:50Z</time>
      </trkpt>
      <trkpt lat="47.6592" lon="6.12174">
        <ele>238</ele>
        <time>2020-11-29T14:53:53Z</time>
      </trkpt>
      <trkpt lat="47.65922" lon="6.12167">
        <ele>238.1</ele>
        <time>2020-11-29T14:53:55Z</time>
      </trkpt>
      <trkpt lat="47.65925" lon="6.12161">
        <ele>238.3</ele>
        <time>2020-11-29T14:53:58Z</time>
      </trkpt>
      <trkpt lat="47.65931" lon="6.12152">
        <ele>238.5</ele>
        <time>2020-11-29T14:54:01Z</time>
      </trkpt>
      <trkpt lat="47.65935" lon="6.12147">
        <ele>238.7</ele>
        <time>2020-11-29T14:54:03Z</time>
      </trkpt>
      <trkpt lat="47.65939" lon="6.12141">
        <ele>238.9</ele>
        <time>2020-11-29T14:54:05Z</time>
      </trkpt>
      <trkpt lat="47.65944" lon="6.12134">
        <ele>239</ele>
        <time>2020-11-29T14:54:05Z</time>
      </trkpt>
      <trkpt lat="47.65948" lon="6.12129">
        <ele>239.2</ele>
        <time>2020-11-29T14:54:09Z</time>
      </trkpt>
      <trkpt lat="47.65952" lon="6.12124">
        <ele>239.3</ele>
        <time>2020-11-29T14:54:11Z</time>
      </trkpt>
      <trkpt lat="47.65955" lon="6.12119">
        <ele>239.5</ele>
        <time>2020-11-29T14:54:12Z</time>
      </trkpt>
      <trkpt lat="47.65958" lon="6.12115">
        <ele>239.6</ele>
        <time>2020-11-29T14:54:12Z</time>
      </trkpt>
      <trkpt lat="47.65962" lon="6.1211">
        <ele>239.8</ele>
        <time>2020-11-29T14:54:16Z</time>
      </trkpt>
      <trkpt lat="47.65967" lon="6.12102">
        <ele>240</ele>
        <time>2020-11-29T14:54:19Z</time>
      </trkpt>
      <trkpt lat="47.65971" lon="6.12096">
        <ele>240.2</ele>
        <time>2020-11-29T14:54:19Z</time>
      </trkpt>
      <trkpt lat="47.65975" lon="6.1209">
        <ele>240.3</ele>
        <time>2020-11-29T14:54:21Z</time>
      </trkpt>
      <trkpt lat="47.65978" lon="6.12084">
        <ele>240.5</ele>
        <time>2020-11-29T14:54:23Z</time>
      </trkpt>
      <trkpt lat="47.65981" lon="6.12078">
        <ele>240.7</ele>
        <time>2020-11-29T14:54:25Z</time>
      </trkpt>
      <trkpt lat="47.65984" lon="6.12072">
        <ele>240.9</ele>
        <time>2020-11-29T14:54:29Z</time>
      </trkpt>
      <trkpt lat="47.65987" lon="6.12066">
        <ele>241.1</ele>
        <time>2020-11-29T14:54:31Z</time>
      </trkpt>
      <trkpt lat="47.65991" lon="6.12059">
        <ele>241.4</ele>
        <time>2020-11-29T14:54:34Z</time>
      </trkpt>
      <trkpt lat="47.65995" lon="6.12053">
        <ele>241.6</ele>
        <time>2020-11-29T14:54:34Z</time>
      </trkpt>
      <trkpt lat="47.66" lon="6.12044">
        <ele>241.9</ele>
        <time>2020-11-29T14:54:39Z</time>
      </trkpt>
      <trkpt lat="47.66003" lon="6.12039">
        <ele>242</ele>
        <time>2020-11-29T14:54:40Z</time>
      </trkpt>
      <trkpt lat="47.66006" lon="6.12033">
        <ele>242.1</ele>
        <time>2020-11-29T14:54:42Z</time>
      </trkpt>
      <trkpt lat="47.6601" lon="6.12026">
        <ele>242.2</ele>
        <time>2020-11-29T14:54:45Z</time>
      </trkpt>
      <trkpt lat="47.66015" lon="6.12017">
        <ele>242.3</ele>
        <time>2020-11-29T14:54:46Z</time>
      </trkpt>
      <trkpt lat="47.6602" lon="6.12012">
        <ele>242.3</ele>
        <time>2020-11-29T14:54:51Z</time>
      </trkpt>
      <trkpt lat="47.66023" lon="6.12008">
        <ele>242.3</ele>
        <time>2020-11-29T14:54:53Z</time>
      </trkpt>
      <trkpt lat="47.66026" lon="6.12003">
        <ele>242.3</ele>
        <time>2020-11-29T14:54:53Z</time>
      </trkpt>
      <trkpt lat="47.66031" lon="6.11996">
        <ele>242.3</ele>
        <time>2020-11-29T14:54:56Z</time>
      </trkpt>
      <trkpt lat="47.66035" lon="6.11989">
        <ele>242.3</ele>
        <time>2020-11-29T14:54:59Z</time>
      </trkpt>
      <trkpt lat="47.66036" lon="6.11982">
        <ele>242.4</ele>
        <time>2020-11-29T14:55:01Z</time>
      </trkpt>
      <trkpt lat="47.66036" lon="6.11975">
        <ele>242.5</ele>
        <time>2020-11-29T14:55:03Z</time>
      </trkpt>
      <trkpt lat="47.66034" lon="6.11969">
        <ele>242.6</ele>
        <time>2020-11-29T14:55:07Z</time>
      </trkpt>
      <trkpt lat="47.6603" lon="6.11959">
        <ele>242.9</ele>
        <time>2020-11-29T14:55:08Z</time>
      </trkpt>
      <trkpt lat="47.66027" lon="6.11952">
        <ele>243.1</ele>
        <time>2020-11-29T14:55:10Z</time>
      </trkpt>
      <trkpt lat="47.66024" lon="6.11946">
        <ele>243.4</ele>
        <time>2020-11-29T14:55:12Z</time>
      </trkpt>
      <trkpt lat="47.6602" lon="6.11941">
        <ele>243.6</ele>
        <time>2020-11-29T14:55:14Z</time>
      </trkpt>
      <trkpt lat="47.66017" lon="6.11936">
        <ele>243.8</ele>
        <time>2020-11-29T14:55:18Z</time>
      </trkpt>
      <trkpt lat="47.66014" lon="6.1193">
        <ele>244.1</ele>
        <time>2020-11-29T14:55:20Z</time>
      </trkpt>
      <trkpt lat="47.66011" lon="6.11925">
        <ele>244.3</ele>
        <time>2020-11-29T14:55:23Z</time>
      </trkpt>
      <trkpt lat="47.66008" lon="6.11919">
        <ele>244.6</ele>
        <time>2020-11-29T14:55:23Z</time>
      </trkpt>
      <trkpt lat="47.66004" lon="6.11912">
        <ele>244.9</ele>
        <time>2020-11-29T14:55:28Z</time>
      </trkpt>
      <trkpt lat="47.66001" lon="6.11906">
        <ele>245.2</ele>
        <time>2020-11-29T14:55:30Z</time>
      </trkpt>
      <trkpt lat="47.65999" lon="6.119">
        <ele>245.4</ele>
        <time>2020-11-29T14:55:30Z</time>
      </trkpt>
      <trkpt lat="47.65995" lon="6.11893">
        <ele>245.4</ele>
        <time>2020-11-29T14:55:35Z</time>
      </trkpt>
      <trkpt lat="47.6599" lon="6.11884">
        <ele>245.5</ele>
        <time>2020-11-29T14:55:36Z</time>
      </trkpt>
      <trkpt lat="47.65987" lon="6.11878">
        <ele>245.6</ele>
        <time>2020-11-29T14:55:40Z</time>
      </trkpt>
      <trkpt lat="47.65984" lon="6.11872">
        <ele>245.7</ele>
        <time>2020-11-29T14:55:43Z</time>
      </trkpt>
      <trkpt lat="47.65981" lon="6.11864">
        <ele>245.8</ele>
        <time>2020-11-29T14:55:44Z</time>
      </trkpt>
      <trkpt lat="47.65978" lon="6.11859">
        <ele>245.9</ele>
        <time>2020-11-29T14:55:46Z</time>
      </trkpt>
      <trkpt lat="47.65975" lon="6.11853">
        <ele>245.9</ele>
        <time>2020-11-29T14:55:48Z</time>
      </trkpt>
      <trkpt lat="47.65972" lon="6.11848">
        <ele>246</ele>
        <time>2020-11-29T14:55:50Z</time>
      </trkpt>
      <trkpt lat="47.65969" lon="6.1184">
        <ele>246.1</ele>
        <time>2020-11-29T14:55:53Z</time>
      </trkpt>
      <trkpt lat="47.65965" lon="6.11833">
        <ele>246.2</ele>
        <time>2020-11-29T14:55:58Z</time>
      </trkpt>
      <trkpt lat="47.65961" lon="6.11827">
        <ele>246.3</ele>
        <time>2020-11-29T14:55:58Z</time>
      </trkpt>
      <trkpt lat="47.65956" lon="6.11819">
        <ele>246.5</ele>
        <time>2020-11-29T14:56:01Z</time>
      </trkpt>
      <trkpt lat="47.65954" lon="6.11813">
        <ele>246.6</ele>
        <time>2020-11-29T14:56:03Z</time>
      </trkpt>
      <trkpt lat="47.65951" lon="6.11805">
        <ele>246.8</ele>
        <time>2020-11-29T14:56:07Z</time>
      </trkpt>
      <trkpt lat="47.65948" lon="6.11798">
        <ele>246.9</ele>
        <time>2020-11-29T14:56:08Z</time>
      </trkpt>
      <trkpt lat="47.65945" lon="6.11793">
        <ele>247</ele>
        <time>2020-11-29T14:56:10Z</time>
      </trkpt>
      <trkpt lat="47.65942" lon="6.11787">
        <ele>247</ele>
        <time>2020-11-29T14:56:12Z</time>
      </trkpt>
      <trkpt lat="47.65939" lon="6.11782">
        <ele>247.1</ele>
        <time>2020-11-29T14:56:14Z</time>
      </trkpt>
      <trkpt lat="47.65935" lon="6.11774">
        <ele>247.2</ele>
        <time>2020-11-29T14:56:19Z</time>
      </trkpt>
      <trkpt lat="47.65932" lon="6.11768">
        <ele>247.2</ele>
        <time>2020-11-29T14:56:19Z</time>
      </trkpt>
      <trkpt lat="47.65928" lon="6.1176">
        <ele>247.3</ele>
        <time>2020-11-29T14:56:24Z</time>
      </trkpt>
      <trkpt lat="47.65924" lon="6.11753">
        <ele>247.3</ele>
        <time>2020-11-29T14:56:24Z</time>
      </trkpt>
      <trkpt lat="47.65921" lon="6.11746">
        <ele>247.3</ele>
        <time>2020-11-29T14:56:26Z</time>
      </trkpt>
      <trkpt lat="47.65915" lon="6.11736">
        <ele>247.5</ele>
        <time>2020-11-29T14:56:29Z</time>
      </trkpt>
      <trkpt lat="47.65912" lon="6.1173">
        <ele>247.6</ele>
        <time>2020-11-29T14:56:33Z</time>
      </trkpt>
      <trkpt lat="47.65908" lon="6.11721">
        <ele>247.8</ele>
        <time>2020-11-29T14:56:33Z</time>
      </trkpt>
      <trkpt lat="47.65905" lon="6.11714">
        <ele>247.9</ele>
        <time>2020-11-29T14:56:35Z</time>
      </trkpt>
      <trkpt lat="47.65901" lon="6.11707">
        <ele>248.1</ele>
        <time>2020-11-29T14:56:37Z</time>
      </trkpt>
      <trkpt lat="47.65897" lon="6.117">
        <ele>248.2</ele>
        <time>2020-11-29T14:56:41Z</time>
      </trkpt>
      <trkpt lat="47.65894" lon="6.11693">
        <ele>248.3</ele>
        <time>2020-11-29T14:56:43Z</time>
      </trkpt>
      <trkpt lat="47.6589" lon="6.11685">
        <ele>248.4</ele>
        <time>2020-11-29T14:56:43Z</time>
      </trkpt>
      <trkpt lat="47.65886" lon="6.11678">
        <ele>248.5</ele>
        <time>2020-11-29T14:56:47Z</time>
      </trkpt>
      <trkpt lat="47.65882" lon="6.1167">
        <ele>248.6</ele>
        <time>2020-11-29T14:56:47Z</time>
      </trkpt>
      <trkpt lat="47.65878" lon="6.11662">
        <ele>248.7</ele>
        <time>2020-11-29T14:56:49Z</time>
      </trkpt>
      <trkpt lat="47.65874" lon="6.11654">
        <ele>248.6</ele>
        <time>2020-11-29T14:56:53Z</time>
      </trkpt>
      <trkpt lat="47.6587" lon="6.11647">
        <ele>248.5</ele>
        <time>2020-11-29T14:56:54Z</time>
      </trkpt>
      <trkpt lat="47.65867" lon="6.11641">
        <ele>248.5</ele>
        <time>2020-11-29T14:56:56Z</time>
      </trkpt>
      <trkpt lat="47.65863" lon="6.11633">
        <ele>248.4</ele>
        <time>2020-11-29T14:56:57Z</time>
      </trkpt>
      <trkpt lat="47.65857" lon="6.11622">
        <ele>248.2</ele>
        <time>2020-11-29T14:56:58Z</time>
      </trkpt>
      <trkpt lat="47.65853" lon="6.11614">
        <ele>248</ele>
        <time>2020-11-29T14:57:01Z</time>
      </trkpt>
      <trkpt lat="47.6585" lon="6.11608">
        <ele>247.9</ele>
        <time>2020-11-29T14:57:03Z</time>
      </trkpt>
      <trkpt lat="47.65847" lon="6.11602">
        <ele>247.7</ele>
        <time>2020-11-29T14:57:04Z</time>
      </trkpt>
      <trkpt lat="47.65841" lon="6.1159">
        <ele>247.4</ele>
        <time>2020-11-29T14:57:04Z</time>
      </trkpt>
      <trkpt lat="47.65835" lon="6.11579">
        <ele>247.1</ele>
        <time>2020-11-29T14:57:06Z</time>
      </trkpt>
      <trkpt lat="47.6583" lon="6.11569">
        <ele>246.9</ele>
        <time>2020-11-29T14:57:10Z</time>
      </trkpt>
      <trkpt lat="47.65826" lon="6.11561">
        <ele>246.7</ele>
        <time>2020-11-29T14:57:11Z</time>
      </trkpt>
      <trkpt lat="47.65823" lon="6.11554">
        <ele>246.6</ele>
        <time>2020-11-29T14:57:12Z</time>
      </trkpt>
      <trkpt lat="47.65819" lon="6.11546">
        <ele>246.5</ele>
        <time>2020-11-29T14:57:14Z</time>
      </trkpt>
      <trkpt lat="47.65813" lon="6.11535">
        <ele>246.3</ele>
        <time>2020-11-29T14:57:16Z</time>
      </trkpt>
      <trkpt lat="47.65807" lon="6.11523">
        <ele>246.1</ele>
        <time>2020-11-29T14:57:18Z</time>
      </trkpt>
      <trkpt lat="47.658" lon="6.11508">
        <ele>245.8</ele>
        <time>2020-11-29T14:57:19Z</time>
      </trkpt>
      <trkpt lat="47.65796" lon="6.11501">
        <ele>245.7</ele>
        <time>2020-11-29T14:57:20Z</time>
      </trkpt>
      <trkpt lat="47.65793" lon="6.11495">
        <ele>245.6</ele>
        <time>2020-11-29T14:57:21Z</time>
      </trkpt>
      <trkpt lat="47.6579" lon="6.11488">
        <ele>245.6</ele>
        <time>2020-11-29T14:57:22Z</time>
      </trkpt>
      <trkpt lat="47.65786" lon="6.11482">
        <ele>245.6</ele>
        <time>2020-11-29T14:57:23Z</time>
      </trkpt>
      <trkpt lat="47.65783" lon="6.11476">
        <ele>245.6</ele>
        <time>2020-11-29T14:57:24Z</time>
      </trkpt>
      <trkpt lat="47.6578" lon="6.1147">
        <ele>245.6</ele>
        <time>2020-11-29T14:57:25Z</time>
      </trkpt>
      <trkpt lat="47.65776" lon="6.11465">
        <ele>245.7</ele>
        <time>2020-11-29T14:57:26Z</time>
      </trkpt>
      <trkpt lat="47.65773" lon="6.11459">
        <ele>245.7</ele>
        <time>2020-11-29T14:57:27Z</time>
      </trkpt>
      <trkpt lat="47.6577" lon="6.11453">
        <ele>245.7</ele>
        <time>2020-11-29T14:57:28Z</time>
      </trkpt>
      <trkpt lat="47.65766" lon="6.11443">
        <ele>245.8</ele>
        <time>2020-11-29T14:57:30Z</time>
      </trkpt>
      <trkpt lat="47.65765" lon="6.11434">
        <ele>246</ele>
        <time>2020-11-29T14:57:32Z</time>
      </trkpt>
      <trkpt lat="47.65767" lon="6.11427">
        <ele>246.2</ele>
        <time>2020-11-29T14:57:34Z</time>
      </trkpt>
      <trkpt lat="47.65769" lon="6.11421">
        <ele>246.4</ele>
        <time>2020-11-29T14:57:36Z</time>
      </trkpt>
      <trkpt lat="47.65772" lon="6.11415">
        <ele>246.5</ele>
        <time>2020-11-29T14:57:39Z</time>
      </trkpt>
      <trkpt lat="47.65776" lon="6.11406">
        <ele>246.5</ele>
        <time>2020-11-29T14:57:40Z</time>
      </trkpt>
      <trkpt lat="47.65781" lon="6.11399">
        <ele>246.4</ele>
        <time>2020-11-29T14:57:43Z</time>
      </trkpt>
      <trkpt lat="47.65789" lon="6.11386">
        <ele>246.4</ele>
        <time>2020-11-29T14:57:45Z</time>
      </trkpt>
      <trkpt lat="47.65793" lon="6.11381">
        <ele>246.4</ele>
        <time>2020-11-29T14:57:47Z</time>
      </trkpt>
      <trkpt lat="47.65797" lon="6.11374">
        <ele>246.3</ele>
        <time>2020-11-29T14:57:48Z</time>
      </trkpt>
      <trkpt lat="47.65802" lon="6.11366">
        <ele>246.3</ele>
        <time>2020-11-29T14:57:51Z</time>
      </trkpt>
      <trkpt lat="47.65806" lon="6.1136">
        <ele>246.2</ele>
        <time>2020-11-29T14:57:52Z</time>
      </trkpt>
      <trkpt lat="47.65809" lon="6.11355">
        <ele>246.2</ele>
        <time>2020-11-29T14:57:54Z</time>
      </trkpt>
      <trkpt lat="47.65814" lon="6.11347">
        <ele>246.1</ele>
        <time>2020-11-29T14:57:55Z</time>
      </trkpt>
      <trkpt lat="47.65818" lon="6.1134">
        <ele>246</ele>
        <time>2020-11-29T14:57:58Z</time>
      </trkpt>
      <trkpt lat="47.65824" lon="6.11332">
        <ele>245.9</ele>
        <time>2020-11-29T14:57:59Z</time>
      </trkpt>
      <trkpt lat="47.65828" lon="6.11325">
        <ele>246</ele>
        <time>2020-11-29T14:58:01Z</time>
      </trkpt>
      <trkpt lat="47.65833" lon="6.11318">
        <ele>246.2</ele>
        <time>2020-11-29T14:58:04Z</time>
      </trkpt>
      <trkpt lat="47.65837" lon="6.11311">
        <ele>246.4</ele>
        <time>2020-11-29T14:58:06Z</time>
      </trkpt>
      <trkpt lat="47.65842" lon="6.11305">
        <ele>246.6</ele>
        <time>2020-11-29T14:58:08Z</time>
      </trkpt>
      <trkpt lat="47.65849" lon="6.11294">
        <ele>246.9</ele>
        <time>2020-11-29T14:58:11Z</time>
      </trkpt>
      <trkpt lat="47.65853" lon="6.11288">
        <ele>247.1</ele>
        <time>2020-11-29T14:58:13Z</time>
      </trkpt>
      <trkpt lat="47.65857" lon="6.11281">
        <ele>247.4</ele>
        <time>2020-11-29T14:58:15Z</time>
      </trkpt>
      <trkpt lat="47.65861" lon="6.11274">
        <ele>247.6</ele>
        <time>2020-11-29T14:58:17Z</time>
      </trkpt>
      <trkpt lat="47.65866" lon="6.11268">
        <ele>247.9</ele>
        <time>2020-11-29T14:58:19Z</time>
      </trkpt>
      <trkpt lat="47.65871" lon="6.11261">
        <ele>248.2</ele>
        <time>2020-11-29T14:58:21Z</time>
      </trkpt>
      <trkpt lat="47.65875" lon="6.11253">
        <ele>248.4</ele>
        <time>2020-11-29T14:58:22Z</time>
      </trkpt>
      <trkpt lat="47.65879" lon="6.11247">
        <ele>248.7</ele>
        <time>2020-11-29T14:58:24Z</time>
      </trkpt>
      <trkpt lat="47.65884" lon="6.1124">
        <ele>248.8</ele>
        <time>2020-11-29T14:58:26Z</time>
      </trkpt>
      <trkpt lat="47.65887" lon="6.11235">
        <ele>249</ele>
        <time>2020-11-29T14:58:29Z</time>
      </trkpt>
      <trkpt lat="47.65891" lon="6.1123">
        <ele>249.1</ele>
        <time>2020-11-29T14:58:30Z</time>
      </trkpt>
      <trkpt lat="47.65896" lon="6.11222">
        <ele>249.4</ele>
        <time>2020-11-29T14:58:32Z</time>
      </trkpt>
      <trkpt lat="47.659" lon="6.11216">
        <ele>249.6</ele>
        <time>2020-11-29T14:58:34Z</time>
      </trkpt>
      <trkpt lat="47.65904" lon="6.11211">
        <ele>249.9</ele>
        <time>2020-11-29T14:58:36Z</time>
      </trkpt>
      <trkpt lat="47.6591" lon="6.11202">
        <ele>250.3</ele>
        <time>2020-11-29T14:58:39Z</time>
      </trkpt>
      <trkpt lat="47.65914" lon="6.11197">
        <ele>250.5</ele>
        <time>2020-11-29T14:58:41Z</time>
      </trkpt>
      <trkpt lat="47.65919" lon="6.11191">
        <ele>250.8</ele>
        <time>2020-11-29T14:58:43Z</time>
      </trkpt>
      <trkpt lat="47.65923" lon="6.11185">
        <ele>251.2</ele>
        <time>2020-11-29T14:58:45Z</time>
      </trkpt>
      <trkpt lat="47.65926" lon="6.1118">
        <ele>251.5</ele>
        <time>2020-11-29T14:58:47Z</time>
      </trkpt>
      <trkpt lat="47.6593" lon="6.11175">
        <ele>251.8</ele>
        <time>2020-11-29T14:58:49Z</time>
      </trkpt>
      <trkpt lat="47.65935" lon="6.11167">
        <ele>252.3</ele>
        <time>2020-11-29T14:58:52Z</time>
      </trkpt>
      <trkpt lat="47.65938" lon="6.11163">
        <ele>252.6</ele>
        <time>2020-11-29T14:58:54Z</time>
      </trkpt>
      <trkpt lat="47.65943" lon="6.11156">
        <ele>252.9</ele>
        <time>2020-11-29T14:58:58Z</time>
      </trkpt>
      <trkpt lat="47.65947" lon="6.11149">
        <ele>253.3</ele>
        <time>2020-11-29T14:59:00Z</time>
      </trkpt>
      <trkpt lat="47.65951" lon="6.11144">
        <ele>253.6</ele>
        <time>2020-11-29T14:59:03Z</time>
      </trkpt>
      <trkpt lat="47.65955" lon="6.11138">
        <ele>253.9</ele>
        <time>2020-11-29T14:59:07Z</time>
      </trkpt>
      <trkpt lat="47.65958" lon="6.11132">
        <ele>254.2</ele>
        <time>2020-11-29T14:59:09Z</time>
      </trkpt>
      <trkpt lat="47.65963" lon="6.11127">
        <ele>254.6</ele>
        <time>2020-11-29T14:59:13Z</time>
      </trkpt>
      <trkpt lat="47.65967" lon="6.11122">
        <ele>254.9</ele>
        <time>2020-11-29T14:59:16Z</time>
      </trkpt>
      <trkpt lat="47.65971" lon="6.11116">
        <ele>255.3</ele>
        <time>2020-11-29T14:59:20Z</time>
      </trkpt>
      <trkpt lat="47.65974" lon="6.1111">
        <ele>255.6</ele>
        <time>2020-11-29T14:59:23Z</time>
      </trkpt>
      <trkpt lat="47.65979" lon="6.11105">
        <ele>256</ele>
        <time>2020-11-29T14:59:26Z</time>
      </trkpt>
      <trkpt lat="47.65983" lon="6.111">
        <ele>256.4</ele>
        <time>2020-11-29T14:59:29Z</time>
      </trkpt>
      <trkpt lat="47.65986" lon="6.11095">
        <ele>256.7</ele>
        <time>2020-11-29T14:59:33Z</time>
      </trkpt>
      <trkpt lat="47.6599" lon="6.1109">
        <ele>257.1</ele>
        <time>2020-11-29T14:59:36Z</time>
      </trkpt>
      <trkpt lat="47.65994" lon="6.11085">
        <ele>257.5</ele>
        <time>2020-11-29T14:59:38Z</time>
      </trkpt>
      <trkpt lat="47.65998" lon="6.11079">
        <ele>257.7</ele>
        <time>2020-11-29T14:59:40Z</time>
      </trkpt>
      <trkpt lat="47.66003" lon="6.11072">
        <ele>257.8</ele>
        <time>2020-11-29T14:59:43Z</time>
      </trkpt>
      <trkpt lat="47.66007" lon="6.11067">
        <ele>257.7</ele>
        <time>2020-11-29T14:59:47Z</time>
      </trkpt>
      <trkpt lat="47.66009" lon="6.1106">
        <ele>257.7</ele>
        <time>2020-11-29T14:59:50Z</time>
      </trkpt>
      <trkpt lat="47.66013" lon="6.11056">
        <ele>257.6</ele>
        <time>2020-11-29T14:59:51Z</time>
      </trkpt>
      <trkpt lat="47.66016" lon="6.1105">
        <ele>257.6</ele>
        <time>2020-11-29T14:59:54Z</time>
      </trkpt>
      <trkpt lat="47.6602" lon="6.11044">
        <ele>257.6</ele>
        <time>2020-11-29T14:59:57Z</time>
      </trkpt>
      <trkpt lat="47.66025" lon="6.11037">
        <ele>257.7</ele>
        <time>2020-11-29T15:00:00Z</time>
      </trkpt>
      <trkpt lat="47.66029" lon="6.1103">
        <ele>257.7</ele>
        <time>2020-11-29T15:00:03Z</time>
      </trkpt>
      <trkpt lat="47.66033" lon="6.11024">
        <ele>257.8</ele>
        <time>2020-11-29T15:00:07Z</time>
      </trkpt>
      <trkpt lat="47.66037" lon="6.11018">
        <ele>257.9</ele>
        <time>2020-11-29T15:00:09Z</time>
      </trkpt>
      <trkpt lat="47.66042" lon="6.11009">
        <ele>258.1</ele>
        <time>2020-11-29T15:00:11Z</time>
      </trkpt>
      <trkpt lat="47.66045" lon="6.11004">
        <ele>258.2</ele>
        <time>2020-11-29T15:00:13Z</time>
      </trkpt>
      <trkpt lat="47.66049" lon="6.11">
        <ele>258.3</ele>
        <time>2020-11-29T15:00:15Z</time>
      </trkpt>
      <trkpt lat="47.66052" lon="6.10995">
        <ele>258.5</ele>
        <time>2020-11-29T15:00:17Z</time>
      </trkpt>
      <trkpt lat="47.66056" lon="6.1099">
        <ele>258.6</ele>
        <time>2020-11-29T15:00:19Z</time>
      </trkpt>
      <trkpt lat="47.6606" lon="6.10985">
        <ele>258.8</ele>
        <time>2020-11-29T15:00:21Z</time>
      </trkpt>
      <trkpt lat="47.66064" lon="6.1098">
        <ele>259</ele>
        <time>2020-11-29T15:00:23Z</time>
      </trkpt>
      <trkpt lat="47.66068" lon="6.10976">
        <ele>259.3</ele>
        <time>2020-11-29T15:00:25Z</time>
      </trkpt>
      <trkpt lat="47.66073" lon="6.1097">
        <ele>259.6</ele>
        <time>2020-11-29T15:00:28Z</time>
      </trkpt>
      <trkpt lat="47.66077" lon="6.10965">
        <ele>260</ele>
        <time>2020-11-29T15:00:30Z</time>
      </trkpt>
      <trkpt lat="47.66082" lon="6.1096">
        <ele>260.3</ele>
        <time>2020-11-29T15:00:32Z</time>
      </trkpt>
      <trkpt lat="47.66086" lon="6.10955">
        <ele>260.5</ele>
        <time>2020-11-29T15:00:34Z</time>
      </trkpt>
      <trkpt lat="47.66092" lon="6.10949">
        <ele>260.6</ele>
        <time>2020-11-29T15:00:36Z</time>
      </trkpt>
      <trkpt lat="47.66096" lon="6.10943">
        <ele>260.7</ele>
        <time>2020-11-29T15:00:38Z</time>
      </trkpt>
      <trkpt lat="47.661" lon="6.10936">
        <ele>260.9</ele>
        <time>2020-11-29T15:00:40Z</time>
      </trkpt>
      <trkpt lat="47.66105" lon="6.10928">
        <ele>261</ele>
        <time>2020-11-29T15:00:42Z</time>
      </trkpt>
      <trkpt lat="47.6611" lon="6.10923">
        <ele>261.2</ele>
        <time>2020-11-29T15:00:44Z</time>
      </trkpt>
      <trkpt lat="47.66114" lon="6.10919">
        <ele>261.3</ele>
        <time>2020-11-29T15:00:46Z</time>
      </trkpt>
      <trkpt lat="47.66118" lon="6.10913">
        <ele>261.5</ele>
        <time>2020-11-29T15:01:08Z</time>
      </trkpt>
      <trkpt lat="47.66122" lon="6.10909">
        <ele>261.6</ele>
        <time>2020-11-29T15:01:11Z</time>
      </trkpt>
      <trkpt lat="47.66125" lon="6.10903">
        <ele>261.7</ele>
        <time>2020-11-29T15:01:13Z</time>
      </trkpt>
      <trkpt lat="47.66129" lon="6.10897">
        <ele>261.9</ele>
        <time>2020-11-29T15:01:16Z</time>
      </trkpt>
      <trkpt lat="47.66134" lon="6.10891">
        <ele>262.1</ele>
        <time>2020-11-29T15:01:19Z</time>
      </trkpt>
      <trkpt lat="47.66138" lon="6.10885">
        <ele>262.3</ele>
        <time>2020-11-29T15:01:21Z</time>
      </trkpt>
      <trkpt lat="47.66143" lon="6.1088">
        <ele>262.5</ele>
        <time>2020-11-29T15:01:24Z</time>
      </trkpt>
      <trkpt lat="47.66147" lon="6.10875">
        <ele>262.6</ele>
        <time>2020-11-29T15:01:27Z</time>
      </trkpt>
      <trkpt lat="47.66151" lon="6.1087">
        <ele>262.8</ele>
        <time>2020-11-29T15:01:30Z</time>
      </trkpt>
      <trkpt lat="47.66155" lon="6.10865">
        <ele>263</ele>
        <time>2020-11-29T15:01:34Z</time>
      </trkpt>
      <trkpt lat="47.66159" lon="6.10861">
        <ele>263.2</ele>
        <time>2020-11-29T15:01:35Z</time>
      </trkpt>
      <trkpt lat="47.66164" lon="6.10855">
        <ele>263.4</ele>
        <time>2020-11-29T15:01:38Z</time>
      </trkpt>
      <trkpt lat="47.66168" lon="6.1085">
        <ele>263.6</ele>
        <time>2020-11-29T15:01:40Z</time>
      </trkpt>
      <trkpt lat="47.66173" lon="6.10843">
        <ele>263.6</ele>
        <time>2020-11-29T15:01:42Z</time>
      </trkpt>
      <trkpt lat="47.66178" lon="6.10837">
        <ele>263.7</ele>
        <time>2020-11-29T15:01:44Z</time>
      </trkpt>
      <trkpt lat="47.66181" lon="6.10828">
        <ele>263.4</ele>
        <time>2020-11-29T15:01:47Z</time>
      </trkpt>
      <trkpt lat="47.66182" lon="6.10816">
        <ele>263</ele>
        <time>2020-11-29T15:01:48Z</time>
      </trkpt>
      <trkpt lat="47.66183" lon="6.10808">
        <ele>262.6</ele>
        <time>2020-11-29T15:01:50Z</time>
      </trkpt>
      <trkpt lat="47.66187" lon="6.10801">
        <ele>262.4</ele>
        <time>2020-11-29T15:01:52Z</time>
      </trkpt>
      <trkpt lat="47.66193" lon="6.10796">
        <ele>262.1</ele>
        <time>2020-11-29T15:01:54Z</time>
      </trkpt>
      <trkpt lat="47.66199" lon="6.1079">
        <ele>261.9</ele>
        <time>2020-11-29T15:01:56Z</time>
      </trkpt>
      <trkpt lat="47.66204" lon="6.10785">
        <ele>261.8</ele>
        <time>2020-11-29T15:01:58Z</time>
      </trkpt>
      <trkpt lat="47.6621" lon="6.1078">
        <ele>261.7</ele>
        <time>2020-11-29T15:02:00Z</time>
      </trkpt>
      <trkpt lat="47.66216" lon="6.10776">
        <ele>261.7</ele>
        <time>2020-11-29T15:02:03Z</time>
      </trkpt>
      <trkpt lat="47.6622" lon="6.10771">
        <ele>261.6</ele>
        <time>2020-11-29T15:02:04Z</time>
      </trkpt>
      <trkpt lat="47.66224" lon="6.10764">
        <ele>261.6</ele>
        <time>2020-11-29T15:02:07Z</time>
      </trkpt>
      <trkpt lat="47.66228" lon="6.10756">
        <ele>261.5</ele>
        <time>2020-11-29T15:02:09Z</time>
      </trkpt>
      <trkpt lat="47.66232" lon="6.1075">
        <ele>261.6</ele>
        <time>2020-11-29T15:02:11Z</time>
      </trkpt>
      <trkpt lat="47.66237" lon="6.10742">
        <ele>261.4</ele>
        <time>2020-11-29T15:02:12Z</time>
      </trkpt>
      <trkpt lat="47.6624" lon="6.10736">
        <ele>261.2</ele>
        <time>2020-11-29T15:02:15Z</time>
      </trkpt>
      <trkpt lat="47.66242" lon="6.10728">
        <ele>261</ele>
        <time>2020-11-29T15:02:16Z</time>
      </trkpt>
      <trkpt lat="47.66242" lon="6.1072">
        <ele>260.7</ele>
        <time>2020-11-29T15:02:18Z</time>
      </trkpt>
      <trkpt lat="47.66242" lon="6.10713">
        <ele>260.4</ele>
        <time>2020-11-29T15:02:20Z</time>
      </trkpt>
      <trkpt lat="47.6624" lon="6.10705">
        <ele>260.1</ele>
        <time>2020-11-29T15:02:21Z</time>
      </trkpt>
      <trkpt lat="47.66236" lon="6.10681">
        <ele>259</ele>
        <time>2020-11-29T15:02:22Z</time>
      </trkpt>
      <trkpt lat="47.66234" lon="6.10672">
        <ele>258.7</ele>
        <time>2020-11-29T15:02:23Z</time>
      </trkpt>
      <trkpt lat="47.66233" lon="6.10664">
        <ele>258.3</ele>
        <time>2020-11-29T15:02:24Z</time>
      </trkpt>
      <trkpt lat="47.66231" lon="6.10657">
        <ele>257.9</ele>
        <time>2020-11-29T15:02:25Z</time>
      </trkpt>
      <trkpt lat="47.6623" lon="6.10649">
        <ele>257.5</ele>
        <time>2020-11-29T15:02:26Z</time>
      </trkpt>
      <trkpt lat="47.66229" lon="6.10641">
        <ele>257.1</ele>
        <time>2020-11-29T15:02:27Z</time>
      </trkpt>
      <trkpt lat="47.66227" lon="6.10634">
        <ele>256.7</ele>
        <time>2020-11-29T15:02:28Z</time>
      </trkpt>
      <trkpt lat="47.66225" lon="6.10627">
        <ele>256.3</ele>
        <time>2020-11-29T15:02:29Z</time>
      </trkpt>
      <trkpt lat="47.66223" lon="6.1062">
        <ele>256</ele>
        <time>2020-11-29T15:02:30Z</time>
      </trkpt>
      <trkpt lat="47.6622" lon="6.10614">
        <ele>255.6</ele>
        <time>2020-11-29T15:02:31Z</time>
      </trkpt>
      <trkpt lat="47.66216" lon="6.10607">
        <ele>255.2</ele>
        <time>2020-11-29T15:02:32Z</time>
      </trkpt>
      <trkpt lat="47.66212" lon="6.106">
        <ele>254.8</ele>
        <time>2020-11-29T15:02:33Z</time>
      </trkpt>
      <trkpt lat="47.66208" lon="6.10592">
        <ele>254.3</ele>
        <time>2020-11-29T15:02:34Z</time>
      </trkpt>
      <trkpt lat="47.66204" lon="6.10584">
        <ele>253.9</ele>
        <time>2020-11-29T15:02:35Z</time>
      </trkpt>
      <trkpt lat="47.662" lon="6.10575">
        <ele>253.8</ele>
        <time>2020-11-29T15:02:36Z</time>
      </trkpt>
      <trkpt lat="47.66195" lon="6.10567">
        <ele>253.6</ele>
        <time>2020-11-29T15:02:37Z</time>
      </trkpt>
      <trkpt lat="47.66191" lon="6.10558">
        <ele>253.5</ele>
        <time>2020-11-29T15:02:38Z</time>
      </trkpt>
      <trkpt lat="47.66187" lon="6.1055">
        <ele>253.4</ele>
        <time>2020-11-29T15:02:39Z</time>
      </trkpt>
      <trkpt lat="47.66183" lon="6.10543">
        <ele>253.3</ele>
        <time>2020-11-29T15:02:40Z</time>
      </trkpt>
      <trkpt lat="47.6618" lon="6.10535">
        <ele>253.2</ele>
        <time>2020-11-29T15:02:41Z</time>
      </trkpt>
      <trkpt lat="47.66176" lon="6.10529">
        <ele>253.1</ele>
        <time>2020-11-29T15:02:42Z</time>
      </trkpt>
      <trkpt lat="47.66173" lon="6.10523">
        <ele>253.1</ele>
        <time>2020-11-29T15:02:43Z</time>
      </trkpt>
      <trkpt lat="47.6617" lon="6.10518">
        <ele>253</ele>
        <time>2020-11-29T15:02:44Z</time>
      </trkpt>
      <trkpt lat="47.66165" lon="6.10511">
        <ele>253</ele>
        <time>2020-11-29T15:02:46Z</time>
      </trkpt>
      <trkpt lat="47.66161" lon="6.10503">
        <ele>253.1</ele>
        <time>2020-11-29T15:02:48Z</time>
      </trkpt>
      <trkpt lat="47.66156" lon="6.10496">
        <ele>253.2</ele>
        <time>2020-11-29T15:02:51Z</time>
      </trkpt>
      <trkpt lat="47.66155" lon="6.10484">
        <ele>253.1</ele>
        <time>2020-11-29T15:02:53Z</time>
      </trkpt>
      <trkpt lat="47.6615" lon="6.10478">
        <ele>253.2</ele>
        <time>2020-11-29T15:02:56Z</time>
      </trkpt>
      <trkpt lat="47.66145" lon="6.10474">
        <ele>253.3</ele>
        <time>2020-11-29T15:02:58Z</time>
      </trkpt>
      <trkpt lat="47.66142" lon="6.10469">
        <ele>253.3</ele>
        <time>2020-11-29T15:03:00Z</time>
      </trkpt>
      <trkpt lat="47.66139" lon="6.10462">
        <ele>253.4</ele>
        <time>2020-11-29T15:03:02Z</time>
      </trkpt>
      <trkpt lat="47.66135" lon="6.10457">
        <ele>253.4</ele>
        <time>2020-11-29T15:03:04Z</time>
      </trkpt>
      <trkpt lat="47.66131" lon="6.10452">
        <ele>253.5</ele>
        <time>2020-11-29T15:03:06Z</time>
      </trkpt>
      <trkpt lat="47.66127" lon="6.10448">
        <ele>253.6</ele>
        <time>2020-11-29T15:03:07Z</time>
      </trkpt>
      <trkpt lat="47.66124" lon="6.10442">
        <ele>253.7</ele>
        <time>2020-11-29T15:03:10Z</time>
      </trkpt>
      <trkpt lat="47.66121" lon="6.10434">
        <ele>253.7</ele>
        <time>2020-11-29T15:03:11Z</time>
      </trkpt>
      <trkpt lat="47.66117" lon="6.10428">
        <ele>253.8</ele>
        <time>2020-11-29T15:03:14Z</time>
      </trkpt>
      <trkpt lat="47.66113" lon="6.10422">
        <ele>254</ele>
        <time>2020-11-29T15:03:16Z</time>
      </trkpt>
      <trkpt lat="47.66108" lon="6.10412">
        <ele>254</ele>
        <time>2020-11-29T15:03:17Z</time>
      </trkpt>
      <trkpt lat="47.66105" lon="6.10406">
        <ele>253.9</ele>
        <time>2020-11-29T15:03:20Z</time>
      </trkpt>
      <trkpt lat="47.661" lon="6.10398">
        <ele>253.9</ele>
        <time>2020-11-29T15:03:22Z</time>
      </trkpt>
      <trkpt lat="47.66096" lon="6.10392">
        <ele>253.8</ele>
        <time>2020-11-29T15:03:23Z</time>
      </trkpt>
      <trkpt lat="47.66092" lon="6.10386">
        <ele>253.7</ele>
        <time>2020-11-29T15:03:25Z</time>
      </trkpt>
      <trkpt lat="47.66087" lon="6.10378">
        <ele>253.5</ele>
        <time>2020-11-29T15:03:27Z</time>
      </trkpt>
      <trkpt lat="47.66082" lon="6.10372">
        <ele>253.4</ele>
        <time>2020-11-29T15:03:29Z</time>
      </trkpt>
      <trkpt lat="47.66076" lon="6.10372">
        <ele>253.3</ele>
        <time>2020-11-29T15:03:30Z</time>
      </trkpt>
      <trkpt lat="47.6607" lon="6.10376">
        <ele>253.4</ele>
        <time>2020-11-29T15:03:32Z</time>
      </trkpt>
      <trkpt lat="47.6607" lon="6.10384">
        <ele>253.7</ele>
        <time>2020-11-29T15:03:34Z</time>
      </trkpt>
      <trkpt lat="47.66072" lon="6.10391">
        <ele>254</ele>
        <time>2020-11-29T15:03:35Z</time>
      </trkpt>
      <trkpt lat="47.66077" lon="6.10396">
        <ele>254.2</ele>
        <time>2020-11-29T15:03:37Z</time>
      </trkpt>
      <trkpt lat="47.66082" lon="6.10402">
        <ele>254.4</ele>
        <time>2020-11-29T15:03:40Z</time>
      </trkpt>
      <trkpt lat="47.66084" lon="6.10408">
        <ele>254.6</ele>
        <time>2020-11-29T15:03:42Z</time>
      </trkpt>
      <trkpt lat="47.6609" lon="6.10414">
        <ele>254.7</ele>
        <time>2020-11-29T15:03:44Z</time>
      </trkpt>
      <trkpt lat="47.66093" lon="6.10418">
        <ele>254.6</ele>
        <time>2020-11-29T15:03:48Z</time>
      </trkpt>
      <trkpt lat="47.66097" lon="6.10426">
        <ele>254.5</ele>
        <time>2020-11-29T15:03:51Z</time>
      </trkpt>
      <trkpt lat="47.66099" lon="6.10433">
        <ele>254.5</ele>
        <time>2020-11-29T15:03:52Z</time>
      </trkpt>
      <trkpt lat="47.66102" lon="6.10439">
        <ele>254.4</ele>
        <time>2020-11-29T15:03:54Z</time>
      </trkpt>
      <trkpt lat="47.66104" lon="6.10446">
        <ele>254.3</ele>
        <time>2020-11-29T15:03:56Z</time>
      </trkpt>
      <trkpt lat="47.66106" lon="6.10453">
        <ele>254.3</ele>
        <time>2020-11-29T15:03:58Z</time>
      </trkpt>
      <trkpt lat="47.66107" lon="6.10463">
        <ele>254.3</ele>
        <time>2020-11-29T15:04:02Z</time>
      </trkpt>
      <trkpt lat="47.66107" lon="6.10469">
        <ele>254.3</ele>
        <time>2020-11-29T15:04:03Z</time>
      </trkpt>
      <trkpt lat="47.66106" lon="6.1048">
        <ele>254.4</ele>
        <time>2020-11-29T15:04:05Z</time>
      </trkpt>
      <trkpt lat="47.66104" lon="6.10488">
        <ele>254.5</ele>
        <time>2020-11-29T15:04:07Z</time>
      </trkpt>
      <trkpt lat="47.661" lon="6.10497">
        <ele>254.6</ele>
        <time>2020-11-29T15:04:08Z</time>
      </trkpt>
      <trkpt lat="47.66094" lon="6.10509">
        <ele>254.3</ele>
        <time>2020-11-29T15:04:10Z</time>
      </trkpt>
      <trkpt lat="47.66088" lon="6.10521">
        <ele>253.7</ele>
        <time>2020-11-29T15:04:13Z</time>
      </trkpt>
      <trkpt lat="47.66085" lon="6.10528">
        <ele>253.3</ele>
        <time>2020-11-29T15:04:14Z</time>
      </trkpt>
      <trkpt lat="47.66077" lon="6.10541">
        <ele>253</ele>
        <time>2020-11-29T15:04:16Z</time>
      </trkpt>
      <trkpt lat="47.66073" lon="6.10548">
        <ele>252.9</ele>
        <time>2020-11-29T15:04:17Z</time>
      </trkpt>
      <trkpt lat="47.66066" lon="6.10559">
        <ele>253</ele>
        <time>2020-11-29T15:04:19Z</time>
      </trkpt>
      <trkpt lat="47.66063" lon="6.10565">
        <ele>253.1</ele>
        <time>2020-11-29T15:04:20Z</time>
      </trkpt>
      <trkpt lat="47.66057" lon="6.10573">
        <ele>253.3</ele>
        <time>2020-11-29T15:04:21Z</time>
      </trkpt>
      <trkpt lat="47.66051" lon="6.10582">
        <ele>253.5</ele>
        <time>2020-11-29T15:04:23Z</time>
      </trkpt>
      <trkpt lat="47.66047" lon="6.10587">
        <ele>253.8</ele>
        <time>2020-11-29T15:04:25Z</time>
      </trkpt>
      <trkpt lat="47.66043" lon="6.10592">
        <ele>254</ele>
        <time>2020-11-29T15:04:26Z</time>
      </trkpt>
      <trkpt lat="47.66038" lon="6.10599">
        <ele>254.2</ele>
        <time>2020-11-29T15:04:28Z</time>
      </trkpt>
      <trkpt lat="47.66033" lon="6.10606">
        <ele>254.3</ele>
        <time>2020-11-29T15:04:29Z</time>
      </trkpt>
      <trkpt lat="47.6603" lon="6.1061">
        <ele>254.3</ele>
        <time>2020-11-29T15:04:31Z</time>
      </trkpt>
      <trkpt lat="47.66025" lon="6.10616">
        <ele>254.2</ele>
        <time>2020-11-29T15:04:32Z</time>
      </trkpt>
      <trkpt lat="47.66021" lon="6.10622">
        <ele>254</ele>
        <time>2020-11-29T15:04:34Z</time>
      </trkpt>
      <trkpt lat="47.66016" lon="6.10628">
        <ele>253.7</ele>
        <time>2020-11-29T15:04:35Z</time>
      </trkpt>
      <trkpt lat="47.6601" lon="6.10635">
        <ele>253.2</ele>
        <time>2020-11-29T15:04:38Z</time>
      </trkpt>
      <trkpt lat="47.66007" lon="6.10641">
        <ele>252.7</ele>
        <time>2020-11-29T15:04:39Z</time>
      </trkpt>
      <trkpt lat="47.66003" lon="6.10646">
        <ele>252.2</ele>
        <time>2020-11-29T15:04:41Z</time>
      </trkpt>
      <trkpt lat="47.66" lon="6.10651">
        <ele>251.7</ele>
        <time>2020-11-29T15:04:42Z</time>
      </trkpt>
      <trkpt lat="47.65995" lon="6.1066">
        <ele>250.6</ele>
        <time>2020-11-29T15:04:44Z</time>
      </trkpt>
      <trkpt lat="47.6599" lon="6.10666">
        <ele>249.7</ele>
        <time>2020-11-29T15:04:46Z</time>
      </trkpt>
      <trkpt lat="47.65985" lon="6.10674">
        <ele>249.5</ele>
        <time>2020-11-29T15:04:48Z</time>
      </trkpt>
      <trkpt lat="47.6598" lon="6.1068">
        <ele>249.3</ele>
        <time>2020-11-29T15:04:49Z</time>
      </trkpt>
      <trkpt lat="47.65977" lon="6.10685">
        <ele>249.1</ele>
        <time>2020-11-29T15:04:50Z</time>
      </trkpt>
      <trkpt lat="47.65973" lon="6.10691">
        <ele>248.9</ele>
        <time>2020-11-29T15:04:51Z</time>
      </trkpt>
      <trkpt lat="47.65969" lon="6.10696">
        <ele>248.6</ele>
        <time>2020-11-29T15:04:53Z</time>
      </trkpt>
      <trkpt lat="47.65961" lon="6.1071">
        <ele>247.9</ele>
        <time>2020-11-29T15:04:56Z</time>
      </trkpt>
      <trkpt lat="47.65955" lon="6.10722">
        <ele>247.2</ele>
        <time>2020-11-29T15:04:58Z</time>
      </trkpt>
      <trkpt lat="47.65951" lon="6.10727">
        <ele>246.9</ele>
        <time>2020-11-29T15:04:59Z</time>
      </trkpt>
      <trkpt lat="47.65938" lon="6.10746">
        <ele>245.2</ele>
        <time>2020-11-29T15:05:00Z</time>
      </trkpt>
      <trkpt lat="47.65932" lon="6.10754">
        <ele>244.5</ele>
        <time>2020-11-29T15:05:01Z</time>
      </trkpt>
      <trkpt lat="47.65926" lon="6.10762">
        <ele>243.9</ele>
        <time>2020-11-29T15:05:02Z</time>
      </trkpt>
      <trkpt lat="47.6592" lon="6.1077">
        <ele>243.3</ele>
        <time>2020-11-29T15:05:03Z</time>
      </trkpt>
      <trkpt lat="47.65914" lon="6.10777">
        <ele>242.8</ele>
        <time>2020-11-29T15:05:04Z</time>
      </trkpt>
      <trkpt lat="47.65909" lon="6.10785">
        <ele>242.4</ele>
        <time>2020-11-29T15:05:05Z</time>
      </trkpt>
      <trkpt lat="47.65903" lon="6.10792">
        <ele>242</ele>
        <time>2020-11-29T15:05:06Z</time>
      </trkpt>
      <trkpt lat="47.65897" lon="6.10799">
        <ele>241.6</ele>
        <time>2020-11-29T15:05:07Z</time>
      </trkpt>
      <trkpt lat="47.65892" lon="6.10805">
        <ele>241.1</ele>
        <time>2020-11-29T15:05:08Z</time>
      </trkpt>
      <trkpt lat="47.65886" lon="6.10812">
        <ele>240.6</ele>
        <time>2020-11-29T15:05:09Z</time>
      </trkpt>
      <trkpt lat="47.65881" lon="6.10818">
        <ele>240.2</ele>
        <time>2020-11-29T15:05:10Z</time>
      </trkpt>
      <trkpt lat="47.65877" lon="6.10825">
        <ele>239.7</ele>
        <time>2020-11-29T15:05:11Z</time>
      </trkpt>
      <trkpt lat="47.65872" lon="6.10831">
        <ele>239.3</ele>
        <time>2020-11-29T15:05:12Z</time>
      </trkpt>
      <trkpt lat="47.65868" lon="6.10837">
        <ele>239</ele>
        <time>2020-11-29T15:05:13Z</time>
      </trkpt>
      <trkpt lat="47.65863" lon="6.10843">
        <ele>238.8</ele>
        <time>2020-11-29T15:05:14Z</time>
      </trkpt>
      <trkpt lat="47.65859" lon="6.10849">
        <ele>238.6</ele>
        <time>2020-11-29T15:05:15Z</time>
      </trkpt>
      <trkpt lat="47.65855" lon="6.10855">
        <ele>238.4</ele>
        <time>2020-11-29T15:05:16Z</time>
      </trkpt>
      <trkpt lat="47.65851" lon="6.1086">
        <ele>238.2</ele>
        <time>2020-11-29T15:05:17Z</time>
      </trkpt>
      <trkpt lat="47.65847" lon="6.10864">
        <ele>238</ele>
        <time>2020-11-29T15:05:18Z</time>
      </trkpt>
      <trkpt lat="47.65844" lon="6.10869">
        <ele>237.8</ele>
        <time>2020-11-29T15:05:19Z</time>
      </trkpt>
      <trkpt lat="47.6584" lon="6.10873">
        <ele>237.6</ele>
        <time>2020-11-29T15:05:20Z</time>
      </trkpt>
      <trkpt lat="47.65834" lon="6.10882">
        <ele>237.2</ele>
        <time>2020-11-29T15:05:22Z</time>
      </trkpt>
      <trkpt lat="47.65829" lon="6.10888">
        <ele>237.1</ele>
        <time>2020-11-29T15:05:24Z</time>
      </trkpt>
      <trkpt lat="47.65825" lon="6.10893">
        <ele>237</ele>
        <time>2020-11-29T15:05:25Z</time>
      </trkpt>
      <trkpt lat="47.65822" lon="6.10898">
        <ele>236.9</ele>
        <time>2020-11-29T15:05:26Z</time>
      </trkpt>
      <trkpt lat="47.65818" lon="6.10902">
        <ele>236.8</ele>
        <time>2020-11-29T15:05:27Z</time>
      </trkpt>
      <trkpt lat="47.65814" lon="6.10909">
        <ele>236.7</ele>
        <time>2020-11-29T15:05:29Z</time>
      </trkpt>
      <trkpt lat="47.6581" lon="6.10918">
        <ele>236.7</ele>
        <time>2020-11-29T15:05:31Z</time>
      </trkpt>
      <trkpt lat="47.65806" lon="6.10923">
        <ele>236.6</ele>
        <time>2020-11-29T15:05:33Z</time>
      </trkpt>
      <trkpt lat="47.65801" lon="6.10929">
        <ele>236.5</ele>
        <time>2020-11-29T15:05:34Z</time>
      </trkpt>
      <trkpt lat="47.65796" lon="6.10935">
        <ele>236.4</ele>
        <time>2020-11-29T15:05:35Z</time>
      </trkpt>
      <trkpt lat="47.65789" lon="6.10942">
        <ele>236.3</ele>
        <time>2020-11-29T15:05:38Z</time>
      </trkpt>
      <trkpt lat="47.65785" lon="6.10949">
        <ele>236.2</ele>
        <time>2020-11-29T15:05:40Z</time>
      </trkpt>
      <trkpt lat="47.6578" lon="6.10954">
        <ele>236.2</ele>
        <time>2020-11-29T15:05:41Z</time>
      </trkpt>
      <trkpt lat="47.65776" lon="6.10959">
        <ele>236.1</ele>
        <time>2020-11-29T15:05:42Z</time>
      </trkpt>
      <trkpt lat="47.65773" lon="6.10964">
        <ele>236.1</ele>
        <time>2020-11-29T15:05:45Z</time>
      </trkpt>
      <trkpt lat="47.65769" lon="6.1097">
        <ele>236.1</ele>
        <time>2020-11-29T15:05:47Z</time>
      </trkpt>
      <trkpt lat="47.65765" lon="6.10977">
        <ele>236</ele>
        <time>2020-11-29T15:05:49Z</time>
      </trkpt>
      <trkpt lat="47.65761" lon="6.10983">
        <ele>236</ele>
        <time>2020-11-29T15:05:51Z</time>
      </trkpt>
      <trkpt lat="47.65757" lon="6.10988">
        <ele>236</ele>
        <time>2020-11-29T15:05:53Z</time>
      </trkpt>
      <trkpt lat="47.65754" lon="6.10993">
        <ele>236</ele>
        <time>2020-11-29T15:05:54Z</time>
      </trkpt>
      <trkpt lat="47.65748" lon="6.11">
        <ele>235.9</ele>
        <time>2020-11-29T15:05:57Z</time>
      </trkpt>
      <trkpt lat="47.65744" lon="6.11006">
        <ele>235.9</ele>
        <time>2020-11-29T15:05:58Z</time>
      </trkpt>
      <trkpt lat="47.6574" lon="6.11012">
        <ele>235.8</ele>
        <time>2020-11-29T15:06:00Z</time>
      </trkpt>
      <trkpt lat="47.65734" lon="6.11018">
        <ele>235.7</ele>
        <time>2020-11-29T15:06:03Z</time>
      </trkpt>
      <trkpt lat="47.65729" lon="6.11025">
        <ele>235.6</ele>
        <time>2020-11-29T15:06:05Z</time>
      </trkpt>
      <trkpt lat="47.65724" lon="6.1103">
        <ele>235.5</ele>
        <time>2020-11-29T15:06:07Z</time>
      </trkpt>
      <trkpt lat="47.65719" lon="6.11031">
        <ele>235.3</ele>
        <time>2020-11-29T15:06:09Z</time>
      </trkpt>
      <trkpt lat="47.65715" lon="6.11028">
        <ele>234.9</ele>
        <time>2020-11-29T15:06:12Z</time>
      </trkpt>
      <trkpt lat="47.65711" lon="6.11022">
        <ele>234.4</ele>
        <time>2020-11-29T15:06:14Z</time>
      </trkpt>
      <trkpt lat="47.65705" lon="6.11014">
        <ele>233.8</ele>
        <time>2020-11-29T15:06:18Z</time>
      </trkpt>
      <trkpt lat="47.65702" lon="6.1101">
        <ele>233.5</ele>
        <time>2020-11-29T15:06:19Z</time>
      </trkpt>
      <trkpt lat="47.65696" lon="6.11006">
        <ele>233</ele>
        <time>2020-11-29T15:06:21Z</time>
      </trkpt>
      <trkpt lat="47.65685" lon="6.11001">
        <ele>232.1</ele>
        <time>2020-11-29T15:06:24Z</time>
      </trkpt>
      <trkpt lat="47.65681" lon="6.10998">
        <ele>231.8</ele>
        <time>2020-11-29T15:06:25Z</time>
      </trkpt>
      <trkpt lat="47.65675" lon="6.10996">
        <ele>231.4</ele>
        <time>2020-11-29T15:06:27Z</time>
      </trkpt>
      <trkpt lat="47.65669" lon="6.10994">
        <ele>231</ele>
        <time>2020-11-29T15:06:28Z</time>
      </trkpt>
      <trkpt lat="47.65663" lon="6.10992">
        <ele>230.8</ele>
        <time>2020-11-29T15:06:31Z</time>
      </trkpt>
      <trkpt lat="47.65656" lon="6.1099">
        <ele>230.7</ele>
        <time>2020-11-29T15:06:33Z</time>
      </trkpt>
      <trkpt lat="47.65649" lon="6.1099">
        <ele>230.6</ele>
        <time>2020-11-29T15:06:35Z</time>
      </trkpt>
      <trkpt lat="47.65644" lon="6.10991">
        <ele>230.6</ele>
        <time>2020-11-29T15:06:38Z</time>
      </trkpt>
      <trkpt lat="47.65638" lon="6.10992">
        <ele>230.5</ele>
        <time>2020-11-29T15:06:39Z</time>
      </trkpt>
      <trkpt lat="47.65631" lon="6.10992">
        <ele>230.5</ele>
        <time>2020-11-29T15:06:43Z</time>
      </trkpt>
      <trkpt lat="47.65627" lon="6.10994">
        <ele>230.4</ele>
        <time>2020-11-29T15:06:45Z</time>
      </trkpt>
      <trkpt lat="47.65622" lon="6.10995">
        <ele>230.4</ele>
        <time>2020-11-29T15:06:46Z</time>
      </trkpt>
      <trkpt lat="47.65616" lon="6.10994">
        <ele>230.3</ele>
        <time>2020-11-29T15:06:49Z</time>
      </trkpt>
      <trkpt lat="47.6561" lon="6.10993">
        <ele>230.3</ele>
        <time>2020-11-29T15:06:50Z</time>
      </trkpt>
      <trkpt lat="47.65604" lon="6.10992">
        <ele>230.2</ele>
        <time>2020-11-29T15:06:53Z</time>
      </trkpt>
      <trkpt lat="47.65598" lon="6.10991">
        <ele>230.1</ele>
        <time>2020-11-29T15:06:55Z</time>
      </trkpt>
      <trkpt lat="47.65593" lon="6.10988">
        <ele>230.1</ele>
        <time>2020-11-29T15:06:58Z</time>
      </trkpt>
      <trkpt lat="47.65588" lon="6.10985">
        <ele>230</ele>
        <time>2020-11-29T15:07:00Z</time>
      </trkpt>
      <trkpt lat="47.65582" lon="6.1098">
        <ele>230</ele>
        <time>2020-11-29T15:07:03Z</time>
      </trkpt>
      <trkpt lat="47.65578" lon="6.10977">
        <ele>229.8</ele>
        <time>2020-11-29T15:07:05Z</time>
      </trkpt>
      <trkpt lat="47.65573" lon="6.10975">
        <ele>229.7</ele>
        <time>2020-11-29T15:07:08Z</time>
      </trkpt>
      <trkpt lat="47.65567" lon="6.10972">
        <ele>229.5</ele>
        <time>2020-11-29T15:07:11Z</time>
      </trkpt>
      <trkpt lat="47.65562" lon="6.10972">
        <ele>229.3</ele>
        <time>2020-11-29T15:07:13Z</time>
      </trkpt>
      <trkpt lat="47.65556" lon="6.10972">
        <ele>229.1</ele>
        <time>2020-11-29T15:07:15Z</time>
      </trkpt>
      <trkpt lat="47.65552" lon="6.10972">
        <ele>229</ele>
        <time>2020-11-29T15:07:16Z</time>
      </trkpt>
      <trkpt lat="47.65546" lon="6.10971">
        <ele>228.8</ele>
        <time>2020-11-29T15:07:18Z</time>
      </trkpt>
      <trkpt lat="47.65541" lon="6.10969">
        <ele>228.6</ele>
        <time>2020-11-29T15:07:20Z</time>
      </trkpt>
      <trkpt lat="47.65535" lon="6.10968">
        <ele>228.4</ele>
        <time>2020-11-29T15:07:23Z</time>
      </trkpt>
      <trkpt lat="47.6553" lon="6.10966">
        <ele>228.2</ele>
        <time>2020-11-29T15:07:25Z</time>
      </trkpt>
      <trkpt lat="47.65525" lon="6.10965">
        <ele>228</ele>
        <time>2020-11-29T15:07:27Z</time>
      </trkpt>
      <trkpt lat="47.6552" lon="6.10965">
        <ele>227.8</ele>
        <time>2020-11-29T15:07:28Z</time>
      </trkpt>
      <trkpt lat="47.65515" lon="6.10967">
        <ele>227.7</ele>
        <time>2020-11-29T15:07:30Z</time>
      </trkpt>
      <trkpt lat="47.65509" lon="6.10968">
        <ele>227.5</ele>
        <time>2020-11-29T15:07:33Z</time>
      </trkpt>
      <trkpt lat="47.65504" lon="6.10962">
        <ele>227.2</ele>
        <time>2020-11-29T15:07:36Z</time>
      </trkpt>
      <trkpt lat="47.65499" lon="6.10964">
        <ele>227.1</ele>
        <time>2020-11-29T15:07:38Z</time>
      </trkpt>
      <trkpt lat="47.65495" lon="6.1097">
        <ele>227.1</ele>
        <time>2020-11-29T15:07:40Z</time>
      </trkpt>
      <trkpt lat="47.65492" lon="6.10976">
        <ele>227.1</ele>
        <time>2020-11-29T15:07:42Z</time>
      </trkpt>
      <trkpt lat="47.65488" lon="6.10982">
        <ele>227</ele>
        <time>2020-11-29T15:07:45Z</time>
      </trkpt>
      <trkpt lat="47.65483" lon="6.10987">
        <ele>226.9</ele>
        <time>2020-11-29T15:07:48Z</time>
      </trkpt>
      <trkpt lat="47.6548" lon="6.10998">
        <ele>227</ele>
        <time>2020-11-29T15:07:51Z</time>
      </trkpt>
      <trkpt lat="47.6548" lon="6.11007">
        <ele>227.3</ele>
        <time>2020-11-29T15:07:53Z</time>
      </trkpt>
      <trkpt lat="47.65479" lon="6.11015">
        <ele>227.6</ele>
        <time>2020-11-29T15:07:55Z</time>
      </trkpt>
      <trkpt lat="47.65478" lon="6.11022">
        <ele>227.9</ele>
        <time>2020-11-29T15:07:57Z</time>
      </trkpt>
      <trkpt lat="47.65477" lon="6.1103">
        <ele>228.2</ele>
        <time>2020-11-29T15:07:59Z</time>
      </trkpt>
      <trkpt lat="47.65473" lon="6.11039">
        <ele>228.4</ele>
        <time>2020-11-29T15:08:01Z</time>
      </trkpt>
      <trkpt lat="47.65471" lon="6.11045">
        <ele>228.6</ele>
        <time>2020-11-29T15:08:03Z</time>
      </trkpt>
      <trkpt lat="47.65466" lon="6.11053">
        <ele>228.8</ele>
        <time>2020-11-29T15:08:05Z</time>
      </trkpt>
      <trkpt lat="47.65461" lon="6.11059">
        <ele>228.9</ele>
        <time>2020-11-29T15:08:08Z</time>
      </trkpt>
      <trkpt lat="47.65457" lon="6.11062">
        <ele>228.9</ele>
        <time>2020-11-29T15:08:10Z</time>
      </trkpt>
      <trkpt lat="47.65452" lon="6.11066">
        <ele>229</ele>
        <time>2020-11-29T15:08:11Z</time>
      </trkpt>
      <trkpt lat="47.65448" lon="6.11071">
        <ele>229.1</ele>
        <time>2020-11-29T15:08:14Z</time>
      </trkpt>
      <trkpt lat="47.65443" lon="6.11076">
        <ele>229.2</ele>
        <time>2020-11-29T15:08:16Z</time>
      </trkpt>
      <trkpt lat="47.65439" lon="6.11081">
        <ele>229.4</ele>
        <time>2020-11-29T15:08:19Z</time>
      </trkpt>
      <trkpt lat="47.65435" lon="6.11085">
        <ele>229.6</ele>
        <time>2020-11-29T15:08:20Z</time>
      </trkpt>
      <trkpt lat="47.6543" lon="6.11089">
        <ele>229.7</ele>
        <time>2020-11-29T15:08:22Z</time>
      </trkpt>
      <trkpt lat="47.65424" lon="6.11095">
        <ele>230</ele>
        <time>2020-11-29T15:08:25Z</time>
      </trkpt>
      <trkpt lat="47.65419" lon="6.11101">
        <ele>230.3</ele>
        <time>2020-11-29T15:08:27Z</time>
      </trkpt>
      <trkpt lat="47.65414" lon="6.11107">
        <ele>230.6</ele>
        <time>2020-11-29T15:08:28Z</time>
      </trkpt>
      <trkpt lat="47.65409" lon="6.11112">
        <ele>230.8</ele>
        <time>2020-11-29T15:08:30Z</time>
      </trkpt>
      <trkpt lat="47.65404" lon="6.11118">
        <ele>231</ele>
        <time>2020-11-29T15:08:32Z</time>
      </trkpt>
      <trkpt lat="47.65399" lon="6.11123">
        <ele>231</ele>
        <time>2020-11-29T15:08:35Z</time>
      </trkpt>
      <trkpt lat="47.65395" lon="6.11128">
        <ele>231.1</ele>
        <time>2020-11-29T15:08:37Z</time>
      </trkpt>
      <trkpt lat="47.6539" lon="6.11134">
        <ele>231.2</ele>
        <time>2020-11-29T15:08:38Z</time>
      </trkpt>
      <trkpt lat="47.65386" lon="6.11139">
        <ele>231.3</ele>
        <time>2020-11-29T15:08:40Z</time>
      </trkpt>
      <trkpt lat="47.65381" lon="6.11144">
        <ele>231.3</ele>
        <time>2020-11-29T15:08:42Z</time>
      </trkpt>
      <trkpt lat="47.65377" lon="6.11149">
        <ele>231.3</ele>
        <time>2020-11-29T15:08:44Z</time>
      </trkpt>
      <trkpt lat="47.65373" lon="6.11156">
        <ele>231.3</ele>
        <time>2020-11-29T15:08:48Z</time>
      </trkpt>
      <trkpt lat="47.65369" lon="6.11162">
        <ele>231.4</ele>
        <time>2020-11-29T15:08:51Z</time>
      </trkpt>
      <trkpt lat="47.65365" lon="6.1117">
        <ele>231.4</ele>
        <time>2020-11-29T15:08:52Z</time>
      </trkpt>
      <trkpt lat="47.65361" lon="6.11177">
        <ele>231.3</ele>
        <time>2020-11-29T15:08:56Z</time>
      </trkpt>
      <trkpt lat="47.65358" lon="6.11182">
        <ele>231.2</ele>
        <time>2020-11-29T15:08:59Z</time>
      </trkpt>
      <trkpt lat="47.65354" lon="6.11189">
        <ele>231.2</ele>
        <time>2020-11-29T15:09:01Z</time>
      </trkpt>
      <trkpt lat="47.65351" lon="6.11193">
        <ele>231</ele>
        <time>2020-11-29T15:09:03Z</time>
      </trkpt>
      <trkpt lat="47.65347" lon="6.11201">
        <ele>230.9</ele>
        <time>2020-11-29T15:09:05Z</time>
      </trkpt>
      <trkpt lat="47.65343" lon="6.11208">
        <ele>230.8</ele>
        <time>2020-11-29T15:09:08Z</time>
      </trkpt>
      <trkpt lat="47.65341" lon="6.11214">
        <ele>230.8</ele>
        <time>2020-11-29T15:09:09Z</time>
      </trkpt>
      <trkpt lat="47.65338" lon="6.1122">
        <ele>230.7</ele>
        <time>2020-11-29T15:09:11Z</time>
      </trkpt>
      <trkpt lat="47.65334" lon="6.11228">
        <ele>230.5</ele>
        <time>2020-11-29T15:09:13Z</time>
      </trkpt>
      <trkpt lat="47.65325" lon="6.11243">
        <ele>230.6</ele>
        <time>2020-11-29T15:09:16Z</time>
      </trkpt>
      <trkpt lat="47.65322" lon="6.11249">
        <ele>230.6</ele>
        <time>2020-11-29T15:09:17Z</time>
      </trkpt>
      <trkpt lat="47.65317" lon="6.1126">
        <ele>230.5</ele>
        <time>2020-11-29T15:09:19Z</time>
      </trkpt>
      <trkpt lat="47.65313" lon="6.1127">
        <ele>230.3</ele>
        <time>2020-11-29T15:09:20Z</time>
      </trkpt>
      <trkpt lat="47.6531" lon="6.11277">
        <ele>230.2</ele>
        <time>2020-11-29T15:09:21Z</time>
      </trkpt>
      <trkpt lat="47.65307" lon="6.11288">
        <ele>230.1</ele>
        <time>2020-11-29T15:09:21Z</time>
      </trkpt>
      <trkpt lat="47.65304" lon="6.11295">
        <ele>229.9</ele>
        <time>2020-11-29T15:09:22Z</time>
      </trkpt>
      <trkpt lat="47.653" lon="6.11309">
        <ele>229.7</ele>
        <time>2020-11-29T15:09:26Z</time>
      </trkpt>
      <trkpt lat="47.65293" lon="6.11333">
        <ele>229.1</ele>
        <time>2020-11-29T15:09:26Z</time>
      </trkpt>
      <trkpt lat="47.6529" lon="6.11342">
        <ele>228.8</ele>
        <time>2020-11-29T15:09:27Z</time>
      </trkpt>
      <trkpt lat="47.65288" lon="6.1135">
        <ele>228.5</ele>
        <time>2020-11-29T15:09:28Z</time>
      </trkpt>
      <trkpt lat="47.65285" lon="6.11358">
        <ele>228.2</ele>
        <time>2020-11-29T15:09:29Z</time>
      </trkpt>
      <trkpt lat="47.65283" lon="6.11366">
        <ele>228</ele>
        <time>2020-11-29T15:09:30Z</time>
      </trkpt>
      <trkpt lat="47.6528" lon="6.11374">
        <ele>227.7</ele>
        <time>2020-11-29T15:09:31Z</time>
      </trkpt>
      <trkpt lat="47.65278" lon="6.11381">
        <ele>227.4</ele>
        <time>2020-11-29T15:09:32Z</time>
      </trkpt>
      <trkpt lat="47.65275" lon="6.11388">
        <ele>227.2</ele>
        <time>2020-11-29T15:09:33Z</time>
      </trkpt>
      <trkpt lat="47.65273" lon="6.11395">
        <ele>226.9</ele>
        <time>2020-11-29T15:09:34Z</time>
      </trkpt>
      <trkpt lat="47.6527" lon="6.11401">
        <ele>226.6</ele>
        <time>2020-11-29T15:09:35Z</time>
      </trkpt>
      <trkpt lat="47.65267" lon="6.11408">
        <ele>226.3</ele>
        <time>2020-11-29T15:09:36Z</time>
      </trkpt>
      <trkpt lat="47.65264" lon="6.11415">
        <ele>226.1</ele>
        <time>2020-11-29T15:09:37Z</time>
      </trkpt>
      <trkpt lat="47.65262" lon="6.11421">
        <ele>225.9</ele>
        <time>2020-11-29T15:09:38Z</time>
      </trkpt>
      <trkpt lat="47.65259" lon="6.11427">
        <ele>225.7</ele>
        <time>2020-11-29T15:09:39Z</time>
      </trkpt>
      <trkpt lat="47.65256" lon="6.11433">
        <ele>225.6</ele>
        <time>2020-11-29T15:09:40Z</time>
      </trkpt>
      <trkpt lat="47.65253" lon="6.11438">
        <ele>225.4</ele>
        <time>2020-11-29T15:09:41Z</time>
      </trkpt>
      <trkpt lat="47.6525" lon="6.11444">
        <ele>225.3</ele>
        <time>2020-11-29T15:09:42Z</time>
      </trkpt>
      <trkpt lat="47.65247" lon="6.1145">
        <ele>225.3</ele>
        <time>2020-11-29T15:09:43Z</time>
      </trkpt>
      <trkpt lat="47.65243" lon="6.11455">
        <ele>225.3</ele>
        <time>2020-11-29T15:09:44Z</time>
      </trkpt>
      <trkpt lat="47.6524" lon="6.1146">
        <ele>225.2</ele>
        <time>2020-11-29T15:09:45Z</time>
      </trkpt>
      <trkpt lat="47.65235" lon="6.11463">
        <ele>225.1</ele>
        <time>2020-11-29T15:09:46Z</time>
      </trkpt>
      <trkpt lat="47.65231" lon="6.11467">
        <ele>225</ele>
        <time>2020-11-29T15:09:47Z</time>
      </trkpt>
      <trkpt lat="47.65227" lon="6.1147">
        <ele>224.8</ele>
        <time>2020-11-29T15:09:48Z</time>
      </trkpt>
      <trkpt lat="47.65222" lon="6.11474">
        <ele>224.7</ele>
        <time>2020-11-29T15:09:49Z</time>
      </trkpt>
      <trkpt lat="47.65218" lon="6.11477">
        <ele>224.5</ele>
        <time>2020-11-29T15:09:50Z</time>
      </trkpt>
      <trkpt lat="47.65213" lon="6.1148">
        <ele>224.3</ele>
        <time>2020-11-29T15:09:51Z</time>
      </trkpt>
      <trkpt lat="47.65209" lon="6.11482">
        <ele>224.1</ele>
        <time>2020-11-29T15:09:52Z</time>
      </trkpt>
      <trkpt lat="47.65204" lon="6.11485">
        <ele>223.9</ele>
        <time>2020-11-29T15:09:53Z</time>
      </trkpt>
      <trkpt lat="47.65199" lon="6.11487">
        <ele>223.7</ele>
        <time>2020-11-29T15:09:54Z</time>
      </trkpt>
      <trkpt lat="47.65195" lon="6.1149">
        <ele>223.5</ele>
        <time>2020-11-29T15:09:55Z</time>
      </trkpt>
      <trkpt lat="47.6519" lon="6.11492">
        <ele>223.3</ele>
        <time>2020-11-29T15:09:56Z</time>
      </trkpt>
      <trkpt lat="47.65186" lon="6.11494">
        <ele>223</ele>
        <time>2020-11-29T15:09:57Z</time>
      </trkpt>
      <trkpt lat="47.65182" lon="6.11496">
        <ele>222.8</ele>
        <time>2020-11-29T15:09:58Z</time>
      </trkpt>
      <trkpt lat="47.65173" lon="6.115">
        <ele>222.3</ele>
        <time>2020-11-29T15:10:00Z</time>
      </trkpt>
      <trkpt lat="47.65165" lon="6.11505">
        <ele>222.1</ele>
        <time>2020-11-29T15:10:02Z</time>
      </trkpt>
      <trkpt lat="47.65157" lon="6.1151">
        <ele>222.1</ele>
        <time>2020-11-29T15:10:04Z</time>
      </trkpt>
      <trkpt lat="47.6515" lon="6.11516">
        <ele>222.1</ele>
        <time>2020-11-29T15:10:06Z</time>
      </trkpt>
      <trkpt lat="47.65143" lon="6.11522">
        <ele>222</ele>
        <time>2020-11-29T15:10:08Z</time>
      </trkpt>
      <trkpt lat="47.65137" lon="6.11527">
        <ele>221.9</ele>
        <time>2020-11-29T15:10:10Z</time>
      </trkpt>
      <trkpt lat="47.65134" lon="6.11531">
        <ele>221.9</ele>
        <time>2020-11-29T15:10:12Z</time>
      </trkpt>
      <trkpt lat="47.65131" lon="6.11537">
        <ele>221.9</ele>
        <time>2020-11-29T15:10:14Z</time>
      </trkpt>
      <trkpt lat="47.65121" lon="6.11546">
        <ele>221.7</ele>
        <time>2020-11-29T15:10:16Z</time>
      </trkpt>
      <trkpt lat="47.65124" lon="6.11553">
        <ele>221.9</ele>
        <time>2020-11-29T15:10:20Z</time>
      </trkpt>
      <trkpt lat="47.65132" lon="6.11568">
        <ele>222.6</ele>
        <time>2020-11-29T15:10:21Z</time>
      </trkpt>
      <trkpt lat="47.65136" lon="6.11577">
        <ele>223</ele>
        <time>2020-11-29T15:10:23Z</time>
      </trkpt>
      <trkpt lat="47.65138" lon="6.11586">
        <ele>223.3</ele>
        <time>2020-11-29T15:10:25Z</time>
      </trkpt>
      <trkpt lat="47.6514" lon="6.11594">
        <ele>223.5</ele>
        <time>2020-11-29T15:10:27Z</time>
      </trkpt>
      <trkpt lat="47.65142" lon="6.11603">
        <ele>223.6</ele>
        <time>2020-11-29T15:10:29Z</time>
      </trkpt>
      <trkpt lat="47.65143" lon="6.11611">
        <ele>223.7</ele>
        <time>2020-11-29T15:10:33Z</time>
      </trkpt>
      <trkpt lat="47.65144" lon="6.11619">
        <ele>223.7</ele>
        <time>2020-11-29T15:10:33Z</time>
      </trkpt>
      <trkpt lat="47.65146" lon="6.11627">
        <ele>223.9</ele>
        <time>2020-11-29T15:10:35Z</time>
      </trkpt>
      <trkpt lat="47.65147" lon="6.11635">
        <ele>224</ele>
        <time>2020-11-29T15:10:37Z</time>
      </trkpt>
      <trkpt lat="47.65149" lon="6.11643">
        <ele>224.1</ele>
        <time>2020-11-29T15:10:39Z</time>
      </trkpt>
      <trkpt lat="47.65149" lon="6.11651">
        <ele>224.1</ele>
        <time>2020-11-29T15:10:41Z</time>
      </trkpt>
      <trkpt lat="47.65151" lon="6.11662">
        <ele>224.2</ele>
        <time>2020-11-29T15:10:44Z</time>
      </trkpt>
      <trkpt lat="47.65151" lon="6.11669">
        <ele>224.2</ele>
        <time>2020-11-29T15:10:46Z</time>
      </trkpt>
      <trkpt lat="47.65152" lon="6.11677">
        <ele>224.3</ele>
        <time>2020-11-29T15:10:48Z</time>
      </trkpt>
      <trkpt lat="47.65154" lon="6.11684">
        <ele>224.4</ele>
        <time>2020-11-29T15:10:50Z</time>
      </trkpt>
      <trkpt lat="47.65155" lon="6.11691">
        <ele>224.4</ele>
        <time>2020-11-29T15:10:52Z</time>
      </trkpt>
      <trkpt lat="47.65157" lon="6.11701">
        <ele>224.5</ele>
        <time>2020-11-29T15:10:57Z</time>
      </trkpt>
      <trkpt lat="47.65159" lon="6.11707">
        <ele>224.6</ele>
        <time>2020-11-29T15:10:59Z</time>
      </trkpt>
      <trkpt lat="47.65161" lon="6.11717">
        <ele>224.8</ele>
        <time>2020-11-29T15:11:00Z</time>
      </trkpt>
      <trkpt lat="47.65164" lon="6.11725">
        <ele>224.9</ele>
        <time>2020-11-29T15:11:05Z</time>
      </trkpt>
      <trkpt lat="47.65166" lon="6.11732">
        <ele>225</ele>
        <time>2020-11-29T15:11:07Z</time>
      </trkpt>
      <trkpt lat="47.65169" lon="6.1174">
        <ele>225</ele>
        <time>2020-11-29T15:11:11Z</time>
      </trkpt>
      <trkpt lat="47.65171" lon="6.11747">
        <ele>225</ele>
        <time>2020-11-29T15:11:12Z</time>
      </trkpt>
      <trkpt lat="47.65173" lon="6.11754">
        <ele>224.9</ele>
        <time>2020-11-29T15:11:17Z</time>
      </trkpt>
      <trkpt lat="47.65176" lon="6.1176">
        <ele>224.8</ele>
        <time>2020-11-29T15:11:20Z</time>
      </trkpt>
      <trkpt lat="47.65178" lon="6.11768">
        <ele>224.6</ele>
        <time>2020-11-29T15:11:21Z</time>
      </trkpt>
      <trkpt lat="47.65181" lon="6.11775">
        <ele>224.5</ele>
        <time>2020-11-29T15:11:26Z</time>
      </trkpt>
      <trkpt lat="47.65183" lon="6.11783">
        <ele>224.4</ele>
        <time>2020-11-29T15:11:27Z</time>
      </trkpt>
      <trkpt lat="47.65186" lon="6.1179">
        <ele>224.3</ele>
        <time>2020-11-29T15:11:32Z</time>
      </trkpt>
      <trkpt lat="47.65188" lon="6.11796">
        <ele>224.2</ele>
        <time>2020-11-29T15:11:34Z</time>
      </trkpt>
      <trkpt lat="47.65191" lon="6.11804">
        <ele>224.1</ele>
        <time>2020-11-29T15:11:36Z</time>
      </trkpt>
      <trkpt lat="47.65194" lon="6.11812">
        <ele>224</ele>
        <time>2020-11-29T15:11:39Z</time>
      </trkpt>
      <trkpt lat="47.65197" lon="6.11819">
        <ele>223.9</ele>
        <time>2020-11-29T15:11:43Z</time>
      </trkpt>
      <trkpt lat="47.65199" lon="6.11826">
        <ele>223.9</ele>
        <time>2020-11-29T15:11:44Z</time>
      </trkpt>
      <trkpt lat="47.65202" lon="6.11834">
        <ele>223.8</ele>
        <time>2020-11-29T15:11:49Z</time>
      </trkpt>
      <trkpt lat="47.65205" lon="6.11843">
        <ele>224</ele>
        <time>2020-11-29T15:11:50Z</time>
      </trkpt>
      <trkpt lat="47.65207" lon="6.11849">
        <ele>224.1</ele>
        <time>2020-11-29T15:11:52Z</time>
      </trkpt>
      <trkpt lat="47.6521" lon="6.11858">
        <ele>224.2</ele>
        <time>2020-11-29T15:11:54Z</time>
      </trkpt>
      <trkpt lat="47.65213" lon="6.11865">
        <ele>224.4</ele>
        <time>2020-11-29T15:11:58Z</time>
      </trkpt>
      <trkpt lat="47.65215" lon="6.11873">
        <ele>224.5</ele>
        <time>2020-11-29T15:12:00Z</time>
      </trkpt>
      <trkpt lat="47.65218" lon="6.11883">
        <ele>224.8</ele>
        <time>2020-11-29T15:12:02Z</time>
      </trkpt>
      <trkpt lat="47.65221" lon="6.11891">
        <ele>225</ele>
        <time>2020-11-29T15:12:04Z</time>
      </trkpt>
      <trkpt lat="47.65228" lon="6.11908">
        <ele>225.5</ele>
        <time>2020-11-29T15:12:05Z</time>
      </trkpt>
      <trkpt lat="47.65231" lon="6.11918">
        <ele>225.9</ele>
        <time>2020-11-29T15:12:09Z</time>
      </trkpt>
      <trkpt lat="47.65238" lon="6.11937">
        <ele>226.2</ele>
        <time>2020-11-29T15:12:10Z</time>
      </trkpt>
      <trkpt lat="47.65242" lon="6.1195">
        <ele>226.5</ele>
        <time>2020-11-29T15:12:12Z</time>
      </trkpt>
      <trkpt lat="47.65247" lon="6.11962">
        <ele>226.8</ele>
        <time>2020-11-29T15:12:14Z</time>
      </trkpt>
      <trkpt lat="47.65251" lon="6.11972">
        <ele>227.1</ele>
        <time>2020-11-29T15:12:16Z</time>
      </trkpt>
      <trkpt lat="47.65257" lon="6.11982">
        <ele>227.3</ele>
        <time>2020-11-29T15:12:18Z</time>
      </trkpt>
      <trkpt lat="47.6526" lon="6.11986">
        <ele>227.5</ele>
        <time>2020-11-29T15:12:19Z</time>
      </trkpt>
      <trkpt lat="47.65266" lon="6.11994">
        <ele>227.8</ele>
        <time>2020-11-29T15:12:21Z</time>
      </trkpt>
      <trkpt lat="47.65272" lon="6.12002">
        <ele>228</ele>
        <time>2020-11-29T15:12:23Z</time>
      </trkpt>
      <trkpt lat="47.65276" lon="6.12008">
        <ele>228.2</ele>
        <time>2020-11-29T15:12:26Z</time>
      </trkpt>
      <trkpt lat="47.65281" lon="6.12012">
        <ele>228.3</ele>
        <time>2020-11-29T15:12:26Z</time>
      </trkpt>
      <trkpt lat="47.65286" lon="6.12017">
        <ele>228.5</ele>
        <time>2020-11-29T15:12:28Z</time>
      </trkpt>
      <trkpt lat="47.65292" lon="6.12023">
        <ele>228.6</ele>
        <time>2020-11-29T15:12:30Z</time>
      </trkpt>
      <trkpt lat="47.65298" lon="6.12028">
        <ele>228.7</ele>
        <time>2020-11-29T15:12:32Z</time>
      </trkpt>
      <trkpt lat="47.65303" lon="6.12035">
        <ele>228.8</ele>
        <time>2020-11-29T15:12:34Z</time>
      </trkpt>
      <trkpt lat="47.65308" lon="6.12042">
        <ele>228.8</ele>
        <time>2020-11-29T15:12:36Z</time>
      </trkpt>
      <trkpt lat="47.65313" lon="6.12048">
        <ele>228.7</ele>
        <time>2020-11-29T15:12:38Z</time>
      </trkpt>
      <trkpt lat="47.65317" lon="6.12054">
        <ele>228.6</ele>
        <time>2020-11-29T15:12:40Z</time>
      </trkpt>
      <trkpt lat="47.6532" lon="6.1206">
        <ele>228.5</ele>
        <time>2020-11-29T15:12:42Z</time>
      </trkpt>
      <trkpt lat="47.65324" lon="6.12067">
        <ele>228.4</ele>
        <time>2020-11-29T15:12:44Z</time>
      </trkpt>
      <trkpt lat="47.65327" lon="6.12074">
        <ele>228.2</ele>
        <time>2020-11-29T15:12:46Z</time>
      </trkpt>
      <trkpt lat="47.6533" lon="6.12081">
        <ele>228</ele>
        <time>2020-11-29T15:12:48Z</time>
      </trkpt>
      <trkpt lat="47.65333" lon="6.1209">
        <ele>228</ele>
        <time>2020-11-29T15:12:50Z</time>
      </trkpt>
      <trkpt lat="47.65336" lon="6.121">
        <ele>228.1</ele>
        <time>2020-11-29T15:12:52Z</time>
      </trkpt>
      <trkpt lat="47.65336" lon="6.12106">
        <ele>228.1</ele>
        <time>2020-11-29T15:12:53Z</time>
      </trkpt>
      <trkpt lat="47.65337" lon="6.12117">
        <ele>228.1</ele>
        <time>2020-11-29T15:12:55Z</time>
      </trkpt>
      <trkpt lat="47.65335" lon="6.1213">
        <ele>228.1</ele>
        <time>2020-11-29T15:12:57Z</time>
      </trkpt>
      <trkpt lat="47.65331" lon="6.1214">
        <ele>227.9</ele>
        <time>2020-11-29T15:12:59Z</time>
      </trkpt>
      <trkpt lat="47.65328" lon="6.12145">
        <ele>227.9</ele>
        <time>2020-11-29T15:13:00Z</time>
      </trkpt>
      <trkpt lat="47.65325" lon="6.12152">
        <ele>227.8</ele>
        <time>2020-11-29T15:13:01Z</time>
      </trkpt>
      <trkpt lat="47.65321" lon="6.12163">
        <ele>227.7</ele>
        <time>2020-11-29T15:13:05Z</time>
      </trkpt>
      <trkpt lat="47.65317" lon="6.12178">
        <ele>227.6</ele>
        <time>2020-11-29T15:13:05Z</time>
      </trkpt>
      <trkpt lat="47.65315" lon="6.12185">
        <ele>227.6</ele>
        <time>2020-11-29T15:13:06Z</time>
      </trkpt>
      <trkpt lat="47.65311" lon="6.12203">
        <ele>227.5</ele>
        <time>2020-11-29T15:13:08Z</time>
      </trkpt>
      <trkpt lat="47.6531" lon="6.12211">
        <ele>227.4</ele>
        <time>2020-11-29T15:13:09Z</time>
      </trkpt>
      <trkpt lat="47.65309" lon="6.12218">
        <ele>227.4</ele>
        <time>2020-11-29T15:13:10Z</time>
      </trkpt>
      <trkpt lat="47.65308" lon="6.12225">
        <ele>227.4</ele>
        <time>2020-11-29T15:13:11Z</time>
      </trkpt>
      <trkpt lat="47.65306" lon="6.12233">
        <ele>227.4</ele>
        <time>2020-11-29T15:13:12Z</time>
      </trkpt>
      <trkpt lat="47.65305" lon="6.12241">
        <ele>227.3</ele>
        <time>2020-11-29T15:13:13Z</time>
      </trkpt>
      <trkpt lat="47.65304" lon="6.12249">
        <ele>227.3</ele>
        <time>2020-11-29T15:13:14Z</time>
      </trkpt>
      <trkpt lat="47.65303" lon="6.12256">
        <ele>227.1</ele>
        <time>2020-11-29T15:13:15Z</time>
      </trkpt>
      <trkpt lat="47.65302" lon="6.12264">
        <ele>226.9</ele>
        <time>2020-11-29T15:13:16Z</time>
      </trkpt>
      <trkpt lat="47.65301" lon="6.12271">
        <ele>226.7</ele>
        <time>2020-11-29T15:13:17Z</time>
      </trkpt>
      <trkpt lat="47.653" lon="6.12279">
        <ele>226.5</ele>
        <time>2020-11-29T15:13:18Z</time>
      </trkpt>
      <trkpt lat="47.653" lon="6.12286">
        <ele>226.2</ele>
        <time>2020-11-29T15:13:19Z</time>
      </trkpt>
      <trkpt lat="47.65299" lon="6.12293">
        <ele>226.1</ele>
        <time>2020-11-29T15:13:20Z</time>
      </trkpt>
      <trkpt lat="47.65298" lon="6.123">
        <ele>225.9</ele>
        <time>2020-11-29T15:13:21Z</time>
      </trkpt>
      <trkpt lat="47.65297" lon="6.12306">
        <ele>225.7</ele>
        <time>2020-11-29T15:13:22Z</time>
      </trkpt>
      <trkpt lat="47.65296" lon="6.12313">
        <ele>225.5</ele>
        <time>2020-11-29T15:13:23Z</time>
      </trkpt>
      <trkpt lat="47.65295" lon="6.1232">
        <ele>225.3</ele>
        <time>2020-11-29T15:13:24Z</time>
      </trkpt>
      <trkpt lat="47.65294" lon="6.12327">
        <ele>225.1</ele>
        <time>2020-11-29T15:13:25Z</time>
      </trkpt>
      <trkpt lat="47.65294" lon="6.12334">
        <ele>225</ele>
        <time>2020-11-29T15:13:26Z</time>
      </trkpt>
      <trkpt lat="47.65293" lon="6.12342">
        <ele>224.8</ele>
        <time>2020-11-29T15:13:27Z</time>
      </trkpt>
      <trkpt lat="47.65292" lon="6.12349">
        <ele>224.5</ele>
        <time>2020-11-29T15:13:28Z</time>
      </trkpt>
      <trkpt lat="47.65291" lon="6.12357">
        <ele>224.3</ele>
        <time>2020-11-29T15:13:29Z</time>
      </trkpt>
      <trkpt lat="47.65291" lon="6.12365">
        <ele>224</ele>
        <time>2020-11-29T15:13:30Z</time>
      </trkpt>
      <trkpt lat="47.65291" lon="6.12374">
        <ele>223.8</ele>
        <time>2020-11-29T15:13:31Z</time>
      </trkpt>
      <trkpt lat="47.65291" lon="6.12382">
        <ele>223.5</ele>
        <time>2020-11-29T15:13:32Z</time>
      </trkpt>
      <trkpt lat="47.65292" lon="6.12391">
        <ele>223.3</ele>
        <time>2020-11-29T15:13:33Z</time>
      </trkpt>
      <trkpt lat="47.65293" lon="6.124">
        <ele>223</ele>
        <time>2020-11-29T15:13:34Z</time>
      </trkpt>
      <trkpt lat="47.65294" lon="6.12408">
        <ele>222.8</ele>
        <time>2020-11-29T15:13:35Z</time>
      </trkpt>
      <trkpt lat="47.65295" lon="6.12416">
        <ele>222.5</ele>
        <time>2020-11-29T15:13:36Z</time>
      </trkpt>
      <trkpt lat="47.65295" lon="6.12424">
        <ele>222.4</ele>
        <time>2020-11-29T15:13:37Z</time>
      </trkpt>
      <trkpt lat="47.65296" lon="6.12432">
        <ele>222.2</ele>
        <time>2020-11-29T15:13:38Z</time>
      </trkpt>
      <trkpt lat="47.65297" lon="6.12439">
        <ele>222</ele>
        <time>2020-11-29T15:13:39Z</time>
      </trkpt>
      <trkpt lat="47.65301" lon="6.1245">
        <ele>221.8</ele>
        <time>2020-11-29T15:13:41Z</time>
      </trkpt>
      <trkpt lat="47.65305" lon="6.12457">
        <ele>221.7</ele>
        <time>2020-11-29T15:13:43Z</time>
      </trkpt>
      <trkpt lat="47.65309" lon="6.12461">
        <ele>221.7</ele>
        <time>2020-11-29T15:13:45Z</time>
      </trkpt>
      <trkpt lat="47.65315" lon="6.12463">
        <ele>221.7</ele>
        <time>2020-11-29T15:13:47Z</time>
      </trkpt>
      <trkpt lat="47.6532" lon="6.12466">
        <ele>221.7</ele>
        <time>2020-11-29T15:13:49Z</time>
      </trkpt>
      <trkpt lat="47.65326" lon="6.12469">
        <ele>221.6</ele>
        <time>2020-11-29T15:13:51Z</time>
      </trkpt>
      <trkpt lat="47.65332" lon="6.12473">
        <ele>221.6</ele>
        <time>2020-11-29T15:13:53Z</time>
      </trkpt>
      <trkpt lat="47.65339" lon="6.12478">
        <ele>221.7</ele>
        <time>2020-11-29T15:13:55Z</time>
      </trkpt>
      <trkpt lat="47.65346" lon="6.12482">
        <ele>221.8</ele>
        <time>2020-11-29T15:13:57Z</time>
      </trkpt>
      <trkpt lat="47.65352" lon="6.12486">
        <ele>221.9</ele>
        <time>2020-11-29T15:13:59Z</time>
      </trkpt>
      <trkpt lat="47.65358" lon="6.12491">
        <ele>222</ele>
        <time>2020-11-29T15:14:01Z</time>
      </trkpt>
      <trkpt lat="47.65364" lon="6.12495">
        <ele>222.2</ele>
        <time>2020-11-29T15:14:05Z</time>
      </trkpt>
      <trkpt lat="47.65368" lon="6.12498">
        <ele>222.3</ele>
        <time>2020-11-29T15:14:06Z</time>
      </trkpt>
      <trkpt lat="47.65374" lon="6.12503">
        <ele>222.5</ele>
        <time>2020-11-29T15:14:08Z</time>
      </trkpt>
      <trkpt lat="47.65379" lon="6.12507">
        <ele>222.8</ele>
        <time>2020-11-29T15:14:09Z</time>
      </trkpt>
      <trkpt lat="47.65384" lon="6.1251">
        <ele>223</ele>
        <time>2020-11-29T15:14:11Z</time>
      </trkpt>
      <trkpt lat="47.6539" lon="6.12514">
        <ele>223.4</ele>
        <time>2020-11-29T15:14:13Z</time>
      </trkpt>
      <trkpt lat="47.65396" lon="6.12518">
        <ele>223.7</ele>
        <time>2020-11-29T15:14:14Z</time>
      </trkpt>
      <trkpt lat="47.654" lon="6.12522">
        <ele>223.9</ele>
        <time>2020-11-29T15:14:16Z</time>
      </trkpt>
      <trkpt lat="47.65406" lon="6.12526">
        <ele>224.3</ele>
        <time>2020-11-29T15:14:16Z</time>
      </trkpt>
      <trkpt lat="47.65411" lon="6.12529">
        <ele>224.5</ele>
        <time>2020-11-29T15:14:20Z</time>
      </trkpt>
      <trkpt lat="47.65416" lon="6.12531">
        <ele>224.7</ele>
        <time>2020-11-29T15:14:22Z</time>
      </trkpt>
      <trkpt lat="47.65421" lon="6.12534">
        <ele>224.9</ele>
        <time>2020-11-29T15:14:22Z</time>
      </trkpt>
      <trkpt lat="47.65427" lon="6.12536">
        <ele>225.1</ele>
        <time>2020-11-29T15:14:27Z</time>
      </trkpt>
      <trkpt lat="47.65435" lon="6.12537">
        <ele>225.2</ele>
        <time>2020-11-29T15:14:28Z</time>
      </trkpt>
      <trkpt lat="47.6544" lon="6.12538">
        <ele>225.3</ele>
        <time>2020-11-29T15:14:32Z</time>
      </trkpt>
      <trkpt lat="47.65446" lon="6.12538">
        <ele>225.4</ele>
        <time>2020-11-29T15:14:34Z</time>
      </trkpt>
      <trkpt lat="47.65451" lon="6.12537">
        <ele>225.5</ele>
        <time>2020-11-29T15:14:36Z</time>
      </trkpt>
      <trkpt lat="47.65456" lon="6.1254">
        <ele>225.7</ele>
        <time>2020-11-29T15:14:39Z</time>
      </trkpt>
      <trkpt lat="47.65461" lon="6.12542">
        <ele>225.8</ele>
        <time>2020-11-29T15:14:40Z</time>
      </trkpt>
      <trkpt lat="47.65467" lon="6.12543">
        <ele>225.9</ele>
        <time>2020-11-29T15:14:43Z</time>
      </trkpt>
      <trkpt lat="47.65472" lon="6.12546">
        <ele>226.1</ele>
        <time>2020-11-29T15:14:46Z</time>
      </trkpt>
      <trkpt lat="47.65476" lon="6.12552">
        <ele>226.2</ele>
        <time>2020-11-29T15:14:50Z</time>
      </trkpt>
      <trkpt lat="47.65481" lon="6.12557">
        <ele>226.4</ele>
        <time>2020-11-29T15:14:53Z</time>
      </trkpt>
      <trkpt lat="47.65486" lon="6.12562">
        <ele>226.5</ele>
        <time>2020-11-29T15:14:53Z</time>
      </trkpt>
      <trkpt lat="47.65489" lon="6.12567">
        <ele>226.7</ele>
        <time>2020-11-29T15:14:55Z</time>
      </trkpt>
      <trkpt lat="47.65494" lon="6.12575">
        <ele>226.8</ele>
        <time>2020-11-29T15:15:00Z</time>
      </trkpt>
      <trkpt lat="47.65498" lon="6.12582">
        <ele>227</ele>
        <time>2020-11-29T15:15:02Z</time>
      </trkpt>
      <trkpt lat="47.65501" lon="6.12588">
        <ele>227</ele>
        <time>2020-11-29T15:15:04Z</time>
      </trkpt>
      <trkpt lat="47.65505" lon="6.12594">
        <ele>226.9</ele>
        <time>2020-11-29T15:15:04Z</time>
      </trkpt>
      <trkpt lat="47.65509" lon="6.126">
        <ele>226.9</ele>
        <time>2020-11-29T15:15:08Z</time>
      </trkpt>
      <trkpt lat="47.65513" lon="6.12608">
        <ele>226.8</ele>
        <time>2020-11-29T15:15:11Z</time>
      </trkpt>
      <trkpt lat="47.65516" lon="6.12614">
        <ele>226.8</ele>
        <time>2020-11-29T15:15:11Z</time>
      </trkpt>
      <trkpt lat="47.65519" lon="6.1262">
        <ele>226.8</ele>
        <time>2020-11-29T15:15:15Z</time>
      </trkpt>
      <trkpt lat="47.65523" lon="6.12627">
        <ele>226.9</ele>
        <time>2020-11-29T15:15:15Z</time>
      </trkpt>
      <trkpt lat="47.65526" lon="6.12632">
        <ele>226.9</ele>
        <time>2020-11-29T15:15:19Z</time>
      </trkpt>
      <trkpt lat="47.65531" lon="6.12641">
        <ele>227</ele>
        <time>2020-11-29T15:15:22Z</time>
      </trkpt>
      <trkpt lat="47.65534" lon="6.12648">
        <ele>227.1</ele>
        <time>2020-11-29T15:15:24Z</time>
      </trkpt>
      <trkpt lat="47.65538" lon="6.12655">
        <ele>227.3</ele>
        <time>2020-11-29T15:15:27Z</time>
      </trkpt>
      <trkpt lat="47.65542" lon="6.12661">
        <ele>227.4</ele>
        <time>2020-11-29T15:15:29Z</time>
      </trkpt>
      <trkpt lat="47.65546" lon="6.12667">
        <ele>227.5</ele>
        <time>2020-11-29T15:15:29Z</time>
      </trkpt>
      <trkpt lat="47.65549" lon="6.12672">
        <ele>227.6</ele>
        <time>2020-11-29T15:15:33Z</time>
      </trkpt>
      <trkpt lat="47.65552" lon="6.12678">
        <ele>227.7</ele>
        <time>2020-11-29T15:15:35Z</time>
      </trkpt>
      <trkpt lat="47.65556" lon="6.12684">
        <ele>227.7</ele>
        <time>2020-11-29T15:15:37Z</time>
      </trkpt>
      <trkpt lat="47.6556" lon="6.1269">
        <ele>227.8</ele>
        <time>2020-11-29T15:15:40Z</time>
      </trkpt>
      <trkpt lat="47.65563" lon="6.12697">
        <ele>227.9</ele>
        <time>2020-11-29T15:15:42Z</time>
      </trkpt>
      <trkpt lat="47.65565" lon="6.12703">
        <ele>228</ele>
        <time>2020-11-29T15:15:43Z</time>
      </trkpt>
      <trkpt lat="47.65568" lon="6.1271">
        <ele>228.2</ele>
        <time>2020-11-29T15:15:45Z</time>
      </trkpt>
      <trkpt lat="47.65571" lon="6.12716">
        <ele>228.3</ele>
        <time>2020-11-29T15:15:45Z</time>
      </trkpt>
      <trkpt lat="47.65574" lon="6.12722">
        <ele>228.4</ele>
        <time>2020-11-29T15:15:49Z</time>
      </trkpt>
      <trkpt lat="47.65578" lon="6.12729">
        <ele>228.6</ele>
        <time>2020-11-29T15:15:49Z</time>
      </trkpt>
      <trkpt lat="47.65582" lon="6.12739">
        <ele>228.8</ele>
        <time>2020-11-29T15:15:52Z</time>
      </trkpt>
      <trkpt lat="47.65585" lon="6.12745">
        <ele>229</ele>
        <time>2020-11-29T15:15:54Z</time>
      </trkpt>
      <trkpt lat="47.6559" lon="6.12753">
        <ele>229.2</ele>
        <time>2020-11-29T15:15:57Z</time>
      </trkpt>
      <trkpt lat="47.65593" lon="6.12759">
        <ele>229.3</ele>
        <time>2020-11-29T15:16:01Z</time>
      </trkpt>
      <trkpt lat="47.65596" lon="6.12765">
        <ele>229.5</ele>
        <time>2020-11-29T15:16:01Z</time>
      </trkpt>
      <trkpt lat="47.65599" lon="6.1277">
        <ele>229.6</ele>
        <time>2020-11-29T15:16:03Z</time>
      </trkpt>
      <trkpt lat="47.65602" lon="6.12776">
        <ele>229.7</ele>
        <time>2020-11-29T15:16:05Z</time>
      </trkpt>
      <trkpt lat="47.65605" lon="6.12782">
        <ele>229.8</ele>
        <time>2020-11-29T15:16:07Z</time>
      </trkpt>
      <trkpt lat="47.65609" lon="6.1279">
        <ele>229.9</ele>
        <time>2020-11-29T15:16:10Z</time>
      </trkpt>
      <trkpt lat="47.6561" lon="6.12797">
        <ele>230</ele>
        <time>2020-11-29T15:16:12Z</time>
      </trkpt>
      <trkpt lat="47.65613" lon="6.12806">
        <ele>230.1</ele>
        <time>2020-11-29T15:16:15Z</time>
      </trkpt>
      <trkpt lat="47.65616" lon="6.12811">
        <ele>230.2</ele>
        <time>2020-11-29T15:16:17Z</time>
      </trkpt>
      <trkpt lat="47.65621" lon="6.12816">
        <ele>230.3</ele>
        <time>2020-11-29T15:16:22Z</time>
      </trkpt>
      <trkpt lat="47.65625" lon="6.12823">
        <ele>230.5</ele>
        <time>2020-11-29T15:16:22Z</time>
      </trkpt>
      <trkpt lat="47.65628" lon="6.12828">
        <ele>230.6</ele>
        <time>2020-11-29T15:16:24Z</time>
      </trkpt>
      <trkpt lat="47.65631" lon="6.12834">
        <ele>230.7</ele>
        <time>2020-11-29T15:16:27Z</time>
      </trkpt>
      <trkpt lat="47.65632" lon="6.12842">
        <ele>230.9</ele>
        <time>2020-11-29T15:18:09Z</time>
      </trkpt>
      <trkpt lat="47.65634" lon="6.1285">
        <ele>231.1</ele>
        <time>2020-11-29T15:18:11Z</time>
      </trkpt>
      <trkpt lat="47.65637" lon="6.12858">
        <ele>231.3</ele>
        <time>2020-11-29T15:18:13Z</time>
      </trkpt>
      <trkpt lat="47.6564" lon="6.12865">
        <ele>231.5</ele>
        <time>2020-11-29T15:18:15Z</time>
      </trkpt>
      <trkpt lat="47.65642" lon="6.12872">
        <ele>231.7</ele>
        <time>2020-11-29T15:18:17Z</time>
      </trkpt>
      <trkpt lat="47.65644" lon="6.12878">
        <ele>231.9</ele>
        <time>2020-11-29T15:18:19Z</time>
      </trkpt>
      <trkpt lat="47.65647" lon="6.12887">
        <ele>232.1</ele>
        <time>2020-11-29T15:18:22Z</time>
      </trkpt>
      <trkpt lat="47.65648" lon="6.12894">
        <ele>232.2</ele>
        <time>2020-11-29T15:18:25Z</time>
      </trkpt>
      <trkpt lat="47.65649" lon="6.12901">
        <ele>232.4</ele>
        <time>2020-11-29T15:18:28Z</time>
      </trkpt>
      <trkpt lat="47.65651" lon="6.12908">
        <ele>232.5</ele>
        <time>2020-11-29T15:18:46Z</time>
      </trkpt>
      <trkpt lat="47.65652" lon="6.12916">
        <ele>232.6</ele>
        <time>2020-11-29T15:18:49Z</time>
      </trkpt>
      <trkpt lat="47.65655" lon="6.12925">
        <ele>232.6</ele>
        <time>2020-11-29T15:18:52Z</time>
      </trkpt>
      <trkpt lat="47.65657" lon="6.12933">
        <ele>232.6</ele>
        <time>2020-11-29T15:18:56Z</time>
      </trkpt>
      <trkpt lat="47.65659" lon="6.12941">
        <ele>232.6</ele>
        <time>2020-11-29T15:18:57Z</time>
      </trkpt>
      <trkpt lat="47.65663" lon="6.1295">
        <ele>232.5</ele>
        <time>2020-11-29T15:19:00Z</time>
      </trkpt>
      <trkpt lat="47.65665" lon="6.12956">
        <ele>232.5</ele>
        <time>2020-11-29T15:19:02Z</time>
      </trkpt>
      <trkpt lat="47.65667" lon="6.12962">
        <ele>232.5</ele>
        <time>2020-11-29T15:19:04Z</time>
      </trkpt>
      <trkpt lat="47.65669" lon="6.12969">
        <ele>232.4</ele>
        <time>2020-11-29T15:19:06Z</time>
      </trkpt>
      <trkpt lat="47.65671" lon="6.12975">
        <ele>232.4</ele>
        <time>2020-11-29T15:19:08Z</time>
      </trkpt>
      <trkpt lat="47.65673" lon="6.12982">
        <ele>232.4</ele>
        <time>2020-11-29T15:19:12Z</time>
      </trkpt>
      <trkpt lat="47.65675" lon="6.1299">
        <ele>232.4</ele>
        <time>2020-11-29T15:19:13Z</time>
      </trkpt>
      <trkpt lat="47.65678" lon="6.12999">
        <ele>232.4</ele>
        <time>2020-11-29T15:19:16Z</time>
      </trkpt>
      <trkpt lat="47.6568" lon="6.13005">
        <ele>232.6</ele>
        <time>2020-11-29T15:19:18Z</time>
      </trkpt>
      <trkpt lat="47.65681" lon="6.13012">
        <ele>232.8</ele>
        <time>2020-11-29T15:19:20Z</time>
      </trkpt>
      <trkpt lat="47.65684" lon="6.13023">
        <ele>233.2</ele>
        <time>2020-11-29T15:19:23Z</time>
      </trkpt>
      <trkpt lat="47.65685" lon="6.1303">
        <ele>233.4</ele>
        <time>2020-11-29T15:19:25Z</time>
      </trkpt>
      <trkpt lat="47.65687" lon="6.13037">
        <ele>233.6</ele>
        <time>2020-11-29T15:19:27Z</time>
      </trkpt>
      <trkpt lat="47.65688" lon="6.13044">
        <ele>233.8</ele>
        <time>2020-11-29T15:19:29Z</time>
      </trkpt>
      <trkpt lat="47.6569" lon="6.13054">
        <ele>234.1</ele>
        <time>2020-11-29T15:19:32Z</time>
      </trkpt>
      <trkpt lat="47.65693" lon="6.13061">
        <ele>234.4</ele>
        <time>2020-11-29T15:19:35Z</time>
      </trkpt>
      <trkpt lat="47.65694" lon="6.13068">
        <ele>234.6</ele>
        <time>2020-11-29T15:19:38Z</time>
      </trkpt>
      <trkpt lat="47.65696" lon="6.13075">
        <ele>234.9</ele>
        <time>2020-11-29T15:19:41Z</time>
      </trkpt>
      <trkpt lat="47.65698" lon="6.13083">
        <ele>235.1</ele>
        <time>2020-11-29T15:19:45Z</time>
      </trkpt>
      <trkpt lat="47.65699" lon="6.1309">
        <ele>235.3</ele>
        <time>2020-11-29T15:19:48Z</time>
      </trkpt>
      <trkpt lat="47.65701" lon="6.13097">
        <ele>235.4</ele>
        <time>2020-11-29T15:19:51Z</time>
      </trkpt>
      <trkpt lat="47.65704" lon="6.13103">
        <ele>235.6</ele>
        <time>2020-11-29T15:19:54Z</time>
      </trkpt>
      <trkpt lat="47.65706" lon="6.13111">
        <ele>235.8</ele>
        <time>2020-11-29T15:19:57Z</time>
      </trkpt>
      <trkpt lat="47.65709" lon="6.13118">
        <ele>235.9</ele>
        <time>2020-11-29T15:20:00Z</time>
      </trkpt>
      <trkpt lat="47.65711" lon="6.13125">
        <ele>236.1</ele>
        <time>2020-11-29T15:20:03Z</time>
      </trkpt>
      <trkpt lat="47.65715" lon="6.13133">
        <ele>236.2</ele>
        <time>2020-11-29T15:20:06Z</time>
      </trkpt>
      <trkpt lat="47.65718" lon="6.1314">
        <ele>236.4</ele>
        <time>2020-11-29T15:20:09Z</time>
      </trkpt>
      <trkpt lat="47.65722" lon="6.13148">
        <ele>236.5</ele>
        <time>2020-11-29T15:20:12Z</time>
      </trkpt>
      <trkpt lat="47.65725" lon="6.13155">
        <ele>236.6</ele>
        <time>2020-11-29T15:20:16Z</time>
      </trkpt>
      <trkpt lat="47.65729" lon="6.13162">
        <ele>236.7</ele>
        <time>2020-11-29T15:20:19Z</time>
      </trkpt>
      <trkpt lat="47.65732" lon="6.13169">
        <ele>236.8</ele>
        <time>2020-11-29T15:20:22Z</time>
      </trkpt>
      <trkpt lat="47.65735" lon="6.13176">
        <ele>236.7</ele>
        <time>2020-11-29T15:20:25Z</time>
      </trkpt>
      <trkpt lat="47.65738" lon="6.13182">
        <ele>236.7</ele>
        <time>2020-11-29T15:20:28Z</time>
      </trkpt>
      <trkpt lat="47.65741" lon="6.13188">
        <ele>236.7</ele>
        <time>2020-11-29T15:20:31Z</time>
      </trkpt>
      <trkpt lat="47.65744" lon="6.13195">
        <ele>236.6</ele>
        <time>2020-11-29T15:20:34Z</time>
      </trkpt>
      <trkpt lat="47.65748" lon="6.13203">
        <ele>236.6</ele>
        <time>2020-11-29T15:20:37Z</time>
      </trkpt>
      <trkpt lat="47.65752" lon="6.13209">
        <ele>236.5</ele>
        <time>2020-11-29T15:20:40Z</time>
      </trkpt>
      <trkpt lat="47.65756" lon="6.13217">
        <ele>236.5</ele>
        <time>2020-11-29T15:20:43Z</time>
      </trkpt>
      <trkpt lat="47.65759" lon="6.13225">
        <ele>236.5</ele>
        <time>2020-11-29T15:20:46Z</time>
      </trkpt>
      <trkpt lat="47.65763" lon="6.13232">
        <ele>236.4</ele>
        <time>2020-11-29T15:20:48Z</time>
      </trkpt>
      <trkpt lat="47.65767" lon="6.13239">
        <ele>236.4</ele>
        <time>2020-11-29T15:20:50Z</time>
      </trkpt>
      <trkpt lat="47.6577" lon="6.13245">
        <ele>236.3</ele>
        <time>2020-11-29T15:20:53Z</time>
      </trkpt>
      <trkpt lat="47.65775" lon="6.13252">
        <ele>236.2</ele>
        <time>2020-11-29T15:20:54Z</time>
      </trkpt>
      <trkpt lat="47.65781" lon="6.1326">
        <ele>235.9</ele>
        <time>2020-11-29T15:20:56Z</time>
      </trkpt>
      <trkpt lat="47.65787" lon="6.13267">
        <ele>235.6</ele>
        <time>2020-11-29T15:20:59Z</time>
      </trkpt>
      <trkpt lat="47.65795" lon="6.13279">
        <ele>235.2</ele>
        <time>2020-11-29T15:21:00Z</time>
      </trkpt>
      <trkpt lat="47.65801" lon="6.13287">
        <ele>234.8</ele>
        <time>2020-11-29T15:21:03Z</time>
      </trkpt>
      <trkpt lat="47.65813" lon="6.13301">
        <ele>234.3</ele>
        <time>2020-11-29T15:21:05Z</time>
      </trkpt>
      <trkpt lat="47.65818" lon="6.13306">
        <ele>234.1</ele>
        <time>2020-11-29T15:21:06Z</time>
      </trkpt>
      <trkpt lat="47.65822" lon="6.1331">
        <ele>234</ele>
        <time>2020-11-29T15:21:07Z</time>
      </trkpt>
      <trkpt lat="47.65826" lon="6.13314">
        <ele>233.9</ele>
        <time>2020-11-29T15:21:08Z</time>
      </trkpt>
      <trkpt lat="47.65831" lon="6.13318">
        <ele>233.7</ele>
        <time>2020-11-29T15:21:09Z</time>
      </trkpt>
      <trkpt lat="47.65836" lon="6.13321">
        <ele>233.5</ele>
        <time>2020-11-29T15:21:10Z</time>
      </trkpt>
      <trkpt lat="47.65841" lon="6.13323">
        <ele>233.2</ele>
        <time>2020-11-29T15:21:11Z</time>
      </trkpt>
      <trkpt lat="47.65847" lon="6.13326">
        <ele>232.9</ele>
        <time>2020-11-29T15:21:12Z</time>
      </trkpt>
      <trkpt lat="47.65853" lon="6.13329">
        <ele>232.5</ele>
        <time>2020-11-29T15:21:13Z</time>
      </trkpt>
      <trkpt lat="47.65859" lon="6.13334">
        <ele>232</ele>
        <time>2020-11-29T15:21:14Z</time>
      </trkpt>
      <trkpt lat="47.65865" lon="6.13339">
        <ele>231.5</ele>
        <time>2020-11-29T15:21:15Z</time>
      </trkpt>
      <trkpt lat="47.65871" lon="6.13343">
        <ele>231.1</ele>
        <time>2020-11-29T15:21:16Z</time>
      </trkpt>
      <trkpt lat="47.65877" lon="6.13348">
        <ele>230.6</ele>
        <time>2020-11-29T15:21:17Z</time>
      </trkpt>
      <trkpt lat="47.65883" lon="6.13353">
        <ele>230.1</ele>
        <time>2020-11-29T15:21:18Z</time>
      </trkpt>
      <trkpt lat="47.65889" lon="6.13359">
        <ele>229.6</ele>
        <time>2020-11-29T15:21:19Z</time>
      </trkpt>
      <trkpt lat="47.65895" lon="6.13365">
        <ele>229.1</ele>
        <time>2020-11-29T15:21:20Z</time>
      </trkpt>
      <trkpt lat="47.65901" lon="6.1337">
        <ele>228.6</ele>
        <time>2020-11-29T15:21:21Z</time>
      </trkpt>
      <trkpt lat="47.65907" lon="6.13375">
        <ele>228.2</ele>
        <time>2020-11-29T15:21:22Z</time>
      </trkpt>
      <trkpt lat="47.65914" lon="6.13381">
        <ele>227.8</ele>
        <time>2020-11-29T15:21:23Z</time>
      </trkpt>
      <trkpt lat="47.6592" lon="6.13386">
        <ele>227.4</ele>
        <time>2020-11-29T15:21:24Z</time>
      </trkpt>
      <trkpt lat="47.65926" lon="6.13391">
        <ele>227</ele>
        <time>2020-11-29T15:21:25Z</time>
      </trkpt>
      <trkpt lat="47.65932" lon="6.13397">
        <ele>226.6</ele>
        <time>2020-11-29T15:21:26Z</time>
      </trkpt>
      <trkpt lat="47.65938" lon="6.13402">
        <ele>226.2</ele>
        <time>2020-11-29T15:21:27Z</time>
      </trkpt>
      <trkpt lat="47.65945" lon="6.13408">
        <ele>225.8</ele>
        <time>2020-11-29T15:21:28Z</time>
      </trkpt>
      <trkpt lat="47.6595" lon="6.13413">
        <ele>225.3</ele>
        <time>2020-11-29T15:21:29Z</time>
      </trkpt>
      <trkpt lat="47.65956" lon="6.1342">
        <ele>225</ele>
        <time>2020-11-29T15:21:30Z</time>
      </trkpt>
      <trkpt lat="47.65961" lon="6.13428">
        <ele>224.8</ele>
        <time>2020-11-29T15:21:31Z</time>
      </trkpt>
      <trkpt lat="47.65966" lon="6.13436">
        <ele>224.6</ele>
        <time>2020-11-29T15:21:32Z</time>
      </trkpt>
      <trkpt lat="47.65969" lon="6.13445">
        <ele>224.5</ele>
        <time>2020-11-29T15:21:33Z</time>
      </trkpt>
      <trkpt lat="47.65972" lon="6.13454">
        <ele>224.4</ele>
        <time>2020-11-29T15:21:34Z</time>
      </trkpt>
      <trkpt lat="47.65974" lon="6.13464">
        <ele>224.3</ele>
        <time>2020-11-29T15:21:35Z</time>
      </trkpt>
      <trkpt lat="47.65976" lon="6.13473">
        <ele>224.2</ele>
        <time>2020-11-29T15:21:36Z</time>
      </trkpt>
      <trkpt lat="47.65977" lon="6.13482">
        <ele>224.1</ele>
        <time>2020-11-29T15:21:37Z</time>
      </trkpt>
      <trkpt lat="47.65979" lon="6.1349">
        <ele>224.1</ele>
        <time>2020-11-29T15:21:38Z</time>
      </trkpt>
      <trkpt lat="47.6598" lon="6.13498">
        <ele>224</ele>
        <time>2020-11-29T15:21:39Z</time>
      </trkpt>
      <trkpt lat="47.65981" lon="6.13506">
        <ele>224</ele>
        <time>2020-11-29T15:21:40Z</time>
      </trkpt>
      <trkpt lat="47.65983" lon="6.13513">
        <ele>224</ele>
        <time>2020-11-29T15:21:41Z</time>
      </trkpt>
      <trkpt lat="47.65985" lon="6.1352">
        <ele>224</ele>
        <time>2020-11-29T15:21:42Z</time>
      </trkpt>
      <trkpt lat="47.65987" lon="6.13526">
        <ele>223.9</ele>
        <time>2020-11-29T15:21:43Z</time>
      </trkpt>
      <trkpt lat="47.65989" lon="6.13532">
        <ele>223.9</ele>
        <time>2020-11-29T15:21:44Z</time>
      </trkpt>
      <trkpt lat="47.65992" lon="6.13538">
        <ele>224</ele>
        <time>2020-11-29T15:21:45Z</time>
      </trkpt>
      <trkpt lat="47.65995" lon="6.13542">
        <ele>224</ele>
        <time>2020-11-29T15:21:46Z</time>
      </trkpt>
      <trkpt lat="47.65999" lon="6.13547">
        <ele>224</ele>
        <time>2020-11-29T15:21:47Z</time>
      </trkpt>
      <trkpt lat="47.66003" lon="6.1355">
        <ele>223.9</ele>
        <time>2020-11-29T15:21:48Z</time>
      </trkpt>
      <trkpt lat="47.66007" lon="6.13553">
        <ele>223.8</ele>
        <time>2020-11-29T15:21:49Z</time>
      </trkpt>
      <trkpt lat="47.66011" lon="6.13557">
        <ele>223.7</ele>
        <time>2020-11-29T15:21:50Z</time>
      </trkpt>
      <trkpt lat="47.66016" lon="6.13559">
        <ele>223.6</ele>
        <time>2020-11-29T15:21:51Z</time>
      </trkpt>
      <trkpt lat="47.66021" lon="6.13563">
        <ele>223.4</ele>
        <time>2020-11-29T15:21:52Z</time>
      </trkpt>
      <trkpt lat="47.66027" lon="6.13566">
        <ele>223.3</ele>
        <time>2020-11-29T15:21:53Z</time>
      </trkpt>
      <trkpt lat="47.66032" lon="6.13571">
        <ele>223.2</ele>
        <time>2020-11-29T15:21:54Z</time>
      </trkpt>
      <trkpt lat="47.66037" lon="6.13576">
        <ele>223.1</ele>
        <time>2020-11-29T15:21:55Z</time>
      </trkpt>
      <trkpt lat="47.66042" lon="6.1358">
        <ele>223</ele>
        <time>2020-11-29T15:21:56Z</time>
      </trkpt>
      <trkpt lat="47.66047" lon="6.13585">
        <ele>222.9</ele>
        <time>2020-11-29T15:21:57Z</time>
      </trkpt>
      <trkpt lat="47.66052" lon="6.13589">
        <ele>222.8</ele>
        <time>2020-11-29T15:21:58Z</time>
      </trkpt>
      <trkpt lat="47.66056" lon="6.13594">
        <ele>222.7</ele>
        <time>2020-11-29T15:21:59Z</time>
      </trkpt>
      <trkpt lat="47.6606" lon="6.13598">
        <ele>222.6</ele>
        <time>2020-11-29T15:22:00Z</time>
      </trkpt>
      <trkpt lat="47.66064" lon="6.13601">
        <ele>222.5</ele>
        <time>2020-11-29T15:22:01Z</time>
      </trkpt>
      <trkpt lat="47.66071" lon="6.13609">
        <ele>222.3</ele>
        <time>2020-11-29T15:22:03Z</time>
      </trkpt>
      <trkpt lat="47.66077" lon="6.13615">
        <ele>222.1</ele>
        <time>2020-11-29T15:22:05Z</time>
      </trkpt>
      <trkpt lat="47.66084" lon="6.13622">
        <ele>222</ele>
        <time>2020-11-29T15:22:07Z</time>
      </trkpt>
      <trkpt lat="47.66091" lon="6.1363">
        <ele>222</ele>
        <time>2020-11-29T15:22:09Z</time>
      </trkpt>
      <trkpt lat="47.66096" lon="6.13639">
        <ele>222.1</ele>
        <time>2020-11-29T15:22:11Z</time>
      </trkpt>
      <trkpt lat="47.66102" lon="6.13643">
        <ele>222.2</ele>
        <time>2020-11-29T15:22:13Z</time>
      </trkpt>
      <trkpt lat="47.66111" lon="6.13649">
        <ele>222.3</ele>
        <time>2020-11-29T15:22:16Z</time>
      </trkpt>
      <trkpt lat="47.66117" lon="6.13654">
        <ele>222.3</ele>
        <time>2020-11-29T15:22:17Z</time>
      </trkpt>
      <trkpt lat="47.66121" lon="6.13658">
        <ele>222.4</ele>
        <time>2020-11-29T15:22:18Z</time>
      </trkpt>
      <trkpt lat="47.66128" lon="6.13669">
        <ele>222.6</ele>
        <time>2020-11-29T15:22:20Z</time>
      </trkpt>
      <trkpt lat="47.66132" lon="6.13676">
        <ele>222.7</ele>
        <time>2020-11-29T15:22:22Z</time>
      </trkpt>
      <trkpt lat="47.66135" lon="6.13684">
        <ele>222.9</ele>
        <time>2020-11-29T15:22:24Z</time>
      </trkpt>
      <trkpt lat="47.66137" lon="6.1369">
        <ele>223</ele>
        <time>2020-11-29T15:22:26Z</time>
      </trkpt>
      <trkpt lat="47.6614" lon="6.13698">
        <ele>223.2</ele>
        <time>2020-11-29T15:22:28Z</time>
      </trkpt>
      <trkpt lat="47.66142" lon="6.13706">
        <ele>223.4</ele>
        <time>2020-11-29T15:22:30Z</time>
      </trkpt>
      <trkpt lat="47.66144" lon="6.13713">
        <ele>223.5</ele>
        <time>2020-11-29T15:22:32Z</time>
      </trkpt>
      <trkpt lat="47.66146" lon="6.13723">
        <ele>223.8</ele>
        <time>2020-11-29T15:22:34Z</time>
      </trkpt>
      <trkpt lat="47.66148" lon="6.13731">
        <ele>224</ele>
        <time>2020-11-29T15:22:35Z</time>
      </trkpt>
      <trkpt lat="47.66149" lon="6.13744">
        <ele>224.3</ele>
        <time>2020-11-29T15:22:38Z</time>
      </trkpt>
      <trkpt lat="47.66151" lon="6.13754">
        <ele>224.5</ele>
        <time>2020-11-29T15:22:39Z</time>
      </trkpt>
      <trkpt lat="47.66152" lon="6.13761">
        <ele>224.7</ele>
        <time>2020-11-29T15:22:41Z</time>
      </trkpt>
      <trkpt lat="47.66153" lon="6.13768">
        <ele>224.9</ele>
        <time>2020-11-29T15:22:43Z</time>
      </trkpt>
      <trkpt lat="47.66156" lon="6.13775">
        <ele>225.2</ele>
        <time>2020-11-29T15:22:44Z</time>
      </trkpt>
      <trkpt lat="47.66157" lon="6.13782">
        <ele>225.4</ele>
        <time>2020-11-29T15:22:46Z</time>
      </trkpt>
      <trkpt lat="47.66158" lon="6.13789">
        <ele>225.6</ele>
        <time>2020-11-29T15:22:48Z</time>
      </trkpt>
      <trkpt lat="47.66159" lon="6.13799">
        <ele>225.9</ele>
        <time>2020-11-29T15:22:51Z</time>
      </trkpt>
      <trkpt lat="47.6616" lon="6.13807">
        <ele>226.1</ele>
        <time>2020-11-29T15:22:54Z</time>
      </trkpt>
      <trkpt lat="47.66162" lon="6.13815">
        <ele>226.4</ele>
        <time>2020-11-29T15:22:58Z</time>
      </trkpt>
      <trkpt lat="47.66166" lon="6.13822">
        <ele>226.7</ele>
        <time>2020-11-29T15:23:00Z</time>
      </trkpt>
      <trkpt lat="47.66169" lon="6.1383">
        <ele>227</ele>
        <time>2020-11-29T15:23:03Z</time>
      </trkpt>
      <trkpt lat="47.66172" lon="6.13837">
        <ele>227.2</ele>
        <time>2020-11-29T15:23:07Z</time>
      </trkpt>
      <trkpt lat="47.66176" lon="6.13843">
        <ele>227.3</ele>
        <time>2020-11-29T15:23:09Z</time>
      </trkpt>
      <trkpt lat="47.6618" lon="6.13849">
        <ele>227.5</ele>
        <time>2020-11-29T15:23:11Z</time>
      </trkpt>
      <trkpt lat="47.66184" lon="6.13854">
        <ele>227.7</ele>
        <time>2020-11-29T15:23:14Z</time>
      </trkpt>
      <trkpt lat="47.66188" lon="6.1386">
        <ele>227.8</ele>
        <time>2020-11-29T15:23:17Z</time>
      </trkpt>
      <trkpt lat="47.66192" lon="6.13866">
        <ele>228</ele>
        <time>2020-11-29T15:23:19Z</time>
      </trkpt>
      <trkpt lat="47.66196" lon="6.13872">
        <ele>228.2</ele>
        <time>2020-11-29T15:23:23Z</time>
      </trkpt>
      <trkpt lat="47.662" lon="6.13877">
        <ele>228.3</ele>
        <time>2020-11-29T15:23:24Z</time>
      </trkpt>
      <trkpt lat="47.66204" lon="6.13886">
        <ele>228.5</ele>
        <time>2020-11-29T15:23:27Z</time>
      </trkpt>
      <trkpt lat="47.66207" lon="6.13893">
        <ele>228.7</ele>
        <time>2020-11-29T15:23:31Z</time>
      </trkpt>
      <trkpt lat="47.6621" lon="6.139">
        <ele>228.8</ele>
        <time>2020-11-29T15:23:32Z</time>
      </trkpt>
      <trkpt lat="47.66213" lon="6.13909">
        <ele>229</ele>
        <time>2020-11-29T15:23:35Z</time>
      </trkpt>
      <trkpt lat="47.66216" lon="6.13916">
        <ele>229.2</ele>
        <time>2020-11-29T15:23:37Z</time>
      </trkpt>
      <trkpt lat="47.66219" lon="6.13924">
        <ele>229.4</ele>
        <time>2020-11-29T15:23:40Z</time>
      </trkpt>
      <trkpt lat="47.66221" lon="6.13931">
        <ele>229.6</ele>
        <time>2020-11-29T15:23:42Z</time>
      </trkpt>
      <trkpt lat="47.66224" lon="6.1394">
        <ele>229.8</ele>
        <time>2020-11-29T15:23:45Z</time>
      </trkpt>
      <trkpt lat="47.66226" lon="6.13946">
        <ele>230</ele>
        <time>2020-11-29T15:23:46Z</time>
      </trkpt>
      <trkpt lat="47.6623" lon="6.13955">
        <ele>230.3</ele>
        <time>2020-11-29T15:23:48Z</time>
      </trkpt>
      <trkpt lat="47.66233" lon="6.13965">
        <ele>230.6</ele>
        <time>2020-11-29T15:23:51Z</time>
      </trkpt>
      <trkpt lat="47.66237" lon="6.13973">
        <ele>230.9</ele>
        <time>2020-11-29T15:23:54Z</time>
      </trkpt>
      <trkpt lat="47.66239" lon="6.1398">
        <ele>231.2</ele>
        <time>2020-11-29T15:23:57Z</time>
      </trkpt>
      <trkpt lat="47.66242" lon="6.13986">
        <ele>231.4</ele>
        <time>2020-11-29T15:24:00Z</time>
      </trkpt>
      <trkpt lat="47.66246" lon="6.13995">
        <ele>231.7</ele>
        <time>2020-11-29T15:24:05Z</time>
      </trkpt>
      <trkpt lat="47.66249" lon="6.14001">
        <ele>232</ele>
        <time>2020-11-29T15:24:08Z</time>
      </trkpt>
      <trkpt lat="47.66252" lon="6.14008">
        <ele>232.1</ele>
        <time>2020-11-29T15:24:10Z</time>
      </trkpt>
      <trkpt lat="47.66255" lon="6.14014">
        <ele>232.2</ele>
        <time>2020-11-29T15:24:14Z</time>
      </trkpt>
      <trkpt lat="47.6626" lon="6.14021">
        <ele>232.4</ele>
        <time>2020-11-29T15:24:16Z</time>
      </trkpt>
      <trkpt lat="47.66263" lon="6.14027">
        <ele>232.6</ele>
        <time>2020-11-29T15:24:19Z</time>
      </trkpt>
      <trkpt lat="47.66267" lon="6.14034">
        <ele>232.8</ele>
        <time>2020-11-29T15:24:22Z</time>
      </trkpt>
      <trkpt lat="47.6627" lon="6.1404">
        <ele>232.9</ele>
        <time>2020-11-29T15:24:25Z</time>
      </trkpt>
      <trkpt lat="47.66273" lon="6.14045">
        <ele>233.1</ele>
        <time>2020-11-29T15:24:27Z</time>
      </trkpt>
      <trkpt lat="47.66276" lon="6.14051">
        <ele>233.3</ele>
        <time>2020-11-29T15:24:30Z</time>
      </trkpt>
      <trkpt lat="47.6628" lon="6.14056">
        <ele>233.5</ele>
        <time>2020-11-29T15:24:32Z</time>
      </trkpt>
      <trkpt lat="47.66284" lon="6.14063">
        <ele>233.8</ele>
        <time>2020-11-29T15:24:35Z</time>
      </trkpt>
      <trkpt lat="47.66287" lon="6.14068">
        <ele>234.1</ele>
        <time>2020-11-29T15:24:38Z</time>
      </trkpt>
      <trkpt lat="47.66291" lon="6.14072">
        <ele>234.3</ele>
        <time>2020-11-29T15:24:40Z</time>
      </trkpt>
      <trkpt lat="47.66294" lon="6.14077">
        <ele>234.6</ele>
        <time>2020-11-29T15:24:42Z</time>
      </trkpt>
      <trkpt lat="47.66297" lon="6.14083">
        <ele>234.8</ele>
        <time>2020-11-29T15:24:46Z</time>
      </trkpt>
      <trkpt lat="47.66301" lon="6.1409">
        <ele>235.1</ele>
        <time>2020-11-29T15:24:48Z</time>
      </trkpt>
      <trkpt lat="47.66306" lon="6.14096">
        <ele>235.4</ele>
        <time>2020-11-29T15:24:51Z</time>
      </trkpt>
      <trkpt lat="47.6631" lon="6.14103">
        <ele>235.7</ele>
        <time>2020-11-29T15:24:54Z</time>
      </trkpt>
      <trkpt lat="47.66314" lon="6.14108">
        <ele>235.9</ele>
        <time>2020-11-29T15:24:57Z</time>
      </trkpt>
      <trkpt lat="47.66318" lon="6.14113">
        <ele>236.2</ele>
        <time>2020-11-29T15:24:59Z</time>
      </trkpt>
      <trkpt lat="47.66323" lon="6.14119">
        <ele>236.4</ele>
        <time>2020-11-29T15:25:02Z</time>
      </trkpt>
      <trkpt lat="47.66327" lon="6.14124">
        <ele>236.7</ele>
        <time>2020-11-29T15:25:05Z</time>
      </trkpt>
      <trkpt lat="47.66332" lon="6.1413">
        <ele>236.9</ele>
        <time>2020-11-29T15:25:08Z</time>
      </trkpt>
      <trkpt lat="47.66337" lon="6.14136">
        <ele>237.1</ele>
        <time>2020-11-29T15:25:11Z</time>
      </trkpt>
      <trkpt lat="47.66341" lon="6.14141">
        <ele>237.3</ele>
        <time>2020-11-29T15:25:15Z</time>
      </trkpt>
      <trkpt lat="47.66345" lon="6.14145">
        <ele>237.5</ele>
        <time>2020-11-29T15:25:16Z</time>
      </trkpt>
      <trkpt lat="47.66349" lon="6.1415">
        <ele>237.7</ele>
        <time>2020-11-29T15:25:19Z</time>
      </trkpt>
      <trkpt lat="47.66354" lon="6.14155">
        <ele>237.9</ele>
        <time>2020-11-29T15:25:22Z</time>
      </trkpt>
      <trkpt lat="47.66358" lon="6.14159">
        <ele>238.1</ele>
        <time>2020-11-29T15:25:25Z</time>
      </trkpt>
      <trkpt lat="47.66363" lon="6.14165">
        <ele>238.4</ele>
        <time>2020-11-29T15:25:28Z</time>
      </trkpt>
      <trkpt lat="47.66367" lon="6.14171">
        <ele>238.6</ele>
        <time>2020-11-29T15:25:32Z</time>
      </trkpt>
      <trkpt lat="47.66371" lon="6.14175">
        <ele>238.8</ele>
        <time>2020-11-29T15:25:34Z</time>
      </trkpt>
      <trkpt lat="47.66374" lon="6.1418">
        <ele>239</ele>
        <time>2020-11-29T15:25:37Z</time>
      </trkpt>
      <trkpt lat="47.66378" lon="6.14186">
        <ele>239.3</ele>
        <time>2020-11-29T15:25:41Z</time>
      </trkpt>
      <trkpt lat="47.66381" lon="6.14192">
        <ele>239.6</ele>
        <time>2020-11-29T15:25:45Z</time>
      </trkpt>
      <trkpt lat="47.66384" lon="6.14198">
        <ele>239.9</ele>
        <time>2020-11-29T15:25:49Z</time>
      </trkpt>
      <trkpt lat="47.66389" lon="6.14204">
        <ele>240.2</ele>
        <time>2020-11-29T15:25:53Z</time>
      </trkpt>
      <trkpt lat="47.66392" lon="6.14211">
        <ele>240.6</ele>
        <time>2020-11-29T15:25:57Z</time>
      </trkpt>
      <trkpt lat="47.66395" lon="6.14218">
        <ele>241</ele>
        <time>2020-11-29T15:26:01Z</time>
      </trkpt>
      <trkpt lat="47.66399" lon="6.14224">
        <ele>241.4</ele>
        <time>2020-11-29T15:26:05Z</time>
      </trkpt>
      <trkpt lat="47.66402" lon="6.14229">
        <ele>241.9</ele>
        <time>2020-11-29T15:26:09Z</time>
      </trkpt>
      <trkpt lat="47.66406" lon="6.14235">
        <ele>242.4</ele>
        <time>2020-11-29T15:26:12Z</time>
      </trkpt>
      <trkpt lat="47.6641" lon="6.1424">
        <ele>243</ele>
        <time>2020-11-29T15:26:15Z</time>
      </trkpt>
      <trkpt lat="47.66414" lon="6.14245">
        <ele>243.5</ele>
        <time>2020-11-29T15:26:18Z</time>
      </trkpt>
      <trkpt lat="47.66417" lon="6.14249">
        <ele>244</ele>
        <time>2020-11-29T15:26:21Z</time>
      </trkpt>
      <trkpt lat="47.6642" lon="6.14255">
        <ele>244.5</ele>
        <time>2020-11-29T15:26:26Z</time>
      </trkpt>
      <trkpt lat="47.66424" lon="6.14261">
        <ele>245</ele>
        <time>2020-11-29T15:26:31Z</time>
      </trkpt>
      <trkpt lat="47.66428" lon="6.14266">
        <ele>245.4</ele>
        <time>2020-11-29T15:26:33Z</time>
      </trkpt>
      <trkpt lat="47.66432" lon="6.14271">
        <ele>246</ele>
        <time>2020-11-29T15:26:38Z</time>
      </trkpt>
      <trkpt lat="47.66435" lon="6.14278">
        <ele>246.5</ele>
        <time>2020-11-29T15:26:41Z</time>
      </trkpt>
      <trkpt lat="47.66439" lon="6.14283">
        <ele>246.9</ele>
        <time>2020-11-29T15:26:44Z</time>
      </trkpt>
      <trkpt lat="47.66443" lon="6.14288">
        <ele>247.4</ele>
        <time>2020-11-29T15:26:48Z</time>
      </trkpt>
      <trkpt lat="47.66446" lon="6.14292">
        <ele>247.9</ele>
        <time>2020-11-29T15:26:52Z</time>
      </trkpt>
      <trkpt lat="47.6645" lon="6.14297">
        <ele>248.3</ele>
        <time>2020-11-29T15:26:57Z</time>
      </trkpt>
      <trkpt lat="47.66453" lon="6.14302">
        <ele>248.7</ele>
        <time>2020-11-29T15:26:59Z</time>
      </trkpt>
      <trkpt lat="47.66456" lon="6.14308">
        <ele>249.2</ele>
        <time>2020-11-29T15:27:03Z</time>
      </trkpt>
      <trkpt lat="47.66459" lon="6.14314">
        <ele>249.6</ele>
        <time>2020-11-29T15:27:07Z</time>
      </trkpt>
      <trkpt lat="47.66463" lon="6.14318">
        <ele>250.1</ele>
        <time>2020-11-29T15:27:11Z</time>
      </trkpt>
      <trkpt lat="47.66466" lon="6.14324">
        <ele>250.5</ele>
        <time>2020-11-29T15:27:15Z</time>
      </trkpt>
      <trkpt lat="47.6647" lon="6.14329">
        <ele>251.1</ele>
        <time>2020-11-29T15:27:19Z</time>
      </trkpt>
      <trkpt lat="47.66475" lon="6.14336">
        <ele>251.6</ele>
        <time>2020-11-29T15:27:23Z</time>
      </trkpt>
      <trkpt lat="47.6648" lon="6.14339">
        <ele>252</ele>
        <time>2020-11-29T15:27:28Z</time>
      </trkpt>
      <trkpt lat="47.66482" lon="6.14347">
        <ele>252</ele>
        <time>2020-11-29T15:27:32Z</time>
      </trkpt>
      <trkpt lat="47.66486" lon="6.14352">
        <ele>252.3</ele>
        <time>2020-11-29T15:27:36Z</time>
      </trkpt>
      <trkpt lat="47.6649" lon="6.14359">
        <ele>252.5</ele>
        <time>2020-11-29T15:27:40Z</time>
      </trkpt>
      <trkpt lat="47.66494" lon="6.14363">
        <ele>252.8</ele>
        <time>2020-11-29T15:27:43Z</time>
      </trkpt>
      <trkpt lat="47.66497" lon="6.14369">
        <ele>252.9</ele>
        <time>2020-11-29T15:27:48Z</time>
      </trkpt>
      <trkpt lat="47.66501" lon="6.14373">
        <ele>253.1</ele>
        <time>2020-11-29T15:27:52Z</time>
      </trkpt>
      <trkpt lat="47.66505" lon="6.14379">
        <ele>253</ele>
        <time>2020-11-29T15:27:57Z</time>
      </trkpt>
      <trkpt lat="47.66509" lon="6.14384">
        <ele>253</ele>
        <time>2020-11-29T15:28:00Z</time>
      </trkpt>
      <trkpt lat="47.66514" lon="6.14389">
        <ele>253</ele>
        <time>2020-11-29T15:28:04Z</time>
      </trkpt>
      <trkpt lat="47.66517" lon="6.14394">
        <ele>253.1</ele>
        <time>2020-11-29T15:28:07Z</time>
      </trkpt>
      <trkpt lat="47.66521" lon="6.144">
        <ele>253.1</ele>
        <time>2020-11-29T15:28:11Z</time>
      </trkpt>
      <trkpt lat="47.66525" lon="6.14405">
        <ele>253.1</ele>
        <time>2020-11-29T15:28:14Z</time>
      </trkpt>
      <trkpt lat="47.66529" lon="6.14412">
        <ele>253.1</ele>
        <time>2020-11-29T15:28:18Z</time>
      </trkpt>
      <trkpt lat="47.66532" lon="6.14418">
        <ele>253.2</ele>
        <time>2020-11-29T15:28:22Z</time>
      </trkpt>
      <trkpt lat="47.66535" lon="6.14424">
        <ele>253.3</ele>
        <time>2020-11-29T15:28:25Z</time>
      </trkpt>
      <trkpt lat="47.66539" lon="6.14429">
        <ele>253.5</ele>
        <time>2020-11-29T15:28:28Z</time>
      </trkpt>
      <trkpt lat="47.66543" lon="6.14435">
        <ele>253.7</ele>
        <time>2020-11-29T15:28:32Z</time>
      </trkpt>
      <trkpt lat="47.66544" lon="6.14444">
        <ele>253.8</ele>
        <time>2020-11-29T15:28:36Z</time>
      </trkpt>
      <trkpt lat="47.66546" lon="6.14451">
        <ele>253.9</ele>
        <time>2020-11-29T15:28:39Z</time>
      </trkpt>
      <trkpt lat="47.66548" lon="6.14459">
        <ele>254</ele>
        <time>2020-11-29T15:28:42Z</time>
      </trkpt>
      <trkpt lat="47.66551" lon="6.14468">
        <ele>254.2</ele>
        <time>2020-11-29T15:28:45Z</time>
      </trkpt>
      <trkpt lat="47.66555" lon="6.14476">
        <ele>254.4</ele>
        <time>2020-11-29T15:28:48Z</time>
      </trkpt>
      <trkpt lat="47.66558" lon="6.14483">
        <ele>254.6</ele>
        <time>2020-11-29T15:28:51Z</time>
      </trkpt>
      <trkpt lat="47.6656" lon="6.14491">
        <ele>254.8</ele>
        <time>2020-11-29T15:28:54Z</time>
      </trkpt>
      <trkpt lat="47.66562" lon="6.14498">
        <ele>255</ele>
        <time>2020-11-29T15:28:56Z</time>
      </trkpt>
      <trkpt lat="47.66565" lon="6.14504">
        <ele>255</ele>
        <time>2020-11-29T15:28:58Z</time>
      </trkpt>
      <trkpt lat="47.66567" lon="6.1451">
        <ele>254.9</ele>
        <time>2020-11-29T15:29:00Z</time>
      </trkpt>
      <trkpt lat="47.66569" lon="6.14517">
        <ele>254.9</ele>
        <time>2020-11-29T15:29:02Z</time>
      </trkpt>
      <trkpt lat="47.6657" lon="6.14524">
        <ele>254.7</ele>
        <time>2020-11-29T15:29:04Z</time>
      </trkpt>
      <trkpt lat="47.66571" lon="6.14531">
        <ele>254.6</ele>
        <time>2020-11-29T15:29:06Z</time>
      </trkpt>
      <trkpt lat="47.66573" lon="6.1454">
        <ele>254.5</ele>
        <time>2020-11-29T15:29:08Z</time>
      </trkpt>
      <trkpt lat="47.66574" lon="6.14548">
        <ele>254.3</ele>
        <time>2020-11-29T15:29:10Z</time>
      </trkpt>
      <trkpt lat="47.66575" lon="6.14557">
        <ele>254.2</ele>
        <time>2020-11-29T15:29:13Z</time>
      </trkpt>
      <trkpt lat="47.66576" lon="6.14567">
        <ele>254</ele>
        <time>2020-11-29T15:29:14Z</time>
      </trkpt>
      <trkpt lat="47.66578" lon="6.14575">
        <ele>253.9</ele>
        <time>2020-11-29T15:29:15Z</time>
      </trkpt>
      <trkpt lat="47.6658" lon="6.14587">
        <ele>253.8</ele>
        <time>2020-11-29T15:29:18Z</time>
      </trkpt>
      <trkpt lat="47.66581" lon="6.14596">
        <ele>253.7</ele>
        <time>2020-11-29T15:29:19Z</time>
      </trkpt>
      <trkpt lat="47.66582" lon="6.14609">
        <ele>253.6</ele>
        <time>2020-11-29T15:29:22Z</time>
      </trkpt>
      <trkpt lat="47.66584" lon="6.1462">
        <ele>253.6</ele>
        <time>2020-11-29T15:29:23Z</time>
      </trkpt>
      <trkpt lat="47.66586" lon="6.14629">
        <ele>253.5</ele>
        <time>2020-11-29T15:29:25Z</time>
      </trkpt>
      <trkpt lat="47.66587" lon="6.14637">
        <ele>253.4</ele>
        <time>2020-11-29T15:29:27Z</time>
      </trkpt>
      <trkpt lat="47.66588" lon="6.14645">
        <ele>253.4</ele>
        <time>2020-11-29T15:29:29Z</time>
      </trkpt>
      <trkpt lat="47.6659" lon="6.14653">
        <ele>253.3</ele>
        <time>2020-11-29T15:29:30Z</time>
      </trkpt>
      <trkpt lat="47.66592" lon="6.1466">
        <ele>253.3</ele>
        <time>2020-11-29T15:29:32Z</time>
      </trkpt>
      <trkpt lat="47.66594" lon="6.14667">
        <ele>253.3</ele>
        <time>2020-11-29T15:29:33Z</time>
      </trkpt>
      <trkpt lat="47.66596" lon="6.14676">
        <ele>253.4</ele>
        <time>2020-11-29T15:29:36Z</time>
      </trkpt>
      <trkpt lat="47.66599" lon="6.14685">
        <ele>253.6</ele>
        <time>2020-11-29T15:29:37Z</time>
      </trkpt>
      <trkpt lat="47.66602" lon="6.14692">
        <ele>253.8</ele>
        <time>2020-11-29T15:29:39Z</time>
      </trkpt>
      <trkpt lat="47.66606" lon="6.14699">
        <ele>254</ele>
        <time>2020-11-29T15:29:41Z</time>
      </trkpt>
      <trkpt lat="47.66608" lon="6.14705">
        <ele>254.2</ele>
        <time>2020-11-29T15:29:44Z</time>
      </trkpt>
      <trkpt lat="47.66613" lon="6.14711">
        <ele>254.4</ele>
        <time>2020-11-29T15:29:46Z</time>
      </trkpt>
      <trkpt lat="47.66618" lon="6.14718">
        <ele>254.7</ele>
        <time>2020-11-29T15:29:48Z</time>
      </trkpt>
      <trkpt lat="47.66623" lon="6.14724">
        <ele>255</ele>
        <time>2020-11-29T15:29:50Z</time>
      </trkpt>
      <trkpt lat="47.66628" lon="6.14731">
        <ele>255.3</ele>
        <time>2020-11-29T15:29:53Z</time>
      </trkpt>
      <trkpt lat="47.66633" lon="6.14737">
        <ele>255.5</ele>
        <time>2020-11-29T15:29:56Z</time>
      </trkpt>
      <trkpt lat="47.66637" lon="6.14742">
        <ele>255.8</ele>
        <time>2020-11-29T15:30:00Z</time>
      </trkpt>
      <trkpt lat="47.66641" lon="6.14748">
        <ele>256</ele>
        <time>2020-11-29T15:30:01Z</time>
      </trkpt>
      <trkpt lat="47.66644" lon="6.14753">
        <ele>256.1</ele>
        <time>2020-11-29T15:30:04Z</time>
      </trkpt>
      <trkpt lat="47.66649" lon="6.14757">
        <ele>256.2</ele>
        <time>2020-11-29T15:30:06Z</time>
      </trkpt>
      <trkpt lat="47.66654" lon="6.14763">
        <ele>256.2</ele>
        <time>2020-11-29T15:30:09Z</time>
      </trkpt>
      <trkpt lat="47.66659" lon="6.14768">
        <ele>256.3</ele>
        <time>2020-11-29T15:30:11Z</time>
      </trkpt>
      <trkpt lat="47.66662" lon="6.14772">
        <ele>256.3</ele>
        <time>2020-11-29T15:30:13Z</time>
      </trkpt>
      <trkpt lat="47.66668" lon="6.14778">
        <ele>256.4</ele>
        <time>2020-11-29T15:30:16Z</time>
      </trkpt>
      <trkpt lat="47.66675" lon="6.14785">
        <ele>256.3</ele>
        <time>2020-11-29T15:30:18Z</time>
      </trkpt>
      <trkpt lat="47.66673" lon="6.14795">
        <ele>256.1</ele>
        <time>2020-11-29T15:30:22Z</time>
      </trkpt>
      <trkpt lat="47.66671" lon="6.14803">
        <ele>255.8</ele>
        <time>2020-11-29T15:30:24Z</time>
      </trkpt>
      <trkpt lat="47.66668" lon="6.14812">
        <ele>255.6</ele>
        <time>2020-11-29T15:30:26Z</time>
      </trkpt>
      <trkpt lat="47.66666" lon="6.14819">
        <ele>255.3</ele>
        <time>2020-11-29T15:30:29Z</time>
      </trkpt>
      <trkpt lat="47.66663" lon="6.1483">
        <ele>255</ele>
        <time>2020-11-29T15:30:31Z</time>
      </trkpt>
      <trkpt lat="47.6666" lon="6.14838">
        <ele>254.6</ele>
        <time>2020-11-29T15:30:33Z</time>
      </trkpt>
      <trkpt lat="47.66654" lon="6.14852">
        <ele>254.1</ele>
        <time>2020-11-29T15:30:35Z</time>
      </trkpt>
      <trkpt lat="47.66651" lon="6.14862">
        <ele>253.7</ele>
        <time>2020-11-29T15:30:36Z</time>
      </trkpt>
      <trkpt lat="47.66647" lon="6.14873">
        <ele>253.2</ele>
        <time>2020-11-29T15:30:39Z</time>
      </trkpt>
      <trkpt lat="47.66642" lon="6.14887">
        <ele>252.6</ele>
        <time>2020-11-29T15:30:41Z</time>
      </trkpt>
      <trkpt lat="47.66636" lon="6.14903">
        <ele>251.9</ele>
        <time>2020-11-29T15:30:42Z</time>
      </trkpt>
      <trkpt lat="47.66631" lon="6.14916">
        <ele>251.3</ele>
        <time>2020-11-29T15:30:45Z</time>
      </trkpt>
      <trkpt lat="47.66621" lon="6.14938">
        <ele>250.2</ele>
        <time>2020-11-29T15:30:46Z</time>
      </trkpt>
      <trkpt lat="47.66617" lon="6.14945">
        <ele>249.7</ele>
        <time>2020-11-29T15:30:47Z</time>
      </trkpt>
      <trkpt lat="47.66613" lon="6.14953">
        <ele>249.3</ele>
        <time>2020-11-29T15:30:48Z</time>
      </trkpt>
      <trkpt lat="47.66608" lon="6.14961">
        <ele>248.7</ele>
        <time>2020-11-29T15:30:49Z</time>
      </trkpt>
      <trkpt lat="47.66603" lon="6.14969">
        <ele>248.2</ele>
        <time>2020-11-29T15:30:50Z</time>
      </trkpt>
      <trkpt lat="47.66598" lon="6.14978">
        <ele>247.6</ele>
        <time>2020-11-29T15:30:51Z</time>
      </trkpt>
      <trkpt lat="47.66592" lon="6.14986">
        <ele>247</ele>
        <time>2020-11-29T15:30:52Z</time>
      </trkpt>
      <trkpt lat="47.66587" lon="6.14994">
        <ele>246.5</ele>
        <time>2020-11-29T15:30:53Z</time>
      </trkpt>
      <trkpt lat="47.66583" lon="6.15001">
        <ele>246</ele>
        <time>2020-11-29T15:30:54Z</time>
      </trkpt>
      <trkpt lat="47.66578" lon="6.15009">
        <ele>245.8</ele>
        <time>2020-11-29T15:30:55Z</time>
      </trkpt>
      <trkpt lat="47.66575" lon="6.15015">
        <ele>245.7</ele>
        <time>2020-11-29T15:30:56Z</time>
      </trkpt>
      <trkpt lat="47.66572" lon="6.15021">
        <ele>245.6</ele>
        <time>2020-11-29T15:30:57Z</time>
      </trkpt>
      <trkpt lat="47.66568" lon="6.15028">
        <ele>245.4</ele>
        <time>2020-11-29T15:30:58Z</time>
      </trkpt>
      <trkpt lat="47.66565" lon="6.15034">
        <ele>245.3</ele>
        <time>2020-11-29T15:30:59Z</time>
      </trkpt>
      <trkpt lat="47.66562" lon="6.15038">
        <ele>245.1</ele>
        <time>2020-11-29T15:31:00Z</time>
      </trkpt>
      <trkpt lat="47.66558" lon="6.15042">
        <ele>244.8</ele>
        <time>2020-11-29T15:31:01Z</time>
      </trkpt>
      <trkpt lat="47.66553" lon="6.15044">
        <ele>244.5</ele>
        <time>2020-11-29T15:31:02Z</time>
      </trkpt>
      <trkpt lat="47.66548" lon="6.15045">
        <ele>244.2</ele>
        <time>2020-11-29T15:31:03Z</time>
      </trkpt>
      <trkpt lat="47.66543" lon="6.15045">
        <ele>243.8</ele>
        <time>2020-11-29T15:31:04Z</time>
      </trkpt>
      <trkpt lat="47.66537" lon="6.15045">
        <ele>243.4</ele>
        <time>2020-11-29T15:31:05Z</time>
      </trkpt>
      <trkpt lat="47.66532" lon="6.15044">
        <ele>243.1</ele>
        <time>2020-11-29T15:31:06Z</time>
      </trkpt>
      <trkpt lat="47.66527" lon="6.15045">
        <ele>242.7</ele>
        <time>2020-11-29T15:31:07Z</time>
      </trkpt>
      <trkpt lat="47.66521" lon="6.15045">
        <ele>242.4</ele>
        <time>2020-11-29T15:31:08Z</time>
      </trkpt>
      <trkpt lat="47.66516" lon="6.15045">
        <ele>242</ele>
        <time>2020-11-29T15:31:09Z</time>
      </trkpt>
      <trkpt lat="47.66511" lon="6.15046">
        <ele>241.7</ele>
        <time>2020-11-29T15:31:10Z</time>
      </trkpt>
      <trkpt lat="47.66506" lon="6.15046">
        <ele>241.3</ele>
        <time>2020-11-29T15:31:11Z</time>
      </trkpt>
      <trkpt lat="47.66501" lon="6.15045">
        <ele>241</ele>
        <time>2020-11-29T15:31:12Z</time>
      </trkpt>
      <trkpt lat="47.66497" lon="6.15044">
        <ele>240.9</ele>
        <time>2020-11-29T15:31:13Z</time>
      </trkpt>
      <trkpt lat="47.66488" lon="6.15041">
        <ele>240.9</ele>
        <time>2020-11-29T15:31:15Z</time>
      </trkpt>
      <trkpt lat="47.6648" lon="6.15037">
        <ele>240.9</ele>
        <time>2020-11-29T15:31:17Z</time>
      </trkpt>
      <trkpt lat="47.66473" lon="6.15032">
        <ele>241</ele>
        <time>2020-11-29T15:31:19Z</time>
      </trkpt>
      <trkpt lat="47.66466" lon="6.15029">
        <ele>241</ele>
        <time>2020-11-29T15:31:21Z</time>
      </trkpt>
      <trkpt lat="47.66459" lon="6.15028">
        <ele>241</ele>
        <time>2020-11-29T15:31:23Z</time>
      </trkpt>
      <trkpt lat="47.66454" lon="6.15034">
        <ele>240.7</ele>
        <time>2020-11-29T15:31:26Z</time>
      </trkpt>
      <trkpt lat="47.66447" lon="6.15036">
        <ele>240.6</ele>
        <time>2020-11-29T15:31:27Z</time>
      </trkpt>
      <trkpt lat="47.66441" lon="6.15036">
        <ele>240.5</ele>
        <time>2020-11-29T15:31:29Z</time>
      </trkpt>
      <trkpt lat="47.66434" lon="6.15037">
        <ele>240.4</ele>
        <time>2020-11-29T15:31:31Z</time>
      </trkpt>
      <trkpt lat="47.6643" lon="6.15039">
        <ele>240.3</ele>
        <time>2020-11-29T15:31:32Z</time>
      </trkpt>
      <trkpt lat="47.66422" lon="6.15041">
        <ele>240.1</ele>
        <time>2020-11-29T15:31:33Z</time>
      </trkpt>
      <trkpt lat="47.66415" lon="6.15042">
        <ele>239.9</ele>
        <time>2020-11-29T15:31:35Z</time>
      </trkpt>
      <trkpt lat="47.66409" lon="6.15044">
        <ele>239.8</ele>
        <time>2020-11-29T15:31:37Z</time>
      </trkpt>
      <trkpt lat="47.664" lon="6.15046">
        <ele>239.6</ele>
        <time>2020-11-29T15:31:40Z</time>
      </trkpt>
      <trkpt lat="47.66394" lon="6.15047">
        <ele>239.5</ele>
        <time>2020-11-29T15:31:41Z</time>
      </trkpt>
      <trkpt lat="47.66388" lon="6.15048">
        <ele>239.4</ele>
        <time>2020-11-29T15:31:43Z</time>
      </trkpt>
      <trkpt lat="47.66382" lon="6.1505">
        <ele>239.3</ele>
        <time>2020-11-29T15:31:44Z</time>
      </trkpt>
      <trkpt lat="47.66375" lon="6.1505">
        <ele>239.2</ele>
        <time>2020-11-29T15:31:46Z</time>
      </trkpt>
      <trkpt lat="47.66368" lon="6.1505">
        <ele>239.1</ele>
        <time>2020-11-29T15:31:49Z</time>
      </trkpt>
      <trkpt lat="47.66356" lon="6.15052">
        <ele>239</ele>
        <time>2020-11-29T15:31:50Z</time>
      </trkpt>
      <trkpt lat="47.66349" lon="6.15051">
        <ele>238.9</ele>
        <time>2020-11-29T15:31:52Z</time>
      </trkpt>
      <trkpt lat="47.66343" lon="6.15051">
        <ele>238.9</ele>
        <time>2020-11-29T15:31:56Z</time>
      </trkpt>
      <trkpt lat="47.66333" lon="6.15049">
        <ele>238.8</ele>
        <time>2020-11-29T15:31:58Z</time>
      </trkpt>
      <trkpt lat="47.66328" lon="6.15048">
        <ele>238.7</ele>
        <time>2020-11-29T15:32:00Z</time>
      </trkpt>
      <trkpt lat="47.66322" lon="6.15047">
        <ele>238.5</ele>
        <time>2020-11-29T15:32:01Z</time>
      </trkpt>
      <trkpt lat="47.66316" lon="6.15045">
        <ele>238.3</ele>
        <time>2020-11-29T15:32:03Z</time>
      </trkpt>
      <trkpt lat="47.66305" lon="6.15043">
        <ele>238</ele>
        <time>2020-11-29T15:32:06Z</time>
      </trkpt>
      <trkpt lat="47.66298" lon="6.15042">
        <ele>237.7</ele>
        <time>2020-11-29T15:32:07Z</time>
      </trkpt>
      <trkpt lat="47.66292" lon="6.15041">
        <ele>237.5</ele>
        <time>2020-11-29T15:32:09Z</time>
      </trkpt>
      <trkpt lat="47.66285" lon="6.15039">
        <ele>237.3</ele>
        <time>2020-11-29T15:32:10Z</time>
      </trkpt>
      <trkpt lat="47.66277" lon="6.15037">
        <ele>237</ele>
        <time>2020-11-29T15:32:10Z</time>
      </trkpt>
      <trkpt lat="47.66272" lon="6.15036">
        <ele>236.8</ele>
        <time>2020-11-29T15:32:11Z</time>
      </trkpt>
      <trkpt lat="47.66266" lon="6.15035">
        <ele>236.6</ele>
        <time>2020-11-29T15:32:12Z</time>
      </trkpt>
      <trkpt lat="47.6626" lon="6.15034">
        <ele>236.4</ele>
        <time>2020-11-29T15:32:13Z</time>
      </trkpt>
      <trkpt lat="47.66255" lon="6.15033">
        <ele>236.2</ele>
        <time>2020-11-29T15:32:14Z</time>
      </trkpt>
      <trkpt lat="47.66249" lon="6.15032">
        <ele>235.9</ele>
        <time>2020-11-29T15:32:15Z</time>
      </trkpt>
      <trkpt lat="47.66243" lon="6.15031">
        <ele>235.6</ele>
        <time>2020-11-29T15:32:16Z</time>
      </trkpt>
      <trkpt lat="47.66237" lon="6.1503">
        <ele>235.2</ele>
        <time>2020-11-29T15:32:17Z</time>
      </trkpt>
      <trkpt lat="47.66231" lon="6.15029">
        <ele>234.9</ele>
        <time>2020-11-29T15:32:18Z</time>
      </trkpt>
      <trkpt lat="47.66225" lon="6.15028">
        <ele>234.5</ele>
        <time>2020-11-29T15:32:19Z</time>
      </trkpt>
      <trkpt lat="47.66219" lon="6.15027">
        <ele>234.1</ele>
        <time>2020-11-29T15:32:20Z</time>
      </trkpt>
      <trkpt lat="47.66212" lon="6.15026">
        <ele>233.7</ele>
        <time>2020-11-29T15:32:21Z</time>
      </trkpt>
      <trkpt lat="47.66206" lon="6.15025">
        <ele>233.3</ele>
        <time>2020-11-29T15:32:22Z</time>
      </trkpt>
      <trkpt lat="47.66199" lon="6.15023">
        <ele>232.9</ele>
        <time>2020-11-29T15:32:23Z</time>
      </trkpt>
      <trkpt lat="47.66192" lon="6.15023">
        <ele>232.5</ele>
        <time>2020-11-29T15:32:24Z</time>
      </trkpt>
      <trkpt lat="47.66185" lon="6.15021">
        <ele>232.1</ele>
        <time>2020-11-29T15:32:25Z</time>
      </trkpt>
      <trkpt lat="47.66177" lon="6.15021">
        <ele>231.6</ele>
        <time>2020-11-29T15:32:26Z</time>
      </trkpt>
      <trkpt lat="47.66169" lon="6.1502">
        <ele>231.2</ele>
        <time>2020-11-29T15:32:27Z</time>
      </trkpt>
      <trkpt lat="47.66161" lon="6.1502">
        <ele>230.7</ele>
        <time>2020-11-29T15:32:28Z</time>
      </trkpt>
      <trkpt lat="47.66153" lon="6.1502">
        <ele>230.2</ele>
        <time>2020-11-29T15:32:29Z</time>
      </trkpt>
      <trkpt lat="47.66144" lon="6.15021">
        <ele>229.7</ele>
        <time>2020-11-29T15:32:30Z</time>
      </trkpt>
      <trkpt lat="47.66136" lon="6.15021">
        <ele>229.2</ele>
        <time>2020-11-29T15:32:31Z</time>
      </trkpt>
      <trkpt lat="47.66127" lon="6.15021">
        <ele>228.7</ele>
        <time>2020-11-29T15:32:32Z</time>
      </trkpt>
      <trkpt lat="47.66118" lon="6.15021">
        <ele>228.3</ele>
        <time>2020-11-29T15:32:33Z</time>
      </trkpt>
      <trkpt lat="47.6611" lon="6.15021">
        <ele>227.7</ele>
        <time>2020-11-29T15:32:34Z</time>
      </trkpt>
      <trkpt lat="47.66101" lon="6.15022">
        <ele>227.3</ele>
        <time>2020-11-29T15:32:35Z</time>
      </trkpt>
      <trkpt lat="47.66093" lon="6.15022">
        <ele>226.8</ele>
        <time>2020-11-29T15:32:36Z</time>
      </trkpt>
      <trkpt lat="47.66084" lon="6.15022">
        <ele>226.3</ele>
        <time>2020-11-29T15:32:37Z</time>
      </trkpt>
      <trkpt lat="47.66076" lon="6.15023">
        <ele>226.1</ele>
        <time>2020-11-29T15:32:38Z</time>
      </trkpt>
      <trkpt lat="47.66067" lon="6.15023">
        <ele>225.9</ele>
        <time>2020-11-29T15:32:39Z</time>
      </trkpt>
      <trkpt lat="47.66059" lon="6.15023">
        <ele>225.8</ele>
        <time>2020-11-29T15:32:40Z</time>
      </trkpt>
      <trkpt lat="47.66051" lon="6.15023">
        <ele>225.6</ele>
        <time>2020-11-29T15:32:41Z</time>
      </trkpt>
      <trkpt lat="47.66044" lon="6.15024">
        <ele>225.5</ele>
        <time>2020-11-29T15:32:42Z</time>
      </trkpt>
      <trkpt lat="47.66036" lon="6.15024">
        <ele>225.3</ele>
        <time>2020-11-29T15:32:43Z</time>
      </trkpt>
      <trkpt lat="47.66029" lon="6.15024">
        <ele>225.2</ele>
        <time>2020-11-29T15:32:44Z</time>
      </trkpt>
      <trkpt lat="47.66023" lon="6.15024">
        <ele>225</ele>
        <time>2020-11-29T15:32:45Z</time>
      </trkpt>
      <trkpt lat="47.66016" lon="6.15024">
        <ele>224.9</ele>
        <time>2020-11-29T15:32:46Z</time>
      </trkpt>
      <trkpt lat="47.6601" lon="6.15023">
        <ele>224.8</ele>
        <time>2020-11-29T15:32:47Z</time>
      </trkpt>
      <trkpt lat="47.66004" lon="6.15023">
        <ele>224.6</ele>
        <time>2020-11-29T15:32:48Z</time>
      </trkpt>
      <trkpt lat="47.65999" lon="6.15022">
        <ele>224.6</ele>
        <time>2020-11-29T15:32:49Z</time>
      </trkpt>
      <trkpt lat="47.65993" lon="6.15022">
        <ele>224.7</ele>
        <time>2020-11-29T15:32:50Z</time>
      </trkpt>
      <trkpt lat="47.65988" lon="6.15021">
        <ele>224.9</ele>
        <time>2020-11-29T15:32:51Z</time>
      </trkpt>
      <trkpt lat="47.65984" lon="6.15021">
        <ele>225</ele>
        <time>2020-11-29T15:32:52Z</time>
      </trkpt>
      <trkpt lat="47.65979" lon="6.15021">
        <ele>225.2</ele>
        <time>2020-11-29T15:32:53Z</time>
      </trkpt>
      <trkpt lat="47.65974" lon="6.15021">
        <ele>225.3</ele>
        <time>2020-11-29T15:32:54Z</time>
      </trkpt>
      <trkpt lat="47.6597" lon="6.1502">
        <ele>225.5</ele>
        <time>2020-11-29T15:32:55Z</time>
      </trkpt>
      <trkpt lat="47.65965" lon="6.1502">
        <ele>225.6</ele>
        <time>2020-11-29T15:32:56Z</time>
      </trkpt>
      <trkpt lat="47.6596" lon="6.1502">
        <ele>225.8</ele>
        <time>2020-11-29T15:32:57Z</time>
      </trkpt>
      <trkpt lat="47.65956" lon="6.15019">
        <ele>225.9</ele>
        <time>2020-11-29T15:32:58Z</time>
      </trkpt>
      <trkpt lat="47.65951" lon="6.15019">
        <ele>226.1</ele>
        <time>2020-11-29T15:32:59Z</time>
      </trkpt>
      <trkpt lat="47.65946" lon="6.15019">
        <ele>226.2</ele>
        <time>2020-11-29T15:33:00Z</time>
      </trkpt>
      <trkpt lat="47.65941" lon="6.15019">
        <ele>226.4</ele>
        <time>2020-11-29T15:33:01Z</time>
      </trkpt>
      <trkpt lat="47.65934" lon="6.15018">
        <ele>226.7</ele>
        <time>2020-11-29T15:33:03Z</time>
      </trkpt>
      <trkpt lat="47.65926" lon="6.15018">
        <ele>226.9</ele>
        <time>2020-11-29T15:33:05Z</time>
      </trkpt>
      <trkpt lat="47.65919" lon="6.15018">
        <ele>227.1</ele>
        <time>2020-11-29T15:33:07Z</time>
      </trkpt>
      <trkpt lat="47.65913" lon="6.15019">
        <ele>227.4</ele>
        <time>2020-11-29T15:33:09Z</time>
      </trkpt>
      <trkpt lat="47.65914" lon="6.15028">
        <ele>227.4</ele>
        <time>2020-11-29T15:33:12Z</time>
      </trkpt>
      <trkpt lat="47.65908" lon="6.15025">
        <ele>227.6</ele>
        <time>2020-11-29T15:33:14Z</time>
      </trkpt>
      <trkpt lat="47.65903" lon="6.15023">
        <ele>227.8</ele>
        <time>2020-11-29T15:33:15Z</time>
      </trkpt>
      <trkpt lat="47.65896" lon="6.1502">
        <ele>228.1</ele>
        <time>2020-11-29T15:33:17Z</time>
      </trkpt>
      <trkpt lat="47.65891" lon="6.15019">
        <ele>228.3</ele>
        <time>2020-11-29T15:33:19Z</time>
      </trkpt>
      <trkpt lat="47.65886" lon="6.15017">
        <ele>228.5</ele>
        <time>2020-11-29T15:33:21Z</time>
      </trkpt>
      <trkpt lat="47.65881" lon="6.15017">
        <ele>228.6</ele>
        <time>2020-11-29T15:33:22Z</time>
      </trkpt>
      <trkpt lat="47.65876" lon="6.15016">
        <ele>228.9</ele>
        <time>2020-11-29T15:33:24Z</time>
      </trkpt>
      <trkpt lat="47.65869" lon="6.15015">
        <ele>229.1</ele>
        <time>2020-11-29T15:33:26Z</time>
      </trkpt>
      <trkpt lat="47.65863" lon="6.15015">
        <ele>229.4</ele>
        <time>2020-11-29T15:33:29Z</time>
      </trkpt>
      <trkpt lat="47.65858" lon="6.15015">
        <ele>229.6</ele>
        <time>2020-11-29T15:33:31Z</time>
      </trkpt>
      <trkpt lat="47.65853" lon="6.15016">
        <ele>229.8</ele>
        <time>2020-11-29T15:33:33Z</time>
      </trkpt>
      <trkpt lat="47.65848" lon="6.15015">
        <ele>230.1</ele>
        <time>2020-11-29T15:33:35Z</time>
      </trkpt>
      <trkpt lat="47.65843" lon="6.15015">
        <ele>230.2</ele>
        <time>2020-11-29T15:33:37Z</time>
      </trkpt>
      <trkpt lat="47.65838" lon="6.15015">
        <ele>230.5</ele>
        <time>2020-11-29T15:33:39Z</time>
      </trkpt>
      <trkpt lat="47.65832" lon="6.15015">
        <ele>230.6</ele>
        <time>2020-11-29T15:33:41Z</time>
      </trkpt>
      <trkpt lat="47.65824" lon="6.15015">
        <ele>230.7</ele>
        <time>2020-11-29T15:33:44Z</time>
      </trkpt>
      <trkpt lat="47.65817" lon="6.15016">
        <ele>230.7</ele>
        <time>2020-11-29T15:33:44Z</time>
      </trkpt>
      <trkpt lat="47.6581" lon="6.15017">
        <ele>230.6</ele>
        <time>2020-11-29T15:33:46Z</time>
      </trkpt>
      <trkpt lat="47.65804" lon="6.15018">
        <ele>230.6</ele>
        <time>2020-11-29T15:33:50Z</time>
      </trkpt>
      <trkpt lat="47.65797" lon="6.15019">
        <ele>230.6</ele>
        <time>2020-11-29T15:33:52Z</time>
      </trkpt>
      <trkpt lat="47.65791" lon="6.15019">
        <ele>230.7</ele>
        <time>2020-11-29T15:33:52Z</time>
      </trkpt>
      <trkpt lat="47.65786" lon="6.15019">
        <ele>230.7</ele>
        <time>2020-11-29T15:33:55Z</time>
      </trkpt>
      <trkpt lat="47.65781" lon="6.15019">
        <ele>230.7</ele>
        <time>2020-11-29T15:33:57Z</time>
      </trkpt>
      <trkpt lat="47.65774" lon="6.1502">
        <ele>230.7</ele>
        <time>2020-11-29T15:33:57Z</time>
      </trkpt>
      <trkpt lat="47.65769" lon="6.1502">
        <ele>230.7</ele>
        <time>2020-11-29T15:34:01Z</time>
      </trkpt>
      <trkpt lat="47.65761" lon="6.15021">
        <ele>230.7</ele>
        <time>2020-11-29T15:34:03Z</time>
      </trkpt>
      <trkpt lat="47.65755" lon="6.15021">
        <ele>230.7</ele>
        <time>2020-11-29T15:34:05Z</time>
      </trkpt>
      <trkpt lat="47.65749" lon="6.15022">
        <ele>230.7</ele>
        <time>2020-11-29T15:34:05Z</time>
      </trkpt>
      <trkpt lat="47.65741" lon="6.15021">
        <ele>230.4</ele>
        <time>2020-11-29T15:34:09Z</time>
      </trkpt>
      <trkpt lat="47.65736" lon="6.15022">
        <ele>230.2</ele>
        <time>2020-11-29T15:34:11Z</time>
      </trkpt>
      <trkpt lat="47.6573" lon="6.15022">
        <ele>230</ele>
        <time>2020-11-29T15:34:11Z</time>
      </trkpt>
      <trkpt lat="47.65725" lon="6.15021">
        <ele>229.8</ele>
        <time>2020-11-29T15:34:13Z</time>
      </trkpt>
      <trkpt lat="47.65719" lon="6.15021">
        <ele>229.6</ele>
        <time>2020-11-29T15:34:15Z</time>
      </trkpt>
      <trkpt lat="47.65714" lon="6.15027">
        <ele>229.4</ele>
        <time>2020-11-29T15:34:19Z</time>
      </trkpt>
      <trkpt lat="47.65711" lon="6.15034">
        <ele>229.2</ele>
        <time>2020-11-29T15:34:20Z</time>
      </trkpt>
      <trkpt lat="47.65711" lon="6.15044">
        <ele>229.1</ele>
        <time>2020-11-29T15:34:23Z</time>
      </trkpt>
      <trkpt lat="47.65712" lon="6.15052">
        <ele>229</ele>
        <time>2020-11-29T15:34:24Z</time>
      </trkpt>
      <trkpt lat="47.65714" lon="6.1506">
        <ele>229</ele>
        <time>2020-11-29T15:34:24Z</time>
      </trkpt>
      <trkpt lat="47.65716" lon="6.15069">
        <ele>228.9</ele>
        <time>2020-11-29T15:34:27Z</time>
      </trkpt>
      <trkpt lat="47.65719" lon="6.1508">
        <ele>228.9</ele>
        <time>2020-11-29T15:34:29Z</time>
      </trkpt>
      <trkpt lat="47.65721" lon="6.15086">
        <ele>228.9</ele>
        <time>2020-11-29T15:34:31Z</time>
      </trkpt>
      <trkpt lat="47.65722" lon="6.15095">
        <ele>228.7</ele>
        <time>2020-11-29T15:34:32Z</time>
      </trkpt>
      <trkpt lat="47.65724" lon="6.15103">
        <ele>228.5</ele>
        <time>2020-11-29T15:34:32Z</time>
      </trkpt>
      <trkpt lat="47.65726" lon="6.15112">
        <ele>228.3</ele>
        <time>2020-11-29T15:34:34Z</time>
      </trkpt>
      <trkpt lat="47.65727" lon="6.1512">
        <ele>228.1</ele>
        <time>2020-11-29T15:34:37Z</time>
      </trkpt>
      <trkpt lat="47.6573" lon="6.15131">
        <ele>227.8</ele>
        <time>2020-11-29T15:34:40Z</time>
      </trkpt>
      <trkpt lat="47.65733" lon="6.15145">
        <ele>227.5</ele>
        <time>2020-11-29T15:34:43Z</time>
      </trkpt>
      <trkpt lat="47.65734" lon="6.15153">
        <ele>227.2</ele>
        <time>2020-11-29T15:34:44Z</time>
      </trkpt>
      <trkpt lat="47.65735" lon="6.15161">
        <ele>227</ele>
        <time>2020-11-29T15:34:46Z</time>
      </trkpt>
      <trkpt lat="47.65738" lon="6.15176">
        <ele>226.5</ele>
        <time>2020-11-29T15:34:49Z</time>
      </trkpt>
      <trkpt lat="47.6574" lon="6.15187">
        <ele>226.2</ele>
        <time>2020-11-29T15:34:51Z</time>
      </trkpt>
      <trkpt lat="47.65743" lon="6.15202">
        <ele>225.6</ele>
        <time>2020-11-29T15:34:53Z</time>
      </trkpt>
      <trkpt lat="47.65745" lon="6.1521">
        <ele>225.4</ele>
        <time>2020-11-29T15:34:55Z</time>
      </trkpt>
      <trkpt lat="47.65746" lon="6.1522">
        <ele>225</ele>
        <time>2020-11-29T15:34:57Z</time>
      </trkpt>
      <trkpt lat="47.65749" lon="6.15234">
        <ele>224.6</ele>
        <time>2020-11-29T15:34:57Z</time>
      </trkpt>
      <trkpt lat="47.65751" lon="6.15246">
        <ele>224.2</ele>
        <time>2020-11-29T15:35:01Z</time>
      </trkpt>
      <trkpt lat="47.65753" lon="6.15257">
        <ele>223.8</ele>
        <time>2020-11-29T15:35:02Z</time>
      </trkpt>
      <trkpt lat="47.65755" lon="6.15266">
        <ele>223.4</ele>
        <time>2020-11-29T15:35:04Z</time>
      </trkpt>
      <trkpt lat="47.6576" lon="6.15294">
        <ele>222.2</ele>
        <time>2020-11-29T15:35:04Z</time>
      </trkpt>
      <trkpt lat="47.65762" lon="6.15303">
        <ele>221.8</ele>
        <time>2020-11-29T15:35:05Z</time>
      </trkpt>
      <trkpt lat="47.65764" lon="6.15313">
        <ele>221.3</ele>
        <time>2020-11-29T15:35:06Z</time>
      </trkpt>
      <trkpt lat="47.65765" lon="6.15322">
        <ele>220.9</ele>
        <time>2020-11-29T15:35:07Z</time>
      </trkpt>
      <trkpt lat="47.65767" lon="6.15331">
        <ele>220.5</ele>
        <time>2020-11-29T15:35:08Z</time>
      </trkpt>
      <trkpt lat="47.65769" lon="6.15339">
        <ele>220.5</ele>
        <time>2020-11-29T15:35:09Z</time>
      </trkpt>
      <trkpt lat="47.65771" lon="6.15347">
        <ele>220.5</ele>
        <time>2020-11-29T15:35:10Z</time>
      </trkpt>
      <trkpt lat="47.65773" lon="6.1536">
        <ele>220.6</ele>
        <time>2020-11-29T15:35:12Z</time>
      </trkpt>
      <trkpt lat="47.65776" lon="6.15372">
        <ele>220.6</ele>
        <time>2020-11-29T15:35:14Z</time>
      </trkpt>
      <trkpt lat="47.65777" lon="6.15382">
        <ele>220.7</ele>
        <time>2020-11-29T15:35:16Z</time>
      </trkpt>
      <trkpt lat="47.65779" lon="6.15392">
        <ele>220.7</ele>
        <time>2020-11-29T15:35:18Z</time>
      </trkpt>
      <trkpt lat="47.65781" lon="6.15401">
        <ele>220.8</ele>
        <time>2020-11-29T15:35:20Z</time>
      </trkpt>
      <trkpt lat="47.65784" lon="6.15408">
        <ele>220.8</ele>
        <time>2020-11-29T15:35:25Z</time>
      </trkpt>
      <trkpt lat="47.65786" lon="6.15417">
        <ele>220.9</ele>
        <time>2020-11-29T15:35:25Z</time>
      </trkpt>
      <trkpt lat="47.65788" lon="6.15428">
        <ele>221.1</ele>
        <time>2020-11-29T15:35:29Z</time>
      </trkpt>
      <trkpt lat="47.65789" lon="6.15438">
        <ele>221.3</ele>
        <time>2020-11-29T15:35:31Z</time>
      </trkpt>
      <trkpt lat="47.65791" lon="6.15446">
        <ele>221.5</ele>
        <time>2020-11-29T15:35:33Z</time>
      </trkpt>
      <trkpt lat="47.65793" lon="6.15454">
        <ele>221.7</ele>
        <time>2020-11-29T15:35:35Z</time>
      </trkpt>
      <trkpt lat="47.65795" lon="6.15461">
        <ele>221.8</ele>
        <time>2020-11-29T15:35:35Z</time>
      </trkpt>
      <trkpt lat="47.65796" lon="6.15468">
        <ele>222</ele>
        <time>2020-11-29T15:35:40Z</time>
      </trkpt>
      <trkpt lat="47.65798" lon="6.15477">
        <ele>222.2</ele>
        <time>2020-11-29T15:35:41Z</time>
      </trkpt>
      <trkpt lat="47.658" lon="6.15486">
        <ele>222.4</ele>
        <time>2020-11-29T15:35:44Z</time>
      </trkpt>
      <trkpt lat="47.65801" lon="6.15494">
        <ele>222.5</ele>
        <time>2020-11-29T15:35:48Z</time>
      </trkpt>
      <trkpt lat="47.65803" lon="6.15501">
        <ele>222.7</ele>
        <time>2020-11-29T15:35:51Z</time>
      </trkpt>
      <trkpt lat="47.65804" lon="6.15508">
        <ele>222.9</ele>
        <time>2020-11-29T15:35:51Z</time>
      </trkpt>
      <trkpt lat="47.65806" lon="6.15518">
        <ele>223.3</ele>
        <time>2020-11-29T15:35:54Z</time>
      </trkpt>
      <trkpt lat="47.65809" lon="6.15526">
        <ele>223.6</ele>
        <time>2020-11-29T15:35:59Z</time>
      </trkpt>
      <trkpt lat="47.6581" lon="6.15534">
        <ele>223.9</ele>
        <time>2020-11-29T15:36:01Z</time>
      </trkpt>
      <trkpt lat="47.65812" lon="6.1554">
        <ele>224.2</ele>
        <time>2020-11-29T15:36:03Z</time>
      </trkpt>
      <trkpt lat="47.65813" lon="6.15547">
        <ele>224.5</ele>
        <time>2020-11-29T15:36:05Z</time>
      </trkpt>
      <trkpt lat="47.65815" lon="6.15555">
        <ele>224.8</ele>
        <time>2020-11-29T15:36:06Z</time>
      </trkpt>
      <trkpt lat="47.65817" lon="6.15564">
        <ele>225.1</ele>
        <time>2020-11-29T15:36:11Z</time>
      </trkpt>
      <trkpt lat="47.65818" lon="6.15571">
        <ele>225.4</ele>
        <time>2020-11-29T15:36:13Z</time>
      </trkpt>
      <trkpt lat="47.6582" lon="6.15579">
        <ele>225.7</ele>
        <time>2020-11-29T15:36:16Z</time>
      </trkpt>
      <trkpt lat="47.65821" lon="6.15586">
        <ele>225.9</ele>
        <time>2020-11-29T15:36:19Z</time>
      </trkpt>
      <trkpt lat="47.65823" lon="6.15593">
        <ele>226.1</ele>
        <time>2020-11-29T15:36:19Z</time>
      </trkpt>
      <trkpt lat="47.65825" lon="6.15602">
        <ele>226.3</ele>
        <time>2020-11-29T15:36:22Z</time>
      </trkpt>
      <trkpt lat="47.65826" lon="6.15609">
        <ele>226.5</ele>
        <time>2020-11-29T15:36:26Z</time>
      </trkpt>
      <trkpt lat="47.65828" lon="6.15618">
        <ele>226.7</ele>
        <time>2020-11-29T15:36:30Z</time>
      </trkpt>
      <trkpt lat="47.65829" lon="6.15625">
        <ele>226.9</ele>
        <time>2020-11-29T15:36:30Z</time>
      </trkpt>
      <trkpt lat="47.65831" lon="6.15633">
        <ele>227.1</ele>
        <time>2020-11-29T15:36:34Z</time>
      </trkpt>
      <trkpt lat="47.65832" lon="6.15643">
        <ele>227.4</ele>
        <time>2020-11-29T15:36:38Z</time>
      </trkpt>
      <trkpt lat="47.65834" lon="6.1565">
        <ele>227.6</ele>
        <time>2020-11-29T15:36:40Z</time>
      </trkpt>
      <trkpt lat="47.65834" lon="6.15659">
        <ele>227.8</ele>
        <time>2020-11-29T15:36:43Z</time>
      </trkpt>
      <trkpt lat="47.65836" lon="6.15668">
        <ele>227.9</ele>
        <time>2020-11-29T15:36:47Z</time>
      </trkpt>
      <trkpt lat="47.65838" lon="6.15676">
        <ele>228</ele>
        <time>2020-11-29T15:36:50Z</time>
      </trkpt>
      <trkpt lat="47.65839" lon="6.15684">
        <ele>228.1</ele>
        <time>2020-11-29T15:36:52Z</time>
      </trkpt>
      <trkpt lat="47.6584" lon="6.15691">
        <ele>228.1</ele>
        <time>2020-11-29T15:36:55Z</time>
      </trkpt>
      <trkpt lat="47.65842" lon="6.15699">
        <ele>228.2</ele>
        <time>2020-11-29T15:36:58Z</time>
      </trkpt>
      <trkpt lat="47.65844" lon="6.15705">
        <ele>228.3</ele>
        <time>2020-11-29T15:37:00Z</time>
      </trkpt>
      <trkpt lat="47.65845" lon="6.15715">
        <ele>228.4</ele>
        <time>2020-11-29T15:37:02Z</time>
      </trkpt>
      <trkpt lat="47.65846" lon="6.15723">
        <ele>228.5</ele>
        <time>2020-11-29T15:37:06Z</time>
      </trkpt>
      <trkpt lat="47.65848" lon="6.15731">
        <ele>228.6</ele>
        <time>2020-11-29T15:37:09Z</time>
      </trkpt>
      <trkpt lat="47.65849" lon="6.15737">
        <ele>228.6</ele>
        <time>2020-11-29T15:37:09Z</time>
      </trkpt>
      <trkpt lat="47.6585" lon="6.15746">
        <ele>228.7</ele>
        <time>2020-11-29T15:37:14Z</time>
      </trkpt>
      <trkpt lat="47.65852" lon="6.15753">
        <ele>228.9</ele>
        <time>2020-11-29T15:37:16Z</time>
      </trkpt>
      <trkpt lat="47.65853" lon="6.1576">
        <ele>229.3</ele>
        <time>2020-11-29T15:37:17Z</time>
      </trkpt>
      <trkpt lat="47.65854" lon="6.15768">
        <ele>229.7</ele>
        <time>2020-11-29T15:37:21Z</time>
      </trkpt>
      <trkpt lat="47.65856" lon="6.15775">
        <ele>230.1</ele>
        <time>2020-11-29T15:37:23Z</time>
      </trkpt>
      <trkpt lat="47.65857" lon="6.15782">
        <ele>230.4</ele>
        <time>2020-11-29T15:37:25Z</time>
      </trkpt>
      <trkpt lat="47.65859" lon="6.15791">
        <ele>230.8</ele>
        <time>2020-11-29T15:37:28Z</time>
      </trkpt>
      <trkpt lat="47.65861" lon="6.15801">
        <ele>231.3</ele>
        <time>2020-11-29T15:37:29Z</time>
      </trkpt>
      <trkpt lat="47.65863" lon="6.15808">
        <ele>231.6</ele>
        <time>2020-11-29T15:37:33Z</time>
      </trkpt>
      <trkpt lat="47.65865" lon="6.15817">
        <ele>232.1</ele>
        <time>2020-11-29T15:37:35Z</time>
      </trkpt>
      <trkpt lat="47.65868" lon="6.15825">
        <ele>232.4</ele>
        <time>2020-11-29T15:37:38Z</time>
      </trkpt>
      <trkpt lat="47.65869" lon="6.15834">
        <ele>232.7</ele>
        <time>2020-11-29T15:37:38Z</time>
      </trkpt>
      <trkpt lat="47.6587" lon="6.15841">
        <ele>233.2</ele>
        <time>2020-11-29T15:37:42Z</time>
      </trkpt>
      <trkpt lat="47.65872" lon="6.15848">
        <ele>233.6</ele>
        <time>2020-11-29T15:37:43Z</time>
      </trkpt>
      <trkpt lat="47.65874" lon="6.15854">
        <ele>234.1</ele>
        <time>2020-11-29T15:37:45Z</time>
      </trkpt>
      <trkpt lat="47.65876" lon="6.15861">
        <ele>234.5</ele>
        <time>2020-11-29T15:37:47Z</time>
      </trkpt>
      <trkpt lat="47.65879" lon="6.15868">
        <ele>234.8</ele>
        <time>2020-11-29T15:37:49Z</time>
      </trkpt>
      <trkpt lat="47.65882" lon="6.15876">
        <ele>235.2</ele>
        <time>2020-11-29T15:37:52Z</time>
      </trkpt>
      <trkpt lat="47.65886" lon="6.15882">
        <ele>235.5</ele>
        <time>2020-11-29T15:37:52Z</time>
      </trkpt>
      <trkpt lat="47.6589" lon="6.15891">
        <ele>235.9</ele>
        <time>2020-11-29T15:37:57Z</time>
      </trkpt>
      <trkpt lat="47.65893" lon="6.15897">
        <ele>236.1</ele>
        <time>2020-11-29T15:37:59Z</time>
      </trkpt>
      <trkpt lat="47.65897" lon="6.15904">
        <ele>236.4</ele>
        <time>2020-11-29T15:38:02Z</time>
      </trkpt>
      <trkpt lat="47.65901" lon="6.15911">
        <ele>236.6</ele>
        <time>2020-11-29T15:38:05Z</time>
      </trkpt>
      <trkpt lat="47.65904" lon="6.15916">
        <ele>236.7</ele>
        <time>2020-11-29T15:38:07Z</time>
      </trkpt>
      <trkpt lat="47.65908" lon="6.15922">
        <ele>236.7</ele>
        <time>2020-11-29T15:38:09Z</time>
      </trkpt>
      <trkpt lat="47.65911" lon="6.15928">
        <ele>236.8</ele>
        <time>2020-11-29T15:38:11Z</time>
      </trkpt>
      <trkpt lat="47.65914" lon="6.15935">
        <ele>236.8</ele>
        <time>2020-11-29T15:38:14Z</time>
      </trkpt>
      <trkpt lat="47.65918" lon="6.15943">
        <ele>236.8</ele>
        <time>2020-11-29T15:38:14Z</time>
      </trkpt>
      <trkpt lat="47.6592" lon="6.15949">
        <ele>236.9</ele>
        <time>2020-11-29T15:38:18Z</time>
      </trkpt>
      <trkpt lat="47.65922" lon="6.15956">
        <ele>237</ele>
        <time>2020-11-29T15:38:19Z</time>
      </trkpt>
      <trkpt lat="47.65921" lon="6.15964">
        <ele>237.3</ele>
        <time>2020-11-29T15:38:21Z</time>
      </trkpt>
      <trkpt lat="47.65916" lon="6.15968">
        <ele>237.9</ele>
        <time>2020-11-29T15:38:22Z</time>
      </trkpt>
      <trkpt lat="47.65913" lon="6.15974">
        <ele>238.3</ele>
        <time>2020-11-29T15:38:24Z</time>
      </trkpt>
      <trkpt lat="47.6591" lon="6.15979">
        <ele>238.6</ele>
        <time>2020-11-29T15:38:28Z</time>
      </trkpt>
      <trkpt lat="47.65905" lon="6.15985">
        <ele>239.2</ele>
        <time>2020-11-29T15:38:29Z</time>
      </trkpt>
      <trkpt lat="47.659" lon="6.15991">
        <ele>239.7</ele>
        <time>2020-11-29T15:38:32Z</time>
      </trkpt>
      <trkpt lat="47.65896" lon="6.15998">
        <ele>240.1</ele>
        <time>2020-11-29T15:38:35Z</time>
      </trkpt>
      <trkpt lat="47.65892" lon="6.16004">
        <ele>240.5</ele>
        <time>2020-11-29T15:38:38Z</time>
      </trkpt>
      <trkpt lat="47.65888" lon="6.16009">
        <ele>240.8</ele>
        <time>2020-11-29T15:38:43Z</time>
      </trkpt>
      <trkpt lat="47.65885" lon="6.16014">
        <ele>241</ele>
        <time>2020-11-29T15:38:43Z</time>
      </trkpt>
      <trkpt lat="47.65882" lon="6.16021">
        <ele>241.3</ele>
        <time>2020-11-29T15:38:46Z</time>
      </trkpt>
      <trkpt lat="47.65877" lon="6.16028">
        <ele>241.6</ele>
        <time>2020-11-29T15:38:49Z</time>
      </trkpt>
      <trkpt lat="47.65873" lon="6.16033">
        <ele>241.8</ele>
        <time>2020-11-29T15:38:54Z</time>
      </trkpt>
      <trkpt lat="47.65869" lon="6.16039">
        <ele>242</ele>
        <time>2020-11-29T15:38:56Z</time>
      </trkpt>
      <trkpt lat="47.65865" lon="6.16046">
        <ele>242.2</ele>
        <time>2020-11-29T15:38:57Z</time>
      </trkpt>
      <trkpt lat="47.65861" lon="6.1605">
        <ele>242.3</ele>
        <time>2020-11-29T15:39:01Z</time>
      </trkpt>
      <trkpt lat="47.65858" lon="6.16056">
        <ele>242.5</ele>
        <time>2020-11-29T15:39:03Z</time>
      </trkpt>
      <trkpt lat="47.65852" lon="6.16064">
        <ele>242.6</ele>
        <time>2020-11-29T15:39:05Z</time>
      </trkpt>
      <trkpt lat="47.65846" lon="6.16072">
        <ele>242.8</ele>
        <time>2020-11-29T15:39:05Z</time>
      </trkpt>
      <trkpt lat="47.65842" lon="6.16077">
        <ele>242.8</ele>
        <time>2020-11-29T15:39:08Z</time>
      </trkpt>
      <trkpt lat="47.65839" lon="6.16082">
        <ele>242.9</ele>
        <time>2020-11-29T15:39:09Z</time>
      </trkpt>
      <trkpt lat="47.65834" lon="6.16089">
        <ele>243</ele>
        <time>2020-11-29T15:39:09Z</time>
      </trkpt>
      <trkpt lat="47.65831" lon="6.16094">
        <ele>242.9</ele>
        <time>2020-11-29T15:39:12Z</time>
      </trkpt>
      <trkpt lat="47.65825" lon="6.16106">
        <ele>242.5</ele>
        <time>2020-11-29T15:39:13Z</time>
      </trkpt>
      <trkpt lat="47.6582" lon="6.16113">
        <ele>242.2</ele>
        <time>2020-11-29T15:39:15Z</time>
      </trkpt>
      <trkpt lat="47.65816" lon="6.16119">
        <ele>241.9</ele>
        <time>2020-11-29T15:39:15Z</time>
      </trkpt>
      <trkpt lat="47.65811" lon="6.16128">
        <ele>241.5</ele>
        <time>2020-11-29T15:39:16Z</time>
      </trkpt>
      <trkpt lat="47.65808" lon="6.16134">
        <ele>241.2</ele>
        <time>2020-11-29T15:39:17Z</time>
      </trkpt>
      <trkpt lat="47.65802" lon="6.16142">
        <ele>240.7</ele>
        <time>2020-11-29T15:39:18Z</time>
      </trkpt>
      <trkpt lat="47.65789" lon="6.16162">
        <ele>239.3</ele>
        <time>2020-11-29T15:39:18Z</time>
      </trkpt>
      <trkpt lat="47.65782" lon="6.16172">
        <ele>238.7</ele>
        <time>2020-11-29T15:39:19Z</time>
      </trkpt>
      <trkpt lat="47.65776" lon="6.16181">
        <ele>238.2</ele>
        <time>2020-11-29T15:39:20Z</time>
      </trkpt>
      <trkpt lat="47.65771" lon="6.16189">
        <ele>237.7</ele>
        <time>2020-11-29T15:39:21Z</time>
      </trkpt>
      <trkpt lat="47.65766" lon="6.16198">
        <ele>237.3</ele>
        <time>2020-11-29T15:39:22Z</time>
      </trkpt>
      <trkpt lat="47.65761" lon="6.16206">
        <ele>236.9</ele>
        <time>2020-11-29T15:39:23Z</time>
      </trkpt>
      <trkpt lat="47.65756" lon="6.16214">
        <ele>236.5</ele>
        <time>2020-11-29T15:39:24Z</time>
      </trkpt>
      <trkpt lat="47.65752" lon="6.16221">
        <ele>236.2</ele>
        <time>2020-11-29T15:39:25Z</time>
      </trkpt>
      <trkpt lat="47.65748" lon="6.16228">
        <ele>235.7</ele>
        <time>2020-11-29T15:39:26Z</time>
      </trkpt>
      <trkpt lat="47.65744" lon="6.16234">
        <ele>235.2</ele>
        <time>2020-11-29T15:39:27Z</time>
      </trkpt>
      <trkpt lat="47.65739" lon="6.1624">
        <ele>234.7</ele>
        <time>2020-11-29T15:39:28Z</time>
      </trkpt>
      <trkpt lat="47.65735" lon="6.16246">
        <ele>234.1</ele>
        <time>2020-11-29T15:39:29Z</time>
      </trkpt>
      <trkpt lat="47.65731" lon="6.16252">
        <ele>233.6</ele>
        <time>2020-11-29T15:39:30Z</time>
      </trkpt>
      <trkpt lat="47.65728" lon="6.16257">
        <ele>233.4</ele>
        <time>2020-11-29T15:39:31Z</time>
      </trkpt>
      <trkpt lat="47.65724" lon="6.16262">
        <ele>233.2</ele>
        <time>2020-11-29T15:39:32Z</time>
      </trkpt>
      <trkpt lat="47.65721" lon="6.16266">
        <ele>233</ele>
        <time>2020-11-29T15:39:33Z</time>
      </trkpt>
      <trkpt lat="47.65715" lon="6.16274">
        <ele>232.8</ele>
        <time>2020-11-29T15:39:35Z</time>
      </trkpt>
      <trkpt lat="47.6571" lon="6.16281">
        <ele>232.6</ele>
        <time>2020-11-29T15:39:37Z</time>
      </trkpt>
      <trkpt lat="47.65704" lon="6.16289">
        <ele>232.4</ele>
        <time>2020-11-29T15:39:39Z</time>
      </trkpt>
      <trkpt lat="47.657" lon="6.16295">
        <ele>232.3</ele>
        <time>2020-11-29T15:39:42Z</time>
      </trkpt>
      <trkpt lat="47.65697" lon="6.16301">
        <ele>232.3</ele>
        <time>2020-11-29T15:39:44Z</time>
      </trkpt>
      <trkpt lat="47.65692" lon="6.16308">
        <ele>232.4</ele>
        <time>2020-11-29T15:39:45Z</time>
      </trkpt>
      <trkpt lat="47.65689" lon="6.16314">
        <ele>232.4</ele>
        <time>2020-11-29T15:39:45Z</time>
      </trkpt>
      <trkpt lat="47.65684" lon="6.1632">
        <ele>232.5</ele>
        <time>2020-11-29T15:39:49Z</time>
      </trkpt>
      <trkpt lat="47.65674" lon="6.16335">
        <ele>232.7</ele>
        <time>2020-11-29T15:39:50Z</time>
      </trkpt>
      <trkpt lat="47.65669" lon="6.16342">
        <ele>232.8</ele>
        <time>2020-11-29T15:39:52Z</time>
      </trkpt>
      <trkpt lat="47.65665" lon="6.16347">
        <ele>232.9</ele>
        <time>2020-11-29T15:39:55Z</time>
      </trkpt>
      <trkpt lat="47.6566" lon="6.16355">
        <ele>233.2</ele>
        <time>2020-11-29T15:39:55Z</time>
      </trkpt>
      <trkpt lat="47.65656" lon="6.16361">
        <ele>233.4</ele>
        <time>2020-11-29T15:39:59Z</time>
      </trkpt>
      <trkpt lat="47.6565" lon="6.1637">
        <ele>233.7</ele>
        <time>2020-11-29T15:39:59Z</time>
      </trkpt>
      <trkpt lat="47.65647" lon="6.16376">
        <ele>233.9</ele>
        <time>2020-11-29T15:40:02Z</time>
      </trkpt>
      <trkpt lat="47.65643" lon="6.16381">
        <ele>234</ele>
        <time>2020-11-29T15:40:02Z</time>
      </trkpt>
      <trkpt lat="47.65638" lon="6.16388">
        <ele>234.1</ele>
        <time>2020-11-29T15:40:04Z</time>
      </trkpt>
      <trkpt lat="47.65633" lon="6.16394">
        <ele>234.2</ele>
        <time>2020-11-29T15:40:06Z</time>
      </trkpt>
      <trkpt lat="47.65629" lon="6.16401">
        <ele>234.3</ele>
        <time>2020-11-29T15:40:08Z</time>
      </trkpt>
      <trkpt lat="47.65624" lon="6.16407">
        <ele>234.4</ele>
        <time>2020-11-29T15:40:10Z</time>
      </trkpt>
      <trkpt lat="47.6562" lon="6.16413">
        <ele>234.4</ele>
        <time>2020-11-29T15:40:12Z</time>
      </trkpt>
      <trkpt lat="47.65615" lon="6.16419">
        <ele>234.4</ele>
        <time>2020-11-29T15:40:14Z</time>
      </trkpt>
      <trkpt lat="47.65612" lon="6.16424">
        <ele>234.4</ele>
        <time>2020-11-29T15:40:16Z</time>
      </trkpt>
      <trkpt lat="47.65608" lon="6.16428">
        <ele>234.4</ele>
        <time>2020-11-29T15:40:21Z</time>
      </trkpt>
      <trkpt lat="47.65603" lon="6.16433">
        <ele>234.4</ele>
        <time>2020-11-29T15:40:22Z</time>
      </trkpt>
      <trkpt lat="47.65598" lon="6.16438">
        <ele>234.4</ele>
        <time>2020-11-29T15:40:27Z</time>
      </trkpt>
      <trkpt lat="47.65595" lon="6.16443">
        <ele>234.6</ele>
        <time>2020-11-29T15:40:27Z</time>
      </trkpt>
      <trkpt lat="47.65591" lon="6.16449">
        <ele>234.7</ele>
        <time>2020-11-29T15:40:29Z</time>
      </trkpt>
      <trkpt lat="47.65587" lon="6.16455">
        <ele>235</ele>
        <time>2020-11-29T15:40:31Z</time>
      </trkpt>
      <trkpt lat="47.65584" lon="6.16461">
        <ele>235.2</ele>
        <time>2020-11-29T15:40:33Z</time>
      </trkpt>
      <trkpt lat="47.6558" lon="6.16467">
        <ele>235.4</ele>
        <time>2020-11-29T15:40:35Z</time>
      </trkpt>
      <trkpt lat="47.65576" lon="6.16473">
        <ele>235.6</ele>
        <time>2020-11-29T15:40:37Z</time>
      </trkpt>
      <trkpt lat="47.65573" lon="6.16479">
        <ele>235.7</ele>
        <time>2020-11-29T15:40:39Z</time>
      </trkpt>
      <trkpt lat="47.65568" lon="6.16484">
        <ele>235.8</ele>
        <time>2020-11-29T15:40:41Z</time>
      </trkpt>
      <trkpt lat="47.65563" lon="6.16492">
        <ele>235.8</ele>
        <time>2020-11-29T15:40:44Z</time>
      </trkpt>
      <trkpt lat="47.6556" lon="6.16497">
        <ele>235.8</ele>
        <time>2020-11-29T15:40:46Z</time>
      </trkpt>
      <trkpt lat="47.65556" lon="6.16502">
        <ele>235.7</ele>
        <time>2020-11-29T15:40:48Z</time>
      </trkpt>
      <trkpt lat="47.65552" lon="6.16508">
        <ele>235.4</ele>
        <time>2020-11-29T15:40:50Z</time>
      </trkpt>
      <trkpt lat="47.65548" lon="6.16513">
        <ele>235.1</ele>
        <time>2020-11-29T15:40:55Z</time>
      </trkpt>
      <trkpt lat="47.65545" lon="6.1652">
        <ele>234.9</ele>
        <time>2020-11-29T15:40:55Z</time>
      </trkpt>
      <trkpt lat="47.65542" lon="6.16525">
        <ele>234.8</ele>
        <time>2020-11-29T15:40:57Z</time>
      </trkpt>
      <trkpt lat="47.65538" lon="6.16532">
        <ele>234.7</ele>
        <time>2020-11-29T15:41:00Z</time>
      </trkpt>
      <trkpt lat="47.65534" lon="6.16538">
        <ele>234.5</ele>
        <time>2020-11-29T15:41:04Z</time>
      </trkpt>
      <trkpt lat="47.6553" lon="6.16541">
        <ele>234.4</ele>
        <time>2020-11-29T15:41:06Z</time>
      </trkpt>
      <trkpt lat="47.65524" lon="6.16542">
        <ele>234.2</ele>
        <time>2020-11-29T15:41:07Z</time>
      </trkpt>
      <trkpt lat="47.65519" lon="6.16542">
        <ele>233.9</ele>
        <time>2020-11-29T15:41:09Z</time>
      </trkpt>
      <trkpt lat="47.65514" lon="6.16541">
        <ele>233.6</ele>
        <time>2020-11-29T15:41:11Z</time>
      </trkpt>
      <trkpt lat="47.65508" lon="6.1654">
        <ele>233.3</ele>
        <time>2020-11-29T15:41:13Z</time>
      </trkpt>
      <trkpt lat="47.65502" lon="6.16539">
        <ele>233</ele>
        <time>2020-11-29T15:41:15Z</time>
      </trkpt>
      <trkpt lat="47.65494" lon="6.16536">
        <ele>232.6</ele>
        <time>2020-11-29T15:41:17Z</time>
      </trkpt>
      <trkpt lat="47.65487" lon="6.16535">
        <ele>232.4</ele>
        <time>2020-11-29T15:41:19Z</time>
      </trkpt>
      <trkpt lat="47.6548" lon="6.16533">
        <ele>232.2</ele>
        <time>2020-11-29T15:41:21Z</time>
      </trkpt>
      <trkpt lat="47.65472" lon="6.16532">
        <ele>231.9</ele>
        <time>2020-11-29T15:41:23Z</time>
      </trkpt>
      <trkpt lat="47.65464" lon="6.1653">
        <ele>231.6</ele>
        <time>2020-11-29T15:41:25Z</time>
      </trkpt>
      <trkpt lat="47.65455" lon="6.16528">
        <ele>231.2</ele>
        <time>2020-11-29T15:41:27Z</time>
      </trkpt>
      <trkpt lat="47.65447" lon="6.16526">
        <ele>230.9</ele>
        <time>2020-11-29T15:41:29Z</time>
      </trkpt>
      <trkpt lat="47.65439" lon="6.16524">
        <ele>230.6</ele>
        <time>2020-11-29T15:41:31Z</time>
      </trkpt>
      <trkpt lat="47.65431" lon="6.16523">
        <ele>230.3</ele>
        <time>2020-11-29T15:41:33Z</time>
      </trkpt>
      <trkpt lat="47.65423" lon="6.16522">
        <ele>230</ele>
        <time>2020-11-29T15:41:35Z</time>
      </trkpt>
      <trkpt lat="47.65415" lon="6.1652">
        <ele>229.7</ele>
        <time>2020-11-29T15:41:37Z</time>
      </trkpt>
      <trkpt lat="47.65407" lon="6.16519">
        <ele>229.6</ele>
        <time>2020-11-29T15:41:39Z</time>
      </trkpt>
      <trkpt lat="47.654" lon="6.16518">
        <ele>229.5</ele>
        <time>2020-11-29T15:41:41Z</time>
      </trkpt>
      <trkpt lat="47.65392" lon="6.16517">
        <ele>229.5</ele>
        <time>2020-11-29T15:41:43Z</time>
      </trkpt>
      <trkpt lat="47.65385" lon="6.16515">
        <ele>229.5</ele>
        <time>2020-11-29T15:41:45Z</time>
      </trkpt>
      <trkpt lat="47.65377" lon="6.16514">
        <ele>229.4</ele>
        <time>2020-11-29T15:41:47Z</time>
      </trkpt>
      <trkpt lat="47.6537" lon="6.16512">
        <ele>229.3</ele>
        <time>2020-11-29T15:41:49Z</time>
      </trkpt>
      <trkpt lat="47.65362" lon="6.16511">
        <ele>229.3</ele>
        <time>2020-11-29T15:41:51Z</time>
      </trkpt>
      <trkpt lat="47.65355" lon="6.16509">
        <ele>229.3</ele>
        <time>2020-11-29T15:41:53Z</time>
      </trkpt>
      <trkpt lat="47.65348" lon="6.16508">
        <ele>229.3</ele>
        <time>2020-11-29T15:41:55Z</time>
      </trkpt>
      <trkpt lat="47.65341" lon="6.16507">
        <ele>229.3</ele>
        <time>2020-11-29T15:41:57Z</time>
      </trkpt>
      <trkpt lat="47.65333" lon="6.16507">
        <ele>229.3</ele>
        <time>2020-11-29T15:41:59Z</time>
      </trkpt>
      <trkpt lat="47.65327" lon="6.16506">
        <ele>229.4</ele>
        <time>2020-11-29T15:42:01Z</time>
      </trkpt>
      <trkpt lat="47.6532" lon="6.16505">
        <ele>229.6</ele>
        <time>2020-11-29T15:42:03Z</time>
      </trkpt>
      <trkpt lat="47.65313" lon="6.16504">
        <ele>229.7</ele>
        <time>2020-11-29T15:42:05Z</time>
      </trkpt>
      <trkpt lat="47.65307" lon="6.16502">
        <ele>229.8</ele>
        <time>2020-11-29T15:42:07Z</time>
      </trkpt>
      <trkpt lat="47.653" lon="6.16501">
        <ele>229.8</ele>
        <time>2020-11-29T15:42:09Z</time>
      </trkpt>
      <trkpt lat="47.65293" lon="6.16499">
        <ele>229.9</ele>
        <time>2020-11-29T15:42:11Z</time>
      </trkpt>
      <trkpt lat="47.65285" lon="6.16498">
        <ele>230.1</ele>
        <time>2020-11-29T15:42:13Z</time>
      </trkpt>
      <trkpt lat="47.65277" lon="6.16497">
        <ele>230.2</ele>
        <time>2020-11-29T15:42:15Z</time>
      </trkpt>
      <trkpt lat="47.6527" lon="6.16496">
        <ele>230.4</ele>
        <time>2020-11-29T15:42:17Z</time>
      </trkpt>
      <trkpt lat="47.65264" lon="6.16495">
        <ele>230.5</ele>
        <time>2020-11-29T15:42:19Z</time>
      </trkpt>
      <trkpt lat="47.65257" lon="6.16494">
        <ele>230.6</ele>
        <time>2020-11-29T15:42:21Z</time>
      </trkpt>
      <trkpt lat="47.6525" lon="6.16492">
        <ele>230.7</ele>
        <time>2020-11-29T15:42:23Z</time>
      </trkpt>
      <trkpt lat="47.65243" lon="6.16491">
        <ele>230.9</ele>
        <time>2020-11-29T15:42:25Z</time>
      </trkpt>
      <trkpt lat="47.65236" lon="6.16489">
        <ele>231.1</ele>
        <time>2020-11-29T15:42:27Z</time>
      </trkpt>
      <trkpt lat="47.65228" lon="6.16488">
        <ele>231.3</ele>
        <time>2020-11-29T15:42:29Z</time>
      </trkpt>
      <trkpt lat="47.65221" lon="6.16486">
        <ele>231.4</ele>
        <time>2020-11-29T15:42:31Z</time>
      </trkpt>
      <trkpt lat="47.65215" lon="6.16485">
        <ele>231.6</ele>
        <time>2020-11-29T15:42:33Z</time>
      </trkpt>
      <trkpt lat="47.65208" lon="6.16484">
        <ele>231.7</ele>
        <time>2020-11-29T15:42:35Z</time>
      </trkpt>
      <trkpt lat="47.65202" lon="6.16482">
        <ele>231.8</ele>
        <time>2020-11-29T15:42:37Z</time>
      </trkpt>
      <trkpt lat="47.65196" lon="6.16481">
        <ele>232</ele>
        <time>2020-11-29T15:42:39Z</time>
      </trkpt>
      <trkpt lat="47.65191" lon="6.1648">
        <ele>232.1</ele>
        <time>2020-11-29T15:42:41Z</time>
      </trkpt>
      <trkpt lat="47.65185" lon="6.16479">
        <ele>232.2</ele>
        <time>2020-11-29T15:42:43Z</time>
      </trkpt>
      <trkpt lat="47.6518" lon="6.16478">
        <ele>232.3</ele>
        <time>2020-11-29T15:42:45Z</time>
      </trkpt>
      <trkpt lat="47.65175" lon="6.16477">
        <ele>232.4</ele>
        <time>2020-11-29T15:42:47Z</time>
      </trkpt>
      <trkpt lat="47.65171" lon="6.16477">
        <ele>232.5</ele>
        <time>2020-11-29T15:42:49Z</time>
      </trkpt>
      <trkpt lat="47.65166" lon="6.16477">
        <ele>232.6</ele>
        <time>2020-11-29T15:42:51Z</time>
      </trkpt>
      <trkpt lat="47.65161" lon="6.16476">
        <ele>232.7</ele>
        <time>2020-11-29T15:42:53Z</time>
      </trkpt>
      <trkpt lat="47.65156" lon="6.16474">
        <ele>232.7</ele>
        <time>2020-11-29T15:42:55Z</time>
      </trkpt>
      <trkpt lat="47.65151" lon="6.16473">
        <ele>232.7</ele>
        <time>2020-11-29T15:42:57Z</time>
      </trkpt>
      <trkpt lat="47.65146" lon="6.16472">
        <ele>232.7</ele>
        <time>2020-11-29T15:42:59Z</time>
      </trkpt>
      <trkpt lat="47.65141" lon="6.16471">
        <ele>232.8</ele>
        <time>2020-11-29T15:43:01Z</time>
      </trkpt>
      <trkpt lat="47.65136" lon="6.1647">
        <ele>232.8</ele>
        <time>2020-11-29T15:43:03Z</time>
      </trkpt>
      <trkpt lat="47.65131" lon="6.16469">
        <ele>232.9</ele>
        <time>2020-11-29T15:43:05Z</time>
      </trkpt>
      <trkpt lat="47.65126" lon="6.16469">
        <ele>233</ele>
        <time>2020-11-29T15:43:07Z</time>
      </trkpt>
      <trkpt lat="47.65119" lon="6.16467">
        <ele>233</ele>
        <time>2020-11-29T15:43:09Z</time>
      </trkpt>
      <trkpt lat="47.65114" lon="6.16466">
        <ele>233.1</ele>
        <time>2020-11-29T15:43:12Z</time>
      </trkpt>
      <trkpt lat="47.65108" lon="6.16465">
        <ele>233.2</ele>
        <time>2020-11-29T15:43:15Z</time>
      </trkpt>
      <trkpt lat="47.65102" lon="6.16464">
        <ele>233.3</ele>
        <time>2020-11-29T15:43:18Z</time>
      </trkpt>
      <trkpt lat="47.65096" lon="6.16463">
        <ele>233.4</ele>
        <time>2020-11-29T15:43:20Z</time>
      </trkpt>
      <trkpt lat="47.65089" lon="6.16462">
        <ele>233.5</ele>
        <time>2020-11-29T15:43:23Z</time>
      </trkpt>
      <trkpt lat="47.65085" lon="6.16461">
        <ele>233.6</ele>
        <time>2020-11-29T15:43:25Z</time>
      </trkpt>
      <trkpt lat="47.6508" lon="6.1646">
        <ele>233.7</ele>
        <time>2020-11-29T15:43:28Z</time>
      </trkpt>
      <trkpt lat="47.65073" lon="6.16459">
        <ele>233.8</ele>
        <time>2020-11-29T15:43:30Z</time>
      </trkpt>
      <trkpt lat="47.65069" lon="6.16458">
        <ele>233.9</ele>
        <time>2020-11-29T15:43:33Z</time>
      </trkpt>
      <trkpt lat="47.65063" lon="6.16457">
        <ele>234.1</ele>
        <time>2020-11-29T15:43:36Z</time>
      </trkpt>
      <trkpt lat="47.65056" lon="6.16456">
        <ele>234.3</ele>
        <time>2020-11-29T15:43:39Z</time>
      </trkpt>
      <trkpt lat="47.65051" lon="6.16455">
        <ele>234.4</ele>
        <time>2020-11-29T15:43:41Z</time>
      </trkpt>
      <trkpt lat="47.65046" lon="6.16454">
        <ele>234.6</ele>
        <time>2020-11-29T15:43:44Z</time>
      </trkpt>
      <trkpt lat="47.65039" lon="6.16453">
        <ele>234.8</ele>
        <time>2020-11-29T15:43:47Z</time>
      </trkpt>
      <trkpt lat="47.65033" lon="6.16451">
        <ele>235</ele>
        <time>2020-11-29T15:43:50Z</time>
      </trkpt>
      <trkpt lat="47.65028" lon="6.1645">
        <ele>235.2</ele>
        <time>2020-11-29T15:43:52Z</time>
      </trkpt>
      <trkpt lat="47.65021" lon="6.16448">
        <ele>235.4</ele>
        <time>2020-11-29T15:43:55Z</time>
      </trkpt>
      <trkpt lat="47.65016" lon="6.16447">
        <ele>235.7</ele>
        <time>2020-11-29T15:43:57Z</time>
      </trkpt>
      <trkpt lat="47.6501" lon="6.16446">
        <ele>235.9</ele>
        <time>2020-11-29T15:43:59Z</time>
      </trkpt>
      <trkpt lat="47.65004" lon="6.16445">
        <ele>236.2</ele>
        <time>2020-11-29T15:44:01Z</time>
      </trkpt>
      <trkpt lat="47.64997" lon="6.16445">
        <ele>236.4</ele>
        <time>2020-11-29T15:44:03Z</time>
      </trkpt>
      <trkpt lat="47.6499" lon="6.16444">
        <ele>236.5</ele>
        <time>2020-11-29T15:44:05Z</time>
      </trkpt>
      <trkpt lat="47.64984" lon="6.16443">
        <ele>236.6</ele>
        <time>2020-11-29T15:44:07Z</time>
      </trkpt>
      <trkpt lat="47.64976" lon="6.16441">
        <ele>236.7</ele>
        <time>2020-11-29T15:44:09Z</time>
      </trkpt>
      <trkpt lat="47.64968" lon="6.1644">
        <ele>236.9</ele>
        <time>2020-11-29T15:44:11Z</time>
      </trkpt>
      <trkpt lat="47.64961" lon="6.16439">
        <ele>237</ele>
        <time>2020-11-29T15:44:13Z</time>
      </trkpt>
      <trkpt lat="47.64955" lon="6.16439">
        <ele>237.1</ele>
        <time>2020-11-29T15:44:15Z</time>
      </trkpt>
      <trkpt lat="47.64948" lon="6.16437">
        <ele>237.3</ele>
        <time>2020-11-29T15:44:17Z</time>
      </trkpt>
      <trkpt lat="47.64941" lon="6.16436">
        <ele>237.5</ele>
        <time>2020-11-29T15:44:19Z</time>
      </trkpt>
      <trkpt lat="47.64935" lon="6.16435">
        <ele>237.6</ele>
        <time>2020-11-29T15:44:21Z</time>
      </trkpt>
      <trkpt lat="47.64928" lon="6.16434">
        <ele>237.8</ele>
        <time>2020-11-29T15:44:23Z</time>
      </trkpt>
      <trkpt lat="47.64922" lon="6.16433">
        <ele>237.9</ele>
        <time>2020-11-29T15:44:25Z</time>
      </trkpt>
      <trkpt lat="47.64915" lon="6.16432">
        <ele>238.1</ele>
        <time>2020-11-29T15:44:27Z</time>
      </trkpt>
      <trkpt lat="47.64909" lon="6.16431">
        <ele>238.4</ele>
        <time>2020-11-29T15:44:29Z</time>
      </trkpt>
      <trkpt lat="47.64903" lon="6.16429">
        <ele>238.6</ele>
        <time>2020-11-29T15:44:31Z</time>
      </trkpt>
      <trkpt lat="47.64897" lon="6.16428">
        <ele>238.8</ele>
        <time>2020-11-29T15:44:33Z</time>
      </trkpt>
      <trkpt lat="47.64891" lon="6.16427">
        <ele>239</ele>
        <time>2020-11-29T15:44:35Z</time>
      </trkpt>
      <trkpt lat="47.64886" lon="6.16426">
        <ele>239.2</ele>
        <time>2020-11-29T15:44:37Z</time>
      </trkpt>
      <trkpt lat="47.6488" lon="6.16425">
        <ele>239.4</ele>
        <time>2020-11-29T15:44:39Z</time>
      </trkpt>
      <trkpt lat="47.64875" lon="6.16423">
        <ele>239.6</ele>
        <time>2020-11-29T15:44:41Z</time>
      </trkpt>
      <trkpt lat="47.64869" lon="6.16422">
        <ele>239.8</ele>
        <time>2020-11-29T15:44:43Z</time>
      </trkpt>
      <trkpt lat="47.64864" lon="6.16421">
        <ele>240</ele>
        <time>2020-11-29T15:44:45Z</time>
      </trkpt>
      <trkpt lat="47.64858" lon="6.1642">
        <ele>240.2</ele>
        <time>2020-11-29T15:44:47Z</time>
      </trkpt>
      <trkpt lat="47.64853" lon="6.16419">
        <ele>240.4</ele>
        <time>2020-11-29T15:44:49Z</time>
      </trkpt>
      <trkpt lat="47.64847" lon="6.16418">
        <ele>240.6</ele>
        <time>2020-11-29T15:44:51Z</time>
      </trkpt>
      <trkpt lat="47.64841" lon="6.16417">
        <ele>240.8</ele>
        <time>2020-11-29T15:44:53Z</time>
      </trkpt>
      <trkpt lat="47.64836" lon="6.16416">
        <ele>240.9</ele>
        <time>2020-11-29T15:44:55Z</time>
      </trkpt>
      <trkpt lat="47.6483" lon="6.16415">
        <ele>240.9</ele>
        <time>2020-11-29T15:44:57Z</time>
      </trkpt>
      <trkpt lat="47.64824" lon="6.16414">
        <ele>240.8</ele>
        <time>2020-11-29T15:44:59Z</time>
      </trkpt>
      <trkpt lat="47.64818" lon="6.16413">
        <ele>240.7</ele>
        <time>2020-11-29T15:45:01Z</time>
      </trkpt>
      <trkpt lat="47.64811" lon="6.16412">
        <ele>240.5</ele>
        <time>2020-11-29T15:45:03Z</time>
      </trkpt>
      <trkpt lat="47.64805" lon="6.1641">
        <ele>240.4</ele>
        <time>2020-11-29T15:45:05Z</time>
      </trkpt>
      <trkpt lat="47.64798" lon="6.16408">
        <ele>240.2</ele>
        <time>2020-11-29T15:45:07Z</time>
      </trkpt>
      <trkpt lat="47.64791" lon="6.16407">
        <ele>240</ele>
        <time>2020-11-29T15:45:09Z</time>
      </trkpt>
      <trkpt lat="47.64784" lon="6.16406">
        <ele>239.9</ele>
        <time>2020-11-29T15:45:11Z</time>
      </trkpt>
      <trkpt lat="47.64778" lon="6.16405">
        <ele>239.7</ele>
        <time>2020-11-29T15:45:13Z</time>
      </trkpt>
      <trkpt lat="47.6477" lon="6.16404">
        <ele>239.5</ele>
        <time>2020-11-29T15:45:15Z</time>
      </trkpt>
      <trkpt lat="47.64762" lon="6.16402">
        <ele>239.3</ele>
        <time>2020-11-29T15:45:17Z</time>
      </trkpt>
      <trkpt lat="47.64754" lon="6.16401">
        <ele>239.1</ele>
        <time>2020-11-29T15:45:19Z</time>
      </trkpt>
      <trkpt lat="47.64747" lon="6.16399">
        <ele>238.9</ele>
        <time>2020-11-29T15:45:20Z</time>
      </trkpt>
      <trkpt lat="47.64742" lon="6.16398">
        <ele>238.7</ele>
        <time>2020-11-29T15:45:21Z</time>
      </trkpt>
      <trkpt lat="47.64737" lon="6.16397">
        <ele>238.5</ele>
        <time>2020-11-29T15:45:22Z</time>
      </trkpt>
      <trkpt lat="47.64732" lon="6.16396">
        <ele>238.3</ele>
        <time>2020-11-29T15:45:23Z</time>
      </trkpt>
      <trkpt lat="47.64724" lon="6.16395">
        <ele>237.9</ele>
        <time>2020-11-29T15:45:25Z</time>
      </trkpt>
      <trkpt lat="47.64715" lon="6.16393">
        <ele>237.5</ele>
        <time>2020-11-29T15:45:27Z</time>
      </trkpt>
      <trkpt lat="47.6471" lon="6.16392">
        <ele>237.3</ele>
        <time>2020-11-29T15:45:28Z</time>
      </trkpt>
      <trkpt lat="47.64706" lon="6.16391">
        <ele>237.1</ele>
        <time>2020-11-29T15:45:29Z</time>
      </trkpt>
      <trkpt lat="47.64698" lon="6.1639">
        <ele>236.7</ele>
        <time>2020-11-29T15:45:30Z</time>
      </trkpt>
      <trkpt lat="47.64692" lon="6.1639">
        <ele>236.5</ele>
        <time>2020-11-29T15:45:31Z</time>
      </trkpt>
      <trkpt lat="47.64687" lon="6.16389">
        <ele>236.2</ele>
        <time>2020-11-29T15:45:32Z</time>
      </trkpt>
      <trkpt lat="47.64682" lon="6.16388">
        <ele>236</ele>
        <time>2020-11-29T15:45:33Z</time>
      </trkpt>
      <trkpt lat="47.64677" lon="6.16387">
        <ele>235.7</ele>
        <time>2020-11-29T15:45:34Z</time>
      </trkpt>
      <trkpt lat="47.64671" lon="6.16386">
        <ele>235.5</ele>
        <time>2020-11-29T15:45:35Z</time>
      </trkpt>
      <trkpt lat="47.64666" lon="6.16385">
        <ele>235.2</ele>
        <time>2020-11-29T15:45:36Z</time>
      </trkpt>
      <trkpt lat="47.64661" lon="6.16384">
        <ele>235.1</ele>
        <time>2020-11-29T15:45:37Z</time>
      </trkpt>
      <trkpt lat="47.64656" lon="6.16383">
        <ele>235</ele>
        <time>2020-11-29T15:45:38Z</time>
      </trkpt>
      <trkpt lat="47.6465" lon="6.16382">
        <ele>234.9</ele>
        <time>2020-11-29T15:45:39Z</time>
      </trkpt>
      <trkpt lat="47.64645" lon="6.16381">
        <ele>234.8</ele>
        <time>2020-11-29T15:45:40Z</time>
      </trkpt>
      <trkpt lat="47.6464" lon="6.1638">
        <ele>234.8</ele>
        <time>2020-11-29T15:45:41Z</time>
      </trkpt>
      <trkpt lat="47.64635" lon="6.16379">
        <ele>234.7</ele>
        <time>2020-11-29T15:45:42Z</time>
      </trkpt>
      <trkpt lat="47.6463" lon="6.16378">
        <ele>234.6</ele>
        <time>2020-11-29T15:45:43Z</time>
      </trkpt>
      <trkpt lat="47.64625" lon="6.16377">
        <ele>234.5</ele>
        <time>2020-11-29T15:45:44Z</time>
      </trkpt>
      <trkpt lat="47.6462" lon="6.16376">
        <ele>234.5</ele>
        <time>2020-11-29T15:45:45Z</time>
      </trkpt>
      <trkpt lat="47.64615" lon="6.16375">
        <ele>234.4</ele>
        <time>2020-11-29T15:45:46Z</time>
      </trkpt>
      <trkpt lat="47.64611" lon="6.16375">
        <ele>234.3</ele>
        <time>2020-11-29T15:45:47Z</time>
      </trkpt>
      <trkpt lat="47.64606" lon="6.16374">
        <ele>234.3</ele>
        <time>2020-11-29T15:45:48Z</time>
      </trkpt>
      <trkpt lat="47.64601" lon="6.16373">
        <ele>234.2</ele>
        <time>2020-11-29T15:45:49Z</time>
      </trkpt>
      <trkpt lat="47.64597" lon="6.16373">
        <ele>234.2</ele>
        <time>2020-11-29T15:45:50Z</time>
      </trkpt>
      <trkpt lat="47.64588" lon="6.16371">
        <ele>234.1</ele>
        <time>2020-11-29T15:45:52Z</time>
      </trkpt>
      <trkpt lat="47.6458" lon="6.1637">
        <ele>234</ele>
        <time>2020-11-29T15:45:54Z</time>
      </trkpt>
      <trkpt lat="47.64573" lon="6.16368">
        <ele>234</ele>
        <time>2020-11-29T15:45:56Z</time>
      </trkpt>
      <trkpt lat="47.64565" lon="6.16367">
        <ele>234</ele>
        <time>2020-11-29T15:45:58Z</time>
      </trkpt>
      <trkpt lat="47.64558" lon="6.16366">
        <ele>234.1</ele>
        <time>2020-11-29T15:46:00Z</time>
      </trkpt>
      <trkpt lat="47.64551" lon="6.16365">
        <ele>234.1</ele>
        <time>2020-11-29T15:46:02Z</time>
      </trkpt>
      <trkpt lat="47.64543" lon="6.16363">
        <ele>234.1</ele>
        <time>2020-11-29T15:46:04Z</time>
      </trkpt>
      <trkpt lat="47.64536" lon="6.16362">
        <ele>234.2</ele>
        <time>2020-11-29T15:46:06Z</time>
      </trkpt>
      <trkpt lat="47.64528" lon="6.1636">
        <ele>234.2</ele>
        <time>2020-11-29T15:46:08Z</time>
      </trkpt>
      <trkpt lat="47.64521" lon="6.16359">
        <ele>234.3</ele>
        <time>2020-11-29T15:46:10Z</time>
      </trkpt>
      <trkpt lat="47.64516" lon="6.16357">
        <ele>234.3</ele>
        <time>2020-11-29T15:46:12Z</time>
      </trkpt>
      <trkpt lat="47.64509" lon="6.16356">
        <ele>234.4</ele>
        <time>2020-11-29T15:46:14Z</time>
      </trkpt>
      <trkpt lat="47.64502" lon="6.16355">
        <ele>234.5</ele>
        <time>2020-11-29T15:46:16Z</time>
      </trkpt>
      <trkpt lat="47.64496" lon="6.16354">
        <ele>234.5</ele>
        <time>2020-11-29T15:46:18Z</time>
      </trkpt>
      <trkpt lat="47.64489" lon="6.16352">
        <ele>234.5</ele>
        <time>2020-11-29T15:46:20Z</time>
      </trkpt>
      <trkpt lat="47.64482" lon="6.16351">
        <ele>234.4</ele>
        <time>2020-11-29T15:46:22Z</time>
      </trkpt>
      <trkpt lat="47.64475" lon="6.1635">
        <ele>234.4</ele>
        <time>2020-11-29T15:46:24Z</time>
      </trkpt>
      <trkpt lat="47.64467" lon="6.16348">
        <ele>234.4</ele>
        <time>2020-11-29T15:46:26Z</time>
      </trkpt>
      <trkpt lat="47.6446" lon="6.16346">
        <ele>234.4</ele>
        <time>2020-11-29T15:46:28Z</time>
      </trkpt>
      <trkpt lat="47.64453" lon="6.16343">
        <ele>234.3</ele>
        <time>2020-11-29T15:46:30Z</time>
      </trkpt>
      <trkpt lat="47.64447" lon="6.16341">
        <ele>234.3</ele>
        <time>2020-11-29T15:46:32Z</time>
      </trkpt>
      <trkpt lat="47.64442" lon="6.16337">
        <ele>234.3</ele>
        <time>2020-11-29T15:46:34Z</time>
      </trkpt>
      <trkpt lat="47.64437" lon="6.16331">
        <ele>234.2</ele>
        <time>2020-11-29T15:46:36Z</time>
      </trkpt>
      <trkpt lat="47.64435" lon="6.16324">
        <ele>234</ele>
        <time>2020-11-29T15:46:39Z</time>
      </trkpt>
      <trkpt lat="47.64432" lon="6.16314">
        <ele>233.6</ele>
        <time>2020-11-29T15:46:40Z</time>
      </trkpt>
      <trkpt lat="47.64427" lon="6.16308">
        <ele>233.4</ele>
        <time>2020-11-29T15:46:43Z</time>
      </trkpt>
      <trkpt lat="47.64421" lon="6.16304">
        <ele>233.3</ele>
        <time>2020-11-29T15:46:44Z</time>
      </trkpt>
      <trkpt lat="47.64416" lon="6.16304">
        <ele>233.3</ele>
        <time>2020-11-29T15:46:45Z</time>
      </trkpt>
      <trkpt lat="47.6441" lon="6.1631">
        <ele>233.6</ele>
        <time>2020-11-29T15:46:47Z</time>
      </trkpt>
      <trkpt lat="47.64405" lon="6.16318">
        <ele>233.9</ele>
        <time>2020-11-29T15:46:49Z</time>
      </trkpt>
      <trkpt lat="47.64401" lon="6.16322">
        <ele>234.1</ele>
        <time>2020-11-29T15:46:50Z</time>
      </trkpt>
      <trkpt lat="47.64394" lon="6.16328">
        <ele>234.4</ele>
        <time>2020-11-29T15:46:52Z</time>
      </trkpt>
      <trkpt lat="47.64388" lon="6.1633">
        <ele>234.6</ele>
        <time>2020-11-29T15:46:54Z</time>
      </trkpt>
      <trkpt lat="47.64383" lon="6.16332">
        <ele>234.8</ele>
        <time>2020-11-29T15:46:55Z</time>
      </trkpt>
      <trkpt lat="47.64376" lon="6.16334">
        <ele>235</ele>
        <time>2020-11-29T15:46:57Z</time>
      </trkpt>
      <trkpt lat="47.6437" lon="6.16338">
        <ele>235.1</ele>
        <time>2020-11-29T15:46:59Z</time>
      </trkpt>
      <trkpt lat="47.64367" lon="6.16343">
        <ele>235.1</ele>
        <time>2020-11-29T15:47:01Z</time>
      </trkpt>
      <trkpt lat="47.64363" lon="6.1635">
        <ele>235.2</ele>
        <time>2020-11-29T15:47:02Z</time>
      </trkpt>
      <trkpt lat="47.6436" lon="6.16356">
        <ele>235.2</ele>
        <time>2020-11-29T15:47:03Z</time>
      </trkpt>
      <trkpt lat="47.64357" lon="6.16364">
        <ele>235.2</ele>
        <time>2020-11-29T15:47:06Z</time>
      </trkpt>
      <trkpt lat="47.64354" lon="6.16372">
        <ele>235.2</ele>
        <time>2020-11-29T15:47:08Z</time>
      </trkpt>
      <trkpt lat="47.64351" lon="6.16383">
        <ele>235.1</ele>
        <time>2020-11-29T15:47:09Z</time>
      </trkpt>
      <trkpt lat="47.64348" lon="6.16392">
        <ele>235.1</ele>
        <time>2020-11-29T15:47:11Z</time>
      </trkpt>
      <trkpt lat="47.64346" lon="6.16402">
        <ele>235</ele>
        <time>2020-11-29T15:47:14Z</time>
      </trkpt>
      <trkpt lat="47.64343" lon="6.16414">
        <ele>234.9</ele>
        <time>2020-11-29T15:47:15Z</time>
      </trkpt>
      <trkpt lat="47.6434" lon="6.16425">
        <ele>234.9</ele>
        <time>2020-11-29T15:47:17Z</time>
      </trkpt>
      <trkpt lat="47.64337" lon="6.16438">
        <ele>234.9</ele>
        <time>2020-11-29T15:47:19Z</time>
      </trkpt>
      <trkpt lat="47.64333" lon="6.16451">
        <ele>235</ele>
        <time>2020-11-29T15:47:21Z</time>
      </trkpt>
      <trkpt lat="47.64331" lon="6.16457">
        <ele>235.1</ele>
        <time>2020-11-29T15:47:23Z</time>
      </trkpt>
      <trkpt lat="47.64325" lon="6.16479">
        <ele>235.3</ele>
        <time>2020-11-29T15:47:26Z</time>
      </trkpt>
      <trkpt lat="47.64322" lon="6.16492">
        <ele>235.4</ele>
        <time>2020-11-29T15:47:27Z</time>
      </trkpt>
      <trkpt lat="47.6432" lon="6.165">
        <ele>235.5</ele>
        <time>2020-11-29T15:47:29Z</time>
      </trkpt>
      <trkpt lat="47.64314" lon="6.16521">
        <ele>235.7</ele>
        <time>2020-11-29T15:47:31Z</time>
      </trkpt>
      <trkpt lat="47.64311" lon="6.16533">
        <ele>235.8</ele>
        <time>2020-11-29T15:47:33Z</time>
      </trkpt>
      <trkpt lat="47.64308" lon="6.16544">
        <ele>235.9</ele>
        <time>2020-11-29T15:47:36Z</time>
      </trkpt>
      <trkpt lat="47.64304" lon="6.16556">
        <ele>236.1</ele>
        <time>2020-11-29T15:47:37Z</time>
      </trkpt>
      <trkpt lat="47.64301" lon="6.16567">
        <ele>236.2</ele>
        <time>2020-11-29T15:47:39Z</time>
      </trkpt>
      <trkpt lat="47.64298" lon="6.16576">
        <ele>236.3</ele>
        <time>2020-11-29T15:47:41Z</time>
      </trkpt>
      <trkpt lat="47.64296" lon="6.16584">
        <ele>236.4</ele>
        <time>2020-11-29T15:47:43Z</time>
      </trkpt>
      <trkpt lat="47.64294" lon="6.16592">
        <ele>236.5</ele>
        <time>2020-11-29T15:47:45Z</time>
      </trkpt>
      <trkpt lat="47.64292" lon="6.166">
        <ele>236.7</ele>
        <time>2020-11-29T15:47:47Z</time>
      </trkpt>
      <trkpt lat="47.6429" lon="6.16606">
        <ele>236.8</ele>
        <time>2020-11-29T15:47:49Z</time>
      </trkpt>
      <trkpt lat="47.64287" lon="6.16613">
        <ele>237</ele>
        <time>2020-11-29T15:47:52Z</time>
      </trkpt>
      <trkpt lat="47.64284" lon="6.16619">
        <ele>237.2</ele>
        <time>2020-11-29T15:47:54Z</time>
      </trkpt>
      <trkpt lat="47.64282" lon="6.16628">
        <ele>237.4</ele>
        <time>2020-11-29T15:47:57Z</time>
      </trkpt>
      <trkpt lat="47.6428" lon="6.16635">
        <ele>237.5</ele>
        <time>2020-11-29T15:47:59Z</time>
      </trkpt>
      <trkpt lat="47.64278" lon="6.16644">
        <ele>237.7</ele>
        <time>2020-11-29T15:48:02Z</time>
      </trkpt>
      <trkpt lat="47.64275" lon="6.1665">
        <ele>237.9</ele>
        <time>2020-11-29T15:48:04Z</time>
      </trkpt>
      <trkpt lat="47.64273" lon="6.16659">
        <ele>238.1</ele>
        <time>2020-11-29T15:48:07Z</time>
      </trkpt>
      <trkpt lat="47.6427" lon="6.16667">
        <ele>238.3</ele>
        <time>2020-11-29T15:48:10Z</time>
      </trkpt>
      <trkpt lat="47.64269" lon="6.16674">
        <ele>238.3</ele>
        <time>2020-11-29T15:48:12Z</time>
      </trkpt>
      <trkpt lat="47.64267" lon="6.1668">
        <ele>238.3</ele>
        <time>2020-11-29T15:48:14Z</time>
      </trkpt>
      <trkpt lat="47.64265" lon="6.16689">
        <ele>238.4</ele>
        <time>2020-11-29T15:48:17Z</time>
      </trkpt>
      <trkpt lat="47.64263" lon="6.16698">
        <ele>238.5</ele>
        <time>2020-11-29T15:48:20Z</time>
      </trkpt>
      <trkpt lat="47.64261" lon="6.16705">
        <ele>238.5</ele>
        <time>2020-11-29T15:48:22Z</time>
      </trkpt>
      <trkpt lat="47.64259" lon="6.16711">
        <ele>238.6</ele>
        <time>2020-11-29T15:48:25Z</time>
      </trkpt>
      <trkpt lat="47.64257" lon="6.16718">
        <ele>238.7</ele>
        <time>2020-11-29T15:48:26Z</time>
      </trkpt>
      <trkpt lat="47.64255" lon="6.16725">
        <ele>238.8</ele>
        <time>2020-11-29T15:48:28Z</time>
      </trkpt>
      <trkpt lat="47.64253" lon="6.16732">
        <ele>238.9</ele>
        <time>2020-11-29T15:48:30Z</time>
      </trkpt>
      <trkpt lat="47.6425" lon="6.16741">
        <ele>239</ele>
        <time>2020-11-29T15:48:32Z</time>
      </trkpt>
      <trkpt lat="47.64249" lon="6.16748">
        <ele>239</ele>
        <time>2020-11-29T15:48:35Z</time>
      </trkpt>
      <trkpt lat="47.64246" lon="6.16755">
        <ele>238.9</ele>
        <time>2020-11-29T15:48:36Z</time>
      </trkpt>
      <trkpt lat="47.64245" lon="6.16763">
        <ele>238.7</ele>
        <time>2020-11-29T15:48:38Z</time>
      </trkpt>
      <trkpt lat="47.64244" lon="6.16771">
        <ele>238.5</ele>
        <time>2020-11-29T15:48:40Z</time>
      </trkpt>
      <trkpt lat="47.64241" lon="6.16779">
        <ele>238.4</ele>
        <time>2020-11-29T15:48:42Z</time>
      </trkpt>
      <trkpt lat="47.64239" lon="6.16785">
        <ele>238.3</ele>
        <time>2020-11-29T15:48:44Z</time>
      </trkpt>
      <trkpt lat="47.64238" lon="6.16792">
        <ele>238.2</ele>
        <time>2020-11-29T15:48:45Z</time>
      </trkpt>
      <trkpt lat="47.64236" lon="6.16803">
        <ele>238.1</ele>
        <time>2020-11-29T15:48:47Z</time>
      </trkpt>
      <trkpt lat="47.64234" lon="6.16811">
        <ele>238</ele>
        <time>2020-11-29T15:48:49Z</time>
      </trkpt>
      <trkpt lat="47.64232" lon="6.1682">
        <ele>237.9</ele>
        <time>2020-11-29T15:48:51Z</time>
      </trkpt>
      <trkpt lat="47.64231" lon="6.1683">
        <ele>237.8</ele>
        <time>2020-11-29T15:48:53Z</time>
      </trkpt>
      <trkpt lat="47.64229" lon="6.16837">
        <ele>237.7</ele>
        <time>2020-11-29T15:48:56Z</time>
      </trkpt>
      <trkpt lat="47.64227" lon="6.16848">
        <ele>237.5</ele>
        <time>2020-11-29T15:48:57Z</time>
      </trkpt>
      <trkpt lat="47.64225" lon="6.16856">
        <ele>237.3</ele>
        <time>2020-11-29T15:48:59Z</time>
      </trkpt>
      <trkpt lat="47.64223" lon="6.16864">
        <ele>237.2</ele>
        <time>2020-11-29T15:49:01Z</time>
      </trkpt>
      <trkpt lat="47.64221" lon="6.16872">
        <ele>237.1</ele>
        <time>2020-11-29T15:49:03Z</time>
      </trkpt>
      <trkpt lat="47.64219" lon="6.1688">
        <ele>237</ele>
        <time>2020-11-29T15:49:05Z</time>
      </trkpt>
      <trkpt lat="47.64217" lon="6.16887">
        <ele>236.9</ele>
        <time>2020-11-29T15:49:07Z</time>
      </trkpt>
      <trkpt lat="47.64216" lon="6.16895">
        <ele>236.8</ele>
        <time>2020-11-29T15:49:09Z</time>
      </trkpt>
      <trkpt lat="47.64214" lon="6.16904">
        <ele>236.6</ele>
        <time>2020-11-29T15:49:11Z</time>
      </trkpt>
      <trkpt lat="47.64212" lon="6.16912">
        <ele>236.5</ele>
        <time>2020-11-29T15:49:13Z</time>
      </trkpt>
      <trkpt lat="47.64211" lon="6.1692">
        <ele>236.3</ele>
        <time>2020-11-29T15:49:15Z</time>
      </trkpt>
      <trkpt lat="47.64208" lon="6.16929">
        <ele>236.1</ele>
        <time>2020-11-29T15:49:17Z</time>
      </trkpt>
      <trkpt lat="47.64205" lon="6.16938">
        <ele>236</ele>
        <time>2020-11-29T15:49:19Z</time>
      </trkpt>
      <trkpt lat="47.64203" lon="6.16947">
        <ele>235.8</ele>
        <time>2020-11-29T15:49:22Z</time>
      </trkpt>
      <trkpt lat="47.64199" lon="6.16961">
        <ele>235.6</ele>
        <time>2020-11-29T15:49:23Z</time>
      </trkpt>
      <trkpt lat="47.64196" lon="6.16972">
        <ele>235.4</ele>
        <time>2020-11-29T15:49:26Z</time>
      </trkpt>
      <trkpt lat="47.64194" lon="6.16981">
        <ele>235.2</ele>
        <time>2020-11-29T15:49:27Z</time>
      </trkpt>
      <trkpt lat="47.64189" lon="6.17">
        <ele>234.9</ele>
        <time>2020-11-29T15:49:30Z</time>
      </trkpt>
      <trkpt lat="47.64184" lon="6.17026">
        <ele>233.4</ele>
        <time>2020-11-29T15:49:31Z</time>
      </trkpt>
      <trkpt lat="47.64182" lon="6.17035">
        <ele>232.8</ele>
        <time>2020-11-29T15:49:32Z</time>
      </trkpt>
      <trkpt lat="47.6418" lon="6.17044">
        <ele>232.3</ele>
        <time>2020-11-29T15:49:33Z</time>
      </trkpt>
      <trkpt lat="47.64177" lon="6.17055">
        <ele>231.6</ele>
        <time>2020-11-29T15:49:34Z</time>
      </trkpt>
      <trkpt lat="47.64174" lon="6.17066">
        <ele>230.9</ele>
        <time>2020-11-29T15:49:35Z</time>
      </trkpt>
      <trkpt lat="47.64172" lon="6.17078">
        <ele>230.2</ele>
        <time>2020-11-29T15:49:36Z</time>
      </trkpt>
      <trkpt lat="47.64169" lon="6.1709">
        <ele>229.4</ele>
        <time>2020-11-29T15:49:37Z</time>
      </trkpt>
      <trkpt lat="47.64167" lon="6.17101">
        <ele>228.5</ele>
        <time>2020-11-29T15:49:38Z</time>
      </trkpt>
      <trkpt lat="47.64164" lon="6.17113">
        <ele>227.6</ele>
        <time>2020-11-29T15:49:39Z</time>
      </trkpt>
      <trkpt lat="47.64161" lon="6.17125">
        <ele>226.7</ele>
        <time>2020-11-29T15:49:40Z</time>
      </trkpt>
      <trkpt lat="47.64159" lon="6.17137">
        <ele>225.8</ele>
        <time>2020-11-29T15:49:41Z</time>
      </trkpt>
      <trkpt lat="47.64156" lon="6.17149">
        <ele>224.9</ele>
        <time>2020-11-29T15:49:42Z</time>
      </trkpt>
      <trkpt lat="47.64153" lon="6.17161">
        <ele>224</ele>
        <time>2020-11-29T15:49:43Z</time>
      </trkpt>
      <trkpt lat="47.64151" lon="6.17173">
        <ele>223.7</ele>
        <time>2020-11-29T15:49:44Z</time>
      </trkpt>
      <trkpt lat="47.64148" lon="6.17185">
        <ele>223.6</ele>
        <time>2020-11-29T15:49:45Z</time>
      </trkpt>
      <trkpt lat="47.64146" lon="6.17196">
        <ele>223.5</ele>
        <time>2020-11-29T15:49:46Z</time>
      </trkpt>
      <trkpt lat="47.64143" lon="6.17207">
        <ele>223.4</ele>
        <time>2020-11-29T15:49:47Z</time>
      </trkpt>
      <trkpt lat="47.64141" lon="6.17217">
        <ele>223.3</ele>
        <time>2020-11-29T15:49:48Z</time>
      </trkpt>
      <trkpt lat="47.64138" lon="6.17226">
        <ele>223.2</ele>
        <time>2020-11-29T15:49:49Z</time>
      </trkpt>
      <trkpt lat="47.64135" lon="6.17235">
        <ele>223.1</ele>
        <time>2020-11-29T15:49:50Z</time>
      </trkpt>
      <trkpt lat="47.64132" lon="6.17243">
        <ele>223</ele>
        <time>2020-11-29T15:49:51Z</time>
      </trkpt>
      <trkpt lat="47.6413" lon="6.17251">
        <ele>222.8</ele>
        <time>2020-11-29T15:49:52Z</time>
      </trkpt>
      <trkpt lat="47.64127" lon="6.17259">
        <ele>222.6</ele>
        <time>2020-11-29T15:49:53Z</time>
      </trkpt>
      <trkpt lat="47.64124" lon="6.17265">
        <ele>222.4</ele>
        <time>2020-11-29T15:49:54Z</time>
      </trkpt>
      <trkpt lat="47.64121" lon="6.17271">
        <ele>222.2</ele>
        <time>2020-11-29T15:49:55Z</time>
      </trkpt>
      <trkpt lat="47.64118" lon="6.17277">
        <ele>222</ele>
        <time>2020-11-29T15:49:56Z</time>
      </trkpt>
      <trkpt lat="47.64115" lon="6.17283">
        <ele>221.8</ele>
        <time>2020-11-29T15:49:57Z</time>
      </trkpt>
      <trkpt lat="47.6411" lon="6.17294">
        <ele>221.4</ele>
        <time>2020-11-29T15:49:59Z</time>
      </trkpt>
      <trkpt lat="47.64106" lon="6.17302">
        <ele>221.1</ele>
        <time>2020-11-29T15:50:01Z</time>
      </trkpt>
      <trkpt lat="47.64103" lon="6.17308">
        <ele>220.9</ele>
        <time>2020-11-29T15:50:02Z</time>
      </trkpt>
      <trkpt lat="47.64099" lon="6.17314">
        <ele>220.7</ele>
        <time>2020-11-29T15:50:03Z</time>
      </trkpt>
      <trkpt lat="47.64096" lon="6.17319">
        <ele>220.5</ele>
        <time>2020-11-29T15:50:04Z</time>
      </trkpt>
      <trkpt lat="47.64093" lon="6.17324">
        <ele>220.3</ele>
        <time>2020-11-29T15:50:05Z</time>
      </trkpt>
      <trkpt lat="47.64086" lon="6.17332">
        <ele>220</ele>
        <time>2020-11-29T15:50:07Z</time>
      </trkpt>
      <trkpt lat="47.64083" lon="6.17337">
        <ele>219.9</ele>
        <time>2020-11-29T15:50:08Z</time>
      </trkpt>
      <trkpt lat="47.64076" lon="6.17346">
        <ele>219.7</ele>
        <time>2020-11-29T15:50:10Z</time>
      </trkpt>
      <trkpt lat="47.64072" lon="6.1735">
        <ele>219.7</ele>
        <time>2020-11-29T15:50:11Z</time>
      </trkpt>
      <trkpt lat="47.64068" lon="6.17354">
        <ele>219.6</ele>
        <time>2020-11-29T15:50:12Z</time>
      </trkpt>
      <trkpt lat="47.64065" lon="6.17358">
        <ele>219.5</ele>
        <time>2020-11-29T15:50:13Z</time>
      </trkpt>
      <trkpt lat="47.64057" lon="6.17366">
        <ele>219.5</ele>
        <time>2020-11-29T15:50:15Z</time>
      </trkpt>
      <trkpt lat="47.64053" lon="6.17369">
        <ele>219.4</ele>
        <time>2020-11-29T15:50:16Z</time>
      </trkpt>
      <trkpt lat="47.64046" lon="6.17374">
        <ele>219.4</ele>
        <time>2020-11-29T15:50:18Z</time>
      </trkpt>
      <trkpt lat="47.64039" lon="6.17379">
        <ele>219.4</ele>
        <time>2020-11-29T15:50:20Z</time>
      </trkpt>
      <trkpt lat="47.64031" lon="6.17384">
        <ele>219.4</ele>
        <time>2020-11-29T15:50:22Z</time>
      </trkpt>
      <trkpt lat="47.64026" lon="6.17385">
        <ele>219.5</ele>
        <time>2020-11-29T15:50:25Z</time>
      </trkpt>
      <trkpt lat="47.64019" lon="6.17385">
        <ele>219.7</ele>
        <time>2020-11-29T15:50:26Z</time>
      </trkpt>
      <trkpt lat="47.64013" lon="6.17392">
        <ele>219.6</ele>
        <time>2020-11-29T15:50:28Z</time>
      </trkpt>
      <trkpt lat="47.64008" lon="6.17396">
        <ele>219.5</ele>
        <time>2020-11-29T15:50:29Z</time>
      </trkpt>
      <trkpt lat="47.64001" lon="6.17402">
        <ele>219.5</ele>
        <time>2020-11-29T15:50:31Z</time>
      </trkpt>
      <trkpt lat="47.63995" lon="6.17409">
        <ele>219.1</ele>
        <time>2020-11-29T15:50:34Z</time>
      </trkpt>
      <trkpt lat="47.63993" lon="6.17419">
        <ele>218.8</ele>
        <time>2020-11-29T15:50:36Z</time>
      </trkpt>
      <trkpt lat="47.64001" lon="6.17428">
        <ele>219</ele>
        <time>2020-11-29T15:50:39Z</time>
      </trkpt>
      <trkpt lat="47.64007" lon="6.1743">
        <ele>218.8</ele>
        <time>2020-11-29T15:50:40Z</time>
      </trkpt>
      <trkpt lat="47.64012" lon="6.17435">
        <ele>218.7</ele>
        <time>2020-11-29T15:50:42Z</time>
      </trkpt>
      <trkpt lat="47.64017" lon="6.17442">
        <ele>218.6</ele>
        <time>2020-11-29T15:50:43Z</time>
      </trkpt>
      <trkpt lat="47.64022" lon="6.1745">
        <ele>218.5</ele>
        <time>2020-11-29T15:50:44Z</time>
      </trkpt>
      <trkpt lat="47.64028" lon="6.17459">
        <ele>218.3</ele>
        <time>2020-11-29T15:50:47Z</time>
      </trkpt>
      <trkpt lat="47.64032" lon="6.17466">
        <ele>218.2</ele>
        <time>2020-11-29T15:50:48Z</time>
      </trkpt>
      <trkpt lat="47.64036" lon="6.17472">
        <ele>218.1</ele>
        <time>2020-11-29T15:50:49Z</time>
      </trkpt>
      <trkpt lat="47.64043" lon="6.17482">
        <ele>218</ele>
        <time>2020-11-29T15:50:50Z</time>
      </trkpt>
      <trkpt lat="47.64047" lon="6.17487">
        <ele>217.9</ele>
        <time>2020-11-29T15:50:51Z</time>
      </trkpt>
      <trkpt lat="47.6405" lon="6.17492">
        <ele>217.8</ele>
        <time>2020-11-29T15:50:52Z</time>
      </trkpt>
      <trkpt lat="47.64054" lon="6.17497">
        <ele>217.7</ele>
        <time>2020-11-29T15:50:53Z</time>
      </trkpt>
      <trkpt lat="47.64058" lon="6.17501">
        <ele>217.6</ele>
        <time>2020-11-29T15:50:54Z</time>
      </trkpt>
      <trkpt lat="47.64064" lon="6.1751">
        <ele>217.4</ele>
        <time>2020-11-29T15:50:56Z</time>
      </trkpt>
      <trkpt lat="47.6407" lon="6.17518">
        <ele>217.1</ele>
        <time>2020-11-29T15:50:58Z</time>
      </trkpt>
      <trkpt lat="47.64074" lon="6.17523">
        <ele>217</ele>
        <time>2020-11-29T15:50:59Z</time>
      </trkpt>
      <trkpt lat="47.64079" lon="6.1753">
        <ele>216.8</ele>
        <time>2020-11-29T15:51:02Z</time>
      </trkpt>
      <trkpt lat="47.64082" lon="6.17534">
        <ele>216.6</ele>
        <time>2020-11-29T15:51:03Z</time>
      </trkpt>
      <trkpt lat="47.64089" lon="6.17543">
        <ele>216.6</ele>
        <time>2020-11-29T15:51:04Z</time>
      </trkpt>
      <trkpt lat="47.64094" lon="6.17549">
        <ele>216.6</ele>
        <time>2020-11-29T15:51:07Z</time>
      </trkpt>
      <trkpt lat="47.64103" lon="6.1756">
        <ele>216.8</ele>
        <time>2020-11-29T15:51:09Z</time>
      </trkpt>
      <trkpt lat="47.64108" lon="6.17567">
        <ele>216.9</ele>
        <time>2020-11-29T15:51:11Z</time>
      </trkpt>
      <trkpt lat="47.64114" lon="6.17576">
        <ele>217.1</ele>
        <time>2020-11-29T15:51:13Z</time>
      </trkpt>
      <trkpt lat="47.64119" lon="6.17584">
        <ele>217.3</ele>
        <time>2020-11-29T15:51:15Z</time>
      </trkpt>
      <trkpt lat="47.64122" lon="6.1759">
        <ele>217.4</ele>
        <time>2020-11-29T15:51:17Z</time>
      </trkpt>
      <trkpt lat="47.64126" lon="6.17596">
        <ele>217.5</ele>
        <time>2020-11-29T15:51:18Z</time>
      </trkpt>
      <trkpt lat="47.64131" lon="6.17603">
        <ele>217.6</ele>
        <time>2020-11-29T15:51:20Z</time>
      </trkpt>
      <trkpt lat="47.64136" lon="6.17611">
        <ele>217.7</ele>
        <time>2020-11-29T15:51:22Z</time>
      </trkpt>
      <trkpt lat="47.64143" lon="6.17619">
        <ele>217.8</ele>
        <time>2020-11-29T15:51:24Z</time>
      </trkpt>
      <trkpt lat="47.64148" lon="6.17627">
        <ele>217.9</ele>
        <time>2020-11-29T15:51:26Z</time>
      </trkpt>
      <trkpt lat="47.64152" lon="6.17633">
        <ele>218</ele>
        <time>2020-11-29T15:51:29Z</time>
      </trkpt>
      <trkpt lat="47.64162" lon="6.17646">
        <ele>218.1</ele>
        <time>2020-11-29T15:51:32Z</time>
      </trkpt>
      <trkpt lat="47.64168" lon="6.17655">
        <ele>218.2</ele>
        <time>2020-11-29T15:51:33Z</time>
      </trkpt>
      <trkpt lat="47.64174" lon="6.17663">
        <ele>218.2</ele>
        <time>2020-11-29T15:51:35Z</time>
      </trkpt>
      <trkpt lat="47.6418" lon="6.17671">
        <ele>218.2</ele>
        <time>2020-11-29T15:51:37Z</time>
      </trkpt>
      <trkpt lat="47.64186" lon="6.17679">
        <ele>218</ele>
        <time>2020-11-29T15:51:39Z</time>
      </trkpt>
      <trkpt lat="47.64192" lon="6.17687">
        <ele>217.9</ele>
        <time>2020-11-29T15:51:41Z</time>
      </trkpt>
      <trkpt lat="47.64198" lon="6.17695">
        <ele>217.7</ele>
        <time>2020-11-29T15:51:43Z</time>
      </trkpt>
      <trkpt lat="47.64205" lon="6.17703">
        <ele>217.6</ele>
        <time>2020-11-29T15:51:45Z</time>
      </trkpt>
      <trkpt lat="47.6421" lon="6.17711">
        <ele>217.4</ele>
        <time>2020-11-29T15:51:47Z</time>
      </trkpt>
      <trkpt lat="47.64217" lon="6.1772">
        <ele>217.3</ele>
        <time>2020-11-29T15:51:49Z</time>
      </trkpt>
      <trkpt lat="47.64222" lon="6.17727">
        <ele>217.2</ele>
        <time>2020-11-29T15:51:51Z</time>
      </trkpt>
      <trkpt lat="47.64226" lon="6.17731">
        <ele>217.1</ele>
        <time>2020-11-29T15:51:52Z</time>
      </trkpt>
      <trkpt lat="47.64233" lon="6.17739">
        <ele>217</ele>
        <time>2020-11-29T15:51:54Z</time>
      </trkpt>
      <trkpt lat="47.64239" lon="6.17746">
        <ele>216.9</ele>
        <time>2020-11-29T15:51:56Z</time>
      </trkpt>
      <trkpt lat="47.64246" lon="6.17752">
        <ele>216.9</ele>
        <time>2020-11-29T15:51:58Z</time>
      </trkpt>
      <trkpt lat="47.64253" lon="6.17758">
        <ele>217.2</ele>
        <time>2020-11-29T15:52:00Z</time>
      </trkpt>
      <trkpt lat="47.64261" lon="6.17763">
        <ele>217.6</ele>
        <time>2020-11-29T15:52:02Z</time>
      </trkpt>
      <trkpt lat="47.64269" lon="6.17768">
        <ele>218</ele>
        <time>2020-11-29T15:52:04Z</time>
      </trkpt>
      <trkpt lat="47.64278" lon="6.17772">
        <ele>218.3</ele>
        <time>2020-11-29T15:52:06Z</time>
      </trkpt>
      <trkpt lat="47.64286" lon="6.17776">
        <ele>218.6</ele>
        <time>2020-11-29T15:52:08Z</time>
      </trkpt>
      <trkpt lat="47.64292" lon="6.17779">
        <ele>218.8</ele>
        <time>2020-11-29T15:52:10Z</time>
      </trkpt>
      <trkpt lat="47.64298" lon="6.17782">
        <ele>219</ele>
        <time>2020-11-29T15:52:11Z</time>
      </trkpt>
      <trkpt lat="47.64305" lon="6.17786">
        <ele>219.2</ele>
        <time>2020-11-29T15:52:13Z</time>
      </trkpt>
      <trkpt lat="47.64313" lon="6.17791">
        <ele>219.4</ele>
        <time>2020-11-29T15:52:15Z</time>
      </trkpt>
      <trkpt lat="47.64317" lon="6.17793">
        <ele>219.5</ele>
        <time>2020-11-29T15:52:17Z</time>
      </trkpt>
      <trkpt lat="47.64324" lon="6.17797">
        <ele>219.6</ele>
        <time>2020-11-29T15:52:18Z</time>
      </trkpt>
      <trkpt lat="47.64331" lon="6.178">
        <ele>219.7</ele>
        <time>2020-11-29T15:52:20Z</time>
      </trkpt>
      <trkpt lat="47.64336" lon="6.17803">
        <ele>219.8</ele>
        <time>2020-11-29T15:52:22Z</time>
      </trkpt>
      <trkpt lat="47.64342" lon="6.17806">
        <ele>219.8</ele>
        <time>2020-11-29T15:52:23Z</time>
      </trkpt>
      <trkpt lat="47.64349" lon="6.1781">
        <ele>219.8</ele>
        <time>2020-11-29T15:52:25Z</time>
      </trkpt>
      <trkpt lat="47.64356" lon="6.17815">
        <ele>219.8</ele>
        <time>2020-11-29T15:52:27Z</time>
      </trkpt>
      <trkpt lat="47.64361" lon="6.17822">
        <ele>219.8</ele>
        <time>2020-11-29T15:52:29Z</time>
      </trkpt>
      <trkpt lat="47.64362" lon="6.17831">
        <ele>219.7</ele>
        <time>2020-11-29T15:52:31Z</time>
      </trkpt>
      <trkpt lat="47.64363" lon="6.17838">
        <ele>219.8</ele>
        <time>2020-11-29T15:52:33Z</time>
      </trkpt>
      <trkpt lat="47.64368" lon="6.17845">
        <ele>219.9</ele>
        <time>2020-11-29T15:52:36Z</time>
      </trkpt>
      <trkpt lat="47.64372" lon="6.17855">
        <ele>220.1</ele>
        <time>2020-11-29T15:52:39Z</time>
      </trkpt>
      <trkpt lat="47.64374" lon="6.17863">
        <ele>220.2</ele>
        <time>2020-11-29T15:52:41Z</time>
      </trkpt>
      <trkpt lat="47.64378" lon="6.1787">
        <ele>220.3</ele>
        <time>2020-11-29T15:52:43Z</time>
      </trkpt>
      <trkpt lat="47.64382" lon="6.17876">
        <ele>220.4</ele>
        <time>2020-11-29T15:52:45Z</time>
      </trkpt>
      <trkpt lat="47.64387" lon="6.17883">
        <ele>220.5</ele>
        <time>2020-11-29T15:52:48Z</time>
      </trkpt>
      <trkpt lat="47.64392" lon="6.17891">
        <ele>220.6</ele>
        <time>2020-11-29T15:52:49Z</time>
      </trkpt>
      <trkpt lat="47.64397" lon="6.17899">
        <ele>220.7</ele>
        <time>2020-11-29T15:52:51Z</time>
      </trkpt>
      <trkpt lat="47.64401" lon="6.17907">
        <ele>220.8</ele>
        <time>2020-11-29T15:52:53Z</time>
      </trkpt>
      <trkpt lat="47.64405" lon="6.17915">
        <ele>220.9</ele>
        <time>2020-11-29T15:52:55Z</time>
      </trkpt>
      <trkpt lat="47.64409" lon="6.17923">
        <ele>221</ele>
        <time>2020-11-29T15:52:58Z</time>
      </trkpt>
      <trkpt lat="47.64412" lon="6.17929">
        <ele>221.1</ele>
        <time>2020-11-29T15:52:59Z</time>
      </trkpt>
      <trkpt lat="47.64416" lon="6.17937">
        <ele>221.2</ele>
        <time>2020-11-29T15:53:01Z</time>
      </trkpt>
      <trkpt lat="47.64423" lon="6.17949">
        <ele>221.5</ele>
        <time>2020-11-29T15:53:03Z</time>
      </trkpt>
      <trkpt lat="47.64429" lon="6.17959">
        <ele>221.7</ele>
        <time>2020-11-29T15:53:05Z</time>
      </trkpt>
      <trkpt lat="47.64433" lon="6.17967">
        <ele>221.8</ele>
        <time>2020-11-29T15:53:07Z</time>
      </trkpt>
      <trkpt lat="47.64438" lon="6.17974">
        <ele>221.9</ele>
        <time>2020-11-29T15:53:09Z</time>
      </trkpt>
      <trkpt lat="47.64442" lon="6.17981">
        <ele>222.1</ele>
        <time>2020-11-29T15:53:11Z</time>
      </trkpt>
      <trkpt lat="47.64446" lon="6.17989">
        <ele>222.2</ele>
        <time>2020-11-29T15:53:13Z</time>
      </trkpt>
      <trkpt lat="47.64449" lon="6.17995">
        <ele>222.3</ele>
        <time>2020-11-29T15:53:15Z</time>
      </trkpt>
      <trkpt lat="47.64452" lon="6.18003">
        <ele>222.4</ele>
        <time>2020-11-29T15:53:16Z</time>
      </trkpt>
      <trkpt lat="47.64457" lon="6.18012">
        <ele>222.6</ele>
        <time>2020-11-29T15:53:18Z</time>
      </trkpt>
      <trkpt lat="47.64463" lon="6.1802">
        <ele>222.7</ele>
        <time>2020-11-29T15:53:20Z</time>
      </trkpt>
      <trkpt lat="47.64468" lon="6.18027">
        <ele>222.7</ele>
        <time>2020-11-29T15:53:22Z</time>
      </trkpt>
      <trkpt lat="47.64473" lon="6.18033">
        <ele>222.8</ele>
        <time>2020-11-29T15:53:24Z</time>
      </trkpt>
      <trkpt lat="47.64478" lon="6.18038">
        <ele>222.9</ele>
        <time>2020-11-29T15:53:26Z</time>
      </trkpt>
      <trkpt lat="47.64482" lon="6.18044">
        <ele>222.9</ele>
        <time>2020-11-29T15:53:28Z</time>
      </trkpt>
      <trkpt lat="47.64486" lon="6.18048">
        <ele>222.9</ele>
        <time>2020-11-29T15:53:30Z</time>
      </trkpt>
      <trkpt lat="47.6449" lon="6.18051">
        <ele>223</ele>
        <time>2020-11-29T15:53:32Z</time>
      </trkpt>
      <trkpt lat="47.64495" lon="6.18053">
        <ele>223</ele>
        <time>2020-11-29T15:53:35Z</time>
      </trkpt>
      <trkpt lat="47.64501" lon="6.18054">
        <ele>223.1</ele>
        <time>2020-11-29T15:53:36Z</time>
      </trkpt>
      <trkpt lat="47.64506" lon="6.18055">
        <ele>224</ele>
        <time>2020-11-29T15:53:38Z</time>
      </trkpt>
      <trkpt lat="47.6451" lon="6.18059">
        <ele>224.8</ele>
        <time>2020-11-29T15:53:40Z</time>
      </trkpt>
      <trkpt lat="47.6451" lon="6.18066">
        <ele>224.9</ele>
        <time>2020-11-29T15:53:42Z</time>
      </trkpt>
      <trkpt lat="47.6451" lon="6.18074">
        <ele>224.9</ele>
        <time>2020-11-29T15:53:45Z</time>
      </trkpt>
      <trkpt lat="47.64507" lon="6.18083">
        <ele>224.4</ele>
        <time>2020-11-29T15:53:48Z</time>
      </trkpt>
      <trkpt lat="47.64505" lon="6.18089">
        <ele>224.2</ele>
        <time>2020-11-29T15:53:50Z</time>
      </trkpt>
      <trkpt lat="47.64502" lon="6.181">
        <ele>223.9</ele>
        <time>2020-11-29T15:53:52Z</time>
      </trkpt>
      <trkpt lat="47.645" lon="6.18107">
        <ele>223.6</ele>
        <time>2020-11-29T15:53:53Z</time>
      </trkpt>
      <trkpt lat="47.64498" lon="6.18118">
        <ele>223.8</ele>
        <time>2020-11-29T15:53:56Z</time>
      </trkpt>
      <trkpt lat="47.64496" lon="6.18129">
        <ele>224</ele>
        <time>2020-11-29T15:53:57Z</time>
      </trkpt>
      <trkpt lat="47.64494" lon="6.18139">
        <ele>224.2</ele>
        <time>2020-11-29T15:53:58Z</time>
      </trkpt>
      <trkpt lat="47.64495" lon="6.18151">
        <ele>224.5</ele>
        <time>2020-11-29T15:54:00Z</time>
      </trkpt>
      <trkpt lat="47.64496" lon="6.18162">
        <ele>224.8</ele>
        <time>2020-11-29T15:54:03Z</time>
      </trkpt>
      <trkpt lat="47.64498" lon="6.18172">
        <ele>225.3</ele>
        <time>2020-11-29T15:54:04Z</time>
      </trkpt>
      <trkpt lat="47.64501" lon="6.18182">
        <ele>226.2</ele>
        <time>2020-11-29T15:54:06Z</time>
      </trkpt>
      <trkpt lat="47.64501" lon="6.18192">
        <ele>227</ele>
        <time>2020-11-29T15:54:08Z</time>
      </trkpt>
      <trkpt lat="47.64498" lon="6.182">
        <ele>227.3</ele>
        <time>2020-11-29T15:54:11Z</time>
      </trkpt>
      <trkpt lat="47.64496" lon="6.18208">
        <ele>227.7</ele>
        <time>2020-11-29T15:54:13Z</time>
      </trkpt>
      <trkpt lat="47.64494" lon="6.18216">
        <ele>228.1</ele>
        <time>2020-11-29T15:54:14Z</time>
      </trkpt>
      <trkpt lat="47.64492" lon="6.18223">
        <ele>228.4</ele>
        <time>2020-11-29T15:54:16Z</time>
      </trkpt>
      <trkpt lat="47.64489" lon="6.18229">
        <ele>228.5</ele>
        <time>2020-11-29T15:54:18Z</time>
      </trkpt>
      <trkpt lat="47.64486" lon="6.18234">
        <ele>228.6</ele>
        <time>2020-11-29T15:54:20Z</time>
      </trkpt>
      <trkpt lat="47.64482" lon="6.18241">
        <ele>228.6</ele>
        <time>2020-11-29T15:54:22Z</time>
      </trkpt>
      <trkpt lat="47.64479" lon="6.18247">
        <ele>228.6</ele>
        <time>2020-11-29T15:54:24Z</time>
      </trkpt>
      <trkpt lat="47.64476" lon="6.18253">
        <ele>228.8</ele>
        <time>2020-11-29T15:54:26Z</time>
      </trkpt>
      <trkpt lat="47.64472" lon="6.18262">
        <ele>229.5</ele>
        <time>2020-11-29T15:54:27Z</time>
      </trkpt>
      <trkpt lat="47.64469" lon="6.1827">
        <ele>230.1</ele>
        <time>2020-11-29T15:54:29Z</time>
      </trkpt>
      <trkpt lat="47.64465" lon="6.18274">
        <ele>230.1</ele>
        <time>2020-11-29T15:54:31Z</time>
      </trkpt>
      <trkpt lat="47.6446" lon="6.1828">
        <ele>230.2</ele>
        <time>2020-11-29T15:54:34Z</time>
      </trkpt>
      <trkpt lat="47.64455" lon="6.18286">
        <ele>230.2</ele>
        <time>2020-11-29T15:54:37Z</time>
      </trkpt>
      <trkpt lat="47.6445" lon="6.18291">
        <ele>229.8</ele>
        <time>2020-11-29T15:54:40Z</time>
      </trkpt>
      <trkpt lat="47.64446" lon="6.18295">
        <ele>229.8</ele>
        <time>2020-11-29T15:54:42Z</time>
      </trkpt>
      <trkpt lat="47.64442" lon="6.183">
        <ele>229.7</ele>
        <time>2020-11-29T15:54:44Z</time>
      </trkpt>
      <trkpt lat="47.64441" lon="6.18308">
        <ele>230.2</ele>
        <time>2020-11-29T15:54:47Z</time>
      </trkpt>
      <trkpt lat="47.64441" lon="6.18316">
        <ele>230.9</ele>
        <time>2020-11-29T15:54:49Z</time>
      </trkpt>
      <trkpt lat="47.64437" lon="6.18325">
        <ele>231</ele>
        <time>2020-11-29T15:54:51Z</time>
      </trkpt>
    </trkseg>
  </trk>
</gpx>